<?xml version="1.0" encoding="UTF-8" standalone="no" ?>
<gpx xmlns="http://www.topografix.com/GPX/1/1" xmlns:xsi="http://www.w3.org/2001/XMLSchema-instance" xsi:schemaLocation="http://www.topografix.com/GPX/1/1 http://www.topografix.com/GPX/1/1/gpx.xsd" version="1.1" creator="VisuGPX - https://www.visugpx.com">
  <metadata>
    <name>La Chapelle sur Furieuse-Ivrey-Le Mt Poupet-St Thiébaud</name>
  </metadata>
  <trk>
    <name><![CDATA[La Chapelle sur Furieuse-Ivrey-Le Mt Poupet-St Thiébaud_1]]></name>
    <extensions>
      <line xmlns="http://www.topografix.com/GPX/gpx_style/0/2">
        <color>0000FF</color>
        <width>4</width>
      </line>
    </extensions>
    <trkseg>
      <trkpt lat="46.99595" lon="5.85678">
        <ele>256.7</ele>
        <time>2022-05-10T07:06:04Z</time>
      </trkpt>
      <trkpt lat="46.99598" lon="5.85673">
        <ele>279.7</ele>
        <time>2022-05-10T07:08:52Z</time>
      </trkpt>
      <trkpt lat="46.99603" lon="5.8567">
        <ele>280.7</ele>
        <time>2022-05-10T07:08:58Z</time>
      </trkpt>
      <trkpt lat="46.99604" lon="5.85677">
        <ele>279.8</ele>
        <time>2022-05-10T07:09:05Z</time>
      </trkpt>
      <trkpt lat="46.99604" lon="5.85684">
        <ele>280</ele>
        <time>2022-05-10T07:09:09Z</time>
      </trkpt>
      <trkpt lat="46.99609" lon="5.85688">
        <ele>281.2</ele>
        <time>2022-05-10T07:09:14Z</time>
      </trkpt>
      <trkpt lat="46.99614" lon="5.8569">
        <ele>282.1</ele>
        <time>2022-05-10T07:09:19Z</time>
      </trkpt>
      <trkpt lat="46.99618" lon="5.85691">
        <ele>282.9</ele>
        <time>2022-05-10T07:09:25Z</time>
      </trkpt>
      <trkpt lat="46.99622" lon="5.85694">
        <ele>282.4</ele>
        <time>2022-05-10T07:09:29Z</time>
      </trkpt>
      <trkpt lat="46.99626" lon="5.85698">
        <ele>282.1</ele>
        <time>2022-05-10T07:09:33Z</time>
      </trkpt>
      <trkpt lat="46.99631" lon="5.857">
        <ele>281</ele>
        <time>2022-05-10T07:09:38Z</time>
      </trkpt>
      <trkpt lat="46.99636" lon="5.85701">
        <ele>280.5</ele>
        <time>2022-05-10T07:09:42Z</time>
      </trkpt>
      <trkpt lat="46.9964" lon="5.85703">
        <ele>279.9</ele>
        <time>2022-05-10T07:09:46Z</time>
      </trkpt>
      <trkpt lat="46.99645" lon="5.85701">
        <ele>279.9</ele>
        <time>2022-05-10T07:09:52Z</time>
      </trkpt>
      <trkpt lat="46.9965" lon="5.857">
        <ele>279.7</ele>
        <time>2022-05-10T07:09:57Z</time>
      </trkpt>
      <trkpt lat="46.99655" lon="5.85703">
        <ele>278.6</ele>
        <time>2022-05-10T07:10:02Z</time>
      </trkpt>
      <trkpt lat="46.9966" lon="5.85705">
        <ele>277.4</ele>
        <time>2022-05-10T07:10:06Z</time>
      </trkpt>
      <trkpt lat="46.99665" lon="5.85708">
        <ele>275.6</ele>
        <time>2022-05-10T07:10:11Z</time>
      </trkpt>
      <trkpt lat="46.9967" lon="5.85711">
        <ele>274.1</ele>
        <time>2022-05-10T07:10:16Z</time>
      </trkpt>
      <trkpt lat="46.99674" lon="5.85713">
        <ele>273.3</ele>
        <time>2022-05-10T07:10:22Z</time>
      </trkpt>
      <trkpt lat="46.9968" lon="5.85713">
        <ele>273</ele>
        <time>2022-05-10T07:10:26Z</time>
      </trkpt>
      <trkpt lat="46.99684" lon="5.85714">
        <ele>272.5</ele>
        <time>2022-05-10T07:10:30Z</time>
      </trkpt>
      <trkpt lat="46.99689" lon="5.85716">
        <ele>272.3</ele>
        <time>2022-05-10T07:10:34Z</time>
      </trkpt>
      <trkpt lat="46.99693" lon="5.8572">
        <ele>272.7</ele>
        <time>2022-05-10T07:10:39Z</time>
      </trkpt>
      <trkpt lat="46.99695" lon="5.85726">
        <ele>273.7</ele>
        <time>2022-05-10T07:10:44Z</time>
      </trkpt>
      <trkpt lat="46.99694" lon="5.85734">
        <ele>274.3</ele>
        <time>2022-05-10T07:10:49Z</time>
      </trkpt>
      <trkpt lat="46.99693" lon="5.85741">
        <ele>274.1</ele>
        <time>2022-05-10T07:10:53Z</time>
      </trkpt>
      <trkpt lat="46.99693" lon="5.85749">
        <ele>272.8</ele>
        <time>2022-05-10T07:10:58Z</time>
      </trkpt>
      <trkpt lat="46.99692" lon="5.85756">
        <ele>271.9</ele>
        <time>2022-05-10T07:11:02Z</time>
      </trkpt>
      <trkpt lat="46.99691" lon="5.85763">
        <ele>271</ele>
        <time>2022-05-10T07:11:06Z</time>
      </trkpt>
      <trkpt lat="46.99691" lon="5.8577">
        <ele>269.8</ele>
        <time>2022-05-10T07:11:11Z</time>
      </trkpt>
      <trkpt lat="46.99688" lon="5.85777">
        <ele>269.5</ele>
        <time>2022-05-10T07:11:16Z</time>
      </trkpt>
      <trkpt lat="46.99684" lon="5.85782">
        <ele>270.2</ele>
        <time>2022-05-10T07:11:21Z</time>
      </trkpt>
      <trkpt lat="46.99679" lon="5.85785">
        <ele>272.5</ele>
        <time>2022-05-10T07:11:26Z</time>
      </trkpt>
      <trkpt lat="46.99675" lon="5.85786">
        <ele>274.8</ele>
        <time>2022-05-10T07:11:31Z</time>
      </trkpt>
      <trkpt lat="46.9967" lon="5.85788">
        <ele>277</ele>
        <time>2022-05-10T07:11:36Z</time>
      </trkpt>
      <trkpt lat="46.99665" lon="5.85793">
        <ele>278.4</ele>
        <time>2022-05-10T07:11:41Z</time>
      </trkpt>
      <trkpt lat="46.99665" lon="5.858">
        <ele>279.3</ele>
        <time>2022-05-10T07:11:46Z</time>
      </trkpt>
      <trkpt lat="46.9967" lon="5.85798">
        <ele>278.8</ele>
        <time>2022-05-10T07:12:13Z</time>
      </trkpt>
      <trkpt lat="46.99674" lon="5.85802">
        <ele>278.2</ele>
        <time>2022-05-10T07:12:18Z</time>
      </trkpt>
      <trkpt lat="46.99675" lon="5.85809">
        <ele>276.9</ele>
        <time>2022-05-10T07:12:24Z</time>
      </trkpt>
      <trkpt lat="46.99679" lon="5.85814">
        <ele>276.1</ele>
        <time>2022-05-10T07:12:29Z</time>
      </trkpt>
      <trkpt lat="46.9968" lon="5.85822">
        <ele>276.2</ele>
        <time>2022-05-10T07:12:34Z</time>
      </trkpt>
      <trkpt lat="46.99678" lon="5.85829">
        <ele>276.2</ele>
        <time>2022-05-10T07:12:39Z</time>
      </trkpt>
      <trkpt lat="46.99677" lon="5.85837">
        <ele>276.2</ele>
        <time>2022-05-10T07:12:44Z</time>
      </trkpt>
      <trkpt lat="46.99675" lon="5.85844">
        <ele>275.7</ele>
        <time>2022-05-10T07:12:49Z</time>
      </trkpt>
      <trkpt lat="46.99674" lon="5.8585">
        <ele>275.1</ele>
        <time>2022-05-10T07:12:54Z</time>
      </trkpt>
      <trkpt lat="46.99673" lon="5.85857">
        <ele>274.7</ele>
        <time>2022-05-10T07:12:59Z</time>
      </trkpt>
      <trkpt lat="46.99671" lon="5.85863">
        <ele>274.7</ele>
        <time>2022-05-10T07:13:03Z</time>
      </trkpt>
      <trkpt lat="46.9967" lon="5.8587">
        <ele>275.2</ele>
        <time>2022-05-10T07:13:07Z</time>
      </trkpt>
      <trkpt lat="46.99668" lon="5.85878">
        <ele>275.3</ele>
        <time>2022-05-10T07:13:13Z</time>
      </trkpt>
      <trkpt lat="46.99667" lon="5.85885">
        <ele>274.8</ele>
        <time>2022-05-10T07:13:18Z</time>
      </trkpt>
      <trkpt lat="46.99665" lon="5.85892">
        <ele>274</ele>
        <time>2022-05-10T07:13:22Z</time>
      </trkpt>
      <trkpt lat="46.99662" lon="5.85898">
        <ele>272.9</ele>
        <time>2022-05-10T07:13:26Z</time>
      </trkpt>
      <trkpt lat="46.99659" lon="5.85905">
        <ele>272</ele>
        <time>2022-05-10T07:13:31Z</time>
      </trkpt>
      <trkpt lat="46.99658" lon="5.85912">
        <ele>271.7</ele>
        <time>2022-05-10T07:13:36Z</time>
      </trkpt>
      <trkpt lat="46.99656" lon="5.85919">
        <ele>272</ele>
        <time>2022-05-10T07:13:40Z</time>
      </trkpt>
      <trkpt lat="46.99654" lon="5.85926">
        <ele>272.6</ele>
        <time>2022-05-10T07:13:45Z</time>
      </trkpt>
      <trkpt lat="46.99652" lon="5.85932">
        <ele>273.2</ele>
        <time>2022-05-10T07:13:50Z</time>
      </trkpt>
      <trkpt lat="46.9965" lon="5.85939">
        <ele>273.6</ele>
        <time>2022-05-10T07:13:56Z</time>
      </trkpt>
      <trkpt lat="46.99647" lon="5.85946">
        <ele>274</ele>
        <time>2022-05-10T07:14:01Z</time>
      </trkpt>
      <trkpt lat="46.99643" lon="5.85951">
        <ele>274.9</ele>
        <time>2022-05-10T07:14:06Z</time>
      </trkpt>
      <trkpt lat="46.9964" lon="5.85956">
        <ele>275.8</ele>
        <time>2022-05-10T07:14:10Z</time>
      </trkpt>
      <trkpt lat="46.99638" lon="5.85962">
        <ele>276.9</ele>
        <time>2022-05-10T07:14:15Z</time>
      </trkpt>
      <trkpt lat="46.99635" lon="5.85969">
        <ele>278.1</ele>
        <time>2022-05-10T07:14:20Z</time>
      </trkpt>
      <trkpt lat="46.99631" lon="5.85974">
        <ele>278.3</ele>
        <time>2022-05-10T07:14:27Z</time>
      </trkpt>
      <trkpt lat="46.99627" lon="5.8598">
        <ele>278.5</ele>
        <time>2022-05-10T07:14:31Z</time>
      </trkpt>
      <trkpt lat="46.99626" lon="5.85988">
        <ele>279</ele>
        <time>2022-05-10T07:14:35Z</time>
      </trkpt>
      <trkpt lat="46.99625" lon="5.85995">
        <ele>279.4</ele>
        <time>2022-05-10T07:14:38Z</time>
      </trkpt>
      <trkpt lat="46.99624" lon="5.86002">
        <ele>279.9</ele>
        <time>2022-05-10T07:14:42Z</time>
      </trkpt>
      <trkpt lat="46.99625" lon="5.8601">
        <ele>280</ele>
        <time>2022-05-10T07:14:46Z</time>
      </trkpt>
      <trkpt lat="46.99626" lon="5.86016">
        <ele>279.8</ele>
        <time>2022-05-10T07:14:50Z</time>
      </trkpt>
      <trkpt lat="46.99626" lon="5.86024">
        <ele>279.3</ele>
        <time>2022-05-10T07:14:56Z</time>
      </trkpt>
      <trkpt lat="46.99627" lon="5.86032">
        <ele>279</ele>
        <time>2022-05-10T07:15:01Z</time>
      </trkpt>
      <trkpt lat="46.99626" lon="5.86039">
        <ele>278.8</ele>
        <time>2022-05-10T07:15:05Z</time>
      </trkpt>
      <trkpt lat="46.99624" lon="5.86046">
        <ele>278.5</ele>
        <time>2022-05-10T07:15:09Z</time>
      </trkpt>
      <trkpt lat="46.99624" lon="5.86054">
        <ele>278.3</ele>
        <time>2022-05-10T07:15:14Z</time>
      </trkpt>
      <trkpt lat="46.99624" lon="5.86061">
        <ele>277.9</ele>
        <time>2022-05-10T07:15:18Z</time>
      </trkpt>
      <trkpt lat="46.99624" lon="5.86069">
        <ele>277.3</ele>
        <time>2022-05-10T07:15:23Z</time>
      </trkpt>
      <trkpt lat="46.99623" lon="5.86075">
        <ele>276.8</ele>
        <time>2022-05-10T07:15:27Z</time>
      </trkpt>
      <trkpt lat="46.99622" lon="5.86082">
        <ele>276</ele>
        <time>2022-05-10T07:15:31Z</time>
      </trkpt>
      <trkpt lat="46.99622" lon="5.86089">
        <ele>275.4</ele>
        <time>2022-05-10T07:15:35Z</time>
      </trkpt>
      <trkpt lat="46.99624" lon="5.86097">
        <ele>275.2</ele>
        <time>2022-05-10T07:15:40Z</time>
      </trkpt>
      <trkpt lat="46.99623" lon="5.86104">
        <ele>276.1</ele>
        <time>2022-05-10T07:15:46Z</time>
      </trkpt>
      <trkpt lat="46.99623" lon="5.86111">
        <ele>277.1</ele>
        <time>2022-05-10T07:15:50Z</time>
      </trkpt>
      <trkpt lat="46.99624" lon="5.86118">
        <ele>278.3</ele>
        <time>2022-05-10T07:15:54Z</time>
      </trkpt>
      <trkpt lat="46.99627" lon="5.86125">
        <ele>279.4</ele>
        <time>2022-05-10T07:15:58Z</time>
      </trkpt>
      <trkpt lat="46.99628" lon="5.86133">
        <ele>280</ele>
        <time>2022-05-10T07:16:02Z</time>
      </trkpt>
      <trkpt lat="46.99628" lon="5.8614">
        <ele>280</ele>
        <time>2022-05-10T07:16:06Z</time>
      </trkpt>
      <trkpt lat="46.99629" lon="5.86147">
        <ele>280</ele>
        <time>2022-05-10T07:16:11Z</time>
      </trkpt>
      <trkpt lat="46.99631" lon="5.86153">
        <ele>279.8</ele>
        <time>2022-05-10T07:16:15Z</time>
      </trkpt>
      <trkpt lat="46.99632" lon="5.8616">
        <ele>280</ele>
        <time>2022-05-10T07:16:19Z</time>
      </trkpt>
      <trkpt lat="46.99631" lon="5.86168">
        <ele>280.2</ele>
        <time>2022-05-10T07:16:24Z</time>
      </trkpt>
      <trkpt lat="46.9963" lon="5.86176">
        <ele>279.4</ele>
        <time>2022-05-10T07:16:29Z</time>
      </trkpt>
      <trkpt lat="46.99629" lon="5.86184">
        <ele>278</ele>
        <time>2022-05-10T07:16:34Z</time>
      </trkpt>
      <trkpt lat="46.99628" lon="5.86191">
        <ele>277.3</ele>
        <time>2022-05-10T07:16:38Z</time>
      </trkpt>
      <trkpt lat="46.99628" lon="5.86198">
        <ele>276.7</ele>
        <time>2022-05-10T07:16:42Z</time>
      </trkpt>
      <trkpt lat="46.99629" lon="5.86205">
        <ele>275.8</ele>
        <time>2022-05-10T07:16:46Z</time>
      </trkpt>
      <trkpt lat="46.99632" lon="5.86212">
        <ele>275</ele>
        <time>2022-05-10T07:16:51Z</time>
      </trkpt>
      <trkpt lat="46.99633" lon="5.86219">
        <ele>274.9</ele>
        <time>2022-05-10T07:16:56Z</time>
      </trkpt>
      <trkpt lat="46.99636" lon="5.86227">
        <ele>274.6</ele>
        <time>2022-05-10T07:17:01Z</time>
      </trkpt>
      <trkpt lat="46.99639" lon="5.86233">
        <ele>274.4</ele>
        <time>2022-05-10T07:17:05Z</time>
      </trkpt>
      <trkpt lat="46.99641" lon="5.86239">
        <ele>274.2</ele>
        <time>2022-05-10T07:17:09Z</time>
      </trkpt>
      <trkpt lat="46.99644" lon="5.86245">
        <ele>274.3</ele>
        <time>2022-05-10T07:17:14Z</time>
      </trkpt>
      <trkpt lat="46.99647" lon="5.86252">
        <ele>274.6</ele>
        <time>2022-05-10T07:17:19Z</time>
      </trkpt>
      <trkpt lat="46.99648" lon="5.86258">
        <ele>275.6</ele>
        <time>2022-05-10T07:17:24Z</time>
      </trkpt>
      <trkpt lat="46.99649" lon="5.86265">
        <ele>276.1</ele>
        <time>2022-05-10T07:17:28Z</time>
      </trkpt>
      <trkpt lat="46.99653" lon="5.86271">
        <ele>276.8</ele>
        <time>2022-05-10T07:17:31Z</time>
      </trkpt>
      <trkpt lat="46.99656" lon="5.86277">
        <ele>277.6</ele>
        <time>2022-05-10T07:17:35Z</time>
      </trkpt>
      <trkpt lat="46.99657" lon="5.86284">
        <ele>279.4</ele>
        <time>2022-05-10T07:17:41Z</time>
      </trkpt>
      <trkpt lat="46.99658" lon="5.86291">
        <ele>281.2</ele>
        <time>2022-05-10T07:17:47Z</time>
      </trkpt>
      <trkpt lat="46.99657" lon="5.86298">
        <ele>281.6</ele>
        <time>2022-05-10T07:17:52Z</time>
      </trkpt>
      <trkpt lat="46.99659" lon="5.86305">
        <ele>281.5</ele>
        <time>2022-05-10T07:17:56Z</time>
      </trkpt>
      <trkpt lat="46.99661" lon="5.86311">
        <ele>281.2</ele>
        <time>2022-05-10T07:18:00Z</time>
      </trkpt>
      <trkpt lat="46.99664" lon="5.86318">
        <ele>280.8</ele>
        <time>2022-05-10T07:18:05Z</time>
      </trkpt>
      <trkpt lat="46.99666" lon="5.86326">
        <ele>280.3</ele>
        <time>2022-05-10T07:18:09Z</time>
      </trkpt>
      <trkpt lat="46.99668" lon="5.86332">
        <ele>279.7</ele>
        <time>2022-05-10T07:18:13Z</time>
      </trkpt>
      <trkpt lat="46.99669" lon="5.86339">
        <ele>278.9</ele>
        <time>2022-05-10T07:18:17Z</time>
      </trkpt>
      <trkpt lat="46.9967" lon="5.86346">
        <ele>278.2</ele>
        <time>2022-05-10T07:18:21Z</time>
      </trkpt>
      <trkpt lat="46.99671" lon="5.86353">
        <ele>277.5</ele>
        <time>2022-05-10T07:18:27Z</time>
      </trkpt>
      <trkpt lat="46.99671" lon="5.8636">
        <ele>276.7</ele>
        <time>2022-05-10T07:18:32Z</time>
      </trkpt>
      <trkpt lat="46.99671" lon="5.86368">
        <ele>275.6</ele>
        <time>2022-05-10T07:18:37Z</time>
      </trkpt>
      <trkpt lat="46.99671" lon="5.86375">
        <ele>274.7</ele>
        <time>2022-05-10T07:18:42Z</time>
      </trkpt>
      <trkpt lat="46.99672" lon="5.86383">
        <ele>274.5</ele>
        <time>2022-05-10T07:18:46Z</time>
      </trkpt>
      <trkpt lat="46.9967" lon="5.86391">
        <ele>274.7</ele>
        <time>2022-05-10T07:18:50Z</time>
      </trkpt>
      <trkpt lat="46.99671" lon="5.86399">
        <ele>275.1</ele>
        <time>2022-05-10T07:18:55Z</time>
      </trkpt>
      <trkpt lat="46.99673" lon="5.86406">
        <ele>275.4</ele>
        <time>2022-05-10T07:19:01Z</time>
      </trkpt>
      <trkpt lat="46.99673" lon="5.86414">
        <ele>275.6</ele>
        <time>2022-05-10T07:19:06Z</time>
      </trkpt>
      <trkpt lat="46.99673" lon="5.86421">
        <ele>275.9</ele>
        <time>2022-05-10T07:19:10Z</time>
      </trkpt>
      <trkpt lat="46.99672" lon="5.86429">
        <ele>275.5</ele>
        <time>2022-05-10T07:19:15Z</time>
      </trkpt>
      <trkpt lat="46.99671" lon="5.86437">
        <ele>275.1</ele>
        <time>2022-05-10T07:19:20Z</time>
      </trkpt>
      <trkpt lat="46.99671" lon="5.86444">
        <ele>275.3</ele>
        <time>2022-05-10T07:19:24Z</time>
      </trkpt>
      <trkpt lat="46.99672" lon="5.86452">
        <ele>275.9</ele>
        <time>2022-05-10T07:19:29Z</time>
      </trkpt>
      <trkpt lat="46.99672" lon="5.8646">
        <ele>276.2</ele>
        <time>2022-05-10T07:19:33Z</time>
      </trkpt>
      <trkpt lat="46.99673" lon="5.86467">
        <ele>275.6</ele>
        <time>2022-05-10T07:19:38Z</time>
      </trkpt>
      <trkpt lat="46.99674" lon="5.86474">
        <ele>275.1</ele>
        <time>2022-05-10T07:19:43Z</time>
      </trkpt>
      <trkpt lat="46.99674" lon="5.86481">
        <ele>275</ele>
        <time>2022-05-10T07:19:47Z</time>
      </trkpt>
      <trkpt lat="46.99672" lon="5.86488">
        <ele>274.6</ele>
        <time>2022-05-10T07:19:52Z</time>
      </trkpt>
      <trkpt lat="46.9967" lon="5.86494">
        <ele>274.6</ele>
        <time>2022-05-10T07:19:56Z</time>
      </trkpt>
      <trkpt lat="46.99669" lon="5.86501">
        <ele>273.9</ele>
        <time>2022-05-10T07:20:01Z</time>
      </trkpt>
      <trkpt lat="46.99669" lon="5.86509">
        <ele>273.1</ele>
        <time>2022-05-10T07:20:05Z</time>
      </trkpt>
      <trkpt lat="46.99668" lon="5.86516">
        <ele>272.5</ele>
        <time>2022-05-10T07:20:09Z</time>
      </trkpt>
      <trkpt lat="46.99667" lon="5.86524">
        <ele>272.1</ele>
        <time>2022-05-10T07:20:14Z</time>
      </trkpt>
      <trkpt lat="46.99667" lon="5.86531">
        <ele>272</ele>
        <time>2022-05-10T07:20:18Z</time>
      </trkpt>
      <trkpt lat="46.99664" lon="5.86539">
        <ele>271.6</ele>
        <time>2022-05-10T07:20:23Z</time>
      </trkpt>
      <trkpt lat="46.99663" lon="5.86546">
        <ele>271.6</ele>
        <time>2022-05-10T07:20:28Z</time>
      </trkpt>
      <trkpt lat="46.99662" lon="5.86553">
        <ele>271.6</ele>
        <time>2022-05-10T07:20:33Z</time>
      </trkpt>
      <trkpt lat="46.99663" lon="5.8656">
        <ele>271.4</ele>
        <time>2022-05-10T07:20:37Z</time>
      </trkpt>
      <trkpt lat="46.99661" lon="5.86568">
        <ele>271.8</ele>
        <time>2022-05-10T07:20:41Z</time>
      </trkpt>
      <trkpt lat="46.99659" lon="5.86574">
        <ele>272.2</ele>
        <time>2022-05-10T07:20:45Z</time>
      </trkpt>
      <trkpt lat="46.99656" lon="5.8658">
        <ele>273.1</ele>
        <time>2022-05-10T07:20:50Z</time>
      </trkpt>
      <trkpt lat="46.99654" lon="5.86587">
        <ele>273.6</ele>
        <time>2022-05-10T07:20:55Z</time>
      </trkpt>
      <trkpt lat="46.9965" lon="5.86592">
        <ele>273.8</ele>
        <time>2022-05-10T07:20:58Z</time>
      </trkpt>
      <trkpt lat="46.99648" lon="5.86597">
        <ele>274.1</ele>
        <time>2022-05-10T07:21:01Z</time>
      </trkpt>
      <trkpt lat="46.99644" lon="5.86604">
        <ele>274.5</ele>
        <time>2022-05-10T07:21:05Z</time>
      </trkpt>
      <trkpt lat="46.99642" lon="5.8661">
        <ele>274.5</ele>
        <time>2022-05-10T07:21:09Z</time>
      </trkpt>
      <trkpt lat="46.9964" lon="5.86616">
        <ele>274.1</ele>
        <time>2022-05-10T07:21:13Z</time>
      </trkpt>
      <trkpt lat="46.99639" lon="5.86624">
        <ele>273.8</ele>
        <time>2022-05-10T07:21:18Z</time>
      </trkpt>
      <trkpt lat="46.99638" lon="5.86631">
        <ele>273.5</ele>
        <time>2022-05-10T07:21:23Z</time>
      </trkpt>
      <trkpt lat="46.99634" lon="5.86637">
        <ele>274</ele>
        <time>2022-05-10T07:21:28Z</time>
      </trkpt>
      <trkpt lat="46.99631" lon="5.86641">
        <ele>274.4</ele>
        <time>2022-05-10T07:21:32Z</time>
      </trkpt>
      <trkpt lat="46.99628" lon="5.86646">
        <ele>274.9</ele>
        <time>2022-05-10T07:21:36Z</time>
      </trkpt>
      <trkpt lat="46.99625" lon="5.86652">
        <ele>275.3</ele>
        <time>2022-05-10T07:21:40Z</time>
      </trkpt>
      <trkpt lat="46.99622" lon="5.86657">
        <ele>275.5</ele>
        <time>2022-05-10T07:21:44Z</time>
      </trkpt>
      <trkpt lat="46.9962" lon="5.86665">
        <ele>276</ele>
        <time>2022-05-10T07:21:49Z</time>
      </trkpt>
      <trkpt lat="46.99618" lon="5.86672">
        <ele>276.7</ele>
        <time>2022-05-10T07:21:54Z</time>
      </trkpt>
      <trkpt lat="46.99616" lon="5.86678">
        <ele>276.8</ele>
        <time>2022-05-10T07:21:59Z</time>
      </trkpt>
      <trkpt lat="46.99615" lon="5.86685">
        <ele>276.4</ele>
        <time>2022-05-10T07:22:04Z</time>
      </trkpt>
      <trkpt lat="46.99613" lon="5.86693">
        <ele>276.4</ele>
        <time>2022-05-10T07:22:09Z</time>
      </trkpt>
      <trkpt lat="46.99613" lon="5.86701">
        <ele>277</ele>
        <time>2022-05-10T07:22:14Z</time>
      </trkpt>
      <trkpt lat="46.99612" lon="5.86708">
        <ele>278.2</ele>
        <time>2022-05-10T07:22:19Z</time>
      </trkpt>
      <trkpt lat="46.99611" lon="5.86716">
        <ele>279.4</ele>
        <time>2022-05-10T07:22:24Z</time>
      </trkpt>
      <trkpt lat="46.99609" lon="5.86722">
        <ele>280.4</ele>
        <time>2022-05-10T07:22:29Z</time>
      </trkpt>
      <trkpt lat="46.99607" lon="5.86729">
        <ele>281.3</ele>
        <time>2022-05-10T07:22:33Z</time>
      </trkpt>
      <trkpt lat="46.99604" lon="5.86735">
        <ele>281.9</ele>
        <time>2022-05-10T07:22:37Z</time>
      </trkpt>
      <trkpt lat="46.99604" lon="5.86743">
        <ele>282.6</ele>
        <time>2022-05-10T07:22:42Z</time>
      </trkpt>
      <trkpt lat="46.99602" lon="5.8675">
        <ele>282.9</ele>
        <time>2022-05-10T07:22:46Z</time>
      </trkpt>
      <trkpt lat="46.99597" lon="5.86754">
        <ele>283.4</ele>
        <time>2022-05-10T07:22:52Z</time>
      </trkpt>
      <trkpt lat="46.99593" lon="5.86757">
        <ele>283.7</ele>
        <time>2022-05-10T07:22:55Z</time>
      </trkpt>
      <trkpt lat="46.99589" lon="5.86761">
        <ele>283.8</ele>
        <time>2022-05-10T07:22:59Z</time>
      </trkpt>
      <trkpt lat="46.99585" lon="5.86765">
        <ele>283.8</ele>
        <time>2022-05-10T07:23:03Z</time>
      </trkpt>
      <trkpt lat="46.99581" lon="5.86767">
        <ele>283.7</ele>
        <time>2022-05-10T07:23:07Z</time>
      </trkpt>
      <trkpt lat="46.99576" lon="5.8677">
        <ele>283.8</ele>
        <time>2022-05-10T07:23:12Z</time>
      </trkpt>
      <trkpt lat="46.99573" lon="5.86776">
        <ele>284.4</ele>
        <time>2022-05-10T07:23:16Z</time>
      </trkpt>
      <trkpt lat="46.99571" lon="5.86782">
        <ele>285</ele>
        <time>2022-05-10T07:23:20Z</time>
      </trkpt>
      <trkpt lat="46.99567" lon="5.86787">
        <ele>285.4</ele>
        <time>2022-05-10T07:23:25Z</time>
      </trkpt>
      <trkpt lat="46.99564" lon="5.86792">
        <ele>285.5</ele>
        <time>2022-05-10T07:23:30Z</time>
      </trkpt>
      <trkpt lat="46.9956" lon="5.86797">
        <ele>285.4</ele>
        <time>2022-05-10T07:23:35Z</time>
      </trkpt>
      <trkpt lat="46.99556" lon="5.86802">
        <ele>285.4</ele>
        <time>2022-05-10T07:23:40Z</time>
      </trkpt>
      <trkpt lat="46.99554" lon="5.86808">
        <ele>285.7</ele>
        <time>2022-05-10T07:23:45Z</time>
      </trkpt>
      <trkpt lat="46.9955" lon="5.86813">
        <ele>285.9</ele>
        <time>2022-05-10T07:23:49Z</time>
      </trkpt>
      <trkpt lat="46.99545" lon="5.86817">
        <ele>285.6</ele>
        <time>2022-05-10T07:23:53Z</time>
      </trkpt>
      <trkpt lat="46.99542" lon="5.86821">
        <ele>284.5</ele>
        <time>2022-05-10T07:23:59Z</time>
      </trkpt>
      <trkpt lat="46.99541" lon="5.86829">
        <ele>283.2</ele>
        <time>2022-05-10T07:24:05Z</time>
      </trkpt>
      <trkpt lat="46.99538" lon="5.86834">
        <ele>282.7</ele>
        <time>2022-05-10T07:24:10Z</time>
      </trkpt>
      <trkpt lat="46.99535" lon="5.8684">
        <ele>282.5</ele>
        <time>2022-05-10T07:24:14Z</time>
      </trkpt>
      <trkpt lat="46.99531" lon="5.86845">
        <ele>282.9</ele>
        <time>2022-05-10T07:24:18Z</time>
      </trkpt>
      <trkpt lat="46.99527" lon="5.8685">
        <ele>283.3</ele>
        <time>2022-05-10T07:24:21Z</time>
      </trkpt>
      <trkpt lat="46.99522" lon="5.86853">
        <ele>283.9</ele>
        <time>2022-05-10T07:24:24Z</time>
      </trkpt>
      <trkpt lat="46.99518" lon="5.86858">
        <ele>284.9</ele>
        <time>2022-05-10T07:24:28Z</time>
      </trkpt>
      <trkpt lat="46.99516" lon="5.86864">
        <ele>286.4</ele>
        <time>2022-05-10T07:24:33Z</time>
      </trkpt>
      <trkpt lat="46.99512" lon="5.86869">
        <ele>287.6</ele>
        <time>2022-05-10T07:24:37Z</time>
      </trkpt>
      <trkpt lat="46.99508" lon="5.86873">
        <ele>288.7</ele>
        <time>2022-05-10T07:24:41Z</time>
      </trkpt>
      <trkpt lat="46.99504" lon="5.86877">
        <ele>290.2</ele>
        <time>2022-05-10T07:24:46Z</time>
      </trkpt>
      <trkpt lat="46.99501" lon="5.86882">
        <ele>291.2</ele>
        <time>2022-05-10T07:24:50Z</time>
      </trkpt>
      <trkpt lat="46.99496" lon="5.86884">
        <ele>292.3</ele>
        <time>2022-05-10T07:24:56Z</time>
      </trkpt>
      <trkpt lat="46.99491" lon="5.8689">
        <ele>293</ele>
        <time>2022-05-10T07:25:00Z</time>
      </trkpt>
      <trkpt lat="46.99488" lon="5.86896">
        <ele>294</ele>
        <time>2022-05-10T07:25:04Z</time>
      </trkpt>
      <trkpt lat="46.99485" lon="5.86902">
        <ele>294.3</ele>
        <time>2022-05-10T07:25:08Z</time>
      </trkpt>
      <trkpt lat="46.99481" lon="5.86907">
        <ele>294.2</ele>
        <time>2022-05-10T07:25:12Z</time>
      </trkpt>
      <trkpt lat="46.99476" lon="5.8691">
        <ele>293.3</ele>
        <time>2022-05-10T07:25:17Z</time>
      </trkpt>
      <trkpt lat="46.99471" lon="5.86913">
        <ele>292.1</ele>
        <time>2022-05-10T07:25:22Z</time>
      </trkpt>
      <trkpt lat="46.99466" lon="5.86917">
        <ele>291.8</ele>
        <time>2022-05-10T07:25:27Z</time>
      </trkpt>
      <trkpt lat="46.99467" lon="5.86924">
        <ele>291.2</ele>
        <time>2022-05-10T07:25:34Z</time>
      </trkpt>
      <trkpt lat="46.99472" lon="5.86925">
        <ele>288.6</ele>
        <time>2022-05-10T07:25:42Z</time>
      </trkpt>
      <trkpt lat="46.99473" lon="5.86918">
        <ele>287</ele>
        <time>2022-05-10T07:25:49Z</time>
      </trkpt>
      <trkpt lat="46.99469" lon="5.86913">
        <ele>283.6</ele>
        <time>2022-05-10T07:26:01Z</time>
      </trkpt>
      <trkpt lat="46.99465" lon="5.86909">
        <ele>282.3</ele>
        <time>2022-05-10T07:26:07Z</time>
      </trkpt>
      <trkpt lat="46.99466" lon="5.86923">
        <ele>279.8</ele>
        <time>2022-05-10T07:26:10Z</time>
      </trkpt>
      <trkpt lat="46.99464" lon="5.86929">
        <ele>277</ele>
        <time>2022-05-10T07:26:14Z</time>
      </trkpt>
      <trkpt lat="46.99468" lon="5.86936">
        <ele>273.3</ele>
        <time>2022-05-10T07:26:28Z</time>
      </trkpt>
      <trkpt lat="46.99471" lon="5.8693">
        <ele>274.4</ele>
        <time>2022-05-10T07:26:42Z</time>
      </trkpt>
      <trkpt lat="46.99468" lon="5.86936">
        <ele>279.3</ele>
        <time>2022-05-10T07:27:35Z</time>
      </trkpt>
      <trkpt lat="46.99472" lon="5.86929">
        <ele>280.1</ele>
        <time>2022-05-10T07:28:08Z</time>
      </trkpt>
      <trkpt lat="46.99477" lon="5.86929">
        <ele>279.2</ele>
        <time>2022-05-10T07:28:13Z</time>
      </trkpt>
      <trkpt lat="46.99474" lon="5.86919">
        <ele>277.6</ele>
        <time>2022-05-10T07:28:23Z</time>
      </trkpt>
      <trkpt lat="46.99473" lon="5.86926">
        <ele>276.5</ele>
        <time>2022-05-10T07:28:27Z</time>
      </trkpt>
      <trkpt lat="46.99474" lon="5.86933">
        <ele>273.8</ele>
        <time>2022-05-10T07:28:38Z</time>
      </trkpt>
      <trkpt lat="46.9947" lon="5.86937">
        <ele>278.7</ele>
        <time>2022-05-10T07:29:03Z</time>
      </trkpt>
      <trkpt lat="46.99466" lon="5.86942">
        <ele>279</ele>
        <time>2022-05-10T07:29:07Z</time>
      </trkpt>
      <trkpt lat="46.99462" lon="5.86946">
        <ele>279.2</ele>
        <time>2022-05-10T07:29:11Z</time>
      </trkpt>
      <trkpt lat="46.99457" lon="5.8695">
        <ele>279.3</ele>
        <time>2022-05-10T07:29:16Z</time>
      </trkpt>
      <trkpt lat="46.99453" lon="5.86953">
        <ele>279.8</ele>
        <time>2022-05-10T07:29:20Z</time>
      </trkpt>
      <trkpt lat="46.99448" lon="5.86957">
        <ele>280.2</ele>
        <time>2022-05-10T07:29:25Z</time>
      </trkpt>
      <trkpt lat="46.99444" lon="5.86962">
        <ele>280.5</ele>
        <time>2022-05-10T07:29:29Z</time>
      </trkpt>
      <trkpt lat="46.99441" lon="5.86968">
        <ele>280.8</ele>
        <time>2022-05-10T07:29:34Z</time>
      </trkpt>
      <trkpt lat="46.99437" lon="5.86973">
        <ele>281.5</ele>
        <time>2022-05-10T07:29:38Z</time>
      </trkpt>
      <trkpt lat="46.99433" lon="5.86979">
        <ele>282.5</ele>
        <time>2022-05-10T07:29:43Z</time>
      </trkpt>
      <trkpt lat="46.9943" lon="5.86984">
        <ele>283.5</ele>
        <time>2022-05-10T07:29:48Z</time>
      </trkpt>
      <trkpt lat="46.99427" lon="5.86989">
        <ele>284.4</ele>
        <time>2022-05-10T07:29:52Z</time>
      </trkpt>
      <trkpt lat="46.99424" lon="5.86995">
        <ele>285</ele>
        <time>2022-05-10T07:29:56Z</time>
      </trkpt>
      <trkpt lat="46.99421" lon="5.87">
        <ele>285.5</ele>
        <time>2022-05-10T07:30:00Z</time>
      </trkpt>
      <trkpt lat="46.99417" lon="5.87004">
        <ele>286.1</ele>
        <time>2022-05-10T07:30:05Z</time>
      </trkpt>
      <trkpt lat="46.99416" lon="5.87013">
        <ele>286.2</ele>
        <time>2022-05-10T07:30:10Z</time>
      </trkpt>
      <trkpt lat="46.99417" lon="5.87021">
        <ele>286.5</ele>
        <time>2022-05-10T07:30:14Z</time>
      </trkpt>
      <trkpt lat="46.99416" lon="5.87027">
        <ele>288.1</ele>
        <time>2022-05-10T07:30:21Z</time>
      </trkpt>
      <trkpt lat="46.99413" lon="5.87032">
        <ele>289</ele>
        <time>2022-05-10T07:30:31Z</time>
      </trkpt>
      <trkpt lat="46.99409" lon="5.87038">
        <ele>288.9</ele>
        <time>2022-05-10T07:30:36Z</time>
      </trkpt>
      <trkpt lat="46.99406" lon="5.87045">
        <ele>288.3</ele>
        <time>2022-05-10T07:30:40Z</time>
      </trkpt>
      <trkpt lat="46.99403" lon="5.8705">
        <ele>287.9</ele>
        <time>2022-05-10T07:30:44Z</time>
      </trkpt>
      <trkpt lat="46.99399" lon="5.87056">
        <ele>288</ele>
        <time>2022-05-10T07:30:49Z</time>
      </trkpt>
      <trkpt lat="46.99397" lon="5.87061">
        <ele>288.1</ele>
        <time>2022-05-10T07:30:54Z</time>
      </trkpt>
      <trkpt lat="46.99394" lon="5.87068">
        <ele>287.9</ele>
        <time>2022-05-10T07:30:59Z</time>
      </trkpt>
      <trkpt lat="46.99392" lon="5.87074">
        <ele>287.5</ele>
        <time>2022-05-10T07:31:02Z</time>
      </trkpt>
      <trkpt lat="46.99389" lon="5.87081">
        <ele>287.5</ele>
        <time>2022-05-10T07:31:09Z</time>
      </trkpt>
      <trkpt lat="46.99385" lon="5.87086">
        <ele>287.9</ele>
        <time>2022-05-10T07:31:13Z</time>
      </trkpt>
      <trkpt lat="46.99381" lon="5.87095">
        <ele>289.1</ele>
        <time>2022-05-10T07:31:22Z</time>
      </trkpt>
      <trkpt lat="46.99378" lon="5.871">
        <ele>289.7</ele>
        <time>2022-05-10T07:31:25Z</time>
      </trkpt>
      <trkpt lat="46.99373" lon="5.87104">
        <ele>290.4</ele>
        <time>2022-05-10T07:31:29Z</time>
      </trkpt>
      <trkpt lat="46.99369" lon="5.87109">
        <ele>291.1</ele>
        <time>2022-05-10T07:31:34Z</time>
      </trkpt>
      <trkpt lat="46.99365" lon="5.87115">
        <ele>292.1</ele>
        <time>2022-05-10T07:31:38Z</time>
      </trkpt>
      <trkpt lat="46.99361" lon="5.8712">
        <ele>294</ele>
        <time>2022-05-10T07:31:43Z</time>
      </trkpt>
      <trkpt lat="46.99356" lon="5.87123">
        <ele>295.8</ele>
        <time>2022-05-10T07:31:47Z</time>
      </trkpt>
      <trkpt lat="46.99352" lon="5.87127">
        <ele>297.3</ele>
        <time>2022-05-10T07:31:52Z</time>
      </trkpt>
      <trkpt lat="46.99348" lon="5.87131">
        <ele>297.7</ele>
        <time>2022-05-10T07:31:57Z</time>
      </trkpt>
      <trkpt lat="46.99346" lon="5.87137">
        <ele>297.5</ele>
        <time>2022-05-10T07:32:04Z</time>
      </trkpt>
      <trkpt lat="46.99343" lon="5.87142">
        <ele>298.1</ele>
        <time>2022-05-10T07:32:09Z</time>
      </trkpt>
      <trkpt lat="46.99336" lon="5.87151">
        <ele>299.6</ele>
        <time>2022-05-10T07:32:21Z</time>
      </trkpt>
      <trkpt lat="46.99332" lon="5.87156">
        <ele>299.9</ele>
        <time>2022-05-10T07:32:24Z</time>
      </trkpt>
      <trkpt lat="46.99328" lon="5.87161">
        <ele>299.6</ele>
        <time>2022-05-10T07:32:32Z</time>
      </trkpt>
      <trkpt lat="46.99322" lon="5.87165">
        <ele>299.7</ele>
        <time>2022-05-10T07:32:36Z</time>
      </trkpt>
      <trkpt lat="46.99317" lon="5.87168">
        <ele>299.8</ele>
        <time>2022-05-10T07:32:40Z</time>
      </trkpt>
      <trkpt lat="46.99311" lon="5.87172">
        <ele>300.1</ele>
        <time>2022-05-10T07:32:44Z</time>
      </trkpt>
      <trkpt lat="46.99306" lon="5.87175">
        <ele>300.5</ele>
        <time>2022-05-10T07:32:48Z</time>
      </trkpt>
      <trkpt lat="46.99301" lon="5.87176">
        <ele>300.7</ele>
        <time>2022-05-10T07:32:53Z</time>
      </trkpt>
      <trkpt lat="46.99299" lon="5.87182">
        <ele>300</ele>
        <time>2022-05-10T07:32:58Z</time>
      </trkpt>
      <trkpt lat="46.99297" lon="5.87189">
        <ele>298.7</ele>
        <time>2022-05-10T07:33:02Z</time>
      </trkpt>
      <trkpt lat="46.99293" lon="5.87193">
        <ele>297.1</ele>
        <time>2022-05-10T07:33:06Z</time>
      </trkpt>
      <trkpt lat="46.99288" lon="5.87195">
        <ele>294.1</ele>
        <time>2022-05-10T07:33:13Z</time>
      </trkpt>
      <trkpt lat="46.99283" lon="5.87194">
        <ele>290.6</ele>
        <time>2022-05-10T07:33:20Z</time>
      </trkpt>
      <trkpt lat="46.99278" lon="5.87194">
        <ele>288.4</ele>
        <time>2022-05-10T07:33:25Z</time>
      </trkpt>
      <trkpt lat="46.99274" lon="5.87199">
        <ele>286.5</ele>
        <time>2022-05-10T07:33:31Z</time>
      </trkpt>
      <trkpt lat="46.9927" lon="5.87202">
        <ele>285.7</ele>
        <time>2022-05-10T07:33:36Z</time>
      </trkpt>
      <trkpt lat="46.99266" lon="5.87206">
        <ele>284.6</ele>
        <time>2022-05-10T07:33:40Z</time>
      </trkpt>
      <trkpt lat="46.99261" lon="5.87209">
        <ele>283.4</ele>
        <time>2022-05-10T07:33:45Z</time>
      </trkpt>
      <trkpt lat="46.99256" lon="5.8721">
        <ele>283.1</ele>
        <time>2022-05-10T07:33:49Z</time>
      </trkpt>
      <trkpt lat="46.99252" lon="5.87214">
        <ele>282.9</ele>
        <time>2022-05-10T07:33:54Z</time>
      </trkpt>
      <trkpt lat="46.99247" lon="5.87217">
        <ele>282.9</ele>
        <time>2022-05-10T07:34:00Z</time>
      </trkpt>
      <trkpt lat="46.99243" lon="5.8722">
        <ele>282.8</ele>
        <time>2022-05-10T07:34:05Z</time>
      </trkpt>
      <trkpt lat="46.99239" lon="5.87223">
        <ele>282.3</ele>
        <time>2022-05-10T07:34:13Z</time>
      </trkpt>
      <trkpt lat="46.99235" lon="5.87225">
        <ele>282.2</ele>
        <time>2022-05-10T07:34:19Z</time>
      </trkpt>
      <trkpt lat="46.9923" lon="5.87227">
        <ele>282.2</ele>
        <time>2022-05-10T07:34:24Z</time>
      </trkpt>
      <trkpt lat="46.99225" lon="5.8723">
        <ele>282.4</ele>
        <time>2022-05-10T07:34:29Z</time>
      </trkpt>
      <trkpt lat="46.99222" lon="5.87236">
        <ele>282.3</ele>
        <time>2022-05-10T07:34:34Z</time>
      </trkpt>
      <trkpt lat="46.9922" lon="5.87242">
        <ele>282</ele>
        <time>2022-05-10T07:34:40Z</time>
      </trkpt>
      <trkpt lat="46.99217" lon="5.87248">
        <ele>282</ele>
        <time>2022-05-10T07:34:48Z</time>
      </trkpt>
      <trkpt lat="46.99214" lon="5.87252">
        <ele>281.5</ele>
        <time>2022-05-10T07:34:53Z</time>
      </trkpt>
      <trkpt lat="46.9921" lon="5.87255">
        <ele>281.2</ele>
        <time>2022-05-10T07:34:57Z</time>
      </trkpt>
      <trkpt lat="46.99206" lon="5.87259">
        <ele>281</ele>
        <time>2022-05-10T07:35:01Z</time>
      </trkpt>
      <trkpt lat="46.99202" lon="5.87264">
        <ele>280.8</ele>
        <time>2022-05-10T07:35:05Z</time>
      </trkpt>
      <trkpt lat="46.99198" lon="5.87268">
        <ele>280.8</ele>
        <time>2022-05-10T07:35:08Z</time>
      </trkpt>
      <trkpt lat="46.99192" lon="5.87273">
        <ele>280.8</ele>
        <time>2022-05-10T07:35:11Z</time>
      </trkpt>
      <trkpt lat="46.99187" lon="5.87277">
        <ele>280.9</ele>
        <time>2022-05-10T07:35:14Z</time>
      </trkpt>
      <trkpt lat="46.99182" lon="5.8728">
        <ele>281.1</ele>
        <time>2022-05-10T07:35:18Z</time>
      </trkpt>
      <trkpt lat="46.9918" lon="5.87287">
        <ele>281.2</ele>
        <time>2022-05-10T07:35:24Z</time>
      </trkpt>
      <trkpt lat="46.9918" lon="5.87295">
        <ele>281</ele>
        <time>2022-05-10T07:35:29Z</time>
      </trkpt>
      <trkpt lat="46.99178" lon="5.87301">
        <ele>280.8</ele>
        <time>2022-05-10T07:35:33Z</time>
      </trkpt>
      <trkpt lat="46.99176" lon="5.87307">
        <ele>280.6</ele>
        <time>2022-05-10T07:35:38Z</time>
      </trkpt>
      <trkpt lat="46.9917" lon="5.8731">
        <ele>281</ele>
        <time>2022-05-10T07:35:43Z</time>
      </trkpt>
      <trkpt lat="46.99168" lon="5.87316">
        <ele>281.8</ele>
        <time>2022-05-10T07:35:47Z</time>
      </trkpt>
      <trkpt lat="46.99163" lon="5.87319">
        <ele>282.7</ele>
        <time>2022-05-10T07:35:51Z</time>
      </trkpt>
      <trkpt lat="46.99159" lon="5.87323">
        <ele>283.8</ele>
        <time>2022-05-10T07:35:55Z</time>
      </trkpt>
      <trkpt lat="46.99153" lon="5.87325">
        <ele>284.3</ele>
        <time>2022-05-10T07:36:00Z</time>
      </trkpt>
      <trkpt lat="46.99153" lon="5.87332">
        <ele>284.1</ele>
        <time>2022-05-10T07:36:03Z</time>
      </trkpt>
      <trkpt lat="46.99149" lon="5.87338">
        <ele>283.8</ele>
        <time>2022-05-10T07:36:11Z</time>
      </trkpt>
      <trkpt lat="46.99144" lon="5.8734">
        <ele>284.5</ele>
        <time>2022-05-10T07:36:16Z</time>
      </trkpt>
      <trkpt lat="46.9914" lon="5.87345">
        <ele>285</ele>
        <time>2022-05-10T07:36:20Z</time>
      </trkpt>
      <trkpt lat="46.99136" lon="5.8735">
        <ele>285.7</ele>
        <time>2022-05-10T07:36:24Z</time>
      </trkpt>
      <trkpt lat="46.99132" lon="5.87355">
        <ele>286.6</ele>
        <time>2022-05-10T07:36:28Z</time>
      </trkpt>
      <trkpt lat="46.99128" lon="5.87359">
        <ele>287.6</ele>
        <time>2022-05-10T07:36:32Z</time>
      </trkpt>
      <trkpt lat="46.99124" lon="5.87363">
        <ele>288.9</ele>
        <time>2022-05-10T07:36:36Z</time>
      </trkpt>
      <trkpt lat="46.9912" lon="5.87367">
        <ele>290.4</ele>
        <time>2022-05-10T07:36:40Z</time>
      </trkpt>
      <trkpt lat="46.99117" lon="5.87373">
        <ele>292.2</ele>
        <time>2022-05-10T07:36:44Z</time>
      </trkpt>
      <trkpt lat="46.99118" lon="5.87381">
        <ele>294.3</ele>
        <time>2022-05-10T07:36:50Z</time>
      </trkpt>
      <trkpt lat="46.99118" lon="5.8739">
        <ele>295</ele>
        <time>2022-05-10T07:36:54Z</time>
      </trkpt>
      <trkpt lat="46.99119" lon="5.87398">
        <ele>295.4</ele>
        <time>2022-05-10T07:36:58Z</time>
      </trkpt>
      <trkpt lat="46.99119" lon="5.87405">
        <ele>295.5</ele>
        <time>2022-05-10T07:37:02Z</time>
      </trkpt>
      <trkpt lat="46.99119" lon="5.87412">
        <ele>295.1</ele>
        <time>2022-05-10T07:37:07Z</time>
      </trkpt>
      <trkpt lat="46.99119" lon="5.87419">
        <ele>295.4</ele>
        <time>2022-05-10T07:37:11Z</time>
      </trkpt>
      <trkpt lat="46.99115" lon="5.87424">
        <ele>295.9</ele>
        <time>2022-05-10T07:37:18Z</time>
      </trkpt>
      <trkpt lat="46.99114" lon="5.8743">
        <ele>297.7</ele>
        <time>2022-05-10T07:37:38Z</time>
      </trkpt>
      <trkpt lat="46.99111" lon="5.87436">
        <ele>299.6</ele>
        <time>2022-05-10T07:37:44Z</time>
      </trkpt>
      <trkpt lat="46.99112" lon="5.87443">
        <ele>301</ele>
        <time>2022-05-10T07:37:53Z</time>
      </trkpt>
      <trkpt lat="46.99111" lon="5.8745">
        <ele>301.9</ele>
        <time>2022-05-10T07:37:58Z</time>
      </trkpt>
      <trkpt lat="46.99108" lon="5.87457">
        <ele>303.3</ele>
        <time>2022-05-10T07:38:09Z</time>
      </trkpt>
      <trkpt lat="46.99106" lon="5.87463">
        <ele>303.3</ele>
        <time>2022-05-10T07:38:12Z</time>
      </trkpt>
      <trkpt lat="46.99103" lon="5.87469">
        <ele>303.4</ele>
        <time>2022-05-10T07:38:16Z</time>
      </trkpt>
      <trkpt lat="46.99103" lon="5.87477">
        <ele>303.6</ele>
        <time>2022-05-10T07:38:22Z</time>
      </trkpt>
      <trkpt lat="46.99107" lon="5.87481">
        <ele>303.8</ele>
        <time>2022-05-10T07:38:25Z</time>
      </trkpt>
      <trkpt lat="46.99109" lon="5.87487">
        <ele>305.4</ele>
        <time>2022-05-10T07:38:32Z</time>
      </trkpt>
      <trkpt lat="46.99108" lon="5.87494">
        <ele>306.9</ele>
        <time>2022-05-10T07:38:39Z</time>
      </trkpt>
      <trkpt lat="46.99108" lon="5.87502">
        <ele>307.2</ele>
        <time>2022-05-10T07:38:44Z</time>
      </trkpt>
      <trkpt lat="46.99111" lon="5.87507">
        <ele>307.8</ele>
        <time>2022-05-10T07:38:50Z</time>
      </trkpt>
      <trkpt lat="46.99113" lon="5.87513">
        <ele>308.2</ele>
        <time>2022-05-10T07:38:54Z</time>
      </trkpt>
      <trkpt lat="46.99115" lon="5.87521">
        <ele>308.7</ele>
        <time>2022-05-10T07:38:57Z</time>
      </trkpt>
      <trkpt lat="46.99116" lon="5.8753">
        <ele>309.2</ele>
        <time>2022-05-10T07:39:01Z</time>
      </trkpt>
      <trkpt lat="46.99116" lon="5.87537">
        <ele>309.2</ele>
        <time>2022-05-10T07:39:06Z</time>
      </trkpt>
      <trkpt lat="46.99116" lon="5.87544">
        <ele>309.2</ele>
        <time>2022-05-10T07:39:12Z</time>
      </trkpt>
      <trkpt lat="46.99118" lon="5.8755">
        <ele>309.1</ele>
        <time>2022-05-10T07:39:17Z</time>
      </trkpt>
      <trkpt lat="46.99119" lon="5.87556">
        <ele>308.4</ele>
        <time>2022-05-10T07:39:23Z</time>
      </trkpt>
      <trkpt lat="46.99123" lon="5.8756">
        <ele>308</ele>
        <time>2022-05-10T07:39:27Z</time>
      </trkpt>
      <trkpt lat="46.99126" lon="5.87566">
        <ele>307.5</ele>
        <time>2022-05-10T07:39:31Z</time>
      </trkpt>
      <trkpt lat="46.99124" lon="5.87573">
        <ele>307</ele>
        <time>2022-05-10T07:39:38Z</time>
      </trkpt>
      <trkpt lat="46.99127" lon="5.8758">
        <ele>306.3</ele>
        <time>2022-05-10T07:39:42Z</time>
      </trkpt>
      <trkpt lat="46.99131" lon="5.87585">
        <ele>305.6</ele>
        <time>2022-05-10T07:39:46Z</time>
      </trkpt>
      <trkpt lat="46.99134" lon="5.87592">
        <ele>304.7</ele>
        <time>2022-05-10T07:39:50Z</time>
      </trkpt>
      <trkpt lat="46.99133" lon="5.87598">
        <ele>303.9</ele>
        <time>2022-05-10T07:39:53Z</time>
      </trkpt>
      <trkpt lat="46.99133" lon="5.87605">
        <ele>302.8</ele>
        <time>2022-05-10T07:39:58Z</time>
      </trkpt>
      <trkpt lat="46.99131" lon="5.87613">
        <ele>301.9</ele>
        <time>2022-05-10T07:40:05Z</time>
      </trkpt>
      <trkpt lat="46.99129" lon="5.8762">
        <ele>301.4</ele>
        <time>2022-05-10T07:40:10Z</time>
      </trkpt>
      <trkpt lat="46.99128" lon="5.87626">
        <ele>301.1</ele>
        <time>2022-05-10T07:40:14Z</time>
      </trkpt>
      <trkpt lat="46.99129" lon="5.87634">
        <ele>300.5</ele>
        <time>2022-05-10T07:40:22Z</time>
      </trkpt>
      <trkpt lat="46.99129" lon="5.87642">
        <ele>300.1</ele>
        <time>2022-05-10T07:40:26Z</time>
      </trkpt>
      <trkpt lat="46.99132" lon="5.87648">
        <ele>299.4</ele>
        <time>2022-05-10T07:40:30Z</time>
      </trkpt>
      <trkpt lat="46.99132" lon="5.87656">
        <ele>298.6</ele>
        <time>2022-05-10T07:40:34Z</time>
      </trkpt>
      <trkpt lat="46.9913" lon="5.87662">
        <ele>298.2</ele>
        <time>2022-05-10T07:40:39Z</time>
      </trkpt>
      <trkpt lat="46.99129" lon="5.87669">
        <ele>298.3</ele>
        <time>2022-05-10T07:40:43Z</time>
      </trkpt>
      <trkpt lat="46.99127" lon="5.87676">
        <ele>298.7</ele>
        <time>2022-05-10T07:40:47Z</time>
      </trkpt>
      <trkpt lat="46.99125" lon="5.87682">
        <ele>299.4</ele>
        <time>2022-05-10T07:40:51Z</time>
      </trkpt>
      <trkpt lat="46.99126" lon="5.87688">
        <ele>300.7</ele>
        <time>2022-05-10T07:40:56Z</time>
      </trkpt>
      <trkpt lat="46.99126" lon="5.87696">
        <ele>302.5</ele>
        <time>2022-05-10T07:41:02Z</time>
      </trkpt>
      <trkpt lat="46.99129" lon="5.87701">
        <ele>303.9</ele>
        <time>2022-05-10T07:41:07Z</time>
      </trkpt>
      <trkpt lat="46.99132" lon="5.87706">
        <ele>305</ele>
        <time>2022-05-10T07:41:11Z</time>
      </trkpt>
      <trkpt lat="46.99133" lon="5.87714">
        <ele>307.3</ele>
        <time>2022-05-10T07:41:17Z</time>
      </trkpt>
      <trkpt lat="46.99131" lon="5.8772">
        <ele>308.7</ele>
        <time>2022-05-10T07:41:22Z</time>
      </trkpt>
      <trkpt lat="46.99128" lon="5.87726">
        <ele>310.1</ele>
        <time>2022-05-10T07:41:28Z</time>
      </trkpt>
      <trkpt lat="46.99129" lon="5.87734">
        <ele>310.9</ele>
        <time>2022-05-10T07:41:33Z</time>
      </trkpt>
      <trkpt lat="46.99133" lon="5.87739">
        <ele>311.2</ele>
        <time>2022-05-10T07:41:36Z</time>
      </trkpt>
      <trkpt lat="46.99137" lon="5.87743">
        <ele>311.6</ele>
        <time>2022-05-10T07:41:39Z</time>
      </trkpt>
      <trkpt lat="46.99141" lon="5.87747">
        <ele>311.8</ele>
        <time>2022-05-10T07:41:42Z</time>
      </trkpt>
      <trkpt lat="46.99143" lon="5.87754">
        <ele>311.8</ele>
        <time>2022-05-10T07:41:49Z</time>
      </trkpt>
      <trkpt lat="46.99146" lon="5.87761">
        <ele>312</ele>
        <time>2022-05-10T07:41:53Z</time>
      </trkpt>
      <trkpt lat="46.99148" lon="5.87768">
        <ele>312.1</ele>
        <time>2022-05-10T07:41:57Z</time>
      </trkpt>
      <trkpt lat="46.99148" lon="5.87777">
        <ele>312</ele>
        <time>2022-05-10T07:42:01Z</time>
      </trkpt>
      <trkpt lat="46.99147" lon="5.87784">
        <ele>311.2</ele>
        <time>2022-05-10T07:42:05Z</time>
      </trkpt>
      <trkpt lat="46.99147" lon="5.87792">
        <ele>310.9</ele>
        <time>2022-05-10T07:42:10Z</time>
      </trkpt>
      <trkpt lat="46.99148" lon="5.87799">
        <ele>311.6</ele>
        <time>2022-05-10T07:42:16Z</time>
      </trkpt>
      <trkpt lat="46.99148" lon="5.87807">
        <ele>311.7</ele>
        <time>2022-05-10T07:42:21Z</time>
      </trkpt>
      <trkpt lat="46.99147" lon="5.87814">
        <ele>311.9</ele>
        <time>2022-05-10T07:42:27Z</time>
      </trkpt>
      <trkpt lat="46.99149" lon="5.8782">
        <ele>312.5</ele>
        <time>2022-05-10T07:42:35Z</time>
      </trkpt>
      <trkpt lat="46.9915" lon="5.87829">
        <ele>312.7</ele>
        <time>2022-05-10T07:42:42Z</time>
      </trkpt>
      <trkpt lat="46.99149" lon="5.87836">
        <ele>312.6</ele>
        <time>2022-05-10T07:42:46Z</time>
      </trkpt>
      <trkpt lat="46.99147" lon="5.87842">
        <ele>312.5</ele>
        <time>2022-05-10T07:42:52Z</time>
      </trkpt>
      <trkpt lat="46.99148" lon="5.8785">
        <ele>312.5</ele>
        <time>2022-05-10T07:42:59Z</time>
      </trkpt>
      <trkpt lat="46.99148" lon="5.87856">
        <ele>312.3</ele>
        <time>2022-05-10T07:43:04Z</time>
      </trkpt>
      <trkpt lat="46.99147" lon="5.87864">
        <ele>312.6</ele>
        <time>2022-05-10T07:43:07Z</time>
      </trkpt>
      <trkpt lat="46.99148" lon="5.87871">
        <ele>313</ele>
        <time>2022-05-10T07:43:10Z</time>
      </trkpt>
      <trkpt lat="46.99147" lon="5.8788">
        <ele>313.7</ele>
        <time>2022-05-10T07:43:14Z</time>
      </trkpt>
      <trkpt lat="46.99142" lon="5.87886">
        <ele>314.3</ele>
        <time>2022-05-10T07:43:17Z</time>
      </trkpt>
      <trkpt lat="46.9914" lon="5.87892">
        <ele>314.5</ele>
        <time>2022-05-10T07:43:21Z</time>
      </trkpt>
      <trkpt lat="46.99141" lon="5.87899">
        <ele>314.4</ele>
        <time>2022-05-10T07:43:25Z</time>
      </trkpt>
      <trkpt lat="46.99139" lon="5.87906">
        <ele>314.9</ele>
        <time>2022-05-10T07:43:29Z</time>
      </trkpt>
      <trkpt lat="46.9914" lon="5.87914">
        <ele>315.2</ele>
        <time>2022-05-10T07:43:34Z</time>
      </trkpt>
      <trkpt lat="46.9914" lon="5.87921">
        <ele>314.6</ele>
        <time>2022-05-10T07:43:40Z</time>
      </trkpt>
      <trkpt lat="46.99137" lon="5.87928">
        <ele>314</ele>
        <time>2022-05-10T07:43:46Z</time>
      </trkpt>
      <trkpt lat="46.99133" lon="5.87933">
        <ele>313.7</ele>
        <time>2022-05-10T07:43:51Z</time>
      </trkpt>
      <trkpt lat="46.99133" lon="5.87941">
        <ele>313.7</ele>
        <time>2022-05-10T07:43:57Z</time>
      </trkpt>
      <trkpt lat="46.99135" lon="5.87947">
        <ele>315.1</ele>
        <time>2022-05-10T07:44:01Z</time>
      </trkpt>
      <trkpt lat="46.99132" lon="5.87952">
        <ele>318.1</ele>
        <time>2022-05-10T07:44:08Z</time>
      </trkpt>
      <trkpt lat="46.99128" lon="5.87948">
        <ele>319.8</ele>
        <time>2022-05-10T07:44:13Z</time>
      </trkpt>
      <trkpt lat="46.99123" lon="5.8795">
        <ele>321.7</ele>
        <time>2022-05-10T07:44:32Z</time>
      </trkpt>
      <trkpt lat="46.99118" lon="5.87953">
        <ele>322.5</ele>
        <time>2022-05-10T07:44:35Z</time>
      </trkpt>
      <trkpt lat="46.99114" lon="5.87956">
        <ele>323.7</ele>
        <time>2022-05-10T07:44:38Z</time>
      </trkpt>
      <trkpt lat="46.99112" lon="5.87962">
        <ele>326.8</ele>
        <time>2022-05-10T07:44:44Z</time>
      </trkpt>
      <trkpt lat="46.99107" lon="5.87967">
        <ele>331.1</ele>
        <time>2022-05-10T07:44:55Z</time>
      </trkpt>
      <trkpt lat="46.99105" lon="5.87973">
        <ele>331.5</ele>
        <time>2022-05-10T07:45:00Z</time>
      </trkpt>
      <trkpt lat="46.99104" lon="5.8798">
        <ele>331.4</ele>
        <time>2022-05-10T07:45:06Z</time>
      </trkpt>
      <trkpt lat="46.99104" lon="5.87987">
        <ele>330.2</ele>
        <time>2022-05-10T07:45:10Z</time>
      </trkpt>
      <trkpt lat="46.991" lon="5.87993">
        <ele>325.5</ele>
        <time>2022-05-10T07:45:24Z</time>
      </trkpt>
      <trkpt lat="46.99096" lon="5.87995">
        <ele>325.2</ele>
        <time>2022-05-10T07:45:27Z</time>
      </trkpt>
      <trkpt lat="46.99091" lon="5.87992">
        <ele>325.5</ele>
        <time>2022-05-10T07:45:35Z</time>
      </trkpt>
      <trkpt lat="46.99087" lon="5.87996">
        <ele>330</ele>
        <time>2022-05-10T07:46:11Z</time>
      </trkpt>
      <trkpt lat="46.99083" lon="5.88001">
        <ele>330.2</ele>
        <time>2022-05-10T07:46:14Z</time>
      </trkpt>
      <trkpt lat="46.99078" lon="5.88002">
        <ele>330.8</ele>
        <time>2022-05-10T07:46:19Z</time>
      </trkpt>
      <trkpt lat="46.99074" lon="5.88006">
        <ele>330.5</ele>
        <time>2022-05-10T07:46:25Z</time>
      </trkpt>
      <trkpt lat="46.99069" lon="5.88008">
        <ele>330.2</ele>
        <time>2022-05-10T07:46:31Z</time>
      </trkpt>
      <trkpt lat="46.99064" lon="5.8801">
        <ele>329.1</ele>
        <time>2022-05-10T07:46:38Z</time>
      </trkpt>
      <trkpt lat="46.99058" lon="5.88012">
        <ele>328.4</ele>
        <time>2022-05-10T07:46:43Z</time>
      </trkpt>
      <trkpt lat="46.99054" lon="5.88015">
        <ele>328.3</ele>
        <time>2022-05-10T07:46:47Z</time>
      </trkpt>
      <trkpt lat="46.99051" lon="5.88021">
        <ele>328.8</ele>
        <time>2022-05-10T07:46:52Z</time>
      </trkpt>
      <trkpt lat="46.9905" lon="5.88028">
        <ele>329.3</ele>
        <time>2022-05-10T07:46:57Z</time>
      </trkpt>
      <trkpt lat="46.99045" lon="5.88029">
        <ele>327.3</ele>
        <time>2022-05-10T07:47:14Z</time>
      </trkpt>
      <trkpt lat="46.99049" lon="5.88034">
        <ele>327.5</ele>
        <time>2022-05-10T07:47:24Z</time>
      </trkpt>
      <trkpt lat="46.99054" lon="5.88038">
        <ele>327.3</ele>
        <time>2022-05-10T07:47:28Z</time>
      </trkpt>
      <trkpt lat="46.99054" lon="5.88046">
        <ele>327.1</ele>
        <time>2022-05-10T07:47:33Z</time>
      </trkpt>
      <trkpt lat="46.9905" lon="5.88052">
        <ele>327</ele>
        <time>2022-05-10T07:47:37Z</time>
      </trkpt>
      <trkpt lat="46.99047" lon="5.88057">
        <ele>326.1</ele>
        <time>2022-05-10T07:47:47Z</time>
      </trkpt>
      <trkpt lat="46.99043" lon="5.88061">
        <ele>325</ele>
        <time>2022-05-10T07:47:53Z</time>
      </trkpt>
      <trkpt lat="46.99039" lon="5.88065">
        <ele>324.4</ele>
        <time>2022-05-10T07:47:58Z</time>
      </trkpt>
      <trkpt lat="46.99036" lon="5.88071">
        <ele>324.3</ele>
        <time>2022-05-10T07:48:03Z</time>
      </trkpt>
      <trkpt lat="46.99033" lon="5.88077">
        <ele>323.8</ele>
        <time>2022-05-10T07:48:09Z</time>
      </trkpt>
      <trkpt lat="46.99031" lon="5.88083">
        <ele>322.3</ele>
        <time>2022-05-10T07:48:17Z</time>
      </trkpt>
      <trkpt lat="46.99028" lon="5.88087">
        <ele>321.8</ele>
        <time>2022-05-10T07:48:21Z</time>
      </trkpt>
      <trkpt lat="46.99025" lon="5.88092">
        <ele>321.1</ele>
        <time>2022-05-10T07:48:28Z</time>
      </trkpt>
      <trkpt lat="46.99021" lon="5.88097">
        <ele>320.9</ele>
        <time>2022-05-10T07:48:37Z</time>
      </trkpt>
      <trkpt lat="46.99019" lon="5.88103">
        <ele>320.5</ele>
        <time>2022-05-10T07:48:46Z</time>
      </trkpt>
      <trkpt lat="46.9902" lon="5.8811">
        <ele>319.3</ele>
        <time>2022-05-10T07:48:53Z</time>
      </trkpt>
      <trkpt lat="46.99019" lon="5.88117">
        <ele>319.1</ele>
        <time>2022-05-10T07:49:01Z</time>
      </trkpt>
      <trkpt lat="46.99021" lon="5.88123">
        <ele>319.9</ele>
        <time>2022-05-10T07:49:13Z</time>
      </trkpt>
      <trkpt lat="46.99016" lon="5.8812">
        <ele>320.6</ele>
        <time>2022-05-10T07:49:18Z</time>
      </trkpt>
      <trkpt lat="46.99012" lon="5.88117">
        <ele>321.2</ele>
        <time>2022-05-10T07:49:22Z</time>
      </trkpt>
      <trkpt lat="46.99008" lon="5.88113">
        <ele>321.5</ele>
        <time>2022-05-10T07:49:26Z</time>
      </trkpt>
      <trkpt lat="46.99006" lon="5.88107">
        <ele>321.4</ele>
        <time>2022-05-10T07:49:29Z</time>
      </trkpt>
      <trkpt lat="46.99004" lon="5.881">
        <ele>320.8</ele>
        <time>2022-05-10T07:49:34Z</time>
      </trkpt>
      <trkpt lat="46.99009" lon="5.88098">
        <ele>319.5</ele>
        <time>2022-05-10T07:49:39Z</time>
      </trkpt>
      <trkpt lat="46.99014" lon="5.88099">
        <ele>319.5</ele>
        <time>2022-05-10T07:49:44Z</time>
      </trkpt>
      <trkpt lat="46.9902" lon="5.88099">
        <ele>320</ele>
        <time>2022-05-10T07:49:47Z</time>
      </trkpt>
      <trkpt lat="46.99025" lon="5.88098">
        <ele>320.2</ele>
        <time>2022-05-10T07:49:51Z</time>
      </trkpt>
      <trkpt lat="46.9903" lon="5.88096">
        <ele>320.6</ele>
        <time>2022-05-10T07:49:54Z</time>
      </trkpt>
      <trkpt lat="46.99035" lon="5.88092">
        <ele>321</ele>
        <time>2022-05-10T07:49:58Z</time>
      </trkpt>
      <trkpt lat="46.99038" lon="5.88085">
        <ele>320.8</ele>
        <time>2022-05-10T07:50:04Z</time>
      </trkpt>
      <trkpt lat="46.99041" lon="5.88078">
        <ele>320.6</ele>
        <time>2022-05-10T07:50:09Z</time>
      </trkpt>
      <trkpt lat="46.99041" lon="5.88072">
        <ele>320.5</ele>
        <time>2022-05-10T07:50:14Z</time>
      </trkpt>
      <trkpt lat="46.9904" lon="5.88066">
        <ele>320.3</ele>
        <time>2022-05-10T07:50:18Z</time>
      </trkpt>
      <trkpt lat="46.99041" lon="5.88058">
        <ele>320.5</ele>
        <time>2022-05-10T07:50:23Z</time>
      </trkpt>
      <trkpt lat="46.99045" lon="5.88052">
        <ele>321.1</ele>
        <time>2022-05-10T07:50:28Z</time>
      </trkpt>
      <trkpt lat="46.99047" lon="5.88046">
        <ele>321.9</ele>
        <time>2022-05-10T07:50:38Z</time>
      </trkpt>
      <trkpt lat="46.99053" lon="5.88044">
        <ele>321.5</ele>
        <time>2022-05-10T07:50:46Z</time>
      </trkpt>
      <trkpt lat="46.99057" lon="5.88039">
        <ele>321.2</ele>
        <time>2022-05-10T07:50:50Z</time>
      </trkpt>
      <trkpt lat="46.99054" lon="5.88033">
        <ele>321.3</ele>
        <time>2022-05-10T07:50:54Z</time>
      </trkpt>
      <trkpt lat="46.99052" lon="5.88027">
        <ele>321</ele>
        <time>2022-05-10T07:50:59Z</time>
      </trkpt>
      <trkpt lat="46.99047" lon="5.88023">
        <ele>320.4</ele>
        <time>2022-05-10T07:51:04Z</time>
      </trkpt>
      <trkpt lat="46.99042" lon="5.88021">
        <ele>319.9</ele>
        <time>2022-05-10T07:51:07Z</time>
      </trkpt>
      <trkpt lat="46.99037" lon="5.8802">
        <ele>318.9</ele>
        <time>2022-05-10T07:51:11Z</time>
      </trkpt>
      <trkpt lat="46.99037" lon="5.88013">
        <ele>316.6</ele>
        <time>2022-05-10T07:51:30Z</time>
      </trkpt>
      <trkpt lat="46.99034" lon="5.88006">
        <ele>316.5</ele>
        <time>2022-05-10T07:51:34Z</time>
      </trkpt>
      <trkpt lat="46.99032" lon="5.87999">
        <ele>316.6</ele>
        <time>2022-05-10T07:51:40Z</time>
      </trkpt>
      <trkpt lat="46.99028" lon="5.87995">
        <ele>316.6</ele>
        <time>2022-05-10T07:51:47Z</time>
      </trkpt>
      <trkpt lat="46.99026" lon="5.87989">
        <ele>316.7</ele>
        <time>2022-05-10T07:51:56Z</time>
      </trkpt>
      <trkpt lat="46.99023" lon="5.87982">
        <ele>317.5</ele>
        <time>2022-05-10T07:52:04Z</time>
      </trkpt>
      <trkpt lat="46.9902" lon="5.87975">
        <ele>318.5</ele>
        <time>2022-05-10T07:52:09Z</time>
      </trkpt>
      <trkpt lat="46.99019" lon="5.87968">
        <ele>320</ele>
        <time>2022-05-10T07:52:16Z</time>
      </trkpt>
      <trkpt lat="46.99017" lon="5.87961">
        <ele>320.8</ele>
        <time>2022-05-10T07:52:22Z</time>
      </trkpt>
      <trkpt lat="46.99012" lon="5.8796">
        <ele>321.4</ele>
        <time>2022-05-10T07:52:30Z</time>
      </trkpt>
      <trkpt lat="46.99009" lon="5.87954">
        <ele>322</ele>
        <time>2022-05-10T07:52:37Z</time>
      </trkpt>
      <trkpt lat="46.99007" lon="5.87947">
        <ele>322.2</ele>
        <time>2022-05-10T07:52:42Z</time>
      </trkpt>
      <trkpt lat="46.99004" lon="5.87941">
        <ele>323.4</ele>
        <time>2022-05-10T07:52:49Z</time>
      </trkpt>
      <trkpt lat="46.99003" lon="5.87934">
        <ele>324.9</ele>
        <time>2022-05-10T07:52:55Z</time>
      </trkpt>
      <trkpt lat="46.98999" lon="5.87932">
        <ele>330.4</ele>
        <time>2022-05-10T07:53:10Z</time>
      </trkpt>
      <trkpt lat="46.98994" lon="5.87929">
        <ele>332</ele>
        <time>2022-05-10T07:53:16Z</time>
      </trkpt>
      <trkpt lat="46.98989" lon="5.87929">
        <ele>333.4</ele>
        <time>2022-05-10T07:53:22Z</time>
      </trkpt>
      <trkpt lat="46.98985" lon="5.8793">
        <ele>335.3</ele>
        <time>2022-05-10T07:53:31Z</time>
      </trkpt>
      <trkpt lat="46.9898" lon="5.87929">
        <ele>336.9</ele>
        <time>2022-05-10T07:53:40Z</time>
      </trkpt>
      <trkpt lat="46.98975" lon="5.87932">
        <ele>337.7</ele>
        <time>2022-05-10T07:53:46Z</time>
      </trkpt>
      <trkpt lat="46.98971" lon="5.87934">
        <ele>338</ele>
        <time>2022-05-10T07:53:50Z</time>
      </trkpt>
      <trkpt lat="46.98966" lon="5.87935">
        <ele>338.4</ele>
        <time>2022-05-10T07:53:55Z</time>
      </trkpt>
      <trkpt lat="46.98961" lon="5.87931">
        <ele>339.3</ele>
        <time>2022-05-10T07:54:01Z</time>
      </trkpt>
      <trkpt lat="46.98957" lon="5.87927">
        <ele>340.4</ele>
        <time>2022-05-10T07:54:05Z</time>
      </trkpt>
      <trkpt lat="46.98952" lon="5.8793">
        <ele>344.3</ele>
        <time>2022-05-10T07:54:18Z</time>
      </trkpt>
      <trkpt lat="46.98948" lon="5.87931">
        <ele>345.6</ele>
        <time>2022-05-10T07:54:25Z</time>
      </trkpt>
      <trkpt lat="46.98944" lon="5.87927">
        <ele>348</ele>
        <time>2022-05-10T07:54:33Z</time>
      </trkpt>
      <trkpt lat="46.9894" lon="5.87924">
        <ele>350.6</ele>
        <time>2022-05-10T07:54:51Z</time>
      </trkpt>
      <trkpt lat="46.98935" lon="5.87924">
        <ele>351</ele>
        <time>2022-05-10T07:55:01Z</time>
      </trkpt>
      <trkpt lat="46.98931" lon="5.87922">
        <ele>352.2</ele>
        <time>2022-05-10T07:55:06Z</time>
      </trkpt>
      <trkpt lat="46.98927" lon="5.87918">
        <ele>353.2</ele>
        <time>2022-05-10T07:55:13Z</time>
      </trkpt>
      <trkpt lat="46.98922" lon="5.87918">
        <ele>354</ele>
        <time>2022-05-10T07:55:22Z</time>
      </trkpt>
      <trkpt lat="46.98918" lon="5.87918">
        <ele>354.9</ele>
        <time>2022-05-10T07:55:31Z</time>
      </trkpt>
      <trkpt lat="46.98913" lon="5.87918">
        <ele>355.4</ele>
        <time>2022-05-10T07:55:37Z</time>
      </trkpt>
      <trkpt lat="46.98908" lon="5.8792">
        <ele>356.2</ele>
        <time>2022-05-10T07:55:45Z</time>
      </trkpt>
      <trkpt lat="46.98902" lon="5.87923">
        <ele>356.4</ele>
        <time>2022-05-10T07:55:50Z</time>
      </trkpt>
      <trkpt lat="46.98898" lon="5.8792">
        <ele>356.8</ele>
        <time>2022-05-10T07:55:57Z</time>
      </trkpt>
      <trkpt lat="46.98892" lon="5.87921">
        <ele>357</ele>
        <time>2022-05-10T07:56:02Z</time>
      </trkpt>
      <trkpt lat="46.98888" lon="5.87922">
        <ele>357.4</ele>
        <time>2022-05-10T07:56:07Z</time>
      </trkpt>
      <trkpt lat="46.98886" lon="5.87928">
        <ele>358.7</ele>
        <time>2022-05-10T07:56:17Z</time>
      </trkpt>
      <trkpt lat="46.98889" lon="5.87933">
        <ele>359.8</ele>
        <time>2022-05-10T07:56:26Z</time>
      </trkpt>
      <trkpt lat="46.98895" lon="5.87936">
        <ele>360.3</ele>
        <time>2022-05-10T07:56:32Z</time>
      </trkpt>
      <trkpt lat="46.98899" lon="5.87939">
        <ele>361.4</ele>
        <time>2022-05-10T07:56:38Z</time>
      </trkpt>
      <trkpt lat="46.98904" lon="5.87944">
        <ele>362</ele>
        <time>2022-05-10T07:56:44Z</time>
      </trkpt>
      <trkpt lat="46.98908" lon="5.87948">
        <ele>362.5</ele>
        <time>2022-05-10T07:56:48Z</time>
      </trkpt>
      <trkpt lat="46.98912" lon="5.87952">
        <ele>362.9</ele>
        <time>2022-05-10T07:56:53Z</time>
      </trkpt>
      <trkpt lat="46.98916" lon="5.87957">
        <ele>362.4</ele>
        <time>2022-05-10T07:57:03Z</time>
      </trkpt>
      <trkpt lat="46.98919" lon="5.87962">
        <ele>362.6</ele>
        <time>2022-05-10T07:57:13Z</time>
      </trkpt>
      <trkpt lat="46.98922" lon="5.87968">
        <ele>362</ele>
        <time>2022-05-10T07:57:21Z</time>
      </trkpt>
      <trkpt lat="46.98924" lon="5.87974">
        <ele>361.1</ele>
        <time>2022-05-10T07:57:28Z</time>
      </trkpt>
      <trkpt lat="46.98928" lon="5.87979">
        <ele>361.8</ele>
        <time>2022-05-10T07:57:33Z</time>
      </trkpt>
      <trkpt lat="46.9893" lon="5.87986">
        <ele>363.5</ele>
        <time>2022-05-10T07:57:39Z</time>
      </trkpt>
      <trkpt lat="46.98928" lon="5.87992">
        <ele>365.6</ele>
        <time>2022-05-10T07:57:46Z</time>
      </trkpt>
      <trkpt lat="46.98923" lon="5.87992">
        <ele>365.2</ele>
        <time>2022-05-10T07:59:10Z</time>
      </trkpt>
      <trkpt lat="46.98918" lon="5.87991">
        <ele>365.1</ele>
        <time>2022-05-10T07:59:17Z</time>
      </trkpt>
      <trkpt lat="46.98922" lon="5.87988">
        <ele>368.6</ele>
        <time>2022-05-10T07:59:42Z</time>
      </trkpt>
      <trkpt lat="46.98926" lon="5.87993">
        <ele>368.7</ele>
        <time>2022-05-10T08:00:34Z</time>
      </trkpt>
      <trkpt lat="46.98922" lon="5.87996">
        <ele>372</ele>
        <time>2022-05-10T08:01:40Z</time>
      </trkpt>
      <trkpt lat="46.98926" lon="5.87993">
        <ele>372.2</ele>
        <time>2022-05-10T08:02:19Z</time>
      </trkpt>
      <trkpt lat="46.98921" lon="5.87993">
        <ele>370.4</ele>
        <time>2022-05-10T08:03:07Z</time>
      </trkpt>
      <trkpt lat="46.98917" lon="5.87996">
        <ele>371.1</ele>
        <time>2022-05-10T08:03:14Z</time>
      </trkpt>
      <trkpt lat="46.98913" lon="5.87998">
        <ele>371.5</ele>
        <time>2022-05-10T08:03:19Z</time>
      </trkpt>
      <trkpt lat="46.98908" lon="5.87995">
        <ele>371.6</ele>
        <time>2022-05-10T08:03:25Z</time>
      </trkpt>
      <trkpt lat="46.98904" lon="5.87994">
        <ele>371.6</ele>
        <time>2022-05-10T08:03:31Z</time>
      </trkpt>
      <trkpt lat="46.989" lon="5.8799">
        <ele>371.4</ele>
        <time>2022-05-10T08:03:38Z</time>
      </trkpt>
      <trkpt lat="46.98895" lon="5.87994">
        <ele>371.4</ele>
        <time>2022-05-10T08:03:44Z</time>
      </trkpt>
      <trkpt lat="46.98891" lon="5.87997">
        <ele>371.2</ele>
        <time>2022-05-10T08:03:48Z</time>
      </trkpt>
      <trkpt lat="46.98886" lon="5.88">
        <ele>371.2</ele>
        <time>2022-05-10T08:03:52Z</time>
      </trkpt>
      <trkpt lat="46.98882" lon="5.88006">
        <ele>371.5</ele>
        <time>2022-05-10T08:03:56Z</time>
      </trkpt>
      <trkpt lat="46.98879" lon="5.88012">
        <ele>372.5</ele>
        <time>2022-05-10T08:04:00Z</time>
      </trkpt>
      <trkpt lat="46.98876" lon="5.88018">
        <ele>374.1</ele>
        <time>2022-05-10T08:04:05Z</time>
      </trkpt>
      <trkpt lat="46.98874" lon="5.88025">
        <ele>375.9</ele>
        <time>2022-05-10T08:04:10Z</time>
      </trkpt>
      <trkpt lat="46.9887" lon="5.8803">
        <ele>378.8</ele>
        <time>2022-05-10T08:04:20Z</time>
      </trkpt>
      <trkpt lat="46.98866" lon="5.88035">
        <ele>376.7</ele>
        <time>2022-05-10T08:04:43Z</time>
      </trkpt>
      <trkpt lat="46.98862" lon="5.88039">
        <ele>377.3</ele>
        <time>2022-05-10T08:04:51Z</time>
      </trkpt>
      <trkpt lat="46.98858" lon="5.88042">
        <ele>378.2</ele>
        <time>2022-05-10T08:04:55Z</time>
      </trkpt>
      <trkpt lat="46.98854" lon="5.88045">
        <ele>380.3</ele>
        <time>2022-05-10T08:05:02Z</time>
      </trkpt>
      <trkpt lat="46.98849" lon="5.88047">
        <ele>381.7</ele>
        <time>2022-05-10T08:05:08Z</time>
      </trkpt>
      <trkpt lat="46.98844" lon="5.8805">
        <ele>382.3</ele>
        <time>2022-05-10T08:05:14Z</time>
      </trkpt>
      <trkpt lat="46.9884" lon="5.88053">
        <ele>381.6</ele>
        <time>2022-05-10T08:05:18Z</time>
      </trkpt>
      <trkpt lat="46.98835" lon="5.88056">
        <ele>381.1</ele>
        <time>2022-05-10T08:05:23Z</time>
      </trkpt>
      <trkpt lat="46.9883" lon="5.88057">
        <ele>381.1</ele>
        <time>2022-05-10T08:05:29Z</time>
      </trkpt>
      <trkpt lat="46.98825" lon="5.88061">
        <ele>381.9</ele>
        <time>2022-05-10T08:05:35Z</time>
      </trkpt>
      <trkpt lat="46.98821" lon="5.88064">
        <ele>382.4</ele>
        <time>2022-05-10T08:05:39Z</time>
      </trkpt>
      <trkpt lat="46.98817" lon="5.88068">
        <ele>382.8</ele>
        <time>2022-05-10T08:05:44Z</time>
      </trkpt>
      <trkpt lat="46.98813" lon="5.88072">
        <ele>382.9</ele>
        <time>2022-05-10T08:05:50Z</time>
      </trkpt>
      <trkpt lat="46.98809" lon="5.88076">
        <ele>382.9</ele>
        <time>2022-05-10T08:05:57Z</time>
      </trkpt>
      <trkpt lat="46.98805" lon="5.88079">
        <ele>384</ele>
        <time>2022-05-10T08:06:04Z</time>
      </trkpt>
      <trkpt lat="46.988" lon="5.88082">
        <ele>384.4</ele>
        <time>2022-05-10T08:06:11Z</time>
      </trkpt>
      <trkpt lat="46.98797" lon="5.88088">
        <ele>385.2</ele>
        <time>2022-05-10T08:06:18Z</time>
      </trkpt>
      <trkpt lat="46.98792" lon="5.88092">
        <ele>386.8</ele>
        <time>2022-05-10T08:06:25Z</time>
      </trkpt>
      <trkpt lat="46.98788" lon="5.88097">
        <ele>388</ele>
        <time>2022-05-10T08:06:30Z</time>
      </trkpt>
      <trkpt lat="46.98784" lon="5.88103">
        <ele>389.1</ele>
        <time>2022-05-10T08:06:35Z</time>
      </trkpt>
      <trkpt lat="46.9878" lon="5.88107">
        <ele>390.3</ele>
        <time>2022-05-10T08:06:43Z</time>
      </trkpt>
      <trkpt lat="46.98777" lon="5.88113">
        <ele>390.8</ele>
        <time>2022-05-10T08:06:49Z</time>
      </trkpt>
      <trkpt lat="46.98773" lon="5.88118">
        <ele>391.2</ele>
        <time>2022-05-10T08:06:56Z</time>
      </trkpt>
      <trkpt lat="46.9877" lon="5.88124">
        <ele>391.4</ele>
        <time>2022-05-10T08:07:01Z</time>
      </trkpt>
      <trkpt lat="46.98768" lon="5.8813">
        <ele>391.9</ele>
        <time>2022-05-10T08:07:07Z</time>
      </trkpt>
      <trkpt lat="46.98765" lon="5.88136">
        <ele>391.9</ele>
        <time>2022-05-10T08:07:14Z</time>
      </trkpt>
      <trkpt lat="46.98761" lon="5.88141">
        <ele>392.5</ele>
        <time>2022-05-10T08:07:20Z</time>
      </trkpt>
      <trkpt lat="46.98758" lon="5.88148">
        <ele>393.3</ele>
        <time>2022-05-10T08:07:25Z</time>
      </trkpt>
      <trkpt lat="46.98755" lon="5.88154">
        <ele>393.8</ele>
        <time>2022-05-10T08:07:30Z</time>
      </trkpt>
      <trkpt lat="46.98753" lon="5.8816">
        <ele>394.5</ele>
        <time>2022-05-10T08:07:36Z</time>
      </trkpt>
      <trkpt lat="46.9875" lon="5.88165">
        <ele>394.6</ele>
        <time>2022-05-10T08:08:22Z</time>
      </trkpt>
      <trkpt lat="46.98747" lon="5.88172">
        <ele>394.8</ele>
        <time>2022-05-10T08:08:28Z</time>
      </trkpt>
      <trkpt lat="46.98745" lon="5.88178">
        <ele>395.9</ele>
        <time>2022-05-10T08:08:35Z</time>
      </trkpt>
      <trkpt lat="46.98743" lon="5.88184">
        <ele>396.5</ele>
        <time>2022-05-10T08:08:41Z</time>
      </trkpt>
      <trkpt lat="46.9874" lon="5.8819">
        <ele>397</ele>
        <time>2022-05-10T08:08:47Z</time>
      </trkpt>
      <trkpt lat="46.98739" lon="5.88196">
        <ele>399.2</ele>
        <time>2022-05-10T08:09:00Z</time>
      </trkpt>
      <trkpt lat="46.98737" lon="5.88202">
        <ele>400.6</ele>
        <time>2022-05-10T08:09:05Z</time>
      </trkpt>
      <trkpt lat="46.98736" lon="5.88209">
        <ele>402.3</ele>
        <time>2022-05-10T08:09:11Z</time>
      </trkpt>
      <trkpt lat="46.98734" lon="5.88215">
        <ele>402.9</ele>
        <time>2022-05-10T08:09:37Z</time>
      </trkpt>
      <trkpt lat="46.98734" lon="5.88222">
        <ele>403.1</ele>
        <time>2022-05-10T08:09:43Z</time>
      </trkpt>
      <trkpt lat="46.98733" lon="5.8823">
        <ele>403.5</ele>
        <time>2022-05-10T08:09:49Z</time>
      </trkpt>
      <trkpt lat="46.98731" lon="5.88237">
        <ele>404.5</ele>
        <time>2022-05-10T08:09:55Z</time>
      </trkpt>
      <trkpt lat="46.98731" lon="5.88244">
        <ele>406</ele>
        <time>2022-05-10T08:10:00Z</time>
      </trkpt>
      <trkpt lat="46.9873" lon="5.88251">
        <ele>407.1</ele>
        <time>2022-05-10T08:10:05Z</time>
      </trkpt>
      <trkpt lat="46.98729" lon="5.88259">
        <ele>407.6</ele>
        <time>2022-05-10T08:10:10Z</time>
      </trkpt>
      <trkpt lat="46.98729" lon="5.88265">
        <ele>407.6</ele>
        <time>2022-05-10T08:10:16Z</time>
      </trkpt>
      <trkpt lat="46.98727" lon="5.88272">
        <ele>407.5</ele>
        <time>2022-05-10T08:10:21Z</time>
      </trkpt>
      <trkpt lat="46.98725" lon="5.88279">
        <ele>407.3</ele>
        <time>2022-05-10T08:10:26Z</time>
      </trkpt>
      <trkpt lat="46.98724" lon="5.88286">
        <ele>406.7</ele>
        <time>2022-05-10T08:10:31Z</time>
      </trkpt>
      <trkpt lat="46.98721" lon="5.88292">
        <ele>406.1</ele>
        <time>2022-05-10T08:10:36Z</time>
      </trkpt>
      <trkpt lat="46.98721" lon="5.88299">
        <ele>405.8</ele>
        <time>2022-05-10T08:10:43Z</time>
      </trkpt>
      <trkpt lat="46.98721" lon="5.88307">
        <ele>405.4</ele>
        <time>2022-05-10T08:10:49Z</time>
      </trkpt>
      <trkpt lat="46.9872" lon="5.88314">
        <ele>405.5</ele>
        <time>2022-05-10T08:10:54Z</time>
      </trkpt>
      <trkpt lat="46.98719" lon="5.8832">
        <ele>406.7</ele>
        <time>2022-05-10T08:11:03Z</time>
      </trkpt>
      <trkpt lat="46.98723" lon="5.88323">
        <ele>406.7</ele>
        <time>2022-05-10T08:11:16Z</time>
      </trkpt>
      <trkpt lat="46.98728" lon="5.88322">
        <ele>405.9</ele>
        <time>2022-05-10T08:11:21Z</time>
      </trkpt>
      <trkpt lat="46.98732" lon="5.88319">
        <ele>404.6</ele>
        <time>2022-05-10T08:11:28Z</time>
      </trkpt>
      <trkpt lat="46.98738" lon="5.88319">
        <ele>403.9</ele>
        <time>2022-05-10T08:11:41Z</time>
      </trkpt>
      <trkpt lat="46.98743" lon="5.88322">
        <ele>404</ele>
        <time>2022-05-10T08:11:49Z</time>
      </trkpt>
      <trkpt lat="46.98747" lon="5.88325">
        <ele>404.7</ele>
        <time>2022-05-10T08:11:54Z</time>
      </trkpt>
      <trkpt lat="46.98751" lon="5.88329">
        <ele>406</ele>
        <time>2022-05-10T08:12:00Z</time>
      </trkpt>
      <trkpt lat="46.98756" lon="5.88332">
        <ele>406.7</ele>
        <time>2022-05-10T08:12:24Z</time>
      </trkpt>
      <trkpt lat="46.98761" lon="5.88335">
        <ele>406.1</ele>
        <time>2022-05-10T08:12:29Z</time>
      </trkpt>
      <trkpt lat="46.9876" lon="5.88341">
        <ele>405.3</ele>
        <time>2022-05-10T08:12:39Z</time>
      </trkpt>
      <trkpt lat="46.98759" lon="5.88349">
        <ele>405.2</ele>
        <time>2022-05-10T08:12:46Z</time>
      </trkpt>
      <trkpt lat="46.98758" lon="5.88356">
        <ele>405.6</ele>
        <time>2022-05-10T08:12:52Z</time>
      </trkpt>
      <trkpt lat="46.98756" lon="5.88362">
        <ele>406.6</ele>
        <time>2022-05-10T08:12:58Z</time>
      </trkpt>
      <trkpt lat="46.98755" lon="5.88368">
        <ele>407.8</ele>
        <time>2022-05-10T08:13:05Z</time>
      </trkpt>
      <trkpt lat="46.98754" lon="5.88375">
        <ele>408.4</ele>
        <time>2022-05-10T08:13:13Z</time>
      </trkpt>
      <trkpt lat="46.98754" lon="5.88382">
        <ele>409.2</ele>
        <time>2022-05-10T08:13:22Z</time>
      </trkpt>
      <trkpt lat="46.98753" lon="5.8839">
        <ele>410.9</ele>
        <time>2022-05-10T08:13:31Z</time>
      </trkpt>
      <trkpt lat="46.98751" lon="5.88396">
        <ele>411.7</ele>
        <time>2022-05-10T08:13:35Z</time>
      </trkpt>
      <trkpt lat="46.98748" lon="5.88403">
        <ele>413.3</ele>
        <time>2022-05-10T08:13:40Z</time>
      </trkpt>
      <trkpt lat="46.98747" lon="5.8841">
        <ele>415.2</ele>
        <time>2022-05-10T08:13:45Z</time>
      </trkpt>
      <trkpt lat="46.98746" lon="5.88417">
        <ele>417</ele>
        <time>2022-05-10T08:13:51Z</time>
      </trkpt>
      <trkpt lat="46.98745" lon="5.88423">
        <ele>418.5</ele>
        <time>2022-05-10T08:13:58Z</time>
      </trkpt>
      <trkpt lat="46.98744" lon="5.8843">
        <ele>419.3</ele>
        <time>2022-05-10T08:14:05Z</time>
      </trkpt>
      <trkpt lat="46.98745" lon="5.88436">
        <ele>419.6</ele>
        <time>2022-05-10T08:14:12Z</time>
      </trkpt>
      <trkpt lat="46.98747" lon="5.88443">
        <ele>420.1</ele>
        <time>2022-05-10T08:14:19Z</time>
      </trkpt>
      <trkpt lat="46.98749" lon="5.8845">
        <ele>420.8</ele>
        <time>2022-05-10T08:14:24Z</time>
      </trkpt>
      <trkpt lat="46.98752" lon="5.88457">
        <ele>421.9</ele>
        <time>2022-05-10T08:14:30Z</time>
      </trkpt>
      <trkpt lat="46.98754" lon="5.88463">
        <ele>423.3</ele>
        <time>2022-05-10T08:14:36Z</time>
      </trkpt>
      <trkpt lat="46.98758" lon="5.88469">
        <ele>425</ele>
        <time>2022-05-10T08:14:42Z</time>
      </trkpt>
      <trkpt lat="46.9876" lon="5.88475">
        <ele>426.9</ele>
        <time>2022-05-10T08:14:48Z</time>
      </trkpt>
      <trkpt lat="46.98764" lon="5.8848">
        <ele>428.2</ele>
        <time>2022-05-10T08:14:55Z</time>
      </trkpt>
      <trkpt lat="46.98768" lon="5.88484">
        <ele>429.7</ele>
        <time>2022-05-10T08:15:03Z</time>
      </trkpt>
      <trkpt lat="46.98772" lon="5.88489">
        <ele>430.6</ele>
        <time>2022-05-10T08:15:11Z</time>
      </trkpt>
      <trkpt lat="46.98776" lon="5.88494">
        <ele>430.5</ele>
        <time>2022-05-10T08:15:16Z</time>
      </trkpt>
      <trkpt lat="46.9878" lon="5.88499">
        <ele>430.5</ele>
        <time>2022-05-10T08:15:21Z</time>
      </trkpt>
      <trkpt lat="46.98783" lon="5.88504">
        <ele>431.4</ele>
        <time>2022-05-10T08:15:27Z</time>
      </trkpt>
      <trkpt lat="46.98786" lon="5.8851">
        <ele>433.1</ele>
        <time>2022-05-10T08:15:35Z</time>
      </trkpt>
      <trkpt lat="46.98788" lon="5.88516">
        <ele>433.7</ele>
        <time>2022-05-10T08:15:41Z</time>
      </trkpt>
      <trkpt lat="46.98791" lon="5.88523">
        <ele>434.5</ele>
        <time>2022-05-10T08:15:46Z</time>
      </trkpt>
      <trkpt lat="46.98794" lon="5.88528">
        <ele>435.1</ele>
        <time>2022-05-10T08:15:50Z</time>
      </trkpt>
      <trkpt lat="46.98797" lon="5.88534">
        <ele>435.5</ele>
        <time>2022-05-10T08:15:54Z</time>
      </trkpt>
      <trkpt lat="46.988" lon="5.88539">
        <ele>435.7</ele>
        <time>2022-05-10T08:15:58Z</time>
      </trkpt>
      <trkpt lat="46.98804" lon="5.88544">
        <ele>435.9</ele>
        <time>2022-05-10T08:16:03Z</time>
      </trkpt>
      <trkpt lat="46.98808" lon="5.8855">
        <ele>436</ele>
        <time>2022-05-10T08:16:08Z</time>
      </trkpt>
      <trkpt lat="46.98811" lon="5.88556">
        <ele>435.9</ele>
        <time>2022-05-10T08:16:14Z</time>
      </trkpt>
      <trkpt lat="46.98814" lon="5.88562">
        <ele>435.8</ele>
        <time>2022-05-10T08:16:20Z</time>
      </trkpt>
      <trkpt lat="46.98816" lon="5.88568">
        <ele>435.7</ele>
        <time>2022-05-10T08:16:27Z</time>
      </trkpt>
      <trkpt lat="46.98818" lon="5.88574">
        <ele>435.4</ele>
        <time>2022-05-10T08:16:31Z</time>
      </trkpt>
      <trkpt lat="46.98822" lon="5.8858">
        <ele>435</ele>
        <time>2022-05-10T08:16:35Z</time>
      </trkpt>
      <trkpt lat="46.98825" lon="5.88586">
        <ele>434.7</ele>
        <time>2022-05-10T08:16:40Z</time>
      </trkpt>
      <trkpt lat="46.98828" lon="5.88592">
        <ele>434.8</ele>
        <time>2022-05-10T08:16:45Z</time>
      </trkpt>
      <trkpt lat="46.98832" lon="5.88598">
        <ele>434.9</ele>
        <time>2022-05-10T08:16:50Z</time>
      </trkpt>
      <trkpt lat="46.98833" lon="5.88605">
        <ele>435.2</ele>
        <time>2022-05-10T08:16:56Z</time>
      </trkpt>
      <trkpt lat="46.98835" lon="5.88612">
        <ele>435.2</ele>
        <time>2022-05-10T08:17:02Z</time>
      </trkpt>
      <trkpt lat="46.98838" lon="5.88618">
        <ele>435.8</ele>
        <time>2022-05-10T08:17:07Z</time>
      </trkpt>
      <trkpt lat="46.9884" lon="5.88624">
        <ele>436.9</ele>
        <time>2022-05-10T08:17:12Z</time>
      </trkpt>
      <trkpt lat="46.98843" lon="5.88631">
        <ele>437.8</ele>
        <time>2022-05-10T08:17:18Z</time>
      </trkpt>
      <trkpt lat="46.98846" lon="5.88636">
        <ele>437.9</ele>
        <time>2022-05-10T08:17:23Z</time>
      </trkpt>
      <trkpt lat="46.98848" lon="5.88643">
        <ele>438.2</ele>
        <time>2022-05-10T08:17:28Z</time>
      </trkpt>
      <trkpt lat="46.98851" lon="5.88649">
        <ele>438.7</ele>
        <time>2022-05-10T08:17:33Z</time>
      </trkpt>
      <trkpt lat="46.98853" lon="5.88656">
        <ele>439.3</ele>
        <time>2022-05-10T08:17:38Z</time>
      </trkpt>
      <trkpt lat="46.98855" lon="5.88662">
        <ele>439.3</ele>
        <time>2022-05-10T08:17:43Z</time>
      </trkpt>
      <trkpt lat="46.98855" lon="5.88669">
        <ele>439.3</ele>
        <time>2022-05-10T08:17:51Z</time>
      </trkpt>
      <trkpt lat="46.98857" lon="5.88677">
        <ele>439.8</ele>
        <time>2022-05-10T08:17:57Z</time>
      </trkpt>
      <trkpt lat="46.98858" lon="5.88684">
        <ele>440.1</ele>
        <time>2022-05-10T08:18:02Z</time>
      </trkpt>
      <trkpt lat="46.9886" lon="5.88691">
        <ele>441.1</ele>
        <time>2022-05-10T08:18:06Z</time>
      </trkpt>
      <trkpt lat="46.98862" lon="5.88698">
        <ele>442.2</ele>
        <time>2022-05-10T08:18:10Z</time>
      </trkpt>
      <trkpt lat="46.98864" lon="5.88704">
        <ele>443.2</ele>
        <time>2022-05-10T08:18:14Z</time>
      </trkpt>
      <trkpt lat="46.98866" lon="5.88711">
        <ele>444.8</ele>
        <time>2022-05-10T08:18:20Z</time>
      </trkpt>
      <trkpt lat="46.98867" lon="5.88718">
        <ele>446.4</ele>
        <time>2022-05-10T08:18:28Z</time>
      </trkpt>
      <trkpt lat="46.98868" lon="5.88725">
        <ele>447.1</ele>
        <time>2022-05-10T08:18:33Z</time>
      </trkpt>
      <trkpt lat="46.98869" lon="5.88733">
        <ele>447.1</ele>
        <time>2022-05-10T08:18:38Z</time>
      </trkpt>
      <trkpt lat="46.98869" lon="5.8874">
        <ele>447.2</ele>
        <time>2022-05-10T08:18:42Z</time>
      </trkpt>
      <trkpt lat="46.98868" lon="5.88747">
        <ele>448.3</ele>
        <time>2022-05-10T08:18:47Z</time>
      </trkpt>
      <trkpt lat="46.98868" lon="5.88755">
        <ele>449</ele>
        <time>2022-05-10T08:18:51Z</time>
      </trkpt>
      <trkpt lat="46.98867" lon="5.88762">
        <ele>449.6</ele>
        <time>2022-05-10T08:18:55Z</time>
      </trkpt>
      <trkpt lat="46.98865" lon="5.88768">
        <ele>450.5</ele>
        <time>2022-05-10T08:19:00Z</time>
      </trkpt>
      <trkpt lat="46.98863" lon="5.88774">
        <ele>451.6</ele>
        <time>2022-05-10T08:19:05Z</time>
      </trkpt>
      <trkpt lat="46.9886" lon="5.8878">
        <ele>452</ele>
        <time>2022-05-10T08:19:10Z</time>
      </trkpt>
      <trkpt lat="46.98856" lon="5.88785">
        <ele>451.4</ele>
        <time>2022-05-10T08:19:15Z</time>
      </trkpt>
      <trkpt lat="46.98853" lon="5.88791">
        <ele>450.5</ele>
        <time>2022-05-10T08:19:20Z</time>
      </trkpt>
      <trkpt lat="46.98849" lon="5.88796">
        <ele>448.6</ele>
        <time>2022-05-10T08:19:27Z</time>
      </trkpt>
      <trkpt lat="46.98847" lon="5.88801">
        <ele>445.4</ele>
        <time>2022-05-10T08:19:45Z</time>
      </trkpt>
      <trkpt lat="46.98844" lon="5.88807">
        <ele>445.3</ele>
        <time>2022-05-10T08:19:55Z</time>
      </trkpt>
      <trkpt lat="46.98843" lon="5.88815">
        <ele>444.8</ele>
        <time>2022-05-10T08:20:09Z</time>
      </trkpt>
      <trkpt lat="46.98844" lon="5.88822">
        <ele>444.8</ele>
        <time>2022-05-10T08:20:14Z</time>
      </trkpt>
      <trkpt lat="46.98844" lon="5.88829">
        <ele>445.3</ele>
        <time>2022-05-10T08:20:19Z</time>
      </trkpt>
      <trkpt lat="46.98847" lon="5.88835">
        <ele>446.2</ele>
        <time>2022-05-10T08:20:34Z</time>
      </trkpt>
      <trkpt lat="46.98846" lon="5.88842">
        <ele>446.9</ele>
        <time>2022-05-10T08:20:40Z</time>
      </trkpt>
      <trkpt lat="46.98848" lon="5.88849">
        <ele>445.6</ele>
        <time>2022-05-10T08:20:52Z</time>
      </trkpt>
      <trkpt lat="46.9885" lon="5.88855">
        <ele>445.5</ele>
        <time>2022-05-10T08:20:58Z</time>
      </trkpt>
      <trkpt lat="46.98851" lon="5.88861">
        <ele>445.1</ele>
        <time>2022-05-10T08:21:05Z</time>
      </trkpt>
      <trkpt lat="46.98852" lon="5.88868">
        <ele>444.6</ele>
        <time>2022-05-10T08:21:14Z</time>
      </trkpt>
      <trkpt lat="46.98853" lon="5.88876">
        <ele>443.6</ele>
        <time>2022-05-10T08:21:19Z</time>
      </trkpt>
      <trkpt lat="46.98853" lon="5.88883">
        <ele>442.7</ele>
        <time>2022-05-10T08:21:23Z</time>
      </trkpt>
      <trkpt lat="46.98855" lon="5.8889">
        <ele>442.1</ele>
        <time>2022-05-10T08:21:28Z</time>
      </trkpt>
      <trkpt lat="46.98856" lon="5.88897">
        <ele>442.3</ele>
        <time>2022-05-10T08:21:32Z</time>
      </trkpt>
      <trkpt lat="46.98856" lon="5.88903">
        <ele>442.7</ele>
        <time>2022-05-10T08:21:36Z</time>
      </trkpt>
      <trkpt lat="46.98857" lon="5.8891">
        <ele>442.7</ele>
        <time>2022-05-10T08:21:40Z</time>
      </trkpt>
      <trkpt lat="46.98857" lon="5.88917">
        <ele>442.6</ele>
        <time>2022-05-10T08:21:44Z</time>
      </trkpt>
      <trkpt lat="46.98857" lon="5.88924">
        <ele>442.7</ele>
        <time>2022-05-10T08:21:49Z</time>
      </trkpt>
      <trkpt lat="46.98857" lon="5.88931">
        <ele>443.2</ele>
        <time>2022-05-10T08:21:54Z</time>
      </trkpt>
      <trkpt lat="46.98856" lon="5.88938">
        <ele>442.7</ele>
        <time>2022-05-10T08:22:01Z</time>
      </trkpt>
      <trkpt lat="46.98855" lon="5.88945">
        <ele>442.4</ele>
        <time>2022-05-10T08:22:07Z</time>
      </trkpt>
      <trkpt lat="46.98853" lon="5.88953">
        <ele>442.1</ele>
        <time>2022-05-10T08:22:11Z</time>
      </trkpt>
      <trkpt lat="46.98852" lon="5.8896">
        <ele>441.9</ele>
        <time>2022-05-10T08:22:15Z</time>
      </trkpt>
      <trkpt lat="46.98851" lon="5.88967">
        <ele>441.7</ele>
        <time>2022-05-10T08:22:19Z</time>
      </trkpt>
      <trkpt lat="46.98852" lon="5.88974">
        <ele>441.8</ele>
        <time>2022-05-10T08:22:24Z</time>
      </trkpt>
      <trkpt lat="46.98852" lon="5.88981">
        <ele>442.8</ele>
        <time>2022-05-10T08:22:31Z</time>
      </trkpt>
      <trkpt lat="46.98856" lon="5.88986">
        <ele>443.6</ele>
        <time>2022-05-10T08:22:37Z</time>
      </trkpt>
      <trkpt lat="46.98859" lon="5.88991">
        <ele>443.8</ele>
        <time>2022-05-10T08:22:42Z</time>
      </trkpt>
      <trkpt lat="46.98861" lon="5.88998">
        <ele>444.2</ele>
        <time>2022-05-10T08:22:47Z</time>
      </trkpt>
      <trkpt lat="46.98864" lon="5.89003">
        <ele>444.6</ele>
        <time>2022-05-10T08:22:52Z</time>
      </trkpt>
      <trkpt lat="46.98866" lon="5.89009">
        <ele>445.1</ele>
        <time>2022-05-10T08:22:57Z</time>
      </trkpt>
      <trkpt lat="46.98869" lon="5.89016">
        <ele>445.1</ele>
        <time>2022-05-10T08:23:03Z</time>
      </trkpt>
      <trkpt lat="46.9887" lon="5.89022">
        <ele>445</ele>
        <time>2022-05-10T08:23:07Z</time>
      </trkpt>
      <trkpt lat="46.98871" lon="5.89029">
        <ele>444.9</ele>
        <time>2022-05-10T08:23:11Z</time>
      </trkpt>
      <trkpt lat="46.98873" lon="5.89036">
        <ele>445.3</ele>
        <time>2022-05-10T08:23:17Z</time>
      </trkpt>
      <trkpt lat="46.98874" lon="5.89044">
        <ele>445.7</ele>
        <time>2022-05-10T08:23:21Z</time>
      </trkpt>
      <trkpt lat="46.98878" lon="5.8905">
        <ele>445.9</ele>
        <time>2022-05-10T08:23:26Z</time>
      </trkpt>
      <trkpt lat="46.9888" lon="5.89056">
        <ele>445.9</ele>
        <time>2022-05-10T08:23:33Z</time>
      </trkpt>
      <trkpt lat="46.98883" lon="5.89062">
        <ele>446.6</ele>
        <time>2022-05-10T08:23:38Z</time>
      </trkpt>
      <trkpt lat="46.98885" lon="5.89069">
        <ele>447.3</ele>
        <time>2022-05-10T08:23:42Z</time>
      </trkpt>
      <trkpt lat="46.98886" lon="5.89077">
        <ele>447.8</ele>
        <time>2022-05-10T08:23:45Z</time>
      </trkpt>
      <trkpt lat="46.98886" lon="5.89085">
        <ele>448.3</ele>
        <time>2022-05-10T08:23:49Z</time>
      </trkpt>
      <trkpt lat="46.98887" lon="5.89092">
        <ele>449.3</ele>
        <time>2022-05-10T08:23:55Z</time>
      </trkpt>
      <trkpt lat="46.9889" lon="5.89099">
        <ele>450.2</ele>
        <time>2022-05-10T08:24:00Z</time>
      </trkpt>
      <trkpt lat="46.98893" lon="5.89104">
        <ele>451.3</ele>
        <time>2022-05-10T08:24:06Z</time>
      </trkpt>
      <trkpt lat="46.98897" lon="5.89109">
        <ele>452.4</ele>
        <time>2022-05-10T08:24:14Z</time>
      </trkpt>
      <trkpt lat="46.98898" lon="5.89117">
        <ele>453.3</ele>
        <time>2022-05-10T08:24:20Z</time>
      </trkpt>
      <trkpt lat="46.98898" lon="5.89124">
        <ele>454.1</ele>
        <time>2022-05-10T08:24:24Z</time>
      </trkpt>
      <trkpt lat="46.98901" lon="5.89132">
        <ele>454.7</ele>
        <time>2022-05-10T08:24:28Z</time>
      </trkpt>
      <trkpt lat="46.98903" lon="5.89138">
        <ele>455.5</ele>
        <time>2022-05-10T08:24:32Z</time>
      </trkpt>
      <trkpt lat="46.98906" lon="5.89143">
        <ele>455.8</ele>
        <time>2022-05-10T08:24:36Z</time>
      </trkpt>
      <trkpt lat="46.9891" lon="5.89148">
        <ele>455.8</ele>
        <time>2022-05-10T08:24:44Z</time>
      </trkpt>
      <trkpt lat="46.98913" lon="5.89154">
        <ele>455.4</ele>
        <time>2022-05-10T08:24:50Z</time>
      </trkpt>
      <trkpt lat="46.98918" lon="5.89157">
        <ele>455.3</ele>
        <time>2022-05-10T08:24:57Z</time>
      </trkpt>
      <trkpt lat="46.98922" lon="5.89161">
        <ele>455.9</ele>
        <time>2022-05-10T08:25:04Z</time>
      </trkpt>
      <trkpt lat="46.98925" lon="5.89166">
        <ele>456.1</ele>
        <time>2022-05-10T08:25:08Z</time>
      </trkpt>
      <trkpt lat="46.98928" lon="5.89172">
        <ele>456.6</ele>
        <time>2022-05-10T08:25:13Z</time>
      </trkpt>
      <trkpt lat="46.98931" lon="5.89177">
        <ele>456.7</ele>
        <time>2022-05-10T08:25:18Z</time>
      </trkpt>
      <trkpt lat="46.98935" lon="5.89181">
        <ele>456.2</ele>
        <time>2022-05-10T08:25:24Z</time>
      </trkpt>
      <trkpt lat="46.9894" lon="5.89184">
        <ele>455.7</ele>
        <time>2022-05-10T08:25:28Z</time>
      </trkpt>
      <trkpt lat="46.98945" lon="5.89187">
        <ele>455</ele>
        <time>2022-05-10T08:25:32Z</time>
      </trkpt>
      <trkpt lat="46.98948" lon="5.89192">
        <ele>454</ele>
        <time>2022-05-10T08:25:36Z</time>
      </trkpt>
      <trkpt lat="46.98952" lon="5.89197">
        <ele>452.6</ele>
        <time>2022-05-10T08:25:42Z</time>
      </trkpt>
      <trkpt lat="46.98956" lon="5.892">
        <ele>451.7</ele>
        <time>2022-05-10T08:25:47Z</time>
      </trkpt>
      <trkpt lat="46.98958" lon="5.89207">
        <ele>450.8</ele>
        <time>2022-05-10T08:25:52Z</time>
      </trkpt>
      <trkpt lat="46.9896" lon="5.89213">
        <ele>449.5</ele>
        <time>2022-05-10T08:26:02Z</time>
      </trkpt>
      <trkpt lat="46.98965" lon="5.89217">
        <ele>449.4</ele>
        <time>2022-05-10T08:26:06Z</time>
      </trkpt>
      <trkpt lat="46.98969" lon="5.89219">
        <ele>449.1</ele>
        <time>2022-05-10T08:26:09Z</time>
      </trkpt>
      <trkpt lat="46.98974" lon="5.89224">
        <ele>448.2</ele>
        <time>2022-05-10T08:26:12Z</time>
      </trkpt>
      <trkpt lat="46.98977" lon="5.89229">
        <ele>447.3</ele>
        <time>2022-05-10T08:26:15Z</time>
      </trkpt>
      <trkpt lat="46.98981" lon="5.89235">
        <ele>446.8</ele>
        <time>2022-05-10T08:26:19Z</time>
      </trkpt>
      <trkpt lat="46.98984" lon="5.8924">
        <ele>446</ele>
        <time>2022-05-10T08:26:24Z</time>
      </trkpt>
      <trkpt lat="46.98988" lon="5.89245">
        <ele>445.7</ele>
        <time>2022-05-10T08:26:28Z</time>
      </trkpt>
      <trkpt lat="46.98992" lon="5.89249">
        <ele>446</ele>
        <time>2022-05-10T08:26:32Z</time>
      </trkpt>
      <trkpt lat="46.98996" lon="5.89253">
        <ele>446.1</ele>
        <time>2022-05-10T08:26:36Z</time>
      </trkpt>
      <trkpt lat="46.99" lon="5.89258">
        <ele>446.1</ele>
        <time>2022-05-10T08:26:40Z</time>
      </trkpt>
      <trkpt lat="46.99004" lon="5.89263">
        <ele>446.5</ele>
        <time>2022-05-10T08:26:45Z</time>
      </trkpt>
      <trkpt lat="46.99008" lon="5.89269">
        <ele>446.6</ele>
        <time>2022-05-10T08:26:51Z</time>
      </trkpt>
      <trkpt lat="46.99011" lon="5.89274">
        <ele>447.4</ele>
        <time>2022-05-10T08:26:56Z</time>
      </trkpt>
      <trkpt lat="46.99013" lon="5.8928">
        <ele>447.5</ele>
        <time>2022-05-10T08:27:00Z</time>
      </trkpt>
      <trkpt lat="46.99012" lon="5.89286">
        <ele>447.1</ele>
        <time>2022-05-10T08:27:04Z</time>
      </trkpt>
      <trkpt lat="46.99011" lon="5.89293">
        <ele>446</ele>
        <time>2022-05-10T08:27:10Z</time>
      </trkpt>
      <trkpt lat="46.99012" lon="5.89301">
        <ele>444.9</ele>
        <time>2022-05-10T08:27:15Z</time>
      </trkpt>
      <trkpt lat="46.99014" lon="5.89308">
        <ele>444.1</ele>
        <time>2022-05-10T08:27:20Z</time>
      </trkpt>
      <trkpt lat="46.99015" lon="5.89315">
        <ele>443.3</ele>
        <time>2022-05-10T08:27:25Z</time>
      </trkpt>
      <trkpt lat="46.99016" lon="5.89322">
        <ele>442.2</ele>
        <time>2022-05-10T08:27:32Z</time>
      </trkpt>
      <trkpt lat="46.99015" lon="5.8933">
        <ele>441.1</ele>
        <time>2022-05-10T08:27:38Z</time>
      </trkpt>
      <trkpt lat="46.99014" lon="5.89336">
        <ele>440.2</ele>
        <time>2022-05-10T08:27:44Z</time>
      </trkpt>
      <trkpt lat="46.99013" lon="5.89344">
        <ele>439.4</ele>
        <time>2022-05-10T08:27:50Z</time>
      </trkpt>
      <trkpt lat="46.99013" lon="5.89351">
        <ele>439.2</ele>
        <time>2022-05-10T08:27:55Z</time>
      </trkpt>
      <trkpt lat="46.99014" lon="5.89357">
        <ele>438.8</ele>
        <time>2022-05-10T08:27:59Z</time>
      </trkpt>
      <trkpt lat="46.99015" lon="5.89364">
        <ele>438.7</ele>
        <time>2022-05-10T08:28:03Z</time>
      </trkpt>
      <trkpt lat="46.99014" lon="5.89371">
        <ele>439.4</ele>
        <time>2022-05-10T08:28:08Z</time>
      </trkpt>
      <trkpt lat="46.99016" lon="5.89378">
        <ele>440.2</ele>
        <time>2022-05-10T08:28:13Z</time>
      </trkpt>
      <trkpt lat="46.99016" lon="5.89385">
        <ele>440.3</ele>
        <time>2022-05-10T08:28:19Z</time>
      </trkpt>
      <trkpt lat="46.99016" lon="5.89392">
        <ele>440.1</ele>
        <time>2022-05-10T08:28:24Z</time>
      </trkpt>
      <trkpt lat="46.99018" lon="5.894">
        <ele>440.1</ele>
        <time>2022-05-10T08:28:30Z</time>
      </trkpt>
      <trkpt lat="46.99018" lon="5.89408">
        <ele>440.7</ele>
        <time>2022-05-10T08:28:35Z</time>
      </trkpt>
      <trkpt lat="46.99019" lon="5.89415">
        <ele>441.4</ele>
        <time>2022-05-10T08:28:40Z</time>
      </trkpt>
      <trkpt lat="46.99021" lon="5.89422">
        <ele>441.7</ele>
        <time>2022-05-10T08:28:45Z</time>
      </trkpt>
      <trkpt lat="46.99023" lon="5.89429">
        <ele>441.8</ele>
        <time>2022-05-10T08:28:49Z</time>
      </trkpt>
      <trkpt lat="46.99023" lon="5.89435">
        <ele>441.6</ele>
        <time>2022-05-10T08:28:53Z</time>
      </trkpt>
      <trkpt lat="46.99024" lon="5.89442">
        <ele>441.2</ele>
        <time>2022-05-10T08:28:57Z</time>
      </trkpt>
      <trkpt lat="46.99027" lon="5.89449">
        <ele>440.3</ele>
        <time>2022-05-10T08:29:03Z</time>
      </trkpt>
      <trkpt lat="46.99028" lon="5.89456">
        <ele>439.1</ele>
        <time>2022-05-10T08:29:10Z</time>
      </trkpt>
      <trkpt lat="46.99026" lon="5.89462">
        <ele>438.3</ele>
        <time>2022-05-10T08:29:17Z</time>
      </trkpt>
      <trkpt lat="46.99024" lon="5.89469">
        <ele>437.6</ele>
        <time>2022-05-10T08:29:24Z</time>
      </trkpt>
      <trkpt lat="46.9902" lon="5.89473">
        <ele>436.8</ele>
        <time>2022-05-10T08:29:30Z</time>
      </trkpt>
      <trkpt lat="46.99016" lon="5.89468">
        <ele>436.9</ele>
        <time>2022-05-10T08:29:51Z</time>
      </trkpt>
      <trkpt lat="46.99021" lon="5.89469">
        <ele>436.9</ele>
        <time>2022-05-10T08:30:01Z</time>
      </trkpt>
      <trkpt lat="46.99026" lon="5.89467">
        <ele>436.5</ele>
        <time>2022-05-10T08:30:08Z</time>
      </trkpt>
      <trkpt lat="46.9903" lon="5.89462">
        <ele>432.8</ele>
        <time>2022-05-10T08:30:56Z</time>
      </trkpt>
      <trkpt lat="46.99034" lon="5.89462">
        <ele>433.1</ele>
        <time>2022-05-10T08:31:00Z</time>
      </trkpt>
      <trkpt lat="46.99038" lon="5.89466">
        <ele>433.6</ele>
        <time>2022-05-10T08:31:04Z</time>
      </trkpt>
      <trkpt lat="46.99043" lon="5.89471">
        <ele>434.4</ele>
        <time>2022-05-10T08:31:09Z</time>
      </trkpt>
      <trkpt lat="46.99047" lon="5.89474">
        <ele>435</ele>
        <time>2022-05-10T08:31:14Z</time>
      </trkpt>
      <trkpt lat="46.99046" lon="5.89481">
        <ele>441</ele>
        <time>2022-05-10T08:31:56Z</time>
      </trkpt>
      <trkpt lat="46.99049" lon="5.89486">
        <ele>440.9</ele>
        <time>2022-05-10T08:32:03Z</time>
      </trkpt>
      <trkpt lat="46.99053" lon="5.8949">
        <ele>440.8</ele>
        <time>2022-05-10T08:32:09Z</time>
      </trkpt>
      <trkpt lat="46.99057" lon="5.89495">
        <ele>441</ele>
        <time>2022-05-10T08:32:13Z</time>
      </trkpt>
      <trkpt lat="46.99061" lon="5.89499">
        <ele>441.2</ele>
        <time>2022-05-10T08:32:18Z</time>
      </trkpt>
      <trkpt lat="46.99062" lon="5.89505">
        <ele>441.7</ele>
        <time>2022-05-10T08:32:23Z</time>
      </trkpt>
      <trkpt lat="46.99064" lon="5.89512">
        <ele>442.3</ele>
        <time>2022-05-10T08:32:28Z</time>
      </trkpt>
      <trkpt lat="46.99065" lon="5.8952">
        <ele>442.8</ele>
        <time>2022-05-10T08:32:33Z</time>
      </trkpt>
      <trkpt lat="46.99066" lon="5.89527">
        <ele>443.2</ele>
        <time>2022-05-10T08:32:38Z</time>
      </trkpt>
      <trkpt lat="46.99065" lon="5.89534">
        <ele>443.2</ele>
        <time>2022-05-10T08:32:42Z</time>
      </trkpt>
      <trkpt lat="46.99065" lon="5.89541">
        <ele>443.2</ele>
        <time>2022-05-10T08:32:46Z</time>
      </trkpt>
      <trkpt lat="46.99066" lon="5.89548">
        <ele>443</ele>
        <time>2022-05-10T08:32:52Z</time>
      </trkpt>
      <trkpt lat="46.99066" lon="5.89555">
        <ele>443.3</ele>
        <time>2022-05-10T08:32:57Z</time>
      </trkpt>
      <trkpt lat="46.99066" lon="5.89562">
        <ele>444.1</ele>
        <time>2022-05-10T08:33:02Z</time>
      </trkpt>
      <trkpt lat="46.99066" lon="5.8957">
        <ele>444.1</ele>
        <time>2022-05-10T08:33:07Z</time>
      </trkpt>
      <trkpt lat="46.99066" lon="5.89576">
        <ele>443.9</ele>
        <time>2022-05-10T08:33:12Z</time>
      </trkpt>
      <trkpt lat="46.99068" lon="5.89583">
        <ele>443.3</ele>
        <time>2022-05-10T08:33:17Z</time>
      </trkpt>
      <trkpt lat="46.9907" lon="5.89589">
        <ele>442.6</ele>
        <time>2022-05-10T08:33:22Z</time>
      </trkpt>
      <trkpt lat="46.9907" lon="5.89596">
        <ele>442.7</ele>
        <time>2022-05-10T08:33:27Z</time>
      </trkpt>
      <trkpt lat="46.99071" lon="5.89603">
        <ele>443.3</ele>
        <time>2022-05-10T08:33:32Z</time>
      </trkpt>
      <trkpt lat="46.99071" lon="5.8961">
        <ele>443.8</ele>
        <time>2022-05-10T08:33:37Z</time>
      </trkpt>
      <trkpt lat="46.99072" lon="5.89618">
        <ele>444.4</ele>
        <time>2022-05-10T08:33:42Z</time>
      </trkpt>
      <trkpt lat="46.99074" lon="5.89625">
        <ele>445.3</ele>
        <time>2022-05-10T08:33:47Z</time>
      </trkpt>
      <trkpt lat="46.99076" lon="5.89632">
        <ele>446.3</ele>
        <time>2022-05-10T08:33:51Z</time>
      </trkpt>
      <trkpt lat="46.99078" lon="5.89638">
        <ele>447.5</ele>
        <time>2022-05-10T08:33:55Z</time>
      </trkpt>
      <trkpt lat="46.9908" lon="5.89645">
        <ele>448.4</ele>
        <time>2022-05-10T08:34:00Z</time>
      </trkpt>
      <trkpt lat="46.99081" lon="5.89651">
        <ele>448.9</ele>
        <time>2022-05-10T08:34:05Z</time>
      </trkpt>
      <trkpt lat="46.99081" lon="5.89659">
        <ele>449.5</ele>
        <time>2022-05-10T08:34:10Z</time>
      </trkpt>
      <trkpt lat="46.9908" lon="5.89666">
        <ele>449.9</ele>
        <time>2022-05-10T08:34:14Z</time>
      </trkpt>
      <trkpt lat="46.9908" lon="5.89673">
        <ele>450.4</ele>
        <time>2022-05-10T08:34:19Z</time>
      </trkpt>
      <trkpt lat="46.99081" lon="5.8968">
        <ele>450.5</ele>
        <time>2022-05-10T08:34:24Z</time>
      </trkpt>
      <trkpt lat="46.99081" lon="5.89687">
        <ele>450.3</ele>
        <time>2022-05-10T08:34:29Z</time>
      </trkpt>
      <trkpt lat="46.99083" lon="5.89695">
        <ele>450.1</ele>
        <time>2022-05-10T08:34:34Z</time>
      </trkpt>
      <trkpt lat="46.99083" lon="5.89703">
        <ele>450.1</ele>
        <time>2022-05-10T08:34:39Z</time>
      </trkpt>
      <trkpt lat="46.99083" lon="5.8971">
        <ele>450.2</ele>
        <time>2022-05-10T08:34:43Z</time>
      </trkpt>
      <trkpt lat="46.99081" lon="5.89718">
        <ele>450.2</ele>
        <time>2022-05-10T08:34:47Z</time>
      </trkpt>
      <trkpt lat="46.99079" lon="5.89725">
        <ele>450</ele>
        <time>2022-05-10T08:34:51Z</time>
      </trkpt>
      <trkpt lat="46.99077" lon="5.89732">
        <ele>449.2</ele>
        <time>2022-05-10T08:34:57Z</time>
      </trkpt>
      <trkpt lat="46.99076" lon="5.8974">
        <ele>448.1</ele>
        <time>2022-05-10T08:35:03Z</time>
      </trkpt>
      <trkpt lat="46.99075" lon="5.89748">
        <ele>447.5</ele>
        <time>2022-05-10T08:35:08Z</time>
      </trkpt>
      <trkpt lat="46.99075" lon="5.89755">
        <ele>447.2</ele>
        <time>2022-05-10T08:35:13Z</time>
      </trkpt>
      <trkpt lat="46.99076" lon="5.89762">
        <ele>447.3</ele>
        <time>2022-05-10T08:35:19Z</time>
      </trkpt>
      <trkpt lat="46.99077" lon="5.89769">
        <ele>447.4</ele>
        <time>2022-05-10T08:35:24Z</time>
      </trkpt>
      <trkpt lat="46.99076" lon="5.89777">
        <ele>447.3</ele>
        <time>2022-05-10T08:35:28Z</time>
      </trkpt>
      <trkpt lat="46.99074" lon="5.89783">
        <ele>446.9</ele>
        <time>2022-05-10T08:35:34Z</time>
      </trkpt>
      <trkpt lat="46.99074" lon="5.89789">
        <ele>446.2</ele>
        <time>2022-05-10T08:35:39Z</time>
      </trkpt>
      <trkpt lat="46.99074" lon="5.89797">
        <ele>445.6</ele>
        <time>2022-05-10T08:35:44Z</time>
      </trkpt>
      <trkpt lat="46.99073" lon="5.89804">
        <ele>445.3</ele>
        <time>2022-05-10T08:35:48Z</time>
      </trkpt>
      <trkpt lat="46.99072" lon="5.89811">
        <ele>445.7</ele>
        <time>2022-05-10T08:35:52Z</time>
      </trkpt>
      <trkpt lat="46.99073" lon="5.89819">
        <ele>446.4</ele>
        <time>2022-05-10T08:35:56Z</time>
      </trkpt>
      <trkpt lat="46.99072" lon="5.89825">
        <ele>447.6</ele>
        <time>2022-05-10T08:36:02Z</time>
      </trkpt>
      <trkpt lat="46.99071" lon="5.89832">
        <ele>448.4</ele>
        <time>2022-05-10T08:36:08Z</time>
      </trkpt>
      <trkpt lat="46.9907" lon="5.89839">
        <ele>449.1</ele>
        <time>2022-05-10T08:36:14Z</time>
      </trkpt>
      <trkpt lat="46.99068" lon="5.89847">
        <ele>450.2</ele>
        <time>2022-05-10T08:36:19Z</time>
      </trkpt>
      <trkpt lat="46.99067" lon="5.89854">
        <ele>451.6</ele>
        <time>2022-05-10T08:36:23Z</time>
      </trkpt>
      <trkpt lat="46.99065" lon="5.89862">
        <ele>452.8</ele>
        <time>2022-05-10T08:36:28Z</time>
      </trkpt>
      <trkpt lat="46.99064" lon="5.89869">
        <ele>453.2</ele>
        <time>2022-05-10T08:36:32Z</time>
      </trkpt>
      <trkpt lat="46.99062" lon="5.89876">
        <ele>453.2</ele>
        <time>2022-05-10T08:36:37Z</time>
      </trkpt>
      <trkpt lat="46.9906" lon="5.89884">
        <ele>453.1</ele>
        <time>2022-05-10T08:36:43Z</time>
      </trkpt>
      <trkpt lat="46.99059" lon="5.89891">
        <ele>453.1</ele>
        <time>2022-05-10T08:36:48Z</time>
      </trkpt>
      <trkpt lat="46.99057" lon="5.89897">
        <ele>453.1</ele>
        <time>2022-05-10T08:36:52Z</time>
      </trkpt>
      <trkpt lat="46.99055" lon="5.89904">
        <ele>453.5</ele>
        <time>2022-05-10T08:36:57Z</time>
      </trkpt>
      <trkpt lat="46.99053" lon="5.8991">
        <ele>453.4</ele>
        <time>2022-05-10T08:37:02Z</time>
      </trkpt>
      <trkpt lat="46.99051" lon="5.89917">
        <ele>452.9</ele>
        <time>2022-05-10T08:37:07Z</time>
      </trkpt>
      <trkpt lat="46.99052" lon="5.89923">
        <ele>452.5</ele>
        <time>2022-05-10T08:37:16Z</time>
      </trkpt>
      <trkpt lat="46.99051" lon="5.8993">
        <ele>453.1</ele>
        <time>2022-05-10T08:37:27Z</time>
      </trkpt>
      <trkpt lat="46.99051" lon="5.89938">
        <ele>453.8</ele>
        <time>2022-05-10T08:37:33Z</time>
      </trkpt>
      <trkpt lat="46.99051" lon="5.89945">
        <ele>454.4</ele>
        <time>2022-05-10T08:37:38Z</time>
      </trkpt>
      <trkpt lat="46.99052" lon="5.89952">
        <ele>455.5</ele>
        <time>2022-05-10T08:37:46Z</time>
      </trkpt>
      <trkpt lat="46.99054" lon="5.89959">
        <ele>455.9</ele>
        <time>2022-05-10T08:37:52Z</time>
      </trkpt>
      <trkpt lat="46.99057" lon="5.89964">
        <ele>455.7</ele>
        <time>2022-05-10T08:38:03Z</time>
      </trkpt>
      <trkpt lat="46.99059" lon="5.8997">
        <ele>456.4</ele>
        <time>2022-05-10T08:38:13Z</time>
      </trkpt>
      <trkpt lat="46.99064" lon="5.89969">
        <ele>453.9</ele>
        <time>2022-05-10T08:38:55Z</time>
      </trkpt>
      <trkpt lat="46.99067" lon="5.89975">
        <ele>452.5</ele>
        <time>2022-05-10T08:39:04Z</time>
      </trkpt>
      <trkpt lat="46.99072" lon="5.89977">
        <ele>452.7</ele>
        <time>2022-05-10T08:39:12Z</time>
      </trkpt>
      <trkpt lat="46.99077" lon="5.89979">
        <ele>453.2</ele>
        <time>2022-05-10T08:39:17Z</time>
      </trkpt>
      <trkpt lat="46.99082" lon="5.8998">
        <ele>453.7</ele>
        <time>2022-05-10T08:39:23Z</time>
      </trkpt>
      <trkpt lat="46.99087" lon="5.89979">
        <ele>454.3</ele>
        <time>2022-05-10T08:39:35Z</time>
      </trkpt>
      <trkpt lat="46.99091" lon="5.89981">
        <ele>455.1</ele>
        <time>2022-05-10T08:39:43Z</time>
      </trkpt>
      <trkpt lat="46.99096" lon="5.89984">
        <ele>456.7</ele>
        <time>2022-05-10T08:39:50Z</time>
      </trkpt>
      <trkpt lat="46.99099" lon="5.89989">
        <ele>458</ele>
        <time>2022-05-10T08:39:58Z</time>
      </trkpt>
      <trkpt lat="46.99102" lon="5.89996">
        <ele>459.1</ele>
        <time>2022-05-10T08:40:04Z</time>
      </trkpt>
      <trkpt lat="46.99102" lon="5.90003">
        <ele>459.1</ele>
        <time>2022-05-10T08:40:14Z</time>
      </trkpt>
      <trkpt lat="46.99105" lon="5.90009">
        <ele>458.9</ele>
        <time>2022-05-10T08:40:21Z</time>
      </trkpt>
      <trkpt lat="46.99107" lon="5.90015">
        <ele>459.3</ele>
        <time>2022-05-10T08:40:26Z</time>
      </trkpt>
      <trkpt lat="46.99109" lon="5.90024">
        <ele>461.5</ele>
        <time>2022-05-10T08:40:41Z</time>
      </trkpt>
      <trkpt lat="46.99111" lon="5.90031">
        <ele>462.1</ele>
        <time>2022-05-10T08:40:48Z</time>
      </trkpt>
      <trkpt lat="46.99112" lon="5.90038">
        <ele>462.5</ele>
        <time>2022-05-10T08:40:55Z</time>
      </trkpt>
      <trkpt lat="46.99108" lon="5.90042">
        <ele>463.2</ele>
        <time>2022-05-10T08:41:01Z</time>
      </trkpt>
      <trkpt lat="46.99111" lon="5.90049">
        <ele>464.4</ele>
        <time>2022-05-10T08:41:11Z</time>
      </trkpt>
      <trkpt lat="46.99113" lon="5.90055">
        <ele>465.1</ele>
        <time>2022-05-10T08:41:19Z</time>
      </trkpt>
      <trkpt lat="46.99115" lon="5.90062">
        <ele>465.8</ele>
        <time>2022-05-10T08:41:24Z</time>
      </trkpt>
      <trkpt lat="46.99115" lon="5.90069">
        <ele>466.8</ele>
        <time>2022-05-10T08:41:29Z</time>
      </trkpt>
      <trkpt lat="46.99119" lon="5.90073">
        <ele>467.3</ele>
        <time>2022-05-10T08:41:47Z</time>
      </trkpt>
      <trkpt lat="46.9912" lon="5.9008">
        <ele>467.6</ele>
        <time>2022-05-10T08:41:51Z</time>
      </trkpt>
      <trkpt lat="46.99118" lon="5.90087">
        <ele>468.7</ele>
        <time>2022-05-10T08:41:57Z</time>
      </trkpt>
      <trkpt lat="46.99118" lon="5.90094">
        <ele>471.5</ele>
        <time>2022-05-10T08:42:08Z</time>
      </trkpt>
      <trkpt lat="46.99119" lon="5.90101">
        <ele>474.5</ele>
        <time>2022-05-10T08:42:17Z</time>
      </trkpt>
      <trkpt lat="46.99123" lon="5.90104">
        <ele>475.1</ele>
        <time>2022-05-10T08:42:23Z</time>
      </trkpt>
      <trkpt lat="46.99123" lon="5.90111">
        <ele>472.4</ele>
        <time>2022-05-10T08:42:36Z</time>
      </trkpt>
      <trkpt lat="46.99127" lon="5.90114">
        <ele>469.9</ele>
        <time>2022-05-10T08:42:43Z</time>
      </trkpt>
      <trkpt lat="46.99126" lon="5.90122">
        <ele>468.7</ele>
        <time>2022-05-10T08:42:49Z</time>
      </trkpt>
      <trkpt lat="46.99125" lon="5.90129">
        <ele>468.9</ele>
        <time>2022-05-10T08:42:52Z</time>
      </trkpt>
      <trkpt lat="46.99122" lon="5.90137">
        <ele>469.5</ele>
        <time>2022-05-10T08:42:56Z</time>
      </trkpt>
      <trkpt lat="46.99119" lon="5.90143">
        <ele>470.6</ele>
        <time>2022-05-10T08:43:00Z</time>
      </trkpt>
      <trkpt lat="46.99116" lon="5.90147">
        <ele>471.8</ele>
        <time>2022-05-10T08:43:05Z</time>
      </trkpt>
      <trkpt lat="46.99113" lon="5.90142">
        <ele>480.4</ele>
        <time>2022-05-10T08:43:36Z</time>
      </trkpt>
      <trkpt lat="46.9911" lon="5.90136">
        <ele>481.1</ele>
        <time>2022-05-10T08:43:41Z</time>
      </trkpt>
      <trkpt lat="46.99106" lon="5.90137">
        <ele>481.8</ele>
        <time>2022-05-10T08:43:55Z</time>
      </trkpt>
      <trkpt lat="46.9911" lon="5.9014">
        <ele>481.4</ele>
        <time>2022-05-10T08:44:06Z</time>
      </trkpt>
      <trkpt lat="46.99104" lon="5.90139">
        <ele>485.4</ele>
        <time>2022-05-10T08:44:28Z</time>
      </trkpt>
      <trkpt lat="46.99099" lon="5.90136">
        <ele>487</ele>
        <time>2022-05-10T08:44:33Z</time>
      </trkpt>
      <trkpt lat="46.99103" lon="5.9014">
        <ele>492.2</ele>
        <time>2022-05-10T08:44:55Z</time>
      </trkpt>
      <trkpt lat="46.99109" lon="5.9014">
        <ele>492.5</ele>
        <time>2022-05-10T08:45:04Z</time>
      </trkpt>
      <trkpt lat="46.99113" lon="5.90143">
        <ele>492.7</ele>
        <time>2022-05-10T08:45:07Z</time>
      </trkpt>
      <trkpt lat="46.99116" lon="5.90148">
        <ele>492.3</ele>
        <time>2022-05-10T08:45:22Z</time>
      </trkpt>
      <trkpt lat="46.99113" lon="5.90153">
        <ele>488.4</ele>
        <time>2022-05-10T08:45:36Z</time>
      </trkpt>
      <trkpt lat="46.99111" lon="5.90159">
        <ele>487.1</ele>
        <time>2022-05-10T08:45:43Z</time>
      </trkpt>
      <trkpt lat="46.99107" lon="5.90163">
        <ele>487.1</ele>
        <time>2022-05-10T08:45:49Z</time>
      </trkpt>
      <trkpt lat="46.99105" lon="5.9017">
        <ele>486.8</ele>
        <time>2022-05-10T08:45:56Z</time>
      </trkpt>
      <trkpt lat="46.99106" lon="5.90177">
        <ele>487</ele>
        <time>2022-05-10T08:46:01Z</time>
      </trkpt>
      <trkpt lat="46.99105" lon="5.90184">
        <ele>487.8</ele>
        <time>2022-05-10T08:46:06Z</time>
      </trkpt>
      <trkpt lat="46.99103" lon="5.90191">
        <ele>489.4</ele>
        <time>2022-05-10T08:46:14Z</time>
      </trkpt>
      <trkpt lat="46.99104" lon="5.90199">
        <ele>490.1</ele>
        <time>2022-05-10T08:46:19Z</time>
      </trkpt>
      <trkpt lat="46.99104" lon="5.90205">
        <ele>491.5</ele>
        <time>2022-05-10T08:46:26Z</time>
      </trkpt>
      <trkpt lat="46.99103" lon="5.90212">
        <ele>492</ele>
        <time>2022-05-10T08:46:31Z</time>
      </trkpt>
      <trkpt lat="46.99102" lon="5.90218">
        <ele>492.8</ele>
        <time>2022-05-10T08:46:36Z</time>
      </trkpt>
      <trkpt lat="46.99101" lon="5.90225">
        <ele>493.8</ele>
        <time>2022-05-10T08:46:44Z</time>
      </trkpt>
      <trkpt lat="46.99101" lon="5.90232">
        <ele>494.5</ele>
        <time>2022-05-10T08:46:53Z</time>
      </trkpt>
      <trkpt lat="46.99104" lon="5.90237">
        <ele>494.9</ele>
        <time>2022-05-10T08:46:58Z</time>
      </trkpt>
      <trkpt lat="46.99103" lon="5.90244">
        <ele>496</ele>
        <time>2022-05-10T08:47:04Z</time>
      </trkpt>
      <trkpt lat="46.99104" lon="5.90251">
        <ele>498.1</ele>
        <time>2022-05-10T08:47:12Z</time>
      </trkpt>
      <trkpt lat="46.99106" lon="5.90258">
        <ele>499.6</ele>
        <time>2022-05-10T08:47:20Z</time>
      </trkpt>
      <trkpt lat="46.99106" lon="5.90266">
        <ele>500.6</ele>
        <time>2022-05-10T08:47:28Z</time>
      </trkpt>
      <trkpt lat="46.99107" lon="5.90272">
        <ele>500.8</ele>
        <time>2022-05-10T08:47:35Z</time>
      </trkpt>
      <trkpt lat="46.99103" lon="5.90276">
        <ele>500.6</ele>
        <time>2022-05-10T08:47:41Z</time>
      </trkpt>
      <trkpt lat="46.99099" lon="5.9028">
        <ele>500.7</ele>
        <time>2022-05-10T08:47:46Z</time>
      </trkpt>
      <trkpt lat="46.99095" lon="5.90286">
        <ele>501.2</ele>
        <time>2022-05-10T08:47:51Z</time>
      </trkpt>
      <trkpt lat="46.99092" lon="5.90292">
        <ele>502.4</ele>
        <time>2022-05-10T08:47:55Z</time>
      </trkpt>
      <trkpt lat="46.99093" lon="5.90299">
        <ele>504.4</ele>
        <time>2022-05-10T08:48:02Z</time>
      </trkpt>
      <trkpt lat="46.99096" lon="5.90306">
        <ele>506.6</ele>
        <time>2022-05-10T08:48:08Z</time>
      </trkpt>
      <trkpt lat="46.99096" lon="5.90312">
        <ele>508.1</ele>
        <time>2022-05-10T08:48:14Z</time>
      </trkpt>
      <trkpt lat="46.99095" lon="5.90319">
        <ele>511.3</ele>
        <time>2022-05-10T08:48:25Z</time>
      </trkpt>
      <trkpt lat="46.99097" lon="5.90326">
        <ele>514</ele>
        <time>2022-05-10T08:48:32Z</time>
      </trkpt>
      <trkpt lat="46.991" lon="5.90332">
        <ele>515.8</ele>
        <time>2022-05-10T08:48:38Z</time>
      </trkpt>
      <trkpt lat="46.991" lon="5.90339">
        <ele>516.9</ele>
        <time>2022-05-10T08:48:48Z</time>
      </trkpt>
      <trkpt lat="46.99098" lon="5.90347">
        <ele>515.3</ele>
        <time>2022-05-10T08:49:00Z</time>
      </trkpt>
      <trkpt lat="46.99097" lon="5.90354">
        <ele>514.6</ele>
        <time>2022-05-10T08:49:03Z</time>
      </trkpt>
      <trkpt lat="46.99098" lon="5.90361">
        <ele>513.1</ele>
        <time>2022-05-10T08:49:15Z</time>
      </trkpt>
      <trkpt lat="46.99102" lon="5.90367">
        <ele>513.7</ele>
        <time>2022-05-10T08:49:21Z</time>
      </trkpt>
      <trkpt lat="46.99103" lon="5.90374">
        <ele>514</ele>
        <time>2022-05-10T08:49:27Z</time>
      </trkpt>
      <trkpt lat="46.99101" lon="5.90381">
        <ele>514.2</ele>
        <time>2022-05-10T08:49:44Z</time>
      </trkpt>
      <trkpt lat="46.99099" lon="5.90389">
        <ele>515.3</ele>
        <time>2022-05-10T08:49:53Z</time>
      </trkpt>
      <trkpt lat="46.99099" lon="5.90398">
        <ele>515.8</ele>
        <time>2022-05-10T08:49:58Z</time>
      </trkpt>
      <trkpt lat="46.991" lon="5.90405">
        <ele>516.5</ele>
        <time>2022-05-10T08:50:02Z</time>
      </trkpt>
      <trkpt lat="46.99101" lon="5.90411">
        <ele>518.2</ele>
        <time>2022-05-10T08:50:07Z</time>
      </trkpt>
      <trkpt lat="46.99098" lon="5.90417">
        <ele>521.8</ele>
        <time>2022-05-10T08:50:17Z</time>
      </trkpt>
      <trkpt lat="46.99094" lon="5.90422">
        <ele>523.4</ele>
        <time>2022-05-10T08:50:21Z</time>
      </trkpt>
      <trkpt lat="46.99092" lon="5.90428">
        <ele>524.9</ele>
        <time>2022-05-10T08:50:25Z</time>
      </trkpt>
      <trkpt lat="46.9909" lon="5.90434">
        <ele>526.9</ele>
        <time>2022-05-10T08:50:31Z</time>
      </trkpt>
      <trkpt lat="46.99086" lon="5.90438">
        <ele>529.2</ele>
        <time>2022-05-10T08:50:40Z</time>
      </trkpt>
      <trkpt lat="46.99083" lon="5.90444">
        <ele>530</ele>
        <time>2022-05-10T08:50:44Z</time>
      </trkpt>
      <trkpt lat="46.99083" lon="5.90451">
        <ele>530.8</ele>
        <time>2022-05-10T08:50:50Z</time>
      </trkpt>
      <trkpt lat="46.99087" lon="5.90456">
        <ele>531.1</ele>
        <time>2022-05-10T08:50:55Z</time>
      </trkpt>
      <trkpt lat="46.99089" lon="5.90462">
        <ele>530.8</ele>
        <time>2022-05-10T08:51:00Z</time>
      </trkpt>
      <trkpt lat="46.99089" lon="5.90469">
        <ele>529.8</ele>
        <time>2022-05-10T08:51:07Z</time>
      </trkpt>
      <trkpt lat="46.99083" lon="5.90478">
        <ele>528.5</ele>
        <time>2022-05-10T08:51:17Z</time>
      </trkpt>
      <trkpt lat="46.99079" lon="5.90483">
        <ele>527.9</ele>
        <time>2022-05-10T08:51:20Z</time>
      </trkpt>
      <trkpt lat="46.99077" lon="5.90489">
        <ele>526.9</ele>
        <time>2022-05-10T08:51:26Z</time>
      </trkpt>
      <trkpt lat="46.99078" lon="5.90497">
        <ele>526.1</ele>
        <time>2022-05-10T08:51:34Z</time>
      </trkpt>
      <trkpt lat="46.99079" lon="5.90504">
        <ele>526.1</ele>
        <time>2022-05-10T08:51:39Z</time>
      </trkpt>
      <trkpt lat="46.99079" lon="5.90511">
        <ele>527</ele>
        <time>2022-05-10T08:51:45Z</time>
      </trkpt>
      <trkpt lat="46.99079" lon="5.90518">
        <ele>528.1</ele>
        <time>2022-05-10T08:51:53Z</time>
      </trkpt>
      <trkpt lat="46.99079" lon="5.90525">
        <ele>528.6</ele>
        <time>2022-05-10T08:51:59Z</time>
      </trkpt>
      <trkpt lat="46.99082" lon="5.9053">
        <ele>529</ele>
        <time>2022-05-10T08:52:04Z</time>
      </trkpt>
      <trkpt lat="46.99083" lon="5.90538">
        <ele>529.8</ele>
        <time>2022-05-10T08:52:11Z</time>
      </trkpt>
      <trkpt lat="46.99082" lon="5.90545">
        <ele>530.7</ele>
        <time>2022-05-10T08:52:16Z</time>
      </trkpt>
      <trkpt lat="46.99079" lon="5.90551">
        <ele>531.8</ele>
        <time>2022-05-10T08:52:21Z</time>
      </trkpt>
      <trkpt lat="46.99079" lon="5.90558">
        <ele>532.8</ele>
        <time>2022-05-10T08:52:27Z</time>
      </trkpt>
      <trkpt lat="46.99079" lon="5.90565">
        <ele>533.5</ele>
        <time>2022-05-10T08:52:34Z</time>
      </trkpt>
      <trkpt lat="46.99081" lon="5.90571">
        <ele>533.6</ele>
        <time>2022-05-10T08:52:41Z</time>
      </trkpt>
      <trkpt lat="46.9908" lon="5.90578">
        <ele>533.9</ele>
        <time>2022-05-10T08:52:47Z</time>
      </trkpt>
      <trkpt lat="46.9908" lon="5.90585">
        <ele>534.2</ele>
        <time>2022-05-10T08:52:53Z</time>
      </trkpt>
      <trkpt lat="46.9908" lon="5.90592">
        <ele>534.4</ele>
        <time>2022-05-10T08:53:00Z</time>
      </trkpt>
      <trkpt lat="46.99078" lon="5.906">
        <ele>534.4</ele>
        <time>2022-05-10T08:53:07Z</time>
      </trkpt>
      <trkpt lat="46.99077" lon="5.90607">
        <ele>534.6</ele>
        <time>2022-05-10T08:53:11Z</time>
      </trkpt>
      <trkpt lat="46.99074" lon="5.90612">
        <ele>535.5</ele>
        <time>2022-05-10T08:53:16Z</time>
      </trkpt>
      <trkpt lat="46.99074" lon="5.9062">
        <ele>537.4</ele>
        <time>2022-05-10T08:53:23Z</time>
      </trkpt>
      <trkpt lat="46.99074" lon="5.90627">
        <ele>539.3</ele>
        <time>2022-05-10T08:53:30Z</time>
      </trkpt>
      <trkpt lat="46.99074" lon="5.90634">
        <ele>540.5</ele>
        <time>2022-05-10T08:53:37Z</time>
      </trkpt>
      <trkpt lat="46.99077" lon="5.90639">
        <ele>541.8</ele>
        <time>2022-05-10T08:53:45Z</time>
      </trkpt>
      <trkpt lat="46.9908" lon="5.90635">
        <ele>541.4</ele>
        <time>2022-05-10T08:53:55Z</time>
      </trkpt>
      <trkpt lat="46.99075" lon="5.90635">
        <ele>541.4</ele>
        <time>2022-05-10T08:54:06Z</time>
      </trkpt>
      <trkpt lat="46.9908" lon="5.90634">
        <ele>541.3</ele>
        <time>2022-05-10T08:54:31Z</time>
      </trkpt>
      <trkpt lat="46.99075" lon="5.90636">
        <ele>541</ele>
        <time>2022-05-10T08:55:06Z</time>
      </trkpt>
      <trkpt lat="46.99072" lon="5.90642">
        <ele>540</ele>
        <time>2022-05-10T08:55:10Z</time>
      </trkpt>
      <trkpt lat="46.99073" lon="5.9065">
        <ele>538.5</ele>
        <time>2022-05-10T08:55:15Z</time>
      </trkpt>
      <trkpt lat="46.99075" lon="5.90657">
        <ele>537.8</ele>
        <time>2022-05-10T08:55:20Z</time>
      </trkpt>
      <trkpt lat="46.99077" lon="5.90663">
        <ele>537.4</ele>
        <time>2022-05-10T08:55:26Z</time>
      </trkpt>
      <trkpt lat="46.99079" lon="5.90669">
        <ele>538</ele>
        <time>2022-05-10T08:55:36Z</time>
      </trkpt>
      <trkpt lat="46.9908" lon="5.90677">
        <ele>538.1</ele>
        <time>2022-05-10T08:55:44Z</time>
      </trkpt>
      <trkpt lat="46.9908" lon="5.90684">
        <ele>539.2</ele>
        <time>2022-05-10T08:55:49Z</time>
      </trkpt>
      <trkpt lat="46.9908" lon="5.90691">
        <ele>540.4</ele>
        <time>2022-05-10T08:55:53Z</time>
      </trkpt>
      <trkpt lat="46.99081" lon="5.90698">
        <ele>545.9</ele>
        <time>2022-05-10T08:56:10Z</time>
      </trkpt>
      <trkpt lat="46.99082" lon="5.90705">
        <ele>548.7</ele>
        <time>2022-05-10T08:56:22Z</time>
      </trkpt>
      <trkpt lat="46.99084" lon="5.90712">
        <ele>549.9</ele>
        <time>2022-05-10T08:56:28Z</time>
      </trkpt>
      <trkpt lat="46.99083" lon="5.90719">
        <ele>551</ele>
        <time>2022-05-10T08:56:34Z</time>
      </trkpt>
      <trkpt lat="46.99079" lon="5.90723">
        <ele>552.4</ele>
        <time>2022-05-10T08:56:40Z</time>
      </trkpt>
      <trkpt lat="46.99077" lon="5.90729">
        <ele>553.4</ele>
        <time>2022-05-10T08:56:46Z</time>
      </trkpt>
      <trkpt lat="46.99075" lon="5.90737">
        <ele>553.9</ele>
        <time>2022-05-10T08:56:53Z</time>
      </trkpt>
      <trkpt lat="46.99074" lon="5.90745">
        <ele>554.2</ele>
        <time>2022-05-10T08:56:57Z</time>
      </trkpt>
      <trkpt lat="46.99072" lon="5.90753">
        <ele>554.3</ele>
        <time>2022-05-10T08:57:02Z</time>
      </trkpt>
      <trkpt lat="46.99069" lon="5.90759">
        <ele>553.9</ele>
        <time>2022-05-10T08:57:06Z</time>
      </trkpt>
      <trkpt lat="46.99066" lon="5.90763">
        <ele>554</ele>
        <time>2022-05-10T08:57:09Z</time>
      </trkpt>
      <trkpt lat="46.99063" lon="5.9077">
        <ele>554.5</ele>
        <time>2022-05-10T08:57:13Z</time>
      </trkpt>
      <trkpt lat="46.99063" lon="5.90776">
        <ele>556.3</ele>
        <time>2022-05-10T08:57:20Z</time>
      </trkpt>
      <trkpt lat="46.99061" lon="5.90783">
        <ele>558</ele>
        <time>2022-05-10T08:57:29Z</time>
      </trkpt>
      <trkpt lat="46.99059" lon="5.9079">
        <ele>559</ele>
        <time>2022-05-10T08:57:33Z</time>
      </trkpt>
      <trkpt lat="46.99058" lon="5.90797">
        <ele>559.5</ele>
        <time>2022-05-10T08:57:36Z</time>
      </trkpt>
      <trkpt lat="46.99057" lon="5.90804">
        <ele>559.9</ele>
        <time>2022-05-10T08:57:40Z</time>
      </trkpt>
      <trkpt lat="46.99056" lon="5.90811">
        <ele>560.1</ele>
        <time>2022-05-10T08:57:44Z</time>
      </trkpt>
      <trkpt lat="46.99056" lon="5.90818">
        <ele>560.9</ele>
        <time>2022-05-10T08:57:50Z</time>
      </trkpt>
      <trkpt lat="46.99055" lon="5.90825">
        <ele>561.6</ele>
        <time>2022-05-10T08:57:56Z</time>
      </trkpt>
      <trkpt lat="46.99053" lon="5.90831">
        <ele>561.8</ele>
        <time>2022-05-10T08:58:02Z</time>
      </trkpt>
      <trkpt lat="46.99052" lon="5.90838">
        <ele>561.6</ele>
        <time>2022-05-10T08:58:07Z</time>
      </trkpt>
      <trkpt lat="46.9905" lon="5.90846">
        <ele>561.4</ele>
        <time>2022-05-10T08:58:12Z</time>
      </trkpt>
      <trkpt lat="46.99048" lon="5.90852">
        <ele>560.9</ele>
        <time>2022-05-10T08:58:17Z</time>
      </trkpt>
      <trkpt lat="46.99045" lon="5.90857">
        <ele>560.6</ele>
        <time>2022-05-10T08:58:22Z</time>
      </trkpt>
      <trkpt lat="46.99041" lon="5.90863">
        <ele>561</ele>
        <time>2022-05-10T08:58:28Z</time>
      </trkpt>
      <trkpt lat="46.99038" lon="5.90867">
        <ele>561.7</ele>
        <time>2022-05-10T08:58:33Z</time>
      </trkpt>
      <trkpt lat="46.99034" lon="5.90873">
        <ele>562.7</ele>
        <time>2022-05-10T08:58:38Z</time>
      </trkpt>
      <trkpt lat="46.99031" lon="5.90877">
        <ele>564</ele>
        <time>2022-05-10T08:58:43Z</time>
      </trkpt>
      <trkpt lat="46.99027" lon="5.90881">
        <ele>565.3</ele>
        <time>2022-05-10T08:58:49Z</time>
      </trkpt>
      <trkpt lat="46.99022" lon="5.90885">
        <ele>566</ele>
        <time>2022-05-10T08:58:54Z</time>
      </trkpt>
      <trkpt lat="46.99017" lon="5.90889">
        <ele>566.3</ele>
        <time>2022-05-10T08:58:59Z</time>
      </trkpt>
      <trkpt lat="46.99013" lon="5.90893">
        <ele>566</ele>
        <time>2022-05-10T08:59:04Z</time>
      </trkpt>
      <trkpt lat="46.99009" lon="5.90897">
        <ele>565.5</ele>
        <time>2022-05-10T08:59:08Z</time>
      </trkpt>
      <trkpt lat="46.99005" lon="5.90902">
        <ele>565</ele>
        <time>2022-05-10T08:59:12Z</time>
      </trkpt>
      <trkpt lat="46.99001" lon="5.90906">
        <ele>564.5</ele>
        <time>2022-05-10T08:59:16Z</time>
      </trkpt>
      <trkpt lat="46.98997" lon="5.90912">
        <ele>563.7</ele>
        <time>2022-05-10T08:59:22Z</time>
      </trkpt>
      <trkpt lat="46.98993" lon="5.90916">
        <ele>563.3</ele>
        <time>2022-05-10T08:59:27Z</time>
      </trkpt>
      <trkpt lat="46.9899" lon="5.90921">
        <ele>562.6</ele>
        <time>2022-05-10T08:59:32Z</time>
      </trkpt>
      <trkpt lat="46.98986" lon="5.90924">
        <ele>561.7</ele>
        <time>2022-05-10T08:59:38Z</time>
      </trkpt>
      <trkpt lat="46.98982" lon="5.9093">
        <ele>561.3</ele>
        <time>2022-05-10T08:59:43Z</time>
      </trkpt>
      <trkpt lat="46.98978" lon="5.90934">
        <ele>561.1</ele>
        <time>2022-05-10T08:59:48Z</time>
      </trkpt>
      <trkpt lat="46.98973" lon="5.90938">
        <ele>561.2</ele>
        <time>2022-05-10T08:59:53Z</time>
      </trkpt>
      <trkpt lat="46.9897" lon="5.90944">
        <ele>561.3</ele>
        <time>2022-05-10T08:59:58Z</time>
      </trkpt>
      <trkpt lat="46.98965" lon="5.90947">
        <ele>561.6</ele>
        <time>2022-05-10T09:00:03Z</time>
      </trkpt>
      <trkpt lat="46.9896" lon="5.90949">
        <ele>562.1</ele>
        <time>2022-05-10T09:00:08Z</time>
      </trkpt>
      <trkpt lat="46.98956" lon="5.90954">
        <ele>563.5</ele>
        <time>2022-05-10T09:00:14Z</time>
      </trkpt>
      <trkpt lat="46.98953" lon="5.90959">
        <ele>563.9</ele>
        <time>2022-05-10T09:00:19Z</time>
      </trkpt>
      <trkpt lat="46.98949" lon="5.90964">
        <ele>563.6</ele>
        <time>2022-05-10T09:00:23Z</time>
      </trkpt>
      <trkpt lat="46.98945" lon="5.90969">
        <ele>562.9</ele>
        <time>2022-05-10T09:00:27Z</time>
      </trkpt>
      <trkpt lat="46.98941" lon="5.90974">
        <ele>562</ele>
        <time>2022-05-10T09:00:32Z</time>
      </trkpt>
      <trkpt lat="46.98936" lon="5.90978">
        <ele>561.4</ele>
        <time>2022-05-10T09:00:37Z</time>
      </trkpt>
      <trkpt lat="46.98933" lon="5.90983">
        <ele>560.9</ele>
        <time>2022-05-10T09:00:42Z</time>
      </trkpt>
      <trkpt lat="46.98929" lon="5.90987">
        <ele>561.7</ele>
        <time>2022-05-10T09:00:47Z</time>
      </trkpt>
      <trkpt lat="46.98924" lon="5.9099">
        <ele>562.6</ele>
        <time>2022-05-10T09:00:52Z</time>
      </trkpt>
      <trkpt lat="46.9892" lon="5.90994">
        <ele>563.4</ele>
        <time>2022-05-10T09:00:58Z</time>
      </trkpt>
      <trkpt lat="46.98916" lon="5.91">
        <ele>564.3</ele>
        <time>2022-05-10T09:01:03Z</time>
      </trkpt>
      <trkpt lat="46.98912" lon="5.91006">
        <ele>565.3</ele>
        <time>2022-05-10T09:01:07Z</time>
      </trkpt>
      <trkpt lat="46.98909" lon="5.91012">
        <ele>566.1</ele>
        <time>2022-05-10T09:01:11Z</time>
      </trkpt>
      <trkpt lat="46.98906" lon="5.91018">
        <ele>566.9</ele>
        <time>2022-05-10T09:01:16Z</time>
      </trkpt>
      <trkpt lat="46.98903" lon="5.91023">
        <ele>567.5</ele>
        <time>2022-05-10T09:01:22Z</time>
      </trkpt>
      <trkpt lat="46.989" lon="5.91029">
        <ele>568</ele>
        <time>2022-05-10T09:01:28Z</time>
      </trkpt>
      <trkpt lat="46.98897" lon="5.91035">
        <ele>568.6</ele>
        <time>2022-05-10T09:01:33Z</time>
      </trkpt>
      <trkpt lat="46.98893" lon="5.91041">
        <ele>569.2</ele>
        <time>2022-05-10T09:01:37Z</time>
      </trkpt>
      <trkpt lat="46.98889" lon="5.91046">
        <ele>569.6</ele>
        <time>2022-05-10T09:01:41Z</time>
      </trkpt>
      <trkpt lat="46.98886" lon="5.9105">
        <ele>570.1</ele>
        <time>2022-05-10T09:01:45Z</time>
      </trkpt>
      <trkpt lat="46.98882" lon="5.91054">
        <ele>570.3</ele>
        <time>2022-05-10T09:01:50Z</time>
      </trkpt>
      <trkpt lat="46.98878" lon="5.91059">
        <ele>570.3</ele>
        <time>2022-05-10T09:01:55Z</time>
      </trkpt>
      <trkpt lat="46.98874" lon="5.91064">
        <ele>570.8</ele>
        <time>2022-05-10T09:01:59Z</time>
      </trkpt>
      <trkpt lat="46.9887" lon="5.9107">
        <ele>571.8</ele>
        <time>2022-05-10T09:02:04Z</time>
      </trkpt>
      <trkpt lat="46.98866" lon="5.91074">
        <ele>572.5</ele>
        <time>2022-05-10T09:02:08Z</time>
      </trkpt>
      <trkpt lat="46.98862" lon="5.91077">
        <ele>572.7</ele>
        <time>2022-05-10T09:02:11Z</time>
      </trkpt>
      <trkpt lat="46.98858" lon="5.91079">
        <ele>572.6</ele>
        <time>2022-05-10T09:02:14Z</time>
      </trkpt>
      <trkpt lat="46.98853" lon="5.91083">
        <ele>572.7</ele>
        <time>2022-05-10T09:02:18Z</time>
      </trkpt>
      <trkpt lat="46.98849" lon="5.91086">
        <ele>572.8</ele>
        <time>2022-05-10T09:02:21Z</time>
      </trkpt>
      <trkpt lat="46.98844" lon="5.9109">
        <ele>573.1</ele>
        <time>2022-05-10T09:02:26Z</time>
      </trkpt>
      <trkpt lat="46.9884" lon="5.91093">
        <ele>573.2</ele>
        <time>2022-05-10T09:02:31Z</time>
      </trkpt>
      <trkpt lat="46.98836" lon="5.91097">
        <ele>573.2</ele>
        <time>2022-05-10T09:02:36Z</time>
      </trkpt>
      <trkpt lat="46.98832" lon="5.91102">
        <ele>573.5</ele>
        <time>2022-05-10T09:02:42Z</time>
      </trkpt>
      <trkpt lat="46.98829" lon="5.91097">
        <ele>569.8</ele>
        <time>2022-05-10T09:03:07Z</time>
      </trkpt>
      <trkpt lat="46.98824" lon="5.9109">
        <ele>570.7</ele>
        <time>2022-05-10T09:03:32Z</time>
      </trkpt>
      <trkpt lat="46.98819" lon="5.91087">
        <ele>571.8</ele>
        <time>2022-05-10T09:03:37Z</time>
      </trkpt>
      <trkpt lat="46.98814" lon="5.91088">
        <ele>573.4</ele>
        <time>2022-05-10T09:03:53Z</time>
      </trkpt>
      <trkpt lat="46.98809" lon="5.91087">
        <ele>573.2</ele>
        <time>2022-05-10T09:04:05Z</time>
      </trkpt>
      <trkpt lat="46.98805" lon="5.91084">
        <ele>573.6</ele>
        <time>2022-05-10T09:04:12Z</time>
      </trkpt>
      <trkpt lat="46.98801" lon="5.91079">
        <ele>574.1</ele>
        <time>2022-05-10T09:04:18Z</time>
      </trkpt>
      <trkpt lat="46.98798" lon="5.91073">
        <ele>574.4</ele>
        <time>2022-05-10T09:04:24Z</time>
      </trkpt>
      <trkpt lat="46.98795" lon="5.91067">
        <ele>574.8</ele>
        <time>2022-05-10T09:04:30Z</time>
      </trkpt>
      <trkpt lat="46.98791" lon="5.91062">
        <ele>575.2</ele>
        <time>2022-05-10T09:04:34Z</time>
      </trkpt>
      <trkpt lat="46.98788" lon="5.91057">
        <ele>575.8</ele>
        <time>2022-05-10T09:04:37Z</time>
      </trkpt>
      <trkpt lat="46.98784" lon="5.91052">
        <ele>576.3</ele>
        <time>2022-05-10T09:04:40Z</time>
      </trkpt>
      <trkpt lat="46.9878" lon="5.91047">
        <ele>576.8</ele>
        <time>2022-05-10T09:04:45Z</time>
      </trkpt>
      <trkpt lat="46.98778" lon="5.91041">
        <ele>576</ele>
        <time>2022-05-10T09:04:57Z</time>
      </trkpt>
      <trkpt lat="46.98774" lon="5.91037">
        <ele>576</ele>
        <time>2022-05-10T09:05:01Z</time>
      </trkpt>
      <trkpt lat="46.98771" lon="5.91032">
        <ele>575.8</ele>
        <time>2022-05-10T09:05:05Z</time>
      </trkpt>
      <trkpt lat="46.9877" lon="5.91025">
        <ele>575.9</ele>
        <time>2022-05-10T09:05:10Z</time>
      </trkpt>
      <trkpt lat="46.98767" lon="5.9102">
        <ele>575.8</ele>
        <time>2022-05-10T09:05:15Z</time>
      </trkpt>
      <trkpt lat="46.98763" lon="5.91014">
        <ele>575.5</ele>
        <time>2022-05-10T09:05:21Z</time>
      </trkpt>
      <trkpt lat="46.98759" lon="5.9101">
        <ele>575.2</ele>
        <time>2022-05-10T09:05:25Z</time>
      </trkpt>
      <trkpt lat="46.98756" lon="5.91004">
        <ele>574.8</ele>
        <time>2022-05-10T09:05:29Z</time>
      </trkpt>
      <trkpt lat="46.98752" lon="5.91">
        <ele>574.6</ele>
        <time>2022-05-10T09:05:33Z</time>
      </trkpt>
      <trkpt lat="46.98747" lon="5.90996">
        <ele>574.5</ele>
        <time>2022-05-10T09:05:38Z</time>
      </trkpt>
      <trkpt lat="46.98744" lon="5.9099">
        <ele>574.6</ele>
        <time>2022-05-10T09:05:43Z</time>
      </trkpt>
      <trkpt lat="46.98741" lon="5.90985">
        <ele>574.6</ele>
        <time>2022-05-10T09:05:48Z</time>
      </trkpt>
      <trkpt lat="46.98736" lon="5.9098">
        <ele>574.8</ele>
        <time>2022-05-10T09:05:52Z</time>
      </trkpt>
      <trkpt lat="46.98732" lon="5.90975">
        <ele>575.3</ele>
        <time>2022-05-10T09:05:56Z</time>
      </trkpt>
      <trkpt lat="46.9873" lon="5.90969">
        <ele>575.9</ele>
        <time>2022-05-10T09:06:01Z</time>
      </trkpt>
      <trkpt lat="46.9873" lon="5.90962">
        <ele>577.5</ele>
        <time>2022-05-10T09:06:07Z</time>
      </trkpt>
      <trkpt lat="46.98725" lon="5.90957">
        <ele>579</ele>
        <time>2022-05-10T09:06:11Z</time>
      </trkpt>
      <trkpt lat="46.98722" lon="5.90952">
        <ele>580.7</ele>
        <time>2022-05-10T09:06:16Z</time>
      </trkpt>
      <trkpt lat="46.98719" lon="5.90947">
        <ele>582.6</ele>
        <time>2022-05-10T09:06:21Z</time>
      </trkpt>
      <trkpt lat="46.98723" lon="5.90942">
        <ele>585.5</ele>
        <time>2022-05-10T09:06:30Z</time>
      </trkpt>
      <trkpt lat="46.98717" lon="5.9094">
        <ele>587.2</ele>
        <time>2022-05-10T09:06:42Z</time>
      </trkpt>
      <trkpt lat="46.98712" lon="5.9094">
        <ele>587.4</ele>
        <time>2022-05-10T09:06:46Z</time>
      </trkpt>
      <trkpt lat="46.98708" lon="5.90939">
        <ele>590.5</ele>
        <time>2022-05-10T09:07:19Z</time>
      </trkpt>
      <trkpt lat="46.98703" lon="5.90936">
        <ele>591.7</ele>
        <time>2022-05-10T09:07:24Z</time>
      </trkpt>
      <trkpt lat="46.987" lon="5.90931">
        <ele>590.9</ele>
        <time>2022-05-10T09:07:31Z</time>
      </trkpt>
      <trkpt lat="46.98697" lon="5.90925">
        <ele>589.6</ele>
        <time>2022-05-10T09:07:43Z</time>
      </trkpt>
      <trkpt lat="46.98693" lon="5.90922">
        <ele>589</ele>
        <time>2022-05-10T09:07:47Z</time>
      </trkpt>
      <trkpt lat="46.98688" lon="5.90917">
        <ele>589</ele>
        <time>2022-05-10T09:07:52Z</time>
      </trkpt>
      <trkpt lat="46.98685" lon="5.90913">
        <ele>589.2</ele>
        <time>2022-05-10T09:07:56Z</time>
      </trkpt>
      <trkpt lat="46.9868" lon="5.90909">
        <ele>589.7</ele>
        <time>2022-05-10T09:08:00Z</time>
      </trkpt>
      <trkpt lat="46.98677" lon="5.90903">
        <ele>590.2</ele>
        <time>2022-05-10T09:08:05Z</time>
      </trkpt>
      <trkpt lat="46.98672" lon="5.909">
        <ele>590.2</ele>
        <time>2022-05-10T09:08:09Z</time>
      </trkpt>
      <trkpt lat="46.98668" lon="5.90897">
        <ele>590</ele>
        <time>2022-05-10T09:08:13Z</time>
      </trkpt>
      <trkpt lat="46.98663" lon="5.90895">
        <ele>589.6</ele>
        <time>2022-05-10T09:08:19Z</time>
      </trkpt>
      <trkpt lat="46.98658" lon="5.90894">
        <ele>588.6</ele>
        <time>2022-05-10T09:08:30Z</time>
      </trkpt>
      <trkpt lat="46.98653" lon="5.90894">
        <ele>589</ele>
        <time>2022-05-10T09:08:36Z</time>
      </trkpt>
      <trkpt lat="46.98648" lon="5.90894">
        <ele>589.4</ele>
        <time>2022-05-10T09:08:43Z</time>
      </trkpt>
      <trkpt lat="46.98643" lon="5.90891">
        <ele>589.4</ele>
        <time>2022-05-10T09:08:50Z</time>
      </trkpt>
      <trkpt lat="46.98638" lon="5.90888">
        <ele>589.5</ele>
        <time>2022-05-10T09:08:54Z</time>
      </trkpt>
      <trkpt lat="46.98633" lon="5.90886">
        <ele>589.5</ele>
        <time>2022-05-10T09:08:57Z</time>
      </trkpt>
      <trkpt lat="46.98628" lon="5.90883">
        <ele>589.1</ele>
        <time>2022-05-10T09:09:01Z</time>
      </trkpt>
      <trkpt lat="46.98623" lon="5.90882">
        <ele>589.4</ele>
        <time>2022-05-10T09:09:07Z</time>
      </trkpt>
      <trkpt lat="46.98619" lon="5.90881">
        <ele>590.2</ele>
        <time>2022-05-10T09:09:12Z</time>
      </trkpt>
      <trkpt lat="46.98614" lon="5.9088">
        <ele>590.8</ele>
        <time>2022-05-10T09:09:17Z</time>
      </trkpt>
      <trkpt lat="46.98609" lon="5.90879">
        <ele>591</ele>
        <time>2022-05-10T09:09:21Z</time>
      </trkpt>
      <trkpt lat="46.98604" lon="5.90878">
        <ele>591.3</ele>
        <time>2022-05-10T09:09:27Z</time>
      </trkpt>
      <trkpt lat="46.986" lon="5.90877">
        <ele>591.6</ele>
        <time>2022-05-10T09:09:37Z</time>
      </trkpt>
      <trkpt lat="46.98595" lon="5.90875">
        <ele>592</ele>
        <time>2022-05-10T09:09:45Z</time>
      </trkpt>
      <trkpt lat="46.9859" lon="5.90872">
        <ele>591.9</ele>
        <time>2022-05-10T09:09:49Z</time>
      </trkpt>
      <trkpt lat="46.98586" lon="5.90868">
        <ele>591.7</ele>
        <time>2022-05-10T09:09:54Z</time>
      </trkpt>
      <trkpt lat="46.98582" lon="5.90864">
        <ele>591.1</ele>
        <time>2022-05-10T09:09:58Z</time>
      </trkpt>
      <trkpt lat="46.98577" lon="5.90861">
        <ele>590.8</ele>
        <time>2022-05-10T09:10:01Z</time>
      </trkpt>
      <trkpt lat="46.98573" lon="5.90856">
        <ele>590.4</ele>
        <time>2022-05-10T09:10:07Z</time>
      </trkpt>
      <trkpt lat="46.98568" lon="5.90851">
        <ele>590.2</ele>
        <time>2022-05-10T09:10:11Z</time>
      </trkpt>
      <trkpt lat="46.98564" lon="5.90848">
        <ele>589.9</ele>
        <time>2022-05-10T09:10:15Z</time>
      </trkpt>
      <trkpt lat="46.9856" lon="5.9084">
        <ele>589</ele>
        <time>2022-05-10T09:10:26Z</time>
      </trkpt>
      <trkpt lat="46.98557" lon="5.90835">
        <ele>588.3</ele>
        <time>2022-05-10T09:10:30Z</time>
      </trkpt>
      <trkpt lat="46.98553" lon="5.9083">
        <ele>588.1</ele>
        <time>2022-05-10T09:10:34Z</time>
      </trkpt>
      <trkpt lat="46.98549" lon="5.90825">
        <ele>588.8</ele>
        <time>2022-05-10T09:10:38Z</time>
      </trkpt>
      <trkpt lat="46.98546" lon="5.9082">
        <ele>589.5</ele>
        <time>2022-05-10T09:10:41Z</time>
      </trkpt>
      <trkpt lat="46.98542" lon="5.90815">
        <ele>590.3</ele>
        <time>2022-05-10T09:10:45Z</time>
      </trkpt>
      <trkpt lat="46.98537" lon="5.90811">
        <ele>590.8</ele>
        <time>2022-05-10T09:10:50Z</time>
      </trkpt>
      <trkpt lat="46.98534" lon="5.90805">
        <ele>591.4</ele>
        <time>2022-05-10T09:10:55Z</time>
      </trkpt>
      <trkpt lat="46.98531" lon="5.90799">
        <ele>591.7</ele>
        <time>2022-05-10T09:10:58Z</time>
      </trkpt>
      <trkpt lat="46.98529" lon="5.90793">
        <ele>592.3</ele>
        <time>2022-05-10T09:11:01Z</time>
      </trkpt>
      <trkpt lat="46.98527" lon="5.90786">
        <ele>593.2</ele>
        <time>2022-05-10T09:11:05Z</time>
      </trkpt>
      <trkpt lat="46.98524" lon="5.9078">
        <ele>593.8</ele>
        <time>2022-05-10T09:11:09Z</time>
      </trkpt>
      <trkpt lat="46.98523" lon="5.90774">
        <ele>594.9</ele>
        <time>2022-05-10T09:11:15Z</time>
      </trkpt>
      <trkpt lat="46.98521" lon="5.90766">
        <ele>596.4</ele>
        <time>2022-05-10T09:11:25Z</time>
      </trkpt>
      <trkpt lat="46.98519" lon="5.9076">
        <ele>596.7</ele>
        <time>2022-05-10T09:11:30Z</time>
      </trkpt>
      <trkpt lat="46.98518" lon="5.90752">
        <ele>596.8</ele>
        <time>2022-05-10T09:11:35Z</time>
      </trkpt>
      <trkpt lat="46.98516" lon="5.90746">
        <ele>596.6</ele>
        <time>2022-05-10T09:11:41Z</time>
      </trkpt>
      <trkpt lat="46.98518" lon="5.90739">
        <ele>596.3</ele>
        <time>2022-05-10T09:11:49Z</time>
      </trkpt>
      <trkpt lat="46.98517" lon="5.90732">
        <ele>595.9</ele>
        <time>2022-05-10T09:11:56Z</time>
      </trkpt>
      <trkpt lat="46.98515" lon="5.90725">
        <ele>595.1</ele>
        <time>2022-05-10T09:12:01Z</time>
      </trkpt>
      <trkpt lat="46.98514" lon="5.90717">
        <ele>594.4</ele>
        <time>2022-05-10T09:12:05Z</time>
      </trkpt>
      <trkpt lat="46.98513" lon="5.90708">
        <ele>594</ele>
        <time>2022-05-10T09:12:09Z</time>
      </trkpt>
      <trkpt lat="46.98512" lon="5.907">
        <ele>593.7</ele>
        <time>2022-05-10T09:12:13Z</time>
      </trkpt>
      <trkpt lat="46.9851" lon="5.90694">
        <ele>593.7</ele>
        <time>2022-05-10T09:12:17Z</time>
      </trkpt>
      <trkpt lat="46.98507" lon="5.90688">
        <ele>593.6</ele>
        <time>2022-05-10T09:12:21Z</time>
      </trkpt>
      <trkpt lat="46.98505" lon="5.90681">
        <ele>594</ele>
        <time>2022-05-10T09:12:27Z</time>
      </trkpt>
      <trkpt lat="46.98505" lon="5.90673">
        <ele>594.1</ele>
        <time>2022-05-10T09:12:31Z</time>
      </trkpt>
      <trkpt lat="46.98503" lon="5.90666">
        <ele>592.9</ele>
        <time>2022-05-10T09:12:37Z</time>
      </trkpt>
      <trkpt lat="46.98498" lon="5.90667">
        <ele>592.4</ele>
        <time>2022-05-10T09:12:49Z</time>
      </trkpt>
      <trkpt lat="46.98494" lon="5.90663">
        <ele>590.3</ele>
        <time>2022-05-10T09:13:10Z</time>
      </trkpt>
      <trkpt lat="46.98495" lon="5.90656">
        <ele>589.3</ele>
        <time>2022-05-10T09:13:14Z</time>
      </trkpt>
      <trkpt lat="46.98493" lon="5.9065">
        <ele>587.6</ele>
        <time>2022-05-10T09:13:21Z</time>
      </trkpt>
      <trkpt lat="46.98497" lon="5.90653">
        <ele>585.6</ele>
        <time>2022-05-10T09:13:28Z</time>
      </trkpt>
      <trkpt lat="46.98493" lon="5.90651">
        <ele>583.8</ele>
        <time>2022-05-10T09:13:37Z</time>
      </trkpt>
      <trkpt lat="46.9849" lon="5.90645">
        <ele>583.5</ele>
        <time>2022-05-10T09:13:42Z</time>
      </trkpt>
      <trkpt lat="46.98488" lon="5.90639">
        <ele>583.2</ele>
        <time>2022-05-10T09:13:48Z</time>
      </trkpt>
      <trkpt lat="46.98486" lon="5.90632">
        <ele>584.6</ele>
        <time>2022-05-10T09:13:56Z</time>
      </trkpt>
      <trkpt lat="46.98485" lon="5.90625">
        <ele>587.3</ele>
        <time>2022-05-10T09:14:03Z</time>
      </trkpt>
      <trkpt lat="46.98482" lon="5.90619">
        <ele>589.2</ele>
        <time>2022-05-10T09:14:08Z</time>
      </trkpt>
      <trkpt lat="46.98479" lon="5.90613">
        <ele>590.7</ele>
        <time>2022-05-10T09:14:12Z</time>
      </trkpt>
      <trkpt lat="46.98476" lon="5.90607">
        <ele>592.4</ele>
        <time>2022-05-10T09:14:16Z</time>
      </trkpt>
      <trkpt lat="46.98473" lon="5.90602">
        <ele>594.6</ele>
        <time>2022-05-10T09:14:21Z</time>
      </trkpt>
      <trkpt lat="46.98471" lon="5.90594">
        <ele>595.7</ele>
        <time>2022-05-10T09:14:27Z</time>
      </trkpt>
      <trkpt lat="46.98467" lon="5.90588">
        <ele>595.9</ele>
        <time>2022-05-10T09:14:33Z</time>
      </trkpt>
      <trkpt lat="46.98464" lon="5.90584">
        <ele>595.5</ele>
        <time>2022-05-10T09:14:40Z</time>
      </trkpt>
      <trkpt lat="46.98461" lon="5.90579">
        <ele>594.5</ele>
        <time>2022-05-10T09:14:48Z</time>
      </trkpt>
      <trkpt lat="46.98457" lon="5.90575">
        <ele>594.1</ele>
        <time>2022-05-10T09:14:51Z</time>
      </trkpt>
      <trkpt lat="46.98452" lon="5.90571">
        <ele>593.7</ele>
        <time>2022-05-10T09:14:55Z</time>
      </trkpt>
      <trkpt lat="46.98449" lon="5.90567">
        <ele>593.7</ele>
        <time>2022-05-10T09:14:58Z</time>
      </trkpt>
      <trkpt lat="46.98444" lon="5.90562">
        <ele>593.9</ele>
        <time>2022-05-10T09:15:02Z</time>
      </trkpt>
      <trkpt lat="46.98439" lon="5.90559">
        <ele>594.5</ele>
        <time>2022-05-10T09:15:06Z</time>
      </trkpt>
      <trkpt lat="46.98435" lon="5.90554">
        <ele>595.2</ele>
        <time>2022-05-10T09:15:12Z</time>
      </trkpt>
      <trkpt lat="46.98432" lon="5.90549">
        <ele>594.9</ele>
        <time>2022-05-10T09:15:22Z</time>
      </trkpt>
      <trkpt lat="46.98427" lon="5.90546">
        <ele>595.2</ele>
        <time>2022-05-10T09:15:26Z</time>
      </trkpt>
      <trkpt lat="46.98423" lon="5.90542">
        <ele>597</ele>
        <time>2022-05-10T09:15:34Z</time>
      </trkpt>
      <trkpt lat="46.98419" lon="5.90539">
        <ele>597.9</ele>
        <time>2022-05-10T09:15:39Z</time>
      </trkpt>
      <trkpt lat="46.98415" lon="5.90533">
        <ele>599.9</ele>
        <time>2022-05-10T09:15:53Z</time>
      </trkpt>
      <trkpt lat="46.98409" lon="5.90527">
        <ele>600.2</ele>
        <time>2022-05-10T09:15:57Z</time>
      </trkpt>
      <trkpt lat="46.98403" lon="5.90521">
        <ele>600.5</ele>
        <time>2022-05-10T09:16:00Z</time>
      </trkpt>
      <trkpt lat="46.98397" lon="5.90517">
        <ele>600.8</ele>
        <time>2022-05-10T09:16:03Z</time>
      </trkpt>
      <trkpt lat="46.98393" lon="5.90513">
        <ele>601.3</ele>
        <time>2022-05-10T09:16:06Z</time>
      </trkpt>
      <trkpt lat="46.98388" lon="5.90509">
        <ele>602.3</ele>
        <time>2022-05-10T09:16:12Z</time>
      </trkpt>
      <trkpt lat="46.98385" lon="5.90505">
        <ele>603.2</ele>
        <time>2022-05-10T09:16:20Z</time>
      </trkpt>
      <trkpt lat="46.98381" lon="5.905">
        <ele>604</ele>
        <time>2022-05-10T09:16:25Z</time>
      </trkpt>
      <trkpt lat="46.98377" lon="5.90496">
        <ele>604.4</ele>
        <time>2022-05-10T09:16:30Z</time>
      </trkpt>
      <trkpt lat="46.98373" lon="5.90492">
        <ele>605.1</ele>
        <time>2022-05-10T09:16:35Z</time>
      </trkpt>
      <trkpt lat="46.9837" lon="5.90486">
        <ele>606.2</ele>
        <time>2022-05-10T09:16:42Z</time>
      </trkpt>
      <trkpt lat="46.98365" lon="5.90484">
        <ele>607.1</ele>
        <time>2022-05-10T09:16:47Z</time>
      </trkpt>
      <trkpt lat="46.9836" lon="5.90481">
        <ele>607.3</ele>
        <time>2022-05-10T09:16:51Z</time>
      </trkpt>
      <trkpt lat="46.98355" lon="5.90479">
        <ele>607.3</ele>
        <time>2022-05-10T09:16:55Z</time>
      </trkpt>
      <trkpt lat="46.9835" lon="5.90475">
        <ele>607.2</ele>
        <time>2022-05-10T09:16:59Z</time>
      </trkpt>
      <trkpt lat="46.98346" lon="5.9047">
        <ele>607.6</ele>
        <time>2022-05-10T09:17:05Z</time>
      </trkpt>
      <trkpt lat="46.98342" lon="5.90467">
        <ele>609.4</ele>
        <time>2022-05-10T09:17:12Z</time>
      </trkpt>
      <trkpt lat="46.98339" lon="5.90461">
        <ele>610.8</ele>
        <time>2022-05-10T09:17:17Z</time>
      </trkpt>
      <trkpt lat="46.98335" lon="5.90458">
        <ele>611.5</ele>
        <time>2022-05-10T09:17:21Z</time>
      </trkpt>
      <trkpt lat="46.98331" lon="5.90453">
        <ele>612</ele>
        <time>2022-05-10T09:17:27Z</time>
      </trkpt>
      <trkpt lat="46.98327" lon="5.9045">
        <ele>612.9</ele>
        <time>2022-05-10T09:17:41Z</time>
      </trkpt>
      <trkpt lat="46.98324" lon="5.90445">
        <ele>611.5</ele>
        <time>2022-05-10T09:17:50Z</time>
      </trkpt>
      <trkpt lat="46.98319" lon="5.90448">
        <ele>611.1</ele>
        <time>2022-05-10T09:17:58Z</time>
      </trkpt>
      <trkpt lat="46.98314" lon="5.90447">
        <ele>611.4</ele>
        <time>2022-05-10T09:18:10Z</time>
      </trkpt>
      <trkpt lat="46.9831" lon="5.90444">
        <ele>612.9</ele>
        <time>2022-05-10T09:18:16Z</time>
      </trkpt>
      <trkpt lat="46.98306" lon="5.90439">
        <ele>615.1</ele>
        <time>2022-05-10T09:18:22Z</time>
      </trkpt>
      <trkpt lat="46.98304" lon="5.90434">
        <ele>617.7</ele>
        <time>2022-05-10T09:18:28Z</time>
      </trkpt>
      <trkpt lat="46.983" lon="5.9043">
        <ele>619.1</ele>
        <time>2022-05-10T09:18:34Z</time>
      </trkpt>
      <trkpt lat="46.98294" lon="5.90429">
        <ele>619.3</ele>
        <time>2022-05-10T09:18:39Z</time>
      </trkpt>
      <trkpt lat="46.98289" lon="5.90427">
        <ele>619.3</ele>
        <time>2022-05-10T09:18:43Z</time>
      </trkpt>
      <trkpt lat="46.98285" lon="5.90426">
        <ele>618.5</ele>
        <time>2022-05-10T09:18:48Z</time>
      </trkpt>
      <trkpt lat="46.98281" lon="5.90429">
        <ele>617.7</ele>
        <time>2022-05-10T09:18:54Z</time>
      </trkpt>
      <trkpt lat="46.98276" lon="5.90427">
        <ele>617.4</ele>
        <time>2022-05-10T09:19:00Z</time>
      </trkpt>
      <trkpt lat="46.98273" lon="5.90423">
        <ele>617.2</ele>
        <time>2022-05-10T09:19:04Z</time>
      </trkpt>
      <trkpt lat="46.98268" lon="5.9042">
        <ele>616.6</ele>
        <time>2022-05-10T09:19:11Z</time>
      </trkpt>
      <trkpt lat="46.98266" lon="5.90414">
        <ele>615.3</ele>
        <time>2022-05-10T09:19:18Z</time>
      </trkpt>
      <trkpt lat="46.98264" lon="5.90408">
        <ele>613.6</ele>
        <time>2022-05-10T09:19:24Z</time>
      </trkpt>
      <trkpt lat="46.98264" lon="5.90401">
        <ele>612.4</ele>
        <time>2022-05-10T09:19:33Z</time>
      </trkpt>
      <trkpt lat="46.9826" lon="5.90395">
        <ele>612.4</ele>
        <time>2022-05-10T09:19:38Z</time>
      </trkpt>
      <trkpt lat="46.98257" lon="5.9039">
        <ele>612.9</ele>
        <time>2022-05-10T09:19:43Z</time>
      </trkpt>
      <trkpt lat="46.98253" lon="5.90387">
        <ele>615.4</ele>
        <time>2022-05-10T09:19:52Z</time>
      </trkpt>
      <trkpt lat="46.98248" lon="5.90387">
        <ele>617.5</ele>
        <time>2022-05-10T09:19:59Z</time>
      </trkpt>
      <trkpt lat="46.98243" lon="5.90384">
        <ele>619.7</ele>
        <time>2022-05-10T09:20:06Z</time>
      </trkpt>
      <trkpt lat="46.98239" lon="5.9038">
        <ele>620.9</ele>
        <time>2022-05-10T09:20:13Z</time>
      </trkpt>
      <trkpt lat="46.98235" lon="5.90374">
        <ele>621.6</ele>
        <time>2022-05-10T09:20:17Z</time>
      </trkpt>
      <trkpt lat="46.98232" lon="5.90369">
        <ele>622.2</ele>
        <time>2022-05-10T09:20:21Z</time>
      </trkpt>
      <trkpt lat="46.98228" lon="5.90364">
        <ele>625.7</ele>
        <time>2022-05-10T09:20:29Z</time>
      </trkpt>
      <trkpt lat="46.98224" lon="5.90364">
        <ele>627.4</ele>
        <time>2022-05-10T09:20:35Z</time>
      </trkpt>
      <trkpt lat="46.98219" lon="5.90365">
        <ele>628.3</ele>
        <time>2022-05-10T09:20:39Z</time>
      </trkpt>
      <trkpt lat="46.98213" lon="5.90365">
        <ele>628.9</ele>
        <time>2022-05-10T09:20:42Z</time>
      </trkpt>
      <trkpt lat="46.98208" lon="5.90365">
        <ele>629.3</ele>
        <time>2022-05-10T09:20:46Z</time>
      </trkpt>
      <trkpt lat="46.98203" lon="5.90364">
        <ele>628.8</ele>
        <time>2022-05-10T09:20:50Z</time>
      </trkpt>
      <trkpt lat="46.98198" lon="5.90361">
        <ele>628.1</ele>
        <time>2022-05-10T09:20:54Z</time>
      </trkpt>
      <trkpt lat="46.98193" lon="5.90362">
        <ele>627.2</ele>
        <time>2022-05-10T09:21:00Z</time>
      </trkpt>
      <trkpt lat="46.98188" lon="5.90361">
        <ele>626.6</ele>
        <time>2022-05-10T09:21:10Z</time>
      </trkpt>
      <trkpt lat="46.98184" lon="5.90356">
        <ele>626.4</ele>
        <time>2022-05-10T09:21:15Z</time>
      </trkpt>
      <trkpt lat="46.9818" lon="5.90351">
        <ele>625.4</ele>
        <time>2022-05-10T09:21:19Z</time>
      </trkpt>
      <trkpt lat="46.98176" lon="5.90348">
        <ele>624.1</ele>
        <time>2022-05-10T09:21:23Z</time>
      </trkpt>
      <trkpt lat="46.98171" lon="5.90344">
        <ele>623.2</ele>
        <time>2022-05-10T09:21:30Z</time>
      </trkpt>
      <trkpt lat="46.98171" lon="5.90337">
        <ele>623.4</ele>
        <time>2022-05-10T09:21:36Z</time>
      </trkpt>
      <trkpt lat="46.9817" lon="5.9033">
        <ele>622.8</ele>
        <time>2022-05-10T09:21:40Z</time>
      </trkpt>
      <trkpt lat="46.98172" lon="5.90324">
        <ele>621.8</ele>
        <time>2022-05-10T09:21:49Z</time>
      </trkpt>
      <trkpt lat="46.98174" lon="5.90316">
        <ele>621.9</ele>
        <time>2022-05-10T09:21:56Z</time>
      </trkpt>
      <trkpt lat="46.98174" lon="5.90308">
        <ele>622.1</ele>
        <time>2022-05-10T09:22:01Z</time>
      </trkpt>
      <trkpt lat="46.98174" lon="5.90301">
        <ele>622.7</ele>
        <time>2022-05-10T09:22:06Z</time>
      </trkpt>
      <trkpt lat="46.98175" lon="5.90294">
        <ele>624.5</ele>
        <time>2022-05-10T09:22:13Z</time>
      </trkpt>
      <trkpt lat="46.98171" lon="5.90288">
        <ele>626</ele>
        <time>2022-05-10T09:22:19Z</time>
      </trkpt>
      <trkpt lat="46.98166" lon="5.90285">
        <ele>626.6</ele>
        <time>2022-05-10T09:22:25Z</time>
      </trkpt>
      <trkpt lat="46.98162" lon="5.90281">
        <ele>626.6</ele>
        <time>2022-05-10T09:22:31Z</time>
      </trkpt>
      <trkpt lat="46.98157" lon="5.90277">
        <ele>626.5</ele>
        <time>2022-05-10T09:22:35Z</time>
      </trkpt>
      <trkpt lat="46.98152" lon="5.90274">
        <ele>626.4</ele>
        <time>2022-05-10T09:22:39Z</time>
      </trkpt>
      <trkpt lat="46.98148" lon="5.90271">
        <ele>626.2</ele>
        <time>2022-05-10T09:22:43Z</time>
      </trkpt>
      <trkpt lat="46.98144" lon="5.90265">
        <ele>625.8</ele>
        <time>2022-05-10T09:22:48Z</time>
      </trkpt>
      <trkpt lat="46.98141" lon="5.9026">
        <ele>625.2</ele>
        <time>2022-05-10T09:22:53Z</time>
      </trkpt>
      <trkpt lat="46.98138" lon="5.90254">
        <ele>624.6</ele>
        <time>2022-05-10T09:23:07Z</time>
      </trkpt>
      <trkpt lat="46.98136" lon="5.90248">
        <ele>624.5</ele>
        <time>2022-05-10T09:23:13Z</time>
      </trkpt>
      <trkpt lat="46.98132" lon="5.90243">
        <ele>624.4</ele>
        <time>2022-05-10T09:23:18Z</time>
      </trkpt>
      <trkpt lat="46.98128" lon="5.90238">
        <ele>624.2</ele>
        <time>2022-05-10T09:23:22Z</time>
      </trkpt>
      <trkpt lat="46.98124" lon="5.90233">
        <ele>623.9</ele>
        <time>2022-05-10T09:23:26Z</time>
      </trkpt>
      <trkpt lat="46.98121" lon="5.90229">
        <ele>624.2</ele>
        <time>2022-05-10T09:23:32Z</time>
      </trkpt>
      <trkpt lat="46.98115" lon="5.9023">
        <ele>625.5</ele>
        <time>2022-05-10T09:23:38Z</time>
      </trkpt>
      <trkpt lat="46.98111" lon="5.90233">
        <ele>626.9</ele>
        <time>2022-05-10T09:23:45Z</time>
      </trkpt>
      <trkpt lat="46.98111" lon="5.90225">
        <ele>629</ele>
        <time>2022-05-10T09:24:00Z</time>
      </trkpt>
      <trkpt lat="46.9811" lon="5.90219">
        <ele>629.5</ele>
        <time>2022-05-10T09:24:07Z</time>
      </trkpt>
      <trkpt lat="46.98111" lon="5.90212">
        <ele>629.7</ele>
        <time>2022-05-10T09:24:18Z</time>
      </trkpt>
      <trkpt lat="46.98106" lon="5.90216">
        <ele>630.6</ele>
        <time>2022-05-10T09:24:26Z</time>
      </trkpt>
      <trkpt lat="46.98105" lon="5.90207">
        <ele>629.7</ele>
        <time>2022-05-10T09:24:31Z</time>
      </trkpt>
      <trkpt lat="46.98103" lon="5.902">
        <ele>628.3</ele>
        <time>2022-05-10T09:24:35Z</time>
      </trkpt>
      <trkpt lat="46.98099" lon="5.90196">
        <ele>626.9</ele>
        <time>2022-05-10T09:24:40Z</time>
      </trkpt>
      <trkpt lat="46.98101" lon="5.90203">
        <ele>625.5</ele>
        <time>2022-05-10T09:24:50Z</time>
      </trkpt>
      <trkpt lat="46.98097" lon="5.90205">
        <ele>632.2</ele>
        <time>2022-05-10T09:25:24Z</time>
      </trkpt>
      <trkpt lat="46.98093" lon="5.9021">
        <ele>635.4</ele>
        <time>2022-05-10T09:25:28Z</time>
      </trkpt>
      <trkpt lat="46.98089" lon="5.90213">
        <ele>639.3</ele>
        <time>2022-05-10T09:25:34Z</time>
      </trkpt>
      <trkpt lat="46.98094" lon="5.90215">
        <ele>644.6</ele>
        <time>2022-05-10T09:26:16Z</time>
      </trkpt>
      <trkpt lat="46.98099" lon="5.90215">
        <ele>646.5</ele>
        <time>2022-05-10T09:26:43Z</time>
      </trkpt>
      <trkpt lat="46.98103" lon="5.9022">
        <ele>645.3</ele>
        <time>2022-05-10T09:26:53Z</time>
      </trkpt>
      <trkpt lat="46.98104" lon="5.90227">
        <ele>644.1</ele>
        <time>2022-05-10T09:26:57Z</time>
      </trkpt>
      <trkpt lat="46.981" lon="5.90231">
        <ele>642.8</ele>
        <time>2022-05-10T09:27:02Z</time>
      </trkpt>
      <trkpt lat="46.98095" lon="5.90229">
        <ele>640.4</ele>
        <time>2022-05-10T09:27:16Z</time>
      </trkpt>
      <trkpt lat="46.98095" lon="5.90222">
        <ele>641.2</ele>
        <time>2022-05-10T09:27:28Z</time>
      </trkpt>
      <trkpt lat="46.98095" lon="5.90215">
        <ele>641.9</ele>
        <time>2022-05-10T09:27:33Z</time>
      </trkpt>
      <trkpt lat="46.98094" lon="5.90208">
        <ele>642.5</ele>
        <time>2022-05-10T09:27:38Z</time>
      </trkpt>
      <trkpt lat="46.98091" lon="5.90202">
        <ele>643.2</ele>
        <time>2022-05-10T09:27:43Z</time>
      </trkpt>
      <trkpt lat="46.98089" lon="5.90194">
        <ele>643.7</ele>
        <time>2022-05-10T09:27:47Z</time>
      </trkpt>
      <trkpt lat="46.98086" lon="5.90188">
        <ele>644.5</ele>
        <time>2022-05-10T09:27:51Z</time>
      </trkpt>
      <trkpt lat="46.98084" lon="5.90182">
        <ele>645.5</ele>
        <time>2022-05-10T09:27:57Z</time>
      </trkpt>
      <trkpt lat="46.9808" lon="5.90178">
        <ele>645.4</ele>
        <time>2022-05-10T09:28:09Z</time>
      </trkpt>
      <trkpt lat="46.98076" lon="5.90174">
        <ele>644.7</ele>
        <time>2022-05-10T09:28:15Z</time>
      </trkpt>
      <trkpt lat="46.98071" lon="5.9017">
        <ele>645</ele>
        <time>2022-05-10T09:28:20Z</time>
      </trkpt>
      <trkpt lat="46.98069" lon="5.90164">
        <ele>647.2</ele>
        <time>2022-05-10T09:28:32Z</time>
      </trkpt>
      <trkpt lat="46.98065" lon="5.90159">
        <ele>648</ele>
        <time>2022-05-10T09:28:37Z</time>
      </trkpt>
      <trkpt lat="46.98061" lon="5.90154">
        <ele>648.9</ele>
        <time>2022-05-10T09:28:41Z</time>
      </trkpt>
      <trkpt lat="46.98057" lon="5.9015">
        <ele>649.4</ele>
        <time>2022-05-10T09:28:46Z</time>
      </trkpt>
      <trkpt lat="46.98053" lon="5.90147">
        <ele>649.9</ele>
        <time>2022-05-10T09:28:52Z</time>
      </trkpt>
      <trkpt lat="46.98048" lon="5.90144">
        <ele>651</ele>
        <time>2022-05-10T09:28:58Z</time>
      </trkpt>
      <trkpt lat="46.98044" lon="5.9014">
        <ele>653</ele>
        <time>2022-05-10T09:29:03Z</time>
      </trkpt>
      <trkpt lat="46.98039" lon="5.90136">
        <ele>654.6</ele>
        <time>2022-05-10T09:29:07Z</time>
      </trkpt>
      <trkpt lat="46.98035" lon="5.90133">
        <ele>656.3</ele>
        <time>2022-05-10T09:29:12Z</time>
      </trkpt>
      <trkpt lat="46.98031" lon="5.90129">
        <ele>658.8</ele>
        <time>2022-05-10T09:29:20Z</time>
      </trkpt>
      <trkpt lat="46.98028" lon="5.90122">
        <ele>662</ele>
        <time>2022-05-10T09:29:34Z</time>
      </trkpt>
      <trkpt lat="46.98024" lon="5.90115">
        <ele>665</ele>
        <time>2022-05-10T09:29:49Z</time>
      </trkpt>
      <trkpt lat="46.98019" lon="5.90111">
        <ele>665.1</ele>
        <time>2022-05-10T09:29:52Z</time>
      </trkpt>
      <trkpt lat="46.98015" lon="5.90106">
        <ele>665</ele>
        <time>2022-05-10T09:29:59Z</time>
      </trkpt>
      <trkpt lat="46.98011" lon="5.90102">
        <ele>664.8</ele>
        <time>2022-05-10T09:30:04Z</time>
      </trkpt>
      <trkpt lat="46.98008" lon="5.90097">
        <ele>664.8</ele>
        <time>2022-05-10T09:30:10Z</time>
      </trkpt>
      <trkpt lat="46.98007" lon="5.9009">
        <ele>665.1</ele>
        <time>2022-05-10T09:30:19Z</time>
      </trkpt>
      <trkpt lat="46.98003" lon="5.90086">
        <ele>666.3</ele>
        <time>2022-05-10T09:30:26Z</time>
      </trkpt>
      <trkpt lat="46.97998" lon="5.90082">
        <ele>667.3</ele>
        <time>2022-05-10T09:30:32Z</time>
      </trkpt>
      <trkpt lat="46.97994" lon="5.9008">
        <ele>668.7</ele>
        <time>2022-05-10T09:30:40Z</time>
      </trkpt>
      <trkpt lat="46.97991" lon="5.90073">
        <ele>669.6</ele>
        <time>2022-05-10T09:30:48Z</time>
      </trkpt>
      <trkpt lat="46.97986" lon="5.90067">
        <ele>670.8</ele>
        <time>2022-05-10T09:30:57Z</time>
      </trkpt>
      <trkpt lat="46.97982" lon="5.90063">
        <ele>671.4</ele>
        <time>2022-05-10T09:31:00Z</time>
      </trkpt>
      <trkpt lat="46.97978" lon="5.90059">
        <ele>672.2</ele>
        <time>2022-05-10T09:31:04Z</time>
      </trkpt>
      <trkpt lat="46.97974" lon="5.90056">
        <ele>672.9</ele>
        <time>2022-05-10T09:31:08Z</time>
      </trkpt>
      <trkpt lat="46.9797" lon="5.90051">
        <ele>673.1</ele>
        <time>2022-05-10T09:31:14Z</time>
      </trkpt>
      <trkpt lat="46.97967" lon="5.90046">
        <ele>673.5</ele>
        <time>2022-05-10T09:31:18Z</time>
      </trkpt>
      <trkpt lat="46.97966" lon="5.9004">
        <ele>674</ele>
        <time>2022-05-10T09:31:22Z</time>
      </trkpt>
      <trkpt lat="46.97965" lon="5.90032">
        <ele>675</ele>
        <time>2022-05-10T09:31:29Z</time>
      </trkpt>
      <trkpt lat="46.97964" lon="5.90025">
        <ele>674.7</ele>
        <time>2022-05-10T09:31:36Z</time>
      </trkpt>
      <trkpt lat="46.97962" lon="5.90019">
        <ele>673.9</ele>
        <time>2022-05-10T09:31:39Z</time>
      </trkpt>
      <trkpt lat="46.97959" lon="5.90013">
        <ele>672.8</ele>
        <time>2022-05-10T09:31:43Z</time>
      </trkpt>
      <trkpt lat="46.9796" lon="5.90005">
        <ele>671.4</ele>
        <time>2022-05-10T09:31:49Z</time>
      </trkpt>
      <trkpt lat="46.97962" lon="5.89998">
        <ele>670.3</ele>
        <time>2022-05-10T09:31:54Z</time>
      </trkpt>
      <trkpt lat="46.97967" lon="5.89995">
        <ele>669.3</ele>
        <time>2022-05-10T09:32:00Z</time>
      </trkpt>
      <trkpt lat="46.97969" lon="5.89988">
        <ele>668.6</ele>
        <time>2022-05-10T09:32:07Z</time>
      </trkpt>
      <trkpt lat="46.97972" lon="5.89982">
        <ele>668.6</ele>
        <time>2022-05-10T09:32:10Z</time>
      </trkpt>
      <trkpt lat="46.97974" lon="5.89974">
        <ele>668.7</ele>
        <time>2022-05-10T09:32:15Z</time>
      </trkpt>
      <trkpt lat="46.97975" lon="5.89967">
        <ele>668.9</ele>
        <time>2022-05-10T09:32:20Z</time>
      </trkpt>
      <trkpt lat="46.97979" lon="5.89962">
        <ele>669.4</ele>
        <time>2022-05-10T09:32:25Z</time>
      </trkpt>
      <trkpt lat="46.97983" lon="5.89957">
        <ele>670.6</ele>
        <time>2022-05-10T09:32:32Z</time>
      </trkpt>
      <trkpt lat="46.97984" lon="5.8995">
        <ele>671.6</ele>
        <time>2022-05-10T09:32:39Z</time>
      </trkpt>
      <trkpt lat="46.97988" lon="5.89945">
        <ele>673.1</ele>
        <time>2022-05-10T09:32:47Z</time>
      </trkpt>
      <trkpt lat="46.97989" lon="5.89938">
        <ele>674.4</ele>
        <time>2022-05-10T09:32:51Z</time>
      </trkpt>
      <trkpt lat="46.97989" lon="5.89932">
        <ele>675.2</ele>
        <time>2022-05-10T09:32:55Z</time>
      </trkpt>
      <trkpt lat="46.9799" lon="5.89925">
        <ele>675.7</ele>
        <time>2022-05-10T09:33:01Z</time>
      </trkpt>
      <trkpt lat="46.97994" lon="5.8992">
        <ele>675.3</ele>
        <time>2022-05-10T09:33:07Z</time>
      </trkpt>
      <trkpt lat="46.97995" lon="5.89913">
        <ele>675.6</ele>
        <time>2022-05-10T09:33:13Z</time>
      </trkpt>
      <trkpt lat="46.97995" lon="5.89905">
        <ele>676.3</ele>
        <time>2022-05-10T09:33:19Z</time>
      </trkpt>
      <trkpt lat="46.97993" lon="5.89898">
        <ele>677.4</ele>
        <time>2022-05-10T09:33:25Z</time>
      </trkpt>
      <trkpt lat="46.97991" lon="5.89892">
        <ele>677.7</ele>
        <time>2022-05-10T09:33:33Z</time>
      </trkpt>
      <trkpt lat="46.97987" lon="5.89886">
        <ele>677.4</ele>
        <time>2022-05-10T09:33:42Z</time>
      </trkpt>
      <trkpt lat="46.97983" lon="5.89882">
        <ele>677.8</ele>
        <time>2022-05-10T09:33:48Z</time>
      </trkpt>
      <trkpt lat="46.97981" lon="5.89877">
        <ele>678.9</ele>
        <time>2022-05-10T09:33:53Z</time>
      </trkpt>
      <trkpt lat="46.97978" lon="5.89871">
        <ele>682.2</ele>
        <time>2022-05-10T09:34:03Z</time>
      </trkpt>
      <trkpt lat="46.97974" lon="5.89868">
        <ele>683.7</ele>
        <time>2022-05-10T09:34:10Z</time>
      </trkpt>
      <trkpt lat="46.9797" lon="5.89862">
        <ele>684.6</ele>
        <time>2022-05-10T09:34:16Z</time>
      </trkpt>
      <trkpt lat="46.97967" lon="5.89857">
        <ele>684.8</ele>
        <time>2022-05-10T09:34:21Z</time>
      </trkpt>
      <trkpt lat="46.97963" lon="5.89853">
        <ele>684.2</ele>
        <time>2022-05-10T09:34:29Z</time>
      </trkpt>
      <trkpt lat="46.97958" lon="5.89853">
        <ele>684.2</ele>
        <time>2022-05-10T09:34:40Z</time>
      </trkpt>
      <trkpt lat="46.97952" lon="5.89851">
        <ele>683.3</ele>
        <time>2022-05-10T09:34:45Z</time>
      </trkpt>
      <trkpt lat="46.97948" lon="5.89847">
        <ele>682.7</ele>
        <time>2022-05-10T09:34:49Z</time>
      </trkpt>
      <trkpt lat="46.97943" lon="5.89846">
        <ele>681.8</ele>
        <time>2022-05-10T09:34:56Z</time>
      </trkpt>
      <trkpt lat="46.97938" lon="5.89846">
        <ele>680.7</ele>
        <time>2022-05-10T09:35:06Z</time>
      </trkpt>
      <trkpt lat="46.97934" lon="5.89843">
        <ele>680.4</ele>
        <time>2022-05-10T09:35:13Z</time>
      </trkpt>
      <trkpt lat="46.97929" lon="5.89839">
        <ele>680.6</ele>
        <time>2022-05-10T09:35:18Z</time>
      </trkpt>
      <trkpt lat="46.97923" lon="5.89835">
        <ele>680.9</ele>
        <time>2022-05-10T09:35:22Z</time>
      </trkpt>
      <trkpt lat="46.9792" lon="5.89831">
        <ele>681.2</ele>
        <time>2022-05-10T09:35:25Z</time>
      </trkpt>
      <trkpt lat="46.97916" lon="5.89828">
        <ele>681.8</ele>
        <time>2022-05-10T09:35:29Z</time>
      </trkpt>
      <trkpt lat="46.97912" lon="5.89823">
        <ele>682.4</ele>
        <time>2022-05-10T09:35:34Z</time>
      </trkpt>
      <trkpt lat="46.97906" lon="5.8982">
        <ele>683.5</ele>
        <time>2022-05-10T09:35:51Z</time>
      </trkpt>
      <trkpt lat="46.97901" lon="5.89818">
        <ele>683.7</ele>
        <time>2022-05-10T09:35:54Z</time>
      </trkpt>
      <trkpt lat="46.97901" lon="5.89811">
        <ele>684.1</ele>
        <time>2022-05-10T09:36:02Z</time>
      </trkpt>
      <trkpt lat="46.97898" lon="5.89804">
        <ele>685.1</ele>
        <time>2022-05-10T09:36:13Z</time>
      </trkpt>
      <trkpt lat="46.97898" lon="5.89797">
        <ele>685.2</ele>
        <time>2022-05-10T09:36:16Z</time>
      </trkpt>
      <trkpt lat="46.97898" lon="5.89789">
        <ele>685.7</ele>
        <time>2022-05-10T09:36:21Z</time>
      </trkpt>
      <trkpt lat="46.979" lon="5.89782">
        <ele>686</ele>
        <time>2022-05-10T09:36:26Z</time>
      </trkpt>
      <trkpt lat="46.97899" lon="5.89775">
        <ele>686.3</ele>
        <time>2022-05-10T09:36:35Z</time>
      </trkpt>
      <trkpt lat="46.97898" lon="5.89769">
        <ele>687.4</ele>
        <time>2022-05-10T09:36:44Z</time>
      </trkpt>
      <trkpt lat="46.97899" lon="5.89762">
        <ele>687.6</ele>
        <time>2022-05-10T09:36:49Z</time>
      </trkpt>
      <trkpt lat="46.97897" lon="5.89755">
        <ele>687.6</ele>
        <time>2022-05-10T09:36:58Z</time>
      </trkpt>
      <trkpt lat="46.97893" lon="5.8975">
        <ele>688.5</ele>
        <time>2022-05-10T09:37:02Z</time>
      </trkpt>
      <trkpt lat="46.97888" lon="5.8975">
        <ele>692.6</ele>
        <time>2022-05-10T09:37:13Z</time>
      </trkpt>
      <trkpt lat="46.97888" lon="5.89742">
        <ele>696.9</ele>
        <time>2022-05-10T09:37:29Z</time>
      </trkpt>
      <trkpt lat="46.97887" lon="5.89735">
        <ele>698.8</ele>
        <time>2022-05-10T09:37:33Z</time>
      </trkpt>
      <trkpt lat="46.97886" lon="5.89728">
        <ele>700.5</ele>
        <time>2022-05-10T09:37:40Z</time>
      </trkpt>
      <trkpt lat="46.97884" lon="5.89722">
        <ele>704.1</ele>
        <time>2022-05-10T09:37:51Z</time>
      </trkpt>
      <trkpt lat="46.97888" lon="5.89722">
        <ele>707.5</ele>
        <time>2022-05-10T09:38:06Z</time>
      </trkpt>
      <trkpt lat="46.9789" lon="5.89728">
        <ele>709.9</ele>
        <time>2022-05-10T09:38:16Z</time>
      </trkpt>
      <trkpt lat="46.97894" lon="5.89733">
        <ele>711.3</ele>
        <time>2022-05-10T09:38:20Z</time>
      </trkpt>
      <trkpt lat="46.97898" lon="5.89736">
        <ele>713.4</ele>
        <time>2022-05-10T09:38:28Z</time>
      </trkpt>
      <trkpt lat="46.979" lon="5.89729">
        <ele>715</ele>
        <time>2022-05-10T09:38:54Z</time>
      </trkpt>
      <trkpt lat="46.979" lon="5.89722">
        <ele>715.2</ele>
        <time>2022-05-10T09:39:03Z</time>
      </trkpt>
      <trkpt lat="46.97895" lon="5.89721">
        <ele>716.4</ele>
        <time>2022-05-10T09:39:11Z</time>
      </trkpt>
      <trkpt lat="46.97891" lon="5.89718">
        <ele>717.2</ele>
        <time>2022-05-10T09:39:16Z</time>
      </trkpt>
      <trkpt lat="46.97887" lon="5.89714">
        <ele>717.5</ele>
        <time>2022-05-10T09:39:21Z</time>
      </trkpt>
      <trkpt lat="46.97882" lon="5.89715">
        <ele>717</ele>
        <time>2022-05-10T09:39:27Z</time>
      </trkpt>
      <trkpt lat="46.97878" lon="5.89711">
        <ele>716.3</ele>
        <time>2022-05-10T09:39:33Z</time>
      </trkpt>
      <trkpt lat="46.97878" lon="5.89704">
        <ele>715.3</ele>
        <time>2022-05-10T09:39:43Z</time>
      </trkpt>
      <trkpt lat="46.97877" lon="5.89698">
        <ele>714.9</ele>
        <time>2022-05-10T09:39:48Z</time>
      </trkpt>
      <trkpt lat="46.97876" lon="5.89691">
        <ele>715</ele>
        <time>2022-05-10T09:39:52Z</time>
      </trkpt>
      <trkpt lat="46.97876" lon="5.89684">
        <ele>715.8</ele>
        <time>2022-05-10T09:40:08Z</time>
      </trkpt>
      <trkpt lat="46.97877" lon="5.89678">
        <ele>716.7</ele>
        <time>2022-05-10T09:40:17Z</time>
      </trkpt>
      <trkpt lat="46.97878" lon="5.8967">
        <ele>718.3</ele>
        <time>2022-05-10T09:40:36Z</time>
      </trkpt>
      <trkpt lat="46.97877" lon="5.89662">
        <ele>720.2</ele>
        <time>2022-05-10T09:40:41Z</time>
      </trkpt>
      <trkpt lat="46.97874" lon="5.89656">
        <ele>724.5</ele>
        <time>2022-05-10T09:40:51Z</time>
      </trkpt>
      <trkpt lat="46.97878" lon="5.89652">
        <ele>726.6</ele>
        <time>2022-05-10T09:41:23Z</time>
      </trkpt>
      <trkpt lat="46.97882" lon="5.89647">
        <ele>726.7</ele>
        <time>2022-05-10T09:41:27Z</time>
      </trkpt>
      <trkpt lat="46.97882" lon="5.89655">
        <ele>727.2</ele>
        <time>2022-05-10T09:41:55Z</time>
      </trkpt>
      <trkpt lat="46.97877" lon="5.89655">
        <ele>731.4</ele>
        <time>2022-05-10T09:43:27Z</time>
      </trkpt>
      <trkpt lat="46.97879" lon="5.89649">
        <ele>733.4</ele>
        <time>2022-05-10T09:43:40Z</time>
      </trkpt>
      <trkpt lat="46.97874" lon="5.89645">
        <ele>735.6</ele>
        <time>2022-05-10T09:43:46Z</time>
      </trkpt>
      <trkpt lat="46.97871" lon="5.89641">
        <ele>736.7</ele>
        <time>2022-05-10T09:43:49Z</time>
      </trkpt>
      <trkpt lat="46.9787" lon="5.89633">
        <ele>738.2</ele>
        <time>2022-05-10T09:43:56Z</time>
      </trkpt>
      <trkpt lat="46.97868" lon="5.89627">
        <ele>738.8</ele>
        <time>2022-05-10T09:44:00Z</time>
      </trkpt>
      <trkpt lat="46.97866" lon="5.89621">
        <ele>738.8</ele>
        <time>2022-05-10T09:44:05Z</time>
      </trkpt>
      <trkpt lat="46.97865" lon="5.89614">
        <ele>738.9</ele>
        <time>2022-05-10T09:44:10Z</time>
      </trkpt>
      <trkpt lat="46.97869" lon="5.89609">
        <ele>741</ele>
        <time>2022-05-10T09:44:21Z</time>
      </trkpt>
      <trkpt lat="46.97869" lon="5.89601">
        <ele>744.6</ele>
        <time>2022-05-10T09:44:33Z</time>
      </trkpt>
      <trkpt lat="46.97869" lon="5.89594">
        <ele>745.6</ele>
        <time>2022-05-10T09:44:38Z</time>
      </trkpt>
      <trkpt lat="46.97871" lon="5.89601">
        <ele>746</ele>
        <time>2022-05-10T09:44:58Z</time>
      </trkpt>
      <trkpt lat="46.97871" lon="5.89609">
        <ele>746.2</ele>
        <time>2022-05-10T09:45:06Z</time>
      </trkpt>
      <trkpt lat="46.97866" lon="5.89608">
        <ele>747</ele>
        <time>2022-05-10T09:45:20Z</time>
      </trkpt>
      <trkpt lat="46.97864" lon="5.896">
        <ele>747.4</ele>
        <time>2022-05-10T09:45:24Z</time>
      </trkpt>
      <trkpt lat="46.97864" lon="5.89593">
        <ele>747.5</ele>
        <time>2022-05-10T09:45:27Z</time>
      </trkpt>
      <trkpt lat="46.97864" lon="5.89585">
        <ele>747.3</ele>
        <time>2022-05-10T09:45:31Z</time>
      </trkpt>
      <trkpt lat="46.97866" lon="5.89577">
        <ele>746.8</ele>
        <time>2022-05-10T09:45:35Z</time>
      </trkpt>
      <trkpt lat="46.9787" lon="5.89573">
        <ele>746.3</ele>
        <time>2022-05-10T09:45:39Z</time>
      </trkpt>
      <trkpt lat="46.9787" lon="5.89566">
        <ele>746.1</ele>
        <time>2022-05-10T09:45:43Z</time>
      </trkpt>
      <trkpt lat="46.9787" lon="5.89559">
        <ele>746.8</ele>
        <time>2022-05-10T09:45:49Z</time>
      </trkpt>
      <trkpt lat="46.97866" lon="5.89551">
        <ele>747.1</ele>
        <time>2022-05-10T09:45:52Z</time>
      </trkpt>
      <trkpt lat="46.97862" lon="5.89549">
        <ele>747.8</ele>
        <time>2022-05-10T09:45:55Z</time>
      </trkpt>
      <trkpt lat="46.97861" lon="5.89557">
        <ele>746.4</ele>
        <time>2022-05-10T09:46:03Z</time>
      </trkpt>
      <trkpt lat="46.97861" lon="5.89564">
        <ele>745.8</ele>
        <time>2022-05-10T09:46:12Z</time>
      </trkpt>
      <trkpt lat="46.9786" lon="5.89556">
        <ele>747.3</ele>
        <time>2022-05-10T09:46:57Z</time>
      </trkpt>
      <trkpt lat="46.97857" lon="5.89549">
        <ele>748.1</ele>
        <time>2022-05-10T09:47:00Z</time>
      </trkpt>
      <trkpt lat="46.97853" lon="5.89543">
        <ele>749.5</ele>
        <time>2022-05-10T09:47:04Z</time>
      </trkpt>
      <trkpt lat="46.97858" lon="5.89539">
        <ele>751.7</ele>
        <time>2022-05-10T09:47:11Z</time>
      </trkpt>
      <trkpt lat="46.97859" lon="5.89532">
        <ele>754.6</ele>
        <time>2022-05-10T09:47:18Z</time>
      </trkpt>
      <trkpt lat="46.9786" lon="5.89524">
        <ele>757</ele>
        <time>2022-05-10T09:47:31Z</time>
      </trkpt>
      <trkpt lat="46.97863" lon="5.89518">
        <ele>758.3</ele>
        <time>2022-05-10T09:47:36Z</time>
      </trkpt>
      <trkpt lat="46.97862" lon="5.89511">
        <ele>759.3</ele>
        <time>2022-05-10T09:47:43Z</time>
      </trkpt>
      <trkpt lat="46.97864" lon="5.89505">
        <ele>758.2</ele>
        <time>2022-05-10T09:48:01Z</time>
      </trkpt>
      <trkpt lat="46.97859" lon="5.89502">
        <ele>761</ele>
        <time>2022-05-10T09:48:12Z</time>
      </trkpt>
      <trkpt lat="46.97859" lon="5.89495">
        <ele>764.6</ele>
        <time>2022-05-10T09:48:26Z</time>
      </trkpt>
      <trkpt lat="46.97856" lon="5.8949">
        <ele>765.8</ele>
        <time>2022-05-10T09:48:34Z</time>
      </trkpt>
      <trkpt lat="46.97851" lon="5.89489">
        <ele>767.6</ele>
        <time>2022-05-10T09:48:45Z</time>
      </trkpt>
      <trkpt lat="46.97847" lon="5.8949">
        <ele>769.6</ele>
        <time>2022-05-10T09:49:00Z</time>
      </trkpt>
      <trkpt lat="46.97844" lon="5.89483">
        <ele>770.1</ele>
        <time>2022-05-10T09:49:12Z</time>
      </trkpt>
      <trkpt lat="46.97841" lon="5.89489">
        <ele>770</ele>
        <time>2022-05-10T09:49:31Z</time>
      </trkpt>
      <trkpt lat="46.97845" lon="5.89492">
        <ele>769.4</ele>
        <time>2022-05-10T09:49:34Z</time>
      </trkpt>
      <trkpt lat="46.97849" lon="5.89496">
        <ele>768.7</ele>
        <time>2022-05-10T09:49:38Z</time>
      </trkpt>
      <trkpt lat="46.97846" lon="5.89491">
        <ele>767.9</ele>
        <time>2022-05-10T09:49:48Z</time>
      </trkpt>
      <trkpt lat="46.97845" lon="5.89483">
        <ele>767.4</ele>
        <time>2022-05-10T09:49:58Z</time>
      </trkpt>
      <trkpt lat="46.9785" lon="5.89484">
        <ele>768.9</ele>
        <time>2022-05-10T09:50:10Z</time>
      </trkpt>
      <trkpt lat="46.97849" lon="5.89477">
        <ele>771.7</ele>
        <time>2022-05-10T09:50:29Z</time>
      </trkpt>
      <trkpt lat="46.97846" lon="5.89471">
        <ele>772.1</ele>
        <time>2022-05-10T09:50:33Z</time>
      </trkpt>
      <trkpt lat="46.97842" lon="5.89466">
        <ele>772.4</ele>
        <time>2022-05-10T09:50:36Z</time>
      </trkpt>
      <trkpt lat="46.97839" lon="5.89458">
        <ele>772.9</ele>
        <time>2022-05-10T09:50:41Z</time>
      </trkpt>
      <trkpt lat="46.97836" lon="5.89452">
        <ele>773.2</ele>
        <time>2022-05-10T09:50:44Z</time>
      </trkpt>
      <trkpt lat="46.97838" lon="5.89446">
        <ele>773.5</ele>
        <time>2022-05-10T09:50:53Z</time>
      </trkpt>
      <trkpt lat="46.97841" lon="5.8944">
        <ele>774.2</ele>
        <time>2022-05-10T09:51:04Z</time>
      </trkpt>
      <trkpt lat="46.97841" lon="5.89432">
        <ele>775.3</ele>
        <time>2022-05-10T09:51:10Z</time>
      </trkpt>
      <trkpt lat="46.97843" lon="5.89427">
        <ele>777.6</ele>
        <time>2022-05-10T09:51:17Z</time>
      </trkpt>
      <trkpt lat="46.97842" lon="5.8942">
        <ele>780</ele>
        <time>2022-05-10T09:51:23Z</time>
      </trkpt>
      <trkpt lat="46.97838" lon="5.89416">
        <ele>782.6</ele>
        <time>2022-05-10T09:51:29Z</time>
      </trkpt>
      <trkpt lat="46.97838" lon="5.89409">
        <ele>784.9</ele>
        <time>2022-05-10T09:51:38Z</time>
      </trkpt>
      <trkpt lat="46.97836" lon="5.89403">
        <ele>786.6</ele>
        <time>2022-05-10T09:51:49Z</time>
      </trkpt>
      <trkpt lat="46.97832" lon="5.89397">
        <ele>788.3</ele>
        <time>2022-05-10T09:51:57Z</time>
      </trkpt>
      <trkpt lat="46.97831" lon="5.8939">
        <ele>790.1</ele>
        <time>2022-05-10T09:52:04Z</time>
      </trkpt>
      <trkpt lat="46.97829" lon="5.89384">
        <ele>792.9</ele>
        <time>2022-05-10T09:52:14Z</time>
      </trkpt>
      <trkpt lat="46.97827" lon="5.89377">
        <ele>794.4</ele>
        <time>2022-05-10T09:52:24Z</time>
      </trkpt>
      <trkpt lat="46.97823" lon="5.89372">
        <ele>794.7</ele>
        <time>2022-05-10T09:52:28Z</time>
      </trkpt>
      <trkpt lat="46.97818" lon="5.8937">
        <ele>794.4</ele>
        <time>2022-05-10T09:52:33Z</time>
      </trkpt>
      <trkpt lat="46.97814" lon="5.89363">
        <ele>793.2</ele>
        <time>2022-05-10T09:52:47Z</time>
      </trkpt>
      <trkpt lat="46.9781" lon="5.89357">
        <ele>793.9</ele>
        <time>2022-05-10T09:52:50Z</time>
      </trkpt>
      <trkpt lat="46.97807" lon="5.89351">
        <ele>795</ele>
        <time>2022-05-10T09:52:54Z</time>
      </trkpt>
      <trkpt lat="46.97804" lon="5.89346">
        <ele>796</ele>
        <time>2022-05-10T09:53:00Z</time>
      </trkpt>
      <trkpt lat="46.97804" lon="5.89338">
        <ele>797.1</ele>
        <time>2022-05-10T09:53:16Z</time>
      </trkpt>
      <trkpt lat="46.97803" lon="5.89331">
        <ele>797.3</ele>
        <time>2022-05-10T09:53:23Z</time>
      </trkpt>
      <trkpt lat="46.978" lon="5.89325">
        <ele>797.7</ele>
        <time>2022-05-10T09:53:30Z</time>
      </trkpt>
      <trkpt lat="46.97795" lon="5.89322">
        <ele>797.8</ele>
        <time>2022-05-10T09:53:39Z</time>
      </trkpt>
      <trkpt lat="46.97791" lon="5.8932">
        <ele>797.8</ele>
        <time>2022-05-10T09:53:42Z</time>
      </trkpt>
      <trkpt lat="46.97786" lon="5.89316">
        <ele>797.7</ele>
        <time>2022-05-10T09:53:46Z</time>
      </trkpt>
      <trkpt lat="46.97782" lon="5.89312">
        <ele>798</ele>
        <time>2022-05-10T09:53:51Z</time>
      </trkpt>
      <trkpt lat="46.97779" lon="5.89307">
        <ele>798.6</ele>
        <time>2022-05-10T09:53:56Z</time>
      </trkpt>
      <trkpt lat="46.97778" lon="5.89301">
        <ele>799</ele>
        <time>2022-05-10T09:54:03Z</time>
      </trkpt>
      <trkpt lat="46.97777" lon="5.89294">
        <ele>799.8</ele>
        <time>2022-05-10T09:54:10Z</time>
      </trkpt>
      <trkpt lat="46.97775" lon="5.89288">
        <ele>800.4</ele>
        <time>2022-05-10T09:54:17Z</time>
      </trkpt>
      <trkpt lat="46.97771" lon="5.89282">
        <ele>800.9</ele>
        <time>2022-05-10T09:54:23Z</time>
      </trkpt>
      <trkpt lat="46.97767" lon="5.89278">
        <ele>801.1</ele>
        <time>2022-05-10T09:54:26Z</time>
      </trkpt>
      <trkpt lat="46.97763" lon="5.89275">
        <ele>801.7</ele>
        <time>2022-05-10T09:54:31Z</time>
      </trkpt>
      <trkpt lat="46.97758" lon="5.89272">
        <ele>802.5</ele>
        <time>2022-05-10T09:54:38Z</time>
      </trkpt>
      <trkpt lat="46.97755" lon="5.89269">
        <ele>803.1</ele>
        <time>2022-05-10T09:54:46Z</time>
      </trkpt>
      <trkpt lat="46.9775" lon="5.89265">
        <ele>803.4</ele>
        <time>2022-05-10T09:54:57Z</time>
      </trkpt>
      <trkpt lat="46.97746" lon="5.89261">
        <ele>803.3</ele>
        <time>2022-05-10T09:55:01Z</time>
      </trkpt>
      <trkpt lat="46.97742" lon="5.89256">
        <ele>803.4</ele>
        <time>2022-05-10T09:55:07Z</time>
      </trkpt>
      <trkpt lat="46.97739" lon="5.8925">
        <ele>804</ele>
        <time>2022-05-10T09:55:12Z</time>
      </trkpt>
      <trkpt lat="46.97736" lon="5.89244">
        <ele>804.2</ele>
        <time>2022-05-10T09:55:17Z</time>
      </trkpt>
      <trkpt lat="46.9773" lon="5.89242">
        <ele>804.7</ele>
        <time>2022-05-10T09:55:43Z</time>
      </trkpt>
      <trkpt lat="46.97726" lon="5.89238">
        <ele>805.4</ele>
        <time>2022-05-10T09:55:46Z</time>
      </trkpt>
      <trkpt lat="46.97722" lon="5.89234">
        <ele>806.2</ele>
        <time>2022-05-10T09:55:49Z</time>
      </trkpt>
      <trkpt lat="46.97719" lon="5.89229">
        <ele>806.6</ele>
        <time>2022-05-10T09:55:52Z</time>
      </trkpt>
      <trkpt lat="46.97716" lon="5.89225">
        <ele>806.9</ele>
        <time>2022-05-10T09:55:56Z</time>
      </trkpt>
      <trkpt lat="46.97714" lon="5.89217">
        <ele>805.1</ele>
        <time>2022-05-10T09:56:08Z</time>
      </trkpt>
      <trkpt lat="46.97711" lon="5.8921">
        <ele>804.6</ele>
        <time>2022-05-10T09:56:12Z</time>
      </trkpt>
      <trkpt lat="46.97708" lon="5.89203">
        <ele>805</ele>
        <time>2022-05-10T09:56:19Z</time>
      </trkpt>
      <trkpt lat="46.97703" lon="5.89199">
        <ele>805.7</ele>
        <time>2022-05-10T09:56:25Z</time>
      </trkpt>
      <trkpt lat="46.97699" lon="5.89196">
        <ele>805.8</ele>
        <time>2022-05-10T09:56:29Z</time>
      </trkpt>
      <trkpt lat="46.97695" lon="5.89192">
        <ele>806</ele>
        <time>2022-05-10T09:56:36Z</time>
      </trkpt>
      <trkpt lat="46.97691" lon="5.89187">
        <ele>806.5</ele>
        <time>2022-05-10T09:56:40Z</time>
      </trkpt>
      <trkpt lat="46.97687" lon="5.89183">
        <ele>807</ele>
        <time>2022-05-10T09:56:43Z</time>
      </trkpt>
      <trkpt lat="46.97682" lon="5.89179">
        <ele>807.8</ele>
        <time>2022-05-10T09:56:46Z</time>
      </trkpt>
      <trkpt lat="46.97678" lon="5.89177">
        <ele>808.9</ele>
        <time>2022-05-10T09:56:50Z</time>
      </trkpt>
      <trkpt lat="46.97674" lon="5.89174">
        <ele>809.8</ele>
        <time>2022-05-10T09:56:54Z</time>
      </trkpt>
      <trkpt lat="46.9767" lon="5.89171">
        <ele>810.3</ele>
        <time>2022-05-10T09:57:01Z</time>
      </trkpt>
      <trkpt lat="46.97666" lon="5.89167">
        <ele>811.1</ele>
        <time>2022-05-10T09:57:10Z</time>
      </trkpt>
      <trkpt lat="46.97663" lon="5.89161">
        <ele>810.5</ele>
        <time>2022-05-10T09:57:15Z</time>
      </trkpt>
      <trkpt lat="46.97659" lon="5.89157">
        <ele>809.8</ele>
        <time>2022-05-10T09:57:24Z</time>
      </trkpt>
      <trkpt lat="46.97655" lon="5.89153">
        <ele>809.7</ele>
        <time>2022-05-10T09:57:27Z</time>
      </trkpt>
      <trkpt lat="46.97651" lon="5.8915">
        <ele>809.5</ele>
        <time>2022-05-10T09:57:32Z</time>
      </trkpt>
      <trkpt lat="46.97647" lon="5.89146">
        <ele>808.5</ele>
        <time>2022-05-10T09:57:39Z</time>
      </trkpt>
      <trkpt lat="46.97644" lon="5.8914">
        <ele>807.1</ele>
        <time>2022-05-10T09:57:45Z</time>
      </trkpt>
      <trkpt lat="46.97641" lon="5.89136">
        <ele>805.6</ele>
        <time>2022-05-10T09:57:52Z</time>
      </trkpt>
      <trkpt lat="46.97636" lon="5.89132">
        <ele>805.2</ele>
        <time>2022-05-10T09:57:56Z</time>
      </trkpt>
      <trkpt lat="46.97632" lon="5.89127">
        <ele>804.9</ele>
        <time>2022-05-10T09:58:00Z</time>
      </trkpt>
      <trkpt lat="46.97628" lon="5.89122">
        <ele>804.6</ele>
        <time>2022-05-10T09:58:03Z</time>
      </trkpt>
      <trkpt lat="46.97624" lon="5.89118">
        <ele>804.1</ele>
        <time>2022-05-10T09:58:08Z</time>
      </trkpt>
      <trkpt lat="46.97618" lon="5.89117">
        <ele>804</ele>
        <time>2022-05-10T09:58:12Z</time>
      </trkpt>
      <trkpt lat="46.97614" lon="5.89113">
        <ele>804.3</ele>
        <time>2022-05-10T09:58:17Z</time>
      </trkpt>
      <trkpt lat="46.97609" lon="5.89111">
        <ele>804.5</ele>
        <time>2022-05-10T09:58:22Z</time>
      </trkpt>
      <trkpt lat="46.97604" lon="5.89108">
        <ele>804.5</ele>
        <time>2022-05-10T09:58:26Z</time>
      </trkpt>
      <trkpt lat="46.97599" lon="5.89105">
        <ele>804.9</ele>
        <time>2022-05-10T09:58:36Z</time>
      </trkpt>
      <trkpt lat="46.97594" lon="5.89102">
        <ele>806.2</ele>
        <time>2022-05-10T09:58:46Z</time>
      </trkpt>
      <trkpt lat="46.97589" lon="5.89101">
        <ele>807</ele>
        <time>2022-05-10T09:58:49Z</time>
      </trkpt>
      <trkpt lat="46.97584" lon="5.89097">
        <ele>808.4</ele>
        <time>2022-05-10T09:58:56Z</time>
      </trkpt>
      <trkpt lat="46.97581" lon="5.89092">
        <ele>809.4</ele>
        <time>2022-05-10T09:59:00Z</time>
      </trkpt>
      <trkpt lat="46.97576" lon="5.89087">
        <ele>810.7</ele>
        <time>2022-05-10T09:59:05Z</time>
      </trkpt>
      <trkpt lat="46.97573" lon="5.89081">
        <ele>811.5</ele>
        <time>2022-05-10T09:59:09Z</time>
      </trkpt>
      <trkpt lat="46.9757" lon="5.89077">
        <ele>813.6</ele>
        <time>2022-05-10T09:59:19Z</time>
      </trkpt>
      <trkpt lat="46.97567" lon="5.89069">
        <ele>815.2</ele>
        <time>2022-05-10T09:59:30Z</time>
      </trkpt>
      <trkpt lat="46.97564" lon="5.89064">
        <ele>815.4</ele>
        <time>2022-05-10T09:59:33Z</time>
      </trkpt>
      <trkpt lat="46.9756" lon="5.89058">
        <ele>815.4</ele>
        <time>2022-05-10T09:59:37Z</time>
      </trkpt>
      <trkpt lat="46.97556" lon="5.89054">
        <ele>815.7</ele>
        <time>2022-05-10T09:59:41Z</time>
      </trkpt>
      <trkpt lat="46.97552" lon="5.8905">
        <ele>816</ele>
        <time>2022-05-10T09:59:45Z</time>
      </trkpt>
      <trkpt lat="46.97548" lon="5.89045">
        <ele>815.9</ele>
        <time>2022-05-10T09:59:49Z</time>
      </trkpt>
      <trkpt lat="46.97543" lon="5.89041">
        <ele>816</ele>
        <time>2022-05-10T09:59:53Z</time>
      </trkpt>
      <trkpt lat="46.97541" lon="5.89036">
        <ele>817</ele>
        <time>2022-05-10T09:59:59Z</time>
      </trkpt>
      <trkpt lat="46.97538" lon="5.8903">
        <ele>818.3</ele>
        <time>2022-05-10T10:00:10Z</time>
      </trkpt>
      <trkpt lat="46.97533" lon="5.89027">
        <ele>818.6</ele>
        <time>2022-05-10T10:00:16Z</time>
      </trkpt>
      <trkpt lat="46.97529" lon="5.89024">
        <ele>818.7</ele>
        <time>2022-05-10T10:00:19Z</time>
      </trkpt>
      <trkpt lat="46.97524" lon="5.89021">
        <ele>819</ele>
        <time>2022-05-10T10:00:23Z</time>
      </trkpt>
      <trkpt lat="46.97523" lon="5.89014">
        <ele>819.6</ele>
        <time>2022-05-10T10:00:28Z</time>
      </trkpt>
      <trkpt lat="46.97524" lon="5.89008">
        <ele>820.8</ele>
        <time>2022-05-10T10:00:43Z</time>
      </trkpt>
      <trkpt lat="46.9752" lon="5.89003">
        <ele>820.5</ele>
        <time>2022-05-10T10:00:54Z</time>
      </trkpt>
      <trkpt lat="46.97515" lon="5.88996">
        <ele>820.2</ele>
        <time>2022-05-10T10:00:57Z</time>
      </trkpt>
      <trkpt lat="46.97511" lon="5.88991">
        <ele>819.9</ele>
        <time>2022-05-10T10:01:02Z</time>
      </trkpt>
      <trkpt lat="46.97506" lon="5.88987">
        <ele>819.7</ele>
        <time>2022-05-10T10:01:10Z</time>
      </trkpt>
      <trkpt lat="46.97501" lon="5.88983">
        <ele>819.9</ele>
        <time>2022-05-10T10:01:14Z</time>
      </trkpt>
      <trkpt lat="46.97497" lon="5.88981">
        <ele>819.6</ele>
        <time>2022-05-10T10:01:19Z</time>
      </trkpt>
      <trkpt lat="46.97492" lon="5.88978">
        <ele>818.9</ele>
        <time>2022-05-10T10:01:25Z</time>
      </trkpt>
      <trkpt lat="46.97487" lon="5.88977">
        <ele>818.2</ele>
        <time>2022-05-10T10:01:29Z</time>
      </trkpt>
      <trkpt lat="46.97482" lon="5.88978">
        <ele>817.3</ele>
        <time>2022-05-10T10:01:34Z</time>
      </trkpt>
      <trkpt lat="46.97477" lon="5.88979">
        <ele>817.1</ele>
        <time>2022-05-10T10:01:38Z</time>
      </trkpt>
      <trkpt lat="46.97473" lon="5.88983">
        <ele>817</ele>
        <time>2022-05-10T10:01:46Z</time>
      </trkpt>
      <trkpt lat="46.97469" lon="5.88985">
        <ele>817.5</ele>
        <time>2022-05-10T10:01:53Z</time>
      </trkpt>
      <trkpt lat="46.97464" lon="5.88986">
        <ele>817.8</ele>
        <time>2022-05-10T10:01:57Z</time>
      </trkpt>
      <trkpt lat="46.9746" lon="5.88987">
        <ele>817.8</ele>
        <time>2022-05-10T10:02:01Z</time>
      </trkpt>
      <trkpt lat="46.97454" lon="5.88988">
        <ele>817.8</ele>
        <time>2022-05-10T10:02:06Z</time>
      </trkpt>
      <trkpt lat="46.97449" lon="5.88989">
        <ele>818.2</ele>
        <time>2022-05-10T10:02:12Z</time>
      </trkpt>
      <trkpt lat="46.97445" lon="5.88987">
        <ele>818.7</ele>
        <time>2022-05-10T10:02:17Z</time>
      </trkpt>
      <trkpt lat="46.97442" lon="5.88981">
        <ele>820</ele>
        <time>2022-05-10T10:02:23Z</time>
      </trkpt>
      <trkpt lat="46.97443" lon="5.88974">
        <ele>821</ele>
        <time>2022-05-10T10:02:27Z</time>
      </trkpt>
      <trkpt lat="46.97444" lon="5.88966">
        <ele>821.8</ele>
        <time>2022-05-10T10:02:31Z</time>
      </trkpt>
      <trkpt lat="46.97442" lon="5.8896">
        <ele>823.4</ele>
        <time>2022-05-10T10:02:38Z</time>
      </trkpt>
      <trkpt lat="46.97441" lon="5.88953">
        <ele>823.9</ele>
        <time>2022-05-10T10:02:42Z</time>
      </trkpt>
      <trkpt lat="46.97441" lon="5.88945">
        <ele>824</ele>
        <time>2022-05-10T10:02:46Z</time>
      </trkpt>
      <trkpt lat="46.9744" lon="5.88938">
        <ele>823.8</ele>
        <time>2022-05-10T10:02:51Z</time>
      </trkpt>
      <trkpt lat="46.97443" lon="5.88933">
        <ele>822.9</ele>
        <time>2022-05-10T10:02:59Z</time>
      </trkpt>
      <trkpt lat="46.97442" lon="5.88926">
        <ele>822.2</ele>
        <time>2022-05-10T10:03:05Z</time>
      </trkpt>
      <trkpt lat="46.9744" lon="5.88918">
        <ele>821.7</ele>
        <time>2022-05-10T10:03:09Z</time>
      </trkpt>
      <trkpt lat="46.97439" lon="5.88912">
        <ele>821.4</ele>
        <time>2022-05-10T10:03:13Z</time>
      </trkpt>
      <trkpt lat="46.97438" lon="5.88905">
        <ele>821.4</ele>
        <time>2022-05-10T10:03:17Z</time>
      </trkpt>
      <trkpt lat="46.97439" lon="5.88898">
        <ele>821.8</ele>
        <time>2022-05-10T10:03:22Z</time>
      </trkpt>
      <trkpt lat="46.97438" lon="5.8889">
        <ele>822</ele>
        <time>2022-05-10T10:03:27Z</time>
      </trkpt>
      <trkpt lat="46.97436" lon="5.88882">
        <ele>822.5</ele>
        <time>2022-05-10T10:03:31Z</time>
      </trkpt>
      <trkpt lat="46.97434" lon="5.88876">
        <ele>823</ele>
        <time>2022-05-10T10:03:34Z</time>
      </trkpt>
      <trkpt lat="46.97431" lon="5.8887">
        <ele>823.7</ele>
        <time>2022-05-10T10:03:37Z</time>
      </trkpt>
      <trkpt lat="46.97429" lon="5.88864">
        <ele>823.9</ele>
        <time>2022-05-10T10:03:41Z</time>
      </trkpt>
      <trkpt lat="46.97427" lon="5.88858">
        <ele>824.2</ele>
        <time>2022-05-10T10:03:45Z</time>
      </trkpt>
      <trkpt lat="46.97426" lon="5.8885">
        <ele>824.7</ele>
        <time>2022-05-10T10:03:51Z</time>
      </trkpt>
      <trkpt lat="46.97427" lon="5.88843">
        <ele>824.8</ele>
        <time>2022-05-10T10:03:55Z</time>
      </trkpt>
      <trkpt lat="46.97426" lon="5.88834">
        <ele>824.9</ele>
        <time>2022-05-10T10:03:59Z</time>
      </trkpt>
      <trkpt lat="46.97426" lon="5.88827">
        <ele>824.6</ele>
        <time>2022-05-10T10:04:04Z</time>
      </trkpt>
      <trkpt lat="46.97422" lon="5.88823">
        <ele>824.4</ele>
        <time>2022-05-10T10:04:10Z</time>
      </trkpt>
      <trkpt lat="46.97418" lon="5.88826">
        <ele>824.1</ele>
        <time>2022-05-10T10:04:19Z</time>
      </trkpt>
      <trkpt lat="46.97412" lon="5.88827">
        <ele>822.3</ele>
        <time>2022-05-10T10:04:26Z</time>
      </trkpt>
      <trkpt lat="46.97407" lon="5.88824">
        <ele>821.4</ele>
        <time>2022-05-10T10:04:30Z</time>
      </trkpt>
      <trkpt lat="46.97403" lon="5.88823">
        <ele>819.5</ele>
        <time>2022-05-10T10:04:40Z</time>
      </trkpt>
      <trkpt lat="46.97398" lon="5.88821">
        <ele>819.6</ele>
        <time>2022-05-10T10:04:46Z</time>
      </trkpt>
      <trkpt lat="46.97394" lon="5.88818">
        <ele>819.9</ele>
        <time>2022-05-10T10:04:49Z</time>
      </trkpt>
      <trkpt lat="46.97389" lon="5.88819">
        <ele>820.5</ele>
        <time>2022-05-10T10:04:54Z</time>
      </trkpt>
      <trkpt lat="46.97385" lon="5.88815">
        <ele>821.9</ele>
        <time>2022-05-10T10:05:02Z</time>
      </trkpt>
      <trkpt lat="46.9738" lon="5.88811">
        <ele>823.8</ele>
        <time>2022-05-10T10:05:08Z</time>
      </trkpt>
      <trkpt lat="46.97375" lon="5.88811">
        <ele>824.6</ele>
        <time>2022-05-10T10:05:15Z</time>
      </trkpt>
      <trkpt lat="46.9737" lon="5.88809">
        <ele>825.2</ele>
        <time>2022-05-10T10:05:24Z</time>
      </trkpt>
      <trkpt lat="46.97368" lon="5.88802">
        <ele>824.2</ele>
        <time>2022-05-10T10:05:30Z</time>
      </trkpt>
      <trkpt lat="46.97364" lon="5.88799">
        <ele>822.8</ele>
        <time>2022-05-10T10:05:37Z</time>
      </trkpt>
      <trkpt lat="46.97359" lon="5.88797">
        <ele>821.8</ele>
        <time>2022-05-10T10:05:42Z</time>
      </trkpt>
      <trkpt lat="46.97354" lon="5.88795">
        <ele>821.6</ele>
        <time>2022-05-10T10:05:45Z</time>
      </trkpt>
      <trkpt lat="46.9735" lon="5.88795">
        <ele>821.6</ele>
        <time>2022-05-10T10:05:50Z</time>
      </trkpt>
      <trkpt lat="46.97346" lon="5.88792">
        <ele>820.6</ele>
        <time>2022-05-10T10:06:03Z</time>
      </trkpt>
      <trkpt lat="46.97341" lon="5.88792">
        <ele>820.5</ele>
        <time>2022-05-10T10:06:10Z</time>
      </trkpt>
      <trkpt lat="46.97338" lon="5.88786">
        <ele>821</ele>
        <time>2022-05-10T10:06:17Z</time>
      </trkpt>
      <trkpt lat="46.97334" lon="5.88781">
        <ele>821.4</ele>
        <time>2022-05-10T10:06:22Z</time>
      </trkpt>
      <trkpt lat="46.97329" lon="5.88779">
        <ele>823.5</ele>
        <time>2022-05-10T10:06:29Z</time>
      </trkpt>
      <trkpt lat="46.97325" lon="5.88775">
        <ele>825.2</ele>
        <time>2022-05-10T10:06:33Z</time>
      </trkpt>
      <trkpt lat="46.97329" lon="5.88773">
        <ele>827.1</ele>
        <time>2022-05-10T10:06:42Z</time>
      </trkpt>
      <trkpt lat="46.97333" lon="5.88776">
        <ele>827.8</ele>
        <time>2022-05-10T10:06:46Z</time>
      </trkpt>
      <trkpt lat="46.97329" lon="5.88779">
        <ele>830</ele>
        <time>2022-05-10T10:07:14Z</time>
      </trkpt>
      <trkpt lat="46.97324" lon="5.88779">
        <ele>831.2</ele>
        <time>2022-05-10T10:07:18Z</time>
      </trkpt>
      <trkpt lat="46.97319" lon="5.88778">
        <ele>832.2</ele>
        <time>2022-05-10T10:07:23Z</time>
      </trkpt>
      <trkpt lat="46.97314" lon="5.88779">
        <ele>832.8</ele>
        <time>2022-05-10T10:07:28Z</time>
      </trkpt>
      <trkpt lat="46.97309" lon="5.88783">
        <ele>832.8</ele>
        <time>2022-05-10T10:07:33Z</time>
      </trkpt>
      <trkpt lat="46.97305" lon="5.88788">
        <ele>833</ele>
        <time>2022-05-10T10:07:37Z</time>
      </trkpt>
      <trkpt lat="46.97301" lon="5.88794">
        <ele>833.1</ele>
        <time>2022-05-10T10:07:41Z</time>
      </trkpt>
      <trkpt lat="46.97298" lon="5.88799">
        <ele>833.5</ele>
        <time>2022-05-10T10:07:45Z</time>
      </trkpt>
      <trkpt lat="46.97295" lon="5.88805">
        <ele>834.5</ele>
        <time>2022-05-10T10:07:50Z</time>
      </trkpt>
      <trkpt lat="46.9729" lon="5.88805">
        <ele>836.7</ele>
        <time>2022-05-10T10:07:57Z</time>
      </trkpt>
      <trkpt lat="46.97286" lon="5.88803">
        <ele>838</ele>
        <time>2022-05-10T10:08:03Z</time>
      </trkpt>
      <trkpt lat="46.97281" lon="5.88802">
        <ele>837.7</ele>
        <time>2022-05-10T10:08:09Z</time>
      </trkpt>
      <trkpt lat="46.97279" lon="5.88795">
        <ele>836.2</ele>
        <time>2022-05-10T10:08:16Z</time>
      </trkpt>
      <trkpt lat="46.97276" lon="5.88789">
        <ele>834.1</ele>
        <time>2022-05-10T10:08:23Z</time>
      </trkpt>
      <trkpt lat="46.97271" lon="5.88787">
        <ele>832.2</ele>
        <time>2022-05-10T10:08:31Z</time>
      </trkpt>
      <trkpt lat="46.97265" lon="5.88783">
        <ele>830.9</ele>
        <time>2022-05-10T10:08:39Z</time>
      </trkpt>
      <trkpt lat="46.97257" lon="5.88778">
        <ele>830.4</ele>
        <time>2022-05-10T10:08:42Z</time>
      </trkpt>
      <trkpt lat="46.97253" lon="5.88774">
        <ele>829.8</ele>
        <time>2022-05-10T10:08:45Z</time>
      </trkpt>
      <trkpt lat="46.97247" lon="5.88771">
        <ele>829</ele>
        <time>2022-05-10T10:08:57Z</time>
      </trkpt>
      <trkpt lat="46.97241" lon="5.88768">
        <ele>828.5</ele>
        <time>2022-05-10T10:09:01Z</time>
      </trkpt>
      <trkpt lat="46.97235" lon="5.88764">
        <ele>827.8</ele>
        <time>2022-05-10T10:09:04Z</time>
      </trkpt>
      <trkpt lat="46.97229" lon="5.88762">
        <ele>827.2</ele>
        <time>2022-05-10T10:09:07Z</time>
      </trkpt>
      <trkpt lat="46.97224" lon="5.8876">
        <ele>826.7</ele>
        <time>2022-05-10T10:09:11Z</time>
      </trkpt>
      <trkpt lat="46.97224" lon="5.88754">
        <ele>824.8</ele>
        <time>2022-05-10T10:09:20Z</time>
      </trkpt>
      <trkpt lat="46.97229" lon="5.8875">
        <ele>823.8</ele>
        <time>2022-05-10T10:10:04Z</time>
      </trkpt>
      <trkpt lat="46.97226" lon="5.88757">
        <ele>824.2</ele>
        <time>2022-05-10T10:11:11Z</time>
      </trkpt>
      <trkpt lat="46.97223" lon="5.88762">
        <ele>824.9</ele>
        <time>2022-05-10T10:11:23Z</time>
      </trkpt>
      <trkpt lat="46.97222" lon="5.8877">
        <ele>825.1</ele>
        <time>2022-05-10T10:11:27Z</time>
      </trkpt>
      <trkpt lat="46.97222" lon="5.88777">
        <ele>824.6</ele>
        <time>2022-05-10T10:11:35Z</time>
      </trkpt>
      <trkpt lat="46.97219" lon="5.88782">
        <ele>830.6</ele>
        <time>2022-05-10T10:12:48Z</time>
      </trkpt>
      <trkpt lat="46.97207" lon="5.88792">
        <ele>837.3</ele>
        <time>2022-05-10T10:51:09Z</time>
      </trkpt>
      <trkpt lat="46.97212" lon="5.88788">
        <ele>837.3</ele>
        <time>2022-05-10T10:51:12Z</time>
      </trkpt>
      <trkpt lat="46.97214" lon="5.88781">
        <ele>836.2</ele>
        <time>2022-05-10T10:52:08Z</time>
      </trkpt>
      <trkpt lat="46.9721" lon="5.88778">
        <ele>830.3</ele>
        <time>2022-05-10T10:52:41Z</time>
      </trkpt>
      <trkpt lat="46.97215" lon="5.88777">
        <ele>831.1</ele>
        <time>2022-05-10T10:52:52Z</time>
      </trkpt>
      <trkpt lat="46.9721" lon="5.88783">
        <ele>848.9</ele>
        <time>2022-05-10T10:55:17Z</time>
      </trkpt>
      <trkpt lat="46.97214" lon="5.88779">
        <ele>841.8</ele>
        <time>2022-05-10T10:57:37Z</time>
      </trkpt>
      <trkpt lat="46.97215" lon="5.88772">
        <ele>839.5</ele>
        <time>2022-05-10T10:59:27Z</time>
      </trkpt>
      <trkpt lat="46.97213" lon="5.88766">
        <ele>837.1</ele>
        <time>2022-05-10T10:59:36Z</time>
      </trkpt>
      <trkpt lat="46.97213" lon="5.88758">
        <ele>835.9</ele>
        <time>2022-05-10T10:59:41Z</time>
      </trkpt>
      <trkpt lat="46.9721" lon="5.88753">
        <ele>834.9</ele>
        <time>2022-05-10T10:59:48Z</time>
      </trkpt>
      <trkpt lat="46.97206" lon="5.88748">
        <ele>834.4</ele>
        <time>2022-05-10T10:59:55Z</time>
      </trkpt>
      <trkpt lat="46.97203" lon="5.88743">
        <ele>834.3</ele>
        <time>2022-05-10T11:00:02Z</time>
      </trkpt>
      <trkpt lat="46.972" lon="5.8875">
        <ele>833.8</ele>
        <time>2022-05-10T11:00:16Z</time>
      </trkpt>
      <trkpt lat="46.97196" lon="5.88754">
        <ele>833.7</ele>
        <time>2022-05-10T11:00:19Z</time>
      </trkpt>
      <trkpt lat="46.97193" lon="5.88759">
        <ele>833.7</ele>
        <time>2022-05-10T11:00:22Z</time>
      </trkpt>
      <trkpt lat="46.97189" lon="5.88764">
        <ele>834</ele>
        <time>2022-05-10T11:00:26Z</time>
      </trkpt>
      <trkpt lat="46.97186" lon="5.88769">
        <ele>834.1</ele>
        <time>2022-05-10T11:00:34Z</time>
      </trkpt>
      <trkpt lat="46.97182" lon="5.88774">
        <ele>834.6</ele>
        <time>2022-05-10T11:00:41Z</time>
      </trkpt>
      <trkpt lat="46.97178" lon="5.88778">
        <ele>835</ele>
        <time>2022-05-10T11:00:46Z</time>
      </trkpt>
      <trkpt lat="46.97175" lon="5.88784">
        <ele>835.2</ele>
        <time>2022-05-10T11:00:50Z</time>
      </trkpt>
      <trkpt lat="46.97172" lon="5.88791">
        <ele>836</ele>
        <time>2022-05-10T11:00:56Z</time>
      </trkpt>
      <trkpt lat="46.97168" lon="5.88795">
        <ele>836.5</ele>
        <time>2022-05-10T11:01:02Z</time>
      </trkpt>
      <trkpt lat="46.97164" lon="5.888">
        <ele>836.3</ele>
        <time>2022-05-10T11:01:07Z</time>
      </trkpt>
      <trkpt lat="46.9716" lon="5.88805">
        <ele>835.7</ele>
        <time>2022-05-10T11:01:12Z</time>
      </trkpt>
      <trkpt lat="46.97157" lon="5.88811">
        <ele>834.9</ele>
        <time>2022-05-10T11:01:17Z</time>
      </trkpt>
      <trkpt lat="46.97153" lon="5.88815">
        <ele>833.7</ele>
        <time>2022-05-10T11:01:22Z</time>
      </trkpt>
      <trkpt lat="46.9715" lon="5.88821">
        <ele>832.5</ele>
        <time>2022-05-10T11:01:27Z</time>
      </trkpt>
      <trkpt lat="46.97145" lon="5.88825">
        <ele>831.5</ele>
        <time>2022-05-10T11:01:32Z</time>
      </trkpt>
      <trkpt lat="46.97141" lon="5.88828">
        <ele>830.2</ele>
        <time>2022-05-10T11:01:38Z</time>
      </trkpt>
      <trkpt lat="46.97138" lon="5.88834">
        <ele>830.1</ele>
        <time>2022-05-10T11:01:49Z</time>
      </trkpt>
      <trkpt lat="46.97135" lon="5.88839">
        <ele>830.3</ele>
        <time>2022-05-10T11:01:57Z</time>
      </trkpt>
      <trkpt lat="46.9713" lon="5.88844">
        <ele>830.5</ele>
        <time>2022-05-10T11:02:03Z</time>
      </trkpt>
      <trkpt lat="46.97126" lon="5.88849">
        <ele>829.5</ele>
        <time>2022-05-10T11:02:07Z</time>
      </trkpt>
      <trkpt lat="46.97123" lon="5.88854">
        <ele>826.7</ele>
        <time>2022-05-10T11:02:14Z</time>
      </trkpt>
      <trkpt lat="46.9712" lon="5.88859">
        <ele>825.3</ele>
        <time>2022-05-10T11:02:18Z</time>
      </trkpt>
      <trkpt lat="46.97116" lon="5.88865">
        <ele>824.1</ele>
        <time>2022-05-10T11:02:24Z</time>
      </trkpt>
      <trkpt lat="46.97112" lon="5.88868">
        <ele>823.9</ele>
        <time>2022-05-10T11:02:28Z</time>
      </trkpt>
      <trkpt lat="46.97108" lon="5.88873">
        <ele>823.6</ele>
        <time>2022-05-10T11:02:34Z</time>
      </trkpt>
      <trkpt lat="46.97104" lon="5.88877">
        <ele>823.9</ele>
        <time>2022-05-10T11:02:40Z</time>
      </trkpt>
      <trkpt lat="46.971" lon="5.88881">
        <ele>824.6</ele>
        <time>2022-05-10T11:02:46Z</time>
      </trkpt>
      <trkpt lat="46.97099" lon="5.88888">
        <ele>825.3</ele>
        <time>2022-05-10T11:02:52Z</time>
      </trkpt>
      <trkpt lat="46.97098" lon="5.88895">
        <ele>825.2</ele>
        <time>2022-05-10T11:03:01Z</time>
      </trkpt>
      <trkpt lat="46.97094" lon="5.889">
        <ele>825.1</ele>
        <time>2022-05-10T11:03:06Z</time>
      </trkpt>
      <trkpt lat="46.9709" lon="5.88905">
        <ele>824.6</ele>
        <time>2022-05-10T11:03:10Z</time>
      </trkpt>
      <trkpt lat="46.97086" lon="5.88909">
        <ele>824.4</ele>
        <time>2022-05-10T11:03:14Z</time>
      </trkpt>
      <trkpt lat="46.97082" lon="5.88907">
        <ele>823.5</ele>
        <time>2022-05-10T11:03:22Z</time>
      </trkpt>
      <trkpt lat="46.97077" lon="5.88903">
        <ele>822.5</ele>
        <time>2022-05-10T11:03:28Z</time>
      </trkpt>
      <trkpt lat="46.97072" lon="5.88902">
        <ele>821.9</ele>
        <time>2022-05-10T11:03:32Z</time>
      </trkpt>
      <trkpt lat="46.97067" lon="5.88903">
        <ele>821.5</ele>
        <time>2022-05-10T11:03:35Z</time>
      </trkpt>
      <trkpt lat="46.97061" lon="5.88902">
        <ele>821.4</ele>
        <time>2022-05-10T11:03:39Z</time>
      </trkpt>
      <trkpt lat="46.97055" lon="5.88902">
        <ele>821.7</ele>
        <time>2022-05-10T11:03:43Z</time>
      </trkpt>
      <trkpt lat="46.9705" lon="5.88901">
        <ele>822</ele>
        <time>2022-05-10T11:03:47Z</time>
      </trkpt>
      <trkpt lat="46.97045" lon="5.88901">
        <ele>822.3</ele>
        <time>2022-05-10T11:03:51Z</time>
      </trkpt>
      <trkpt lat="46.9704" lon="5.889">
        <ele>823.3</ele>
        <time>2022-05-10T11:03:56Z</time>
      </trkpt>
      <trkpt lat="46.97035" lon="5.88897">
        <ele>824.6</ele>
        <time>2022-05-10T11:04:01Z</time>
      </trkpt>
      <trkpt lat="46.9703" lon="5.88896">
        <ele>825.9</ele>
        <time>2022-05-10T11:04:05Z</time>
      </trkpt>
      <trkpt lat="46.97024" lon="5.88898">
        <ele>827.2</ele>
        <time>2022-05-10T11:04:10Z</time>
      </trkpt>
      <trkpt lat="46.9702" lon="5.88898">
        <ele>827.7</ele>
        <time>2022-05-10T11:04:13Z</time>
      </trkpt>
      <trkpt lat="46.97015" lon="5.88897">
        <ele>828</ele>
        <time>2022-05-10T11:04:17Z</time>
      </trkpt>
      <trkpt lat="46.9701" lon="5.88894">
        <ele>828.2</ele>
        <time>2022-05-10T11:04:21Z</time>
      </trkpt>
      <trkpt lat="46.97006" lon="5.88892">
        <ele>828.5</ele>
        <time>2022-05-10T11:04:26Z</time>
      </trkpt>
      <trkpt lat="46.97002" lon="5.88887">
        <ele>828.4</ele>
        <time>2022-05-10T11:04:32Z</time>
      </trkpt>
      <trkpt lat="46.96997" lon="5.88885">
        <ele>828.7</ele>
        <time>2022-05-10T11:04:38Z</time>
      </trkpt>
      <trkpt lat="46.96992" lon="5.88884">
        <ele>829</ele>
        <time>2022-05-10T11:04:42Z</time>
      </trkpt>
      <trkpt lat="46.96988" lon="5.88882">
        <ele>829.4</ele>
        <time>2022-05-10T11:04:46Z</time>
      </trkpt>
      <trkpt lat="46.96983" lon="5.88879">
        <ele>829.4</ele>
        <time>2022-05-10T11:04:52Z</time>
      </trkpt>
      <trkpt lat="46.96978" lon="5.88876">
        <ele>828.9</ele>
        <time>2022-05-10T11:04:57Z</time>
      </trkpt>
      <trkpt lat="46.96974" lon="5.88871">
        <ele>827.7</ele>
        <time>2022-05-10T11:05:01Z</time>
      </trkpt>
      <trkpt lat="46.96971" lon="5.88868">
        <ele>826.7</ele>
        <time>2022-05-10T11:05:05Z</time>
      </trkpt>
      <trkpt lat="46.96966" lon="5.88864">
        <ele>826.2</ele>
        <time>2022-05-10T11:05:09Z</time>
      </trkpt>
      <trkpt lat="46.96962" lon="5.88858">
        <ele>825.1</ele>
        <time>2022-05-10T11:05:14Z</time>
      </trkpt>
      <trkpt lat="46.96958" lon="5.88854">
        <ele>824.2</ele>
        <time>2022-05-10T11:05:19Z</time>
      </trkpt>
      <trkpt lat="46.96953" lon="5.88853">
        <ele>823.8</ele>
        <time>2022-05-10T11:05:26Z</time>
      </trkpt>
      <trkpt lat="46.96948" lon="5.88853">
        <ele>822.7</ele>
        <time>2022-05-10T11:05:36Z</time>
      </trkpt>
      <trkpt lat="46.96943" lon="5.88851">
        <ele>823.1</ele>
        <time>2022-05-10T11:05:41Z</time>
      </trkpt>
      <trkpt lat="46.96939" lon="5.88849">
        <ele>823.5</ele>
        <time>2022-05-10T11:05:45Z</time>
      </trkpt>
      <trkpt lat="46.96934" lon="5.88848">
        <ele>824.1</ele>
        <time>2022-05-10T11:05:49Z</time>
      </trkpt>
      <trkpt lat="46.96929" lon="5.88847">
        <ele>824.7</ele>
        <time>2022-05-10T11:05:55Z</time>
      </trkpt>
      <trkpt lat="46.96925" lon="5.88851">
        <ele>825.3</ele>
        <time>2022-05-10T11:06:01Z</time>
      </trkpt>
      <trkpt lat="46.96922" lon="5.88857">
        <ele>825.7</ele>
        <time>2022-05-10T11:06:06Z</time>
      </trkpt>
      <trkpt lat="46.96919" lon="5.88863">
        <ele>826.4</ele>
        <time>2022-05-10T11:06:10Z</time>
      </trkpt>
      <trkpt lat="46.96916" lon="5.88868">
        <ele>827.6</ele>
        <time>2022-05-10T11:06:15Z</time>
      </trkpt>
      <trkpt lat="46.96912" lon="5.88873">
        <ele>828.5</ele>
        <time>2022-05-10T11:06:20Z</time>
      </trkpt>
      <trkpt lat="46.96908" lon="5.88877">
        <ele>828.8</ele>
        <time>2022-05-10T11:06:24Z</time>
      </trkpt>
      <trkpt lat="46.96904" lon="5.88882">
        <ele>828.6</ele>
        <time>2022-05-10T11:06:29Z</time>
      </trkpt>
      <trkpt lat="46.969" lon="5.88886">
        <ele>827.8</ele>
        <time>2022-05-10T11:06:35Z</time>
      </trkpt>
      <trkpt lat="46.96896" lon="5.88891">
        <ele>827.2</ele>
        <time>2022-05-10T11:06:40Z</time>
      </trkpt>
      <trkpt lat="46.96892" lon="5.88894">
        <ele>826</ele>
        <time>2022-05-10T11:06:46Z</time>
      </trkpt>
      <trkpt lat="46.96887" lon="5.88895">
        <ele>825.1</ele>
        <time>2022-05-10T11:06:51Z</time>
      </trkpt>
      <trkpt lat="46.96883" lon="5.88894">
        <ele>823.5</ele>
        <time>2022-05-10T11:06:56Z</time>
      </trkpt>
      <trkpt lat="46.96877" lon="5.88892">
        <ele>821.8</ele>
        <time>2022-05-10T11:07:00Z</time>
      </trkpt>
      <trkpt lat="46.96873" lon="5.88891">
        <ele>820.7</ele>
        <time>2022-05-10T11:07:03Z</time>
      </trkpt>
      <trkpt lat="46.96868" lon="5.88889">
        <ele>819.8</ele>
        <time>2022-05-10T11:07:06Z</time>
      </trkpt>
      <trkpt lat="46.96864" lon="5.88885">
        <ele>818.7</ele>
        <time>2022-05-10T11:07:10Z</time>
      </trkpt>
      <trkpt lat="46.96859" lon="5.88882">
        <ele>817.6</ele>
        <time>2022-05-10T11:07:14Z</time>
      </trkpt>
      <trkpt lat="46.96855" lon="5.88879">
        <ele>816.4</ele>
        <time>2022-05-10T11:07:18Z</time>
      </trkpt>
      <trkpt lat="46.9685" lon="5.88874">
        <ele>815.2</ele>
        <time>2022-05-10T11:07:24Z</time>
      </trkpt>
      <trkpt lat="46.96846" lon="5.8887">
        <ele>814.3</ele>
        <time>2022-05-10T11:07:29Z</time>
      </trkpt>
      <trkpt lat="46.96842" lon="5.88868">
        <ele>813.5</ele>
        <time>2022-05-10T11:07:33Z</time>
      </trkpt>
      <trkpt lat="46.96838" lon="5.88863">
        <ele>812.2</ele>
        <time>2022-05-10T11:07:39Z</time>
      </trkpt>
      <trkpt lat="46.96836" lon="5.88858">
        <ele>810.7</ele>
        <time>2022-05-10T11:07:45Z</time>
      </trkpt>
      <trkpt lat="46.96832" lon="5.88852">
        <ele>809.5</ele>
        <time>2022-05-10T11:07:50Z</time>
      </trkpt>
      <trkpt lat="46.96829" lon="5.88846">
        <ele>808.7</ele>
        <time>2022-05-10T11:07:55Z</time>
      </trkpt>
      <trkpt lat="46.96825" lon="5.88842">
        <ele>808.6</ele>
        <time>2022-05-10T11:07:59Z</time>
      </trkpt>
      <trkpt lat="46.96821" lon="5.88841">
        <ele>809</ele>
        <time>2022-05-10T11:08:03Z</time>
      </trkpt>
      <trkpt lat="46.9682" lon="5.88833">
        <ele>808.7</ele>
        <time>2022-05-10T11:08:09Z</time>
      </trkpt>
      <trkpt lat="46.96817" lon="5.88827">
        <ele>807.6</ele>
        <time>2022-05-10T11:08:15Z</time>
      </trkpt>
      <trkpt lat="46.96813" lon="5.88824">
        <ele>806.2</ele>
        <time>2022-05-10T11:08:21Z</time>
      </trkpt>
      <trkpt lat="46.96809" lon="5.8882">
        <ele>804.2</ele>
        <time>2022-05-10T11:08:27Z</time>
      </trkpt>
      <trkpt lat="46.96805" lon="5.88814">
        <ele>801.8</ele>
        <time>2022-05-10T11:08:33Z</time>
      </trkpt>
      <trkpt lat="46.96801" lon="5.8881">
        <ele>799.6</ele>
        <time>2022-05-10T11:08:39Z</time>
      </trkpt>
      <trkpt lat="46.96796" lon="5.88807">
        <ele>798</ele>
        <time>2022-05-10T11:08:44Z</time>
      </trkpt>
      <trkpt lat="46.96792" lon="5.88803">
        <ele>796.7</ele>
        <time>2022-05-10T11:08:49Z</time>
      </trkpt>
      <trkpt lat="46.96788" lon="5.88798">
        <ele>795.7</ele>
        <time>2022-05-10T11:08:54Z</time>
      </trkpt>
      <trkpt lat="46.96784" lon="5.88795">
        <ele>794.7</ele>
        <time>2022-05-10T11:08:59Z</time>
      </trkpt>
      <trkpt lat="46.9678" lon="5.88793">
        <ele>793.9</ele>
        <time>2022-05-10T11:09:04Z</time>
      </trkpt>
      <trkpt lat="46.96776" lon="5.88798">
        <ele>793.4</ele>
        <time>2022-05-10T11:09:11Z</time>
      </trkpt>
      <trkpt lat="46.96774" lon="5.88806">
        <ele>793.4</ele>
        <time>2022-05-10T11:09:15Z</time>
      </trkpt>
      <trkpt lat="46.96773" lon="5.88814">
        <ele>793.5</ele>
        <time>2022-05-10T11:09:19Z</time>
      </trkpt>
      <trkpt lat="46.96772" lon="5.88823">
        <ele>794.3</ele>
        <time>2022-05-10T11:09:22Z</time>
      </trkpt>
      <trkpt lat="46.96771" lon="5.8883">
        <ele>795.1</ele>
        <time>2022-05-10T11:09:25Z</time>
      </trkpt>
      <trkpt lat="46.96769" lon="5.88837">
        <ele>795.8</ele>
        <time>2022-05-10T11:09:29Z</time>
      </trkpt>
      <trkpt lat="46.96763" lon="5.88839">
        <ele>796.4</ele>
        <time>2022-05-10T11:09:34Z</time>
      </trkpt>
      <trkpt lat="46.96759" lon="5.8884">
        <ele>796.9</ele>
        <time>2022-05-10T11:09:39Z</time>
      </trkpt>
      <trkpt lat="46.96764" lon="5.88838">
        <ele>798.5</ele>
        <time>2022-05-10T11:10:00Z</time>
      </trkpt>
      <trkpt lat="46.96769" lon="5.88838">
        <ele>799.8</ele>
        <time>2022-05-10T11:10:07Z</time>
      </trkpt>
      <trkpt lat="46.96769" lon="5.88831">
        <ele>800.4</ele>
        <time>2022-05-10T11:10:11Z</time>
      </trkpt>
      <trkpt lat="46.96768" lon="5.88824">
        <ele>800.8</ele>
        <time>2022-05-10T11:10:15Z</time>
      </trkpt>
      <trkpt lat="46.96767" lon="5.88817">
        <ele>800.8</ele>
        <time>2022-05-10T11:10:20Z</time>
      </trkpt>
      <trkpt lat="46.96766" lon="5.88811">
        <ele>800</ele>
        <time>2022-05-10T11:10:28Z</time>
      </trkpt>
      <trkpt lat="46.96771" lon="5.8881">
        <ele>799.3</ele>
        <time>2022-05-10T11:10:34Z</time>
      </trkpt>
      <trkpt lat="46.96776" lon="5.88808">
        <ele>799.4</ele>
        <time>2022-05-10T11:10:38Z</time>
      </trkpt>
      <trkpt lat="46.96776" lon="5.88816">
        <ele>799.6</ele>
        <time>2022-05-10T11:10:43Z</time>
      </trkpt>
      <trkpt lat="46.96773" lon="5.88823">
        <ele>799.8</ele>
        <time>2022-05-10T11:10:47Z</time>
      </trkpt>
      <trkpt lat="46.9677" lon="5.88829">
        <ele>800</ele>
        <time>2022-05-10T11:10:51Z</time>
      </trkpt>
      <trkpt lat="46.96767" lon="5.88835">
        <ele>800.8</ele>
        <time>2022-05-10T11:10:57Z</time>
      </trkpt>
      <trkpt lat="46.96762" lon="5.88838">
        <ele>802.1</ele>
        <time>2022-05-10T11:11:03Z</time>
      </trkpt>
      <trkpt lat="46.96757" lon="5.88839">
        <ele>803.4</ele>
        <time>2022-05-10T11:11:09Z</time>
      </trkpt>
      <trkpt lat="46.96752" lon="5.8884">
        <ele>802.9</ele>
        <time>2022-05-10T11:11:18Z</time>
      </trkpt>
      <trkpt lat="46.96749" lon="5.88832">
        <ele>801</ele>
        <time>2022-05-10T11:11:34Z</time>
      </trkpt>
      <trkpt lat="46.96748" lon="5.88824">
        <ele>800.2</ele>
        <time>2022-05-10T11:11:37Z</time>
      </trkpt>
      <trkpt lat="46.96746" lon="5.88817">
        <ele>799.4</ele>
        <time>2022-05-10T11:11:41Z</time>
      </trkpt>
      <trkpt lat="46.96743" lon="5.88811">
        <ele>799</ele>
        <time>2022-05-10T11:11:45Z</time>
      </trkpt>
      <trkpt lat="46.9674" lon="5.88806">
        <ele>799</ele>
        <time>2022-05-10T11:11:49Z</time>
      </trkpt>
      <trkpt lat="46.96736" lon="5.88803">
        <ele>798.9</ele>
        <time>2022-05-10T11:11:54Z</time>
      </trkpt>
      <trkpt lat="46.96731" lon="5.88803">
        <ele>798.9</ele>
        <time>2022-05-10T11:12:01Z</time>
      </trkpt>
      <trkpt lat="46.96725" lon="5.88798">
        <ele>798.2</ele>
        <time>2022-05-10T11:12:22Z</time>
      </trkpt>
      <trkpt lat="46.96721" lon="5.88793">
        <ele>798</ele>
        <time>2022-05-10T11:12:25Z</time>
      </trkpt>
      <trkpt lat="46.96716" lon="5.88791">
        <ele>797.4</ele>
        <time>2022-05-10T11:12:30Z</time>
      </trkpt>
      <trkpt lat="46.96711" lon="5.88791">
        <ele>795.9</ele>
        <time>2022-05-10T11:12:36Z</time>
      </trkpt>
      <trkpt lat="46.96706" lon="5.88791">
        <ele>795</ele>
        <time>2022-05-10T11:12:41Z</time>
      </trkpt>
      <trkpt lat="46.967" lon="5.88792">
        <ele>794.4</ele>
        <time>2022-05-10T11:12:48Z</time>
      </trkpt>
      <trkpt lat="46.96694" lon="5.88791">
        <ele>794.1</ele>
        <time>2022-05-10T11:12:55Z</time>
      </trkpt>
      <trkpt lat="46.9669" lon="5.88787">
        <ele>793.9</ele>
        <time>2022-05-10T11:12:58Z</time>
      </trkpt>
      <trkpt lat="46.96687" lon="5.88782">
        <ele>793.4</ele>
        <time>2022-05-10T11:13:02Z</time>
      </trkpt>
      <trkpt lat="46.96682" lon="5.88777">
        <ele>792.7</ele>
        <time>2022-05-10T11:13:07Z</time>
      </trkpt>
      <trkpt lat="46.96678" lon="5.88773">
        <ele>792.3</ele>
        <time>2022-05-10T11:13:12Z</time>
      </trkpt>
      <trkpt lat="46.96675" lon="5.88768">
        <ele>792</ele>
        <time>2022-05-10T11:13:18Z</time>
      </trkpt>
      <trkpt lat="46.96672" lon="5.88763">
        <ele>792.9</ele>
        <time>2022-05-10T11:13:26Z</time>
      </trkpt>
      <trkpt lat="46.96667" lon="5.88761">
        <ele>794.5</ele>
        <time>2022-05-10T11:13:36Z</time>
      </trkpt>
      <trkpt lat="46.96663" lon="5.88758">
        <ele>794.6</ele>
        <time>2022-05-10T11:13:41Z</time>
      </trkpt>
      <trkpt lat="46.96658" lon="5.88754">
        <ele>794.2</ele>
        <time>2022-05-10T11:13:50Z</time>
      </trkpt>
      <trkpt lat="46.96653" lon="5.8875">
        <ele>793.9</ele>
        <time>2022-05-10T11:13:54Z</time>
      </trkpt>
      <trkpt lat="46.96649" lon="5.88747">
        <ele>793.1</ele>
        <time>2022-05-10T11:14:00Z</time>
      </trkpt>
      <trkpt lat="46.96645" lon="5.88742">
        <ele>792.6</ele>
        <time>2022-05-10T11:14:09Z</time>
      </trkpt>
      <trkpt lat="46.96641" lon="5.88737">
        <ele>792.4</ele>
        <time>2022-05-10T11:14:19Z</time>
      </trkpt>
      <trkpt lat="46.96636" lon="5.88733">
        <ele>791.8</ele>
        <time>2022-05-10T11:14:22Z</time>
      </trkpt>
      <trkpt lat="46.96629" lon="5.88733">
        <ele>790.4</ele>
        <time>2022-05-10T11:14:33Z</time>
      </trkpt>
      <trkpt lat="46.96624" lon="5.88734">
        <ele>789.9</ele>
        <time>2022-05-10T11:14:36Z</time>
      </trkpt>
      <trkpt lat="46.9662" lon="5.88735">
        <ele>789.8</ele>
        <time>2022-05-10T11:14:48Z</time>
      </trkpt>
      <trkpt lat="46.96617" lon="5.8873">
        <ele>790.7</ele>
        <time>2022-05-10T11:14:57Z</time>
      </trkpt>
      <trkpt lat="46.96614" lon="5.88723">
        <ele>790.5</ele>
        <time>2022-05-10T11:15:03Z</time>
      </trkpt>
      <trkpt lat="46.96611" lon="5.88716">
        <ele>790.2</ele>
        <time>2022-05-10T11:15:09Z</time>
      </trkpt>
      <trkpt lat="46.96608" lon="5.88711">
        <ele>790</ele>
        <time>2022-05-10T11:15:15Z</time>
      </trkpt>
      <trkpt lat="46.96606" lon="5.88704">
        <ele>787.9</ele>
        <time>2022-05-10T11:15:25Z</time>
      </trkpt>
      <trkpt lat="46.96602" lon="5.887">
        <ele>786.4</ele>
        <time>2022-05-10T11:15:31Z</time>
      </trkpt>
      <trkpt lat="46.966" lon="5.88694">
        <ele>784.4</ele>
        <time>2022-05-10T11:15:38Z</time>
      </trkpt>
      <trkpt lat="46.96594" lon="5.88689">
        <ele>784.1</ele>
        <time>2022-05-10T11:15:55Z</time>
      </trkpt>
      <trkpt lat="46.96589" lon="5.88686">
        <ele>784.4</ele>
        <time>2022-05-10T11:15:58Z</time>
      </trkpt>
      <trkpt lat="46.96585" lon="5.88681">
        <ele>784.6</ele>
        <time>2022-05-10T11:16:03Z</time>
      </trkpt>
      <trkpt lat="46.96581" lon="5.88677">
        <ele>784.9</ele>
        <time>2022-05-10T11:16:08Z</time>
      </trkpt>
      <trkpt lat="46.96578" lon="5.88671">
        <ele>784.9</ele>
        <time>2022-05-10T11:16:14Z</time>
      </trkpt>
      <trkpt lat="46.96576" lon="5.88665">
        <ele>785</ele>
        <time>2022-05-10T11:16:22Z</time>
      </trkpt>
      <trkpt lat="46.96571" lon="5.88663">
        <ele>787.5</ele>
        <time>2022-05-10T11:17:03Z</time>
      </trkpt>
      <trkpt lat="46.96567" lon="5.88659">
        <ele>789.3</ele>
        <time>2022-05-10T11:17:13Z</time>
      </trkpt>
      <trkpt lat="46.96566" lon="5.88653">
        <ele>786.5</ele>
        <time>2022-05-10T11:17:43Z</time>
      </trkpt>
      <trkpt lat="46.96561" lon="5.88653">
        <ele>786</ele>
        <time>2022-05-10T11:17:53Z</time>
      </trkpt>
      <trkpt lat="46.96556" lon="5.88647">
        <ele>787</ele>
        <time>2022-05-10T11:18:13Z</time>
      </trkpt>
      <trkpt lat="46.96553" lon="5.88641">
        <ele>787.5</ele>
        <time>2022-05-10T11:18:16Z</time>
      </trkpt>
      <trkpt lat="46.96551" lon="5.88636">
        <ele>788.2</ele>
        <time>2022-05-10T11:18:22Z</time>
      </trkpt>
      <trkpt lat="46.96554" lon="5.88641">
        <ele>787.3</ele>
        <time>2022-05-10T11:18:45Z</time>
      </trkpt>
      <trkpt lat="46.96557" lon="5.88647">
        <ele>786.5</ele>
        <time>2022-05-10T11:18:50Z</time>
      </trkpt>
      <trkpt lat="46.9656" lon="5.88651">
        <ele>784.9</ele>
        <time>2022-05-10T11:18:58Z</time>
      </trkpt>
      <trkpt lat="46.96565" lon="5.88658">
        <ele>782.3</ele>
        <time>2022-05-10T11:19:23Z</time>
      </trkpt>
      <trkpt lat="46.9657" lon="5.88661">
        <ele>782.1</ele>
        <time>2022-05-10T11:19:27Z</time>
      </trkpt>
      <trkpt lat="46.96575" lon="5.88661">
        <ele>781.9</ele>
        <time>2022-05-10T11:19:31Z</time>
      </trkpt>
      <trkpt lat="46.9658" lon="5.88664">
        <ele>781.5</ele>
        <time>2022-05-10T11:19:37Z</time>
      </trkpt>
      <trkpt lat="46.96579" lon="5.88657">
        <ele>781</ele>
        <time>2022-05-10T11:20:11Z</time>
      </trkpt>
      <trkpt lat="46.96576" lon="5.88652">
        <ele>779.5</ele>
        <time>2022-05-10T11:20:40Z</time>
      </trkpt>
      <trkpt lat="46.9658" lon="5.88657">
        <ele>775.9</ele>
        <time>2022-05-10T11:21:03Z</time>
      </trkpt>
      <trkpt lat="46.96582" lon="5.88662">
        <ele>771.4</ele>
        <time>2022-05-10T11:21:14Z</time>
      </trkpt>
      <trkpt lat="46.96586" lon="5.88657">
        <ele>768.6</ele>
        <time>2022-05-10T11:21:36Z</time>
      </trkpt>
      <trkpt lat="46.96585" lon="5.8865">
        <ele>771.5</ele>
        <time>2022-05-10T11:22:13Z</time>
      </trkpt>
      <trkpt lat="46.9658" lon="5.88649">
        <ele>773.6</ele>
        <time>2022-05-10T11:22:20Z</time>
      </trkpt>
      <trkpt lat="46.96577" lon="5.88643">
        <ele>774.8</ele>
        <time>2022-05-10T11:22:26Z</time>
      </trkpt>
      <trkpt lat="46.96575" lon="5.88637">
        <ele>776.3</ele>
        <time>2022-05-10T11:22:40Z</time>
      </trkpt>
      <trkpt lat="46.96574" lon="5.8863">
        <ele>776.5</ele>
        <time>2022-05-10T11:22:50Z</time>
      </trkpt>
      <trkpt lat="46.96575" lon="5.88623">
        <ele>776.8</ele>
        <time>2022-05-10T11:22:58Z</time>
      </trkpt>
      <trkpt lat="46.96571" lon="5.88624">
        <ele>776.5</ele>
        <time>2022-05-10T11:23:16Z</time>
      </trkpt>
      <trkpt lat="46.96566" lon="5.88623">
        <ele>775.4</ele>
        <time>2022-05-10T11:23:34Z</time>
      </trkpt>
      <trkpt lat="46.96562" lon="5.88619">
        <ele>774.7</ele>
        <time>2022-05-10T11:23:39Z</time>
      </trkpt>
      <trkpt lat="46.96557" lon="5.88618">
        <ele>773.8</ele>
        <time>2022-05-10T11:23:48Z</time>
      </trkpt>
      <trkpt lat="46.96553" lon="5.88615">
        <ele>773.9</ele>
        <time>2022-05-10T11:23:54Z</time>
      </trkpt>
      <trkpt lat="46.96547" lon="5.88615">
        <ele>773.8</ele>
        <time>2022-05-10T11:24:03Z</time>
      </trkpt>
      <trkpt lat="46.96542" lon="5.88614">
        <ele>773.8</ele>
        <time>2022-05-10T11:24:10Z</time>
      </trkpt>
      <trkpt lat="46.96534" lon="5.88613">
        <ele>772.2</ele>
        <time>2022-05-10T11:24:48Z</time>
      </trkpt>
      <trkpt lat="46.9653" lon="5.88611">
        <ele>771.6</ele>
        <time>2022-05-10T11:24:51Z</time>
      </trkpt>
      <trkpt lat="46.96525" lon="5.8861">
        <ele>770.6</ele>
        <time>2022-05-10T11:24:56Z</time>
      </trkpt>
      <trkpt lat="46.96521" lon="5.88608">
        <ele>769.6</ele>
        <time>2022-05-10T11:25:01Z</time>
      </trkpt>
      <trkpt lat="46.96517" lon="5.88604">
        <ele>769.6</ele>
        <time>2022-05-10T11:25:06Z</time>
      </trkpt>
      <trkpt lat="46.96513" lon="5.88601">
        <ele>769.8</ele>
        <time>2022-05-10T11:25:13Z</time>
      </trkpt>
      <trkpt lat="46.96508" lon="5.886">
        <ele>769.7</ele>
        <time>2022-05-10T11:25:18Z</time>
      </trkpt>
      <trkpt lat="46.96504" lon="5.88598">
        <ele>770.3</ele>
        <time>2022-05-10T11:25:34Z</time>
      </trkpt>
      <trkpt lat="46.96499" lon="5.88596">
        <ele>767.3</ele>
        <time>2022-05-10T11:26:34Z</time>
      </trkpt>
      <trkpt lat="46.96494" lon="5.88593">
        <ele>766.9</ele>
        <time>2022-05-10T11:26:39Z</time>
      </trkpt>
      <trkpt lat="46.96489" lon="5.88591">
        <ele>765</ele>
        <time>2022-05-10T11:26:56Z</time>
      </trkpt>
      <trkpt lat="46.96485" lon="5.88589">
        <ele>757.5</ele>
        <time>2022-05-10T11:27:33Z</time>
      </trkpt>
      <trkpt lat="46.96482" lon="5.88582">
        <ele>755.9</ele>
        <time>2022-05-10T11:27:39Z</time>
      </trkpt>
      <trkpt lat="46.96478" lon="5.88578">
        <ele>754.9</ele>
        <time>2022-05-10T11:27:45Z</time>
      </trkpt>
      <trkpt lat="46.96477" lon="5.88571">
        <ele>753.7</ele>
        <time>2022-05-10T11:27:53Z</time>
      </trkpt>
      <trkpt lat="46.96474" lon="5.88564">
        <ele>752.6</ele>
        <time>2022-05-10T11:27:59Z</time>
      </trkpt>
      <trkpt lat="46.9647" lon="5.88558">
        <ele>753.5</ele>
        <time>2022-05-10T11:28:42Z</time>
      </trkpt>
      <trkpt lat="46.96466" lon="5.88561">
        <ele>753</ele>
        <time>2022-05-10T11:29:05Z</time>
      </trkpt>
      <trkpt lat="46.96462" lon="5.88565">
        <ele>752.2</ele>
        <time>2022-05-10T11:29:12Z</time>
      </trkpt>
      <trkpt lat="46.96457" lon="5.88567">
        <ele>752</ele>
        <time>2022-05-10T11:29:19Z</time>
      </trkpt>
      <trkpt lat="46.96452" lon="5.88567">
        <ele>751.9</ele>
        <time>2022-05-10T11:29:24Z</time>
      </trkpt>
      <trkpt lat="46.96447" lon="5.88566">
        <ele>751.4</ele>
        <time>2022-05-10T11:29:33Z</time>
      </trkpt>
      <trkpt lat="46.96442" lon="5.88564">
        <ele>751.4</ele>
        <time>2022-05-10T11:29:41Z</time>
      </trkpt>
      <trkpt lat="46.96437" lon="5.88568">
        <ele>753.1</ele>
        <time>2022-05-10T11:30:14Z</time>
      </trkpt>
      <trkpt lat="46.96433" lon="5.88571">
        <ele>754.1</ele>
        <time>2022-05-10T11:30:17Z</time>
      </trkpt>
      <trkpt lat="46.96429" lon="5.88566">
        <ele>755.3</ele>
        <time>2022-05-10T11:30:26Z</time>
      </trkpt>
      <trkpt lat="46.96429" lon="5.88559">
        <ele>755.4</ele>
        <time>2022-05-10T11:30:34Z</time>
      </trkpt>
      <trkpt lat="46.96427" lon="5.88552">
        <ele>755.5</ele>
        <time>2022-05-10T11:30:46Z</time>
      </trkpt>
      <trkpt lat="46.96422" lon="5.88549">
        <ele>756.2</ele>
        <time>2022-05-10T11:30:53Z</time>
      </trkpt>
      <trkpt lat="46.96417" lon="5.88551">
        <ele>756.3</ele>
        <time>2022-05-10T11:31:00Z</time>
      </trkpt>
      <trkpt lat="46.96412" lon="5.88554">
        <ele>755.7</ele>
        <time>2022-05-10T11:31:06Z</time>
      </trkpt>
      <trkpt lat="46.96407" lon="5.88557">
        <ele>754.6</ele>
        <time>2022-05-10T11:31:10Z</time>
      </trkpt>
      <trkpt lat="46.96409" lon="5.88564">
        <ele>752.3</ele>
        <time>2022-05-10T11:31:18Z</time>
      </trkpt>
      <trkpt lat="46.96412" lon="5.88569">
        <ele>752.1</ele>
        <time>2022-05-10T11:31:28Z</time>
      </trkpt>
      <trkpt lat="46.96408" lon="5.88566">
        <ele>764.8</ele>
        <time>2022-05-10T11:32:58Z</time>
      </trkpt>
      <trkpt lat="46.96403" lon="5.88567">
        <ele>766.6</ele>
        <time>2022-05-10T11:33:06Z</time>
      </trkpt>
      <trkpt lat="46.96399" lon="5.88563">
        <ele>768.2</ele>
        <time>2022-05-10T11:33:29Z</time>
      </trkpt>
      <trkpt lat="46.96398" lon="5.88556">
        <ele>770.1</ele>
        <time>2022-05-10T11:33:40Z</time>
      </trkpt>
      <trkpt lat="46.96402" lon="5.88555">
        <ele>773.9</ele>
        <time>2022-05-10T11:33:55Z</time>
      </trkpt>
      <trkpt lat="46.96404" lon="5.88547">
        <ele>784.2</ele>
        <time>2022-05-10T11:35:08Z</time>
      </trkpt>
      <trkpt lat="46.96403" lon="5.8854">
        <ele>785.8</ele>
        <time>2022-05-10T11:35:17Z</time>
      </trkpt>
      <trkpt lat="46.964" lon="5.88536">
        <ele>790</ele>
        <time>2022-05-10T11:35:45Z</time>
      </trkpt>
      <trkpt lat="46.96394" lon="5.88536">
        <ele>794</ele>
        <time>2022-05-10T11:36:52Z</time>
      </trkpt>
      <trkpt lat="46.96391" lon="5.88531">
        <ele>797</ele>
        <time>2022-05-10T11:37:06Z</time>
      </trkpt>
      <trkpt lat="46.96392" lon="5.88524">
        <ele>799</ele>
        <time>2022-05-10T11:39:02Z</time>
      </trkpt>
      <trkpt lat="46.96393" lon="5.88532">
        <ele>799.5</ele>
        <time>2022-05-10T11:47:35Z</time>
      </trkpt>
      <trkpt lat="46.96396" lon="5.88537">
        <ele>799.3</ele>
        <time>2022-05-10T11:47:58Z</time>
      </trkpt>
      <trkpt lat="46.964" lon="5.88535">
        <ele>798.6</ele>
        <time>2022-05-10T11:48:08Z</time>
      </trkpt>
      <trkpt lat="46.964" lon="5.88543">
        <ele>797.6</ele>
        <time>2022-05-10T11:48:50Z</time>
      </trkpt>
      <trkpt lat="46.96399" lon="5.88549">
        <ele>796.8</ele>
        <time>2022-05-10T11:49:01Z</time>
      </trkpt>
      <trkpt lat="46.96404" lon="5.88548">
        <ele>795.2</ele>
        <time>2022-05-10T11:49:16Z</time>
      </trkpt>
      <trkpt lat="46.96408" lon="5.88551">
        <ele>790.8</ele>
        <time>2022-05-10T11:49:51Z</time>
      </trkpt>
      <trkpt lat="46.96403" lon="5.88556">
        <ele>790.1</ele>
        <time>2022-05-10T11:50:09Z</time>
      </trkpt>
      <trkpt lat="46.96404" lon="5.88565">
        <ele>788.9</ele>
        <time>2022-05-10T11:50:49Z</time>
      </trkpt>
      <trkpt lat="46.96408" lon="5.88569">
        <ele>788.5</ele>
        <time>2022-05-10T11:50:52Z</time>
      </trkpt>
      <trkpt lat="46.96412" lon="5.8857">
        <ele>788</ele>
        <time>2022-05-10T11:50:56Z</time>
      </trkpt>
      <trkpt lat="46.9642" lon="5.8857">
        <ele>784.2</ele>
        <time>2022-05-10T11:51:39Z</time>
      </trkpt>
      <trkpt lat="46.96424" lon="5.88567">
        <ele>781.2</ele>
        <time>2022-05-10T11:51:44Z</time>
      </trkpt>
      <trkpt lat="46.96425" lon="5.88561">
        <ele>775.6</ele>
        <time>2022-05-10T11:51:58Z</time>
      </trkpt>
      <trkpt lat="46.96424" lon="5.88554">
        <ele>773.1</ele>
        <time>2022-05-10T11:52:05Z</time>
      </trkpt>
      <trkpt lat="46.96426" lon="5.88548">
        <ele>772.4</ele>
        <time>2022-05-10T11:52:19Z</time>
      </trkpt>
      <trkpt lat="46.9643" lon="5.88547">
        <ele>773.8</ele>
        <time>2022-05-10T11:52:25Z</time>
      </trkpt>
      <trkpt lat="46.96434" lon="5.88554">
        <ele>775.3</ele>
        <time>2022-05-10T11:52:36Z</time>
      </trkpt>
      <trkpt lat="46.96438" lon="5.88562">
        <ele>776</ele>
        <time>2022-05-10T11:52:48Z</time>
      </trkpt>
      <trkpt lat="46.96441" lon="5.88568">
        <ele>774.4</ele>
        <time>2022-05-10T11:53:07Z</time>
      </trkpt>
      <trkpt lat="46.96445" lon="5.88568">
        <ele>772</ele>
        <time>2022-05-10T11:53:24Z</time>
      </trkpt>
      <trkpt lat="46.96449" lon="5.88564">
        <ele>771.3</ele>
        <time>2022-05-10T11:53:28Z</time>
      </trkpt>
      <trkpt lat="46.96454" lon="5.88565">
        <ele>770.7</ele>
        <time>2022-05-10T11:53:35Z</time>
      </trkpt>
      <trkpt lat="46.96457" lon="5.88569">
        <ele>770.3</ele>
        <time>2022-05-10T11:53:41Z</time>
      </trkpt>
      <trkpt lat="46.96462" lon="5.88572">
        <ele>770</ele>
        <time>2022-05-10T11:53:47Z</time>
      </trkpt>
      <trkpt lat="46.96466" lon="5.88572">
        <ele>768.9</ele>
        <time>2022-05-10T11:53:54Z</time>
      </trkpt>
      <trkpt lat="46.9647" lon="5.88567">
        <ele>765.7</ele>
        <time>2022-05-10T11:54:04Z</time>
      </trkpt>
      <trkpt lat="46.96473" lon="5.88563">
        <ele>763.8</ele>
        <time>2022-05-10T11:54:11Z</time>
      </trkpt>
      <trkpt lat="46.96478" lon="5.88559">
        <ele>761.9</ele>
        <time>2022-05-10T11:54:19Z</time>
      </trkpt>
      <trkpt lat="46.96474" lon="5.88554">
        <ele>756.6</ele>
        <time>2022-05-10T11:55:00Z</time>
      </trkpt>
      <trkpt lat="46.96478" lon="5.88549">
        <ele>757.1</ele>
        <time>2022-05-10T11:55:06Z</time>
      </trkpt>
      <trkpt lat="46.96478" lon="5.88542">
        <ele>754.5</ele>
        <time>2022-05-10T11:55:18Z</time>
      </trkpt>
      <trkpt lat="46.96481" lon="5.88547">
        <ele>752.5</ele>
        <time>2022-05-10T11:56:21Z</time>
      </trkpt>
      <trkpt lat="46.96483" lon="5.88554">
        <ele>752.8</ele>
        <time>2022-05-10T11:56:28Z</time>
      </trkpt>
      <trkpt lat="46.96482" lon="5.88562">
        <ele>753.8</ele>
        <time>2022-05-10T11:56:33Z</time>
      </trkpt>
      <trkpt lat="46.96482" lon="5.88569">
        <ele>755.4</ele>
        <time>2022-05-10T11:56:38Z</time>
      </trkpt>
      <trkpt lat="46.96487" lon="5.88571">
        <ele>756.7</ele>
        <time>2022-05-10T11:56:44Z</time>
      </trkpt>
      <trkpt lat="46.96491" lon="5.88572">
        <ele>757</ele>
        <time>2022-05-10T11:56:49Z</time>
      </trkpt>
      <trkpt lat="46.96496" lon="5.88572">
        <ele>756.5</ele>
        <time>2022-05-10T11:56:55Z</time>
      </trkpt>
      <trkpt lat="46.96501" lon="5.88574">
        <ele>756.1</ele>
        <time>2022-05-10T11:56:59Z</time>
      </trkpt>
      <trkpt lat="46.96506" lon="5.88576">
        <ele>756</ele>
        <time>2022-05-10T11:57:04Z</time>
      </trkpt>
      <trkpt lat="46.96511" lon="5.88579">
        <ele>755.8</ele>
        <time>2022-05-10T11:57:10Z</time>
      </trkpt>
      <trkpt lat="46.96516" lon="5.8858">
        <ele>755.8</ele>
        <time>2022-05-10T11:57:15Z</time>
      </trkpt>
      <trkpt lat="46.9652" lon="5.88582">
        <ele>755.4</ele>
        <time>2022-05-10T11:57:21Z</time>
      </trkpt>
      <trkpt lat="46.96525" lon="5.88585">
        <ele>754.6</ele>
        <time>2022-05-10T11:57:26Z</time>
      </trkpt>
      <trkpt lat="46.96529" lon="5.88589">
        <ele>754.1</ele>
        <time>2022-05-10T11:57:30Z</time>
      </trkpt>
      <trkpt lat="46.96534" lon="5.88592">
        <ele>753.8</ele>
        <time>2022-05-10T11:57:36Z</time>
      </trkpt>
      <trkpt lat="46.96539" lon="5.88589">
        <ele>753.3</ele>
        <time>2022-05-10T11:57:42Z</time>
      </trkpt>
      <trkpt lat="46.96543" lon="5.8859">
        <ele>753</ele>
        <time>2022-05-10T11:57:49Z</time>
      </trkpt>
      <trkpt lat="46.96548" lon="5.88591">
        <ele>752.8</ele>
        <time>2022-05-10T11:57:56Z</time>
      </trkpt>
      <trkpt lat="46.96552" lon="5.88595">
        <ele>752.7</ele>
        <time>2022-05-10T11:58:02Z</time>
      </trkpt>
      <trkpt lat="46.96557" lon="5.88598">
        <ele>752.4</ele>
        <time>2022-05-10T11:58:08Z</time>
      </trkpt>
      <trkpt lat="46.96561" lon="5.886">
        <ele>752.2</ele>
        <time>2022-05-10T11:58:13Z</time>
      </trkpt>
      <trkpt lat="46.96565" lon="5.88603">
        <ele>752.2</ele>
        <time>2022-05-10T11:58:20Z</time>
      </trkpt>
      <trkpt lat="46.9657" lon="5.88606">
        <ele>752.3</ele>
        <time>2022-05-10T11:58:25Z</time>
      </trkpt>
      <trkpt lat="46.96575" lon="5.88609">
        <ele>752.7</ele>
        <time>2022-05-10T11:58:30Z</time>
      </trkpt>
      <trkpt lat="46.9658" lon="5.8861">
        <ele>753.4</ele>
        <time>2022-05-10T11:58:35Z</time>
      </trkpt>
      <trkpt lat="46.96584" lon="5.88614">
        <ele>754.4</ele>
        <time>2022-05-10T11:58:40Z</time>
      </trkpt>
      <trkpt lat="46.96588" lon="5.88619">
        <ele>755.3</ele>
        <time>2022-05-10T11:58:45Z</time>
      </trkpt>
      <trkpt lat="46.96592" lon="5.88622">
        <ele>756.2</ele>
        <time>2022-05-10T11:58:49Z</time>
      </trkpt>
      <trkpt lat="46.96596" lon="5.88626">
        <ele>757.4</ele>
        <time>2022-05-10T11:58:55Z</time>
      </trkpt>
      <trkpt lat="46.96598" lon="5.88633">
        <ele>758.7</ele>
        <time>2022-05-10T11:59:02Z</time>
      </trkpt>
      <trkpt lat="46.96597" lon="5.8864">
        <ele>759.7</ele>
        <time>2022-05-10T11:59:08Z</time>
      </trkpt>
      <trkpt lat="46.96601" lon="5.88645">
        <ele>760.7</ele>
        <time>2022-05-10T11:59:14Z</time>
      </trkpt>
      <trkpt lat="46.96606" lon="5.88648">
        <ele>761.1</ele>
        <time>2022-05-10T11:59:19Z</time>
      </trkpt>
      <trkpt lat="46.96611" lon="5.88649">
        <ele>761.4</ele>
        <time>2022-05-10T11:59:24Z</time>
      </trkpt>
      <trkpt lat="46.96616" lon="5.88651">
        <ele>761.8</ele>
        <time>2022-05-10T11:59:29Z</time>
      </trkpt>
      <trkpt lat="46.96621" lon="5.88654">
        <ele>762.6</ele>
        <time>2022-05-10T11:59:34Z</time>
      </trkpt>
      <trkpt lat="46.96626" lon="5.88657">
        <ele>763.6</ele>
        <time>2022-05-10T11:59:38Z</time>
      </trkpt>
      <trkpt lat="46.9663" lon="5.88662">
        <ele>764.9</ele>
        <time>2022-05-10T11:59:43Z</time>
      </trkpt>
      <trkpt lat="46.96632" lon="5.88668">
        <ele>766.7</ele>
        <time>2022-05-10T11:59:49Z</time>
      </trkpt>
      <trkpt lat="46.96634" lon="5.88675">
        <ele>768.4</ele>
        <time>2022-05-10T11:59:55Z</time>
      </trkpt>
      <trkpt lat="46.96637" lon="5.88681">
        <ele>769.7</ele>
        <time>2022-05-10T12:00:01Z</time>
      </trkpt>
      <trkpt lat="46.96642" lon="5.88681">
        <ele>770.1</ele>
        <time>2022-05-10T12:00:04Z</time>
      </trkpt>
      <trkpt lat="46.96648" lon="5.88681">
        <ele>770.5</ele>
        <time>2022-05-10T12:00:08Z</time>
      </trkpt>
      <trkpt lat="46.96652" lon="5.88683">
        <ele>771.2</ele>
        <time>2022-05-10T12:00:13Z</time>
      </trkpt>
      <trkpt lat="46.96656" lon="5.88688">
        <ele>772.4</ele>
        <time>2022-05-10T12:00:28Z</time>
      </trkpt>
      <trkpt lat="46.9666" lon="5.8869">
        <ele>772.8</ele>
        <time>2022-05-10T12:00:32Z</time>
      </trkpt>
      <trkpt lat="46.96664" lon="5.88694">
        <ele>773</ele>
        <time>2022-05-10T12:00:36Z</time>
      </trkpt>
      <trkpt lat="46.96668" lon="5.88699">
        <ele>773.4</ele>
        <time>2022-05-10T12:00:40Z</time>
      </trkpt>
      <trkpt lat="46.9667" lon="5.88706">
        <ele>773.9</ele>
        <time>2022-05-10T12:00:45Z</time>
      </trkpt>
      <trkpt lat="46.96675" lon="5.88709">
        <ele>774.4</ele>
        <time>2022-05-10T12:00:52Z</time>
      </trkpt>
      <trkpt lat="46.96677" lon="5.88715">
        <ele>774.6</ele>
        <time>2022-05-10T12:00:59Z</time>
      </trkpt>
      <trkpt lat="46.96681" lon="5.88717">
        <ele>775.1</ele>
        <time>2022-05-10T12:01:06Z</time>
      </trkpt>
      <trkpt lat="46.96686" lon="5.8872">
        <ele>776</ele>
        <time>2022-05-10T12:01:15Z</time>
      </trkpt>
      <trkpt lat="46.9669" lon="5.88724">
        <ele>776.5</ele>
        <time>2022-05-10T12:01:22Z</time>
      </trkpt>
      <trkpt lat="46.96694" lon="5.88726">
        <ele>776.9</ele>
        <time>2022-05-10T12:01:27Z</time>
      </trkpt>
      <trkpt lat="46.96699" lon="5.88729">
        <ele>777.4</ele>
        <time>2022-05-10T12:01:35Z</time>
      </trkpt>
      <trkpt lat="46.96704" lon="5.88731">
        <ele>777.8</ele>
        <time>2022-05-10T12:01:40Z</time>
      </trkpt>
      <trkpt lat="46.96708" lon="5.88734">
        <ele>778.3</ele>
        <time>2022-05-10T12:01:43Z</time>
      </trkpt>
      <trkpt lat="46.96714" lon="5.88733">
        <ele>779.1</ele>
        <time>2022-05-10T12:01:46Z</time>
      </trkpt>
      <trkpt lat="46.96719" lon="5.88734">
        <ele>780.1</ele>
        <time>2022-05-10T12:01:50Z</time>
      </trkpt>
      <trkpt lat="46.96724" lon="5.88735">
        <ele>781.4</ele>
        <time>2022-05-10T12:01:54Z</time>
      </trkpt>
      <trkpt lat="46.96727" lon="5.88741">
        <ele>782.4</ele>
        <time>2022-05-10T12:01:58Z</time>
      </trkpt>
      <trkpt lat="46.9673" lon="5.88746">
        <ele>784</ele>
        <time>2022-05-10T12:02:10Z</time>
      </trkpt>
      <trkpt lat="46.96734" lon="5.88747">
        <ele>783.4</ele>
        <time>2022-05-10T12:02:16Z</time>
      </trkpt>
      <trkpt lat="46.96739" lon="5.88746">
        <ele>781.5</ele>
        <time>2022-05-10T12:02:25Z</time>
      </trkpt>
      <trkpt lat="46.96741" lon="5.88739">
        <ele>781.2</ele>
        <time>2022-05-10T12:02:46Z</time>
      </trkpt>
      <trkpt lat="46.96746" lon="5.88736">
        <ele>781.1</ele>
        <time>2022-05-10T12:02:51Z</time>
      </trkpt>
      <trkpt lat="46.9675" lon="5.88732">
        <ele>781.2</ele>
        <time>2022-05-10T12:02:55Z</time>
      </trkpt>
      <trkpt lat="46.96753" lon="5.88727">
        <ele>781.2</ele>
        <time>2022-05-10T12:03:04Z</time>
      </trkpt>
      <trkpt lat="46.96755" lon="5.8872">
        <ele>781.5</ele>
        <time>2022-05-10T12:03:10Z</time>
      </trkpt>
      <trkpt lat="46.96758" lon="5.88715">
        <ele>782</ele>
        <time>2022-05-10T12:03:18Z</time>
      </trkpt>
      <trkpt lat="46.96761" lon="5.88707">
        <ele>782.4</ele>
        <time>2022-05-10T12:03:23Z</time>
      </trkpt>
      <trkpt lat="46.96761" lon="5.88698">
        <ele>782.3</ele>
        <time>2022-05-10T12:03:27Z</time>
      </trkpt>
      <trkpt lat="46.96762" lon="5.88691">
        <ele>781.8</ele>
        <time>2022-05-10T12:03:30Z</time>
      </trkpt>
      <trkpt lat="46.9676" lon="5.88684">
        <ele>781.2</ele>
        <time>2022-05-10T12:03:34Z</time>
      </trkpt>
      <trkpt lat="46.9676" lon="5.88678">
        <ele>780.8</ele>
        <time>2022-05-10T12:03:40Z</time>
      </trkpt>
      <trkpt lat="46.96761" lon="5.88671">
        <ele>781.6</ele>
        <time>2022-05-10T12:03:46Z</time>
      </trkpt>
      <trkpt lat="46.96761" lon="5.88664">
        <ele>782.3</ele>
        <time>2022-05-10T12:03:50Z</time>
      </trkpt>
      <trkpt lat="46.9676" lon="5.88656">
        <ele>783.4</ele>
        <time>2022-05-10T12:03:57Z</time>
      </trkpt>
      <trkpt lat="46.96759" lon="5.88649">
        <ele>784.3</ele>
        <time>2022-05-10T12:04:00Z</time>
      </trkpt>
      <trkpt lat="46.96758" lon="5.88643">
        <ele>786.5</ele>
        <time>2022-05-10T12:04:06Z</time>
      </trkpt>
      <trkpt lat="46.96756" lon="5.88636">
        <ele>788.2</ele>
        <time>2022-05-10T12:04:11Z</time>
      </trkpt>
      <trkpt lat="46.96753" lon="5.88632">
        <ele>790.7</ele>
        <time>2022-05-10T12:04:23Z</time>
      </trkpt>
      <trkpt lat="46.96748" lon="5.8863">
        <ele>795.9</ele>
        <time>2022-05-10T12:04:52Z</time>
      </trkpt>
      <trkpt lat="46.96751" lon="5.88624">
        <ele>798.1</ele>
        <time>2022-05-10T12:05:01Z</time>
      </trkpt>
      <trkpt lat="46.96755" lon="5.88624">
        <ele>798.6</ele>
        <time>2022-05-10T12:05:08Z</time>
      </trkpt>
      <trkpt lat="46.96753" lon="5.88619">
        <ele>797.9</ele>
        <time>2022-05-10T12:05:27Z</time>
      </trkpt>
      <trkpt lat="46.96753" lon="5.88612">
        <ele>797.7</ele>
        <time>2022-05-10T12:05:35Z</time>
      </trkpt>
      <trkpt lat="46.96751" lon="5.88605">
        <ele>797.4</ele>
        <time>2022-05-10T12:05:43Z</time>
      </trkpt>
      <trkpt lat="46.96748" lon="5.886">
        <ele>797.7</ele>
        <time>2022-05-10T12:05:47Z</time>
      </trkpt>
      <trkpt lat="46.9675" lon="5.88594">
        <ele>798.9</ele>
        <time>2022-05-10T12:05:55Z</time>
      </trkpt>
      <trkpt lat="46.96754" lon="5.88589">
        <ele>800</ele>
        <time>2022-05-10T12:06:01Z</time>
      </trkpt>
      <trkpt lat="46.96754" lon="5.88582">
        <ele>800.7</ele>
        <time>2022-05-10T12:06:10Z</time>
      </trkpt>
      <trkpt lat="46.96754" lon="5.88575">
        <ele>798.7</ele>
        <time>2022-05-10T12:06:25Z</time>
      </trkpt>
      <trkpt lat="46.96754" lon="5.88566">
        <ele>796.8</ele>
        <time>2022-05-10T12:06:34Z</time>
      </trkpt>
      <trkpt lat="46.96753" lon="5.88558">
        <ele>797.1</ele>
        <time>2022-05-10T12:06:38Z</time>
      </trkpt>
      <trkpt lat="46.96752" lon="5.88552">
        <ele>797.8</ele>
        <time>2022-05-10T12:06:45Z</time>
      </trkpt>
      <trkpt lat="46.96749" lon="5.88546">
        <ele>806</ele>
        <time>2022-05-10T12:08:20Z</time>
      </trkpt>
      <trkpt lat="46.9675" lon="5.88539">
        <ele>805.5</ele>
        <time>2022-05-10T12:08:26Z</time>
      </trkpt>
      <trkpt lat="46.9675" lon="5.88532">
        <ele>804.7</ele>
        <time>2022-05-10T12:08:33Z</time>
      </trkpt>
      <trkpt lat="46.9675" lon="5.88525">
        <ele>803.8</ele>
        <time>2022-05-10T12:08:39Z</time>
      </trkpt>
      <trkpt lat="46.96751" lon="5.88517">
        <ele>803.2</ele>
        <time>2022-05-10T12:08:49Z</time>
      </trkpt>
      <trkpt lat="46.96752" lon="5.8851">
        <ele>803.4</ele>
        <time>2022-05-10T12:08:52Z</time>
      </trkpt>
      <trkpt lat="46.96751" lon="5.88503">
        <ele>804.1</ele>
        <time>2022-05-10T12:08:57Z</time>
      </trkpt>
      <trkpt lat="46.96749" lon="5.88495">
        <ele>804.8</ele>
        <time>2022-05-10T12:09:02Z</time>
      </trkpt>
      <trkpt lat="46.96747" lon="5.8849">
        <ele>805.9</ele>
        <time>2022-05-10T12:09:08Z</time>
      </trkpt>
      <trkpt lat="46.96744" lon="5.88483">
        <ele>807</ele>
        <time>2022-05-10T12:09:13Z</time>
      </trkpt>
      <trkpt lat="46.96742" lon="5.88476">
        <ele>807.9</ele>
        <time>2022-05-10T12:09:18Z</time>
      </trkpt>
      <trkpt lat="46.96739" lon="5.88469">
        <ele>808.5</ele>
        <time>2022-05-10T12:09:22Z</time>
      </trkpt>
      <trkpt lat="46.96736" lon="5.88463">
        <ele>809</ele>
        <time>2022-05-10T12:09:26Z</time>
      </trkpt>
      <trkpt lat="46.96734" lon="5.88456">
        <ele>809.8</ele>
        <time>2022-05-10T12:09:31Z</time>
      </trkpt>
      <trkpt lat="46.96731" lon="5.88451">
        <ele>810.8</ele>
        <time>2022-05-10T12:09:40Z</time>
      </trkpt>
      <trkpt lat="46.96728" lon="5.88443">
        <ele>811</ele>
        <time>2022-05-10T12:09:56Z</time>
      </trkpt>
      <trkpt lat="46.96727" lon="5.88434">
        <ele>810.7</ele>
        <time>2022-05-10T12:09:59Z</time>
      </trkpt>
      <trkpt lat="46.96723" lon="5.88428">
        <ele>810.4</ele>
        <time>2022-05-10T12:10:04Z</time>
      </trkpt>
      <trkpt lat="46.9672" lon="5.88423">
        <ele>810.2</ele>
        <time>2022-05-10T12:10:08Z</time>
      </trkpt>
      <trkpt lat="46.96717" lon="5.88416">
        <ele>810.5</ele>
        <time>2022-05-10T12:10:13Z</time>
      </trkpt>
      <trkpt lat="46.96715" lon="5.8841">
        <ele>810.5</ele>
        <time>2022-05-10T12:10:16Z</time>
      </trkpt>
      <trkpt lat="46.96713" lon="5.88402">
        <ele>810.2</ele>
        <time>2022-05-10T12:10:21Z</time>
      </trkpt>
      <trkpt lat="46.96712" lon="5.88395">
        <ele>809.9</ele>
        <time>2022-05-10T12:10:25Z</time>
      </trkpt>
      <trkpt lat="46.96711" lon="5.88389">
        <ele>810.1</ele>
        <time>2022-05-10T12:10:34Z</time>
      </trkpt>
      <trkpt lat="46.96714" lon="5.88382">
        <ele>808.9</ele>
        <time>2022-05-10T12:10:42Z</time>
      </trkpt>
      <trkpt lat="46.96715" lon="5.88374">
        <ele>808.4</ele>
        <time>2022-05-10T12:10:47Z</time>
      </trkpt>
      <trkpt lat="46.96718" lon="5.88368">
        <ele>807.4</ele>
        <time>2022-05-10T12:10:55Z</time>
      </trkpt>
      <trkpt lat="46.9672" lon="5.88361">
        <ele>806.7</ele>
        <time>2022-05-10T12:11:02Z</time>
      </trkpt>
      <trkpt lat="46.9672" lon="5.88353">
        <ele>806.2</ele>
        <time>2022-05-10T12:11:06Z</time>
      </trkpt>
      <trkpt lat="46.9672" lon="5.88346">
        <ele>805.6</ele>
        <time>2022-05-10T12:11:11Z</time>
      </trkpt>
      <trkpt lat="46.96722" lon="5.8834">
        <ele>804.8</ele>
        <time>2022-05-10T12:11:20Z</time>
      </trkpt>
      <trkpt lat="46.96723" lon="5.88333">
        <ele>803.7</ele>
        <time>2022-05-10T12:11:38Z</time>
      </trkpt>
      <trkpt lat="46.96726" lon="5.88326">
        <ele>803</ele>
        <time>2022-05-10T12:11:44Z</time>
      </trkpt>
      <trkpt lat="46.96728" lon="5.8832">
        <ele>802.3</ele>
        <time>2022-05-10T12:11:52Z</time>
      </trkpt>
      <trkpt lat="46.96728" lon="5.88313">
        <ele>802</ele>
        <time>2022-05-10T12:12:00Z</time>
      </trkpt>
      <trkpt lat="46.96725" lon="5.88308">
        <ele>802.3</ele>
        <time>2022-05-10T12:12:10Z</time>
      </trkpt>
      <trkpt lat="46.96729" lon="5.88304">
        <ele>801.6</ele>
        <time>2022-05-10T12:12:23Z</time>
      </trkpt>
      <trkpt lat="46.96734" lon="5.88306">
        <ele>800.9</ele>
        <time>2022-05-10T12:12:33Z</time>
      </trkpt>
      <trkpt lat="46.96738" lon="5.88309">
        <ele>800.2</ele>
        <time>2022-05-10T12:12:39Z</time>
      </trkpt>
      <trkpt lat="46.96739" lon="5.88303">
        <ele>796.8</ele>
        <time>2022-05-10T12:12:56Z</time>
      </trkpt>
      <trkpt lat="46.96742" lon="5.88297">
        <ele>795.9</ele>
        <time>2022-05-10T12:13:03Z</time>
      </trkpt>
      <trkpt lat="46.96747" lon="5.88295">
        <ele>796.3</ele>
        <time>2022-05-10T12:13:20Z</time>
      </trkpt>
      <trkpt lat="46.9675" lon="5.88289">
        <ele>796.3</ele>
        <time>2022-05-10T12:13:24Z</time>
      </trkpt>
      <trkpt lat="46.96749" lon="5.88282">
        <ele>796.6</ele>
        <time>2022-05-10T12:13:32Z</time>
      </trkpt>
      <trkpt lat="46.96745" lon="5.88278">
        <ele>796.1</ele>
        <time>2022-05-10T12:13:43Z</time>
      </trkpt>
      <trkpt lat="46.96749" lon="5.88273">
        <ele>794.9</ele>
        <time>2022-05-10T12:13:52Z</time>
      </trkpt>
      <trkpt lat="46.96753" lon="5.88271">
        <ele>794.8</ele>
        <time>2022-05-10T12:14:01Z</time>
      </trkpt>
      <trkpt lat="46.96759" lon="5.88273">
        <ele>792.6</ele>
        <time>2022-05-10T12:14:20Z</time>
      </trkpt>
      <trkpt lat="46.96765" lon="5.88274">
        <ele>791.6</ele>
        <time>2022-05-10T12:14:24Z</time>
      </trkpt>
      <trkpt lat="46.9677" lon="5.88272">
        <ele>790.6</ele>
        <time>2022-05-10T12:14:30Z</time>
      </trkpt>
      <trkpt lat="46.96774" lon="5.88269">
        <ele>790.5</ele>
        <time>2022-05-10T12:14:34Z</time>
      </trkpt>
      <trkpt lat="46.96779" lon="5.88268">
        <ele>790.2</ele>
        <time>2022-05-10T12:14:40Z</time>
      </trkpt>
      <trkpt lat="46.96783" lon="5.88265">
        <ele>789.9</ele>
        <time>2022-05-10T12:14:48Z</time>
      </trkpt>
      <trkpt lat="46.96788" lon="5.88263">
        <ele>789.6</ele>
        <time>2022-05-10T12:14:52Z</time>
      </trkpt>
      <trkpt lat="46.96793" lon="5.88261">
        <ele>789.4</ele>
        <time>2022-05-10T12:14:57Z</time>
      </trkpt>
      <trkpt lat="46.96788" lon="5.88263">
        <ele>788.9</ele>
        <time>2022-05-10T12:15:07Z</time>
      </trkpt>
      <trkpt lat="46.96792" lon="5.88268">
        <ele>788.3</ele>
        <time>2022-05-10T12:15:16Z</time>
      </trkpt>
      <trkpt lat="46.96795" lon="5.88273">
        <ele>788</ele>
        <time>2022-05-10T12:15:21Z</time>
      </trkpt>
      <trkpt lat="46.968" lon="5.88275">
        <ele>787.4</ele>
        <time>2022-05-10T12:15:27Z</time>
      </trkpt>
      <trkpt lat="46.96808" lon="5.88277">
        <ele>785.9</ele>
        <time>2022-05-10T12:15:42Z</time>
      </trkpt>
      <trkpt lat="46.96814" lon="5.88277">
        <ele>785.1</ele>
        <time>2022-05-10T12:15:45Z</time>
      </trkpt>
      <trkpt lat="46.96819" lon="5.88276">
        <ele>784</ele>
        <time>2022-05-10T12:15:49Z</time>
      </trkpt>
      <trkpt lat="46.96824" lon="5.88277">
        <ele>783</ele>
        <time>2022-05-10T12:15:53Z</time>
      </trkpt>
      <trkpt lat="46.96829" lon="5.88277">
        <ele>781.5</ele>
        <time>2022-05-10T12:15:59Z</time>
      </trkpt>
      <trkpt lat="46.96834" lon="5.8828">
        <ele>779.7</ele>
        <time>2022-05-10T12:16:13Z</time>
      </trkpt>
      <trkpt lat="46.96838" lon="5.88284">
        <ele>779.1</ele>
        <time>2022-05-10T12:16:20Z</time>
      </trkpt>
      <trkpt lat="46.96842" lon="5.88286">
        <ele>778.9</ele>
        <time>2022-05-10T12:16:27Z</time>
      </trkpt>
      <trkpt lat="46.96848" lon="5.88287">
        <ele>779.2</ele>
        <time>2022-05-10T12:16:36Z</time>
      </trkpt>
      <trkpt lat="46.96852" lon="5.88286">
        <ele>779.6</ele>
        <time>2022-05-10T12:16:40Z</time>
      </trkpt>
      <trkpt lat="46.96857" lon="5.88285">
        <ele>779.7</ele>
        <time>2022-05-10T12:16:45Z</time>
      </trkpt>
      <trkpt lat="46.96862" lon="5.88284">
        <ele>779.9</ele>
        <time>2022-05-10T12:16:52Z</time>
      </trkpt>
      <trkpt lat="46.96866" lon="5.88287">
        <ele>779.8</ele>
        <time>2022-05-10T12:16:59Z</time>
      </trkpt>
      <trkpt lat="46.96871" lon="5.88289">
        <ele>780</ele>
        <time>2022-05-10T12:17:07Z</time>
      </trkpt>
      <trkpt lat="46.96872" lon="5.88283">
        <ele>780.3</ele>
        <time>2022-05-10T12:17:26Z</time>
      </trkpt>
      <trkpt lat="46.96873" lon="5.88276">
        <ele>779.9</ele>
        <time>2022-05-10T12:17:32Z</time>
      </trkpt>
      <trkpt lat="46.96877" lon="5.88271">
        <ele>778.9</ele>
        <time>2022-05-10T12:17:42Z</time>
      </trkpt>
      <trkpt lat="46.96877" lon="5.88264">
        <ele>777.9</ele>
        <time>2022-05-10T12:17:52Z</time>
      </trkpt>
      <trkpt lat="46.96878" lon="5.88257">
        <ele>777.5</ele>
        <time>2022-05-10T12:17:59Z</time>
      </trkpt>
      <trkpt lat="46.96881" lon="5.88252">
        <ele>777.4</ele>
        <time>2022-05-10T12:18:05Z</time>
      </trkpt>
      <trkpt lat="46.96886" lon="5.8825">
        <ele>777.3</ele>
        <time>2022-05-10T12:18:14Z</time>
      </trkpt>
      <trkpt lat="46.96892" lon="5.8825">
        <ele>776.8</ele>
        <time>2022-05-10T12:18:23Z</time>
      </trkpt>
      <trkpt lat="46.96897" lon="5.88245">
        <ele>776.4</ele>
        <time>2022-05-10T12:18:33Z</time>
      </trkpt>
      <trkpt lat="46.96902" lon="5.88242">
        <ele>776.3</ele>
        <time>2022-05-10T12:18:37Z</time>
      </trkpt>
      <trkpt lat="46.96913" lon="5.8824">
        <ele>776.3</ele>
        <time>2022-05-10T12:18:40Z</time>
      </trkpt>
      <trkpt lat="46.96919" lon="5.8824">
        <ele>776</ele>
        <time>2022-05-10T12:18:43Z</time>
      </trkpt>
      <trkpt lat="46.96924" lon="5.88238">
        <ele>775.8</ele>
        <time>2022-05-10T12:18:49Z</time>
      </trkpt>
      <trkpt lat="46.9693" lon="5.88238">
        <ele>775.8</ele>
        <time>2022-05-10T12:18:52Z</time>
      </trkpt>
      <trkpt lat="46.96935" lon="5.88238">
        <ele>775.5</ele>
        <time>2022-05-10T12:18:55Z</time>
      </trkpt>
      <trkpt lat="46.96939" lon="5.88239">
        <ele>775.1</ele>
        <time>2022-05-10T12:18:59Z</time>
      </trkpt>
      <trkpt lat="46.96944" lon="5.8824">
        <ele>774.5</ele>
        <time>2022-05-10T12:19:05Z</time>
      </trkpt>
      <trkpt lat="46.96949" lon="5.88239">
        <ele>773.6</ele>
        <time>2022-05-10T12:19:12Z</time>
      </trkpt>
      <trkpt lat="46.96954" lon="5.88238">
        <ele>773</ele>
        <time>2022-05-10T12:19:17Z</time>
      </trkpt>
      <trkpt lat="46.96958" lon="5.88235">
        <ele>772.7</ele>
        <time>2022-05-10T12:19:20Z</time>
      </trkpt>
      <trkpt lat="46.96963" lon="5.88233">
        <ele>772</ele>
        <time>2022-05-10T12:19:26Z</time>
      </trkpt>
      <trkpt lat="46.96967" lon="5.88236">
        <ele>771.4</ele>
        <time>2022-05-10T12:19:32Z</time>
      </trkpt>
      <trkpt lat="46.96974" lon="5.88237">
        <ele>771</ele>
        <time>2022-05-10T12:19:35Z</time>
      </trkpt>
      <trkpt lat="46.96979" lon="5.88237">
        <ele>770.6</ele>
        <time>2022-05-10T12:19:38Z</time>
      </trkpt>
      <trkpt lat="46.96985" lon="5.88238">
        <ele>770.1</ele>
        <time>2022-05-10T12:19:43Z</time>
      </trkpt>
      <trkpt lat="46.96989" lon="5.88239">
        <ele>770</ele>
        <time>2022-05-10T12:19:47Z</time>
      </trkpt>
      <trkpt lat="46.96995" lon="5.88239">
        <ele>770.1</ele>
        <time>2022-05-10T12:19:51Z</time>
      </trkpt>
      <trkpt lat="46.96999" lon="5.88241">
        <ele>771.2</ele>
        <time>2022-05-10T12:20:01Z</time>
      </trkpt>
      <trkpt lat="46.97002" lon="5.88235">
        <ele>774.5</ele>
        <time>2022-05-10T12:20:36Z</time>
      </trkpt>
      <trkpt lat="46.97006" lon="5.88236">
        <ele>774.7</ele>
        <time>2022-05-10T12:20:47Z</time>
      </trkpt>
      <trkpt lat="46.97005" lon="5.88229">
        <ele>779.5</ele>
        <time>2022-05-10T12:21:09Z</time>
      </trkpt>
      <trkpt lat="46.97002" lon="5.88222">
        <ele>779.4</ele>
        <time>2022-05-10T12:21:17Z</time>
      </trkpt>
      <trkpt lat="46.97002" lon="5.88215">
        <ele>772.6</ele>
        <time>2022-05-10T12:21:47Z</time>
      </trkpt>
      <trkpt lat="46.97001" lon="5.88208">
        <ele>771.2</ele>
        <time>2022-05-10T12:21:54Z</time>
      </trkpt>
      <trkpt lat="46.97003" lon="5.882">
        <ele>770</ele>
        <time>2022-05-10T12:22:02Z</time>
      </trkpt>
      <trkpt lat="46.97006" lon="5.88194">
        <ele>769.7</ele>
        <time>2022-05-10T12:22:07Z</time>
      </trkpt>
      <trkpt lat="46.97008" lon="5.88188">
        <ele>769.7</ele>
        <time>2022-05-10T12:22:14Z</time>
      </trkpt>
      <trkpt lat="46.9701" lon="5.88182">
        <ele>769.8</ele>
        <time>2022-05-10T12:22:18Z</time>
      </trkpt>
      <trkpt lat="46.97014" lon="5.88176">
        <ele>769.9</ele>
        <time>2022-05-10T12:22:23Z</time>
      </trkpt>
      <trkpt lat="46.97014" lon="5.88169">
        <ele>770.3</ele>
        <time>2022-05-10T12:22:31Z</time>
      </trkpt>
      <trkpt lat="46.97012" lon="5.88163">
        <ele>770.5</ele>
        <time>2022-05-10T12:22:35Z</time>
      </trkpt>
      <trkpt lat="46.9701" lon="5.88156">
        <ele>770.7</ele>
        <time>2022-05-10T12:22:39Z</time>
      </trkpt>
      <trkpt lat="46.97009" lon="5.88149">
        <ele>770.7</ele>
        <time>2022-05-10T12:22:45Z</time>
      </trkpt>
      <trkpt lat="46.97012" lon="5.88143">
        <ele>770.2</ele>
        <time>2022-05-10T12:22:51Z</time>
      </trkpt>
      <trkpt lat="46.9701" lon="5.88136">
        <ele>770.3</ele>
        <time>2022-05-10T12:22:58Z</time>
      </trkpt>
      <trkpt lat="46.97007" lon="5.88129">
        <ele>770.9</ele>
        <time>2022-05-10T12:23:05Z</time>
      </trkpt>
      <trkpt lat="46.97004" lon="5.88123">
        <ele>771.6</ele>
        <time>2022-05-10T12:23:10Z</time>
      </trkpt>
      <trkpt lat="46.97002" lon="5.88116">
        <ele>772</ele>
        <time>2022-05-10T12:23:16Z</time>
      </trkpt>
      <trkpt lat="46.97002" lon="5.88109">
        <ele>772.4</ele>
        <time>2022-05-10T12:23:22Z</time>
      </trkpt>
      <trkpt lat="46.97001" lon="5.88102">
        <ele>772.7</ele>
        <time>2022-05-10T12:23:27Z</time>
      </trkpt>
      <trkpt lat="46.96999" lon="5.88096">
        <ele>773</ele>
        <time>2022-05-10T12:23:34Z</time>
      </trkpt>
      <trkpt lat="46.96997" lon="5.88091">
        <ele>773.4</ele>
        <time>2022-05-10T12:23:46Z</time>
      </trkpt>
      <trkpt lat="46.96998" lon="5.88084">
        <ele>773.7</ele>
        <time>2022-05-10T12:23:56Z</time>
      </trkpt>
      <trkpt lat="46.96997" lon="5.88077">
        <ele>774.1</ele>
        <time>2022-05-10T12:24:05Z</time>
      </trkpt>
      <trkpt lat="46.96997" lon="5.8807">
        <ele>774.3</ele>
        <time>2022-05-10T12:24:09Z</time>
      </trkpt>
      <trkpt lat="46.96995" lon="5.88063">
        <ele>774.4</ele>
        <time>2022-05-10T12:24:14Z</time>
      </trkpt>
      <trkpt lat="46.96993" lon="5.88056">
        <ele>774.7</ele>
        <time>2022-05-10T12:24:20Z</time>
      </trkpt>
      <trkpt lat="46.96992" lon="5.88048">
        <ele>775.2</ele>
        <time>2022-05-10T12:24:26Z</time>
      </trkpt>
      <trkpt lat="46.96988" lon="5.88039">
        <ele>776.4</ele>
        <time>2022-05-10T12:24:49Z</time>
      </trkpt>
      <trkpt lat="46.96986" lon="5.88031">
        <ele>776.9</ele>
        <time>2022-05-10T12:24:52Z</time>
      </trkpt>
      <trkpt lat="46.96984" lon="5.88024">
        <ele>777.5</ele>
        <time>2022-05-10T12:24:56Z</time>
      </trkpt>
      <trkpt lat="46.96984" lon="5.88018">
        <ele>778.1</ele>
        <time>2022-05-10T12:25:04Z</time>
      </trkpt>
      <trkpt lat="46.96982" lon="5.88011">
        <ele>778</ele>
        <time>2022-05-10T12:25:10Z</time>
      </trkpt>
      <trkpt lat="46.9698" lon="5.88005">
        <ele>778.2</ele>
        <time>2022-05-10T12:25:21Z</time>
      </trkpt>
      <trkpt lat="46.9698" lon="5.87998">
        <ele>778.1</ele>
        <time>2022-05-10T12:25:26Z</time>
      </trkpt>
      <trkpt lat="46.9698" lon="5.8799">
        <ele>777.7</ele>
        <time>2022-05-10T12:25:33Z</time>
      </trkpt>
      <trkpt lat="46.9698" lon="5.87983">
        <ele>777.1</ele>
        <time>2022-05-10T12:25:38Z</time>
      </trkpt>
      <trkpt lat="46.96984" lon="5.87983">
        <ele>775.4</ele>
        <time>2022-05-10T12:25:48Z</time>
      </trkpt>
      <trkpt lat="46.96985" lon="5.87977">
        <ele>774.6</ele>
        <time>2022-05-10T12:25:58Z</time>
      </trkpt>
      <trkpt lat="46.96981" lon="5.87973">
        <ele>774.8</ele>
        <time>2022-05-10T12:26:08Z</time>
      </trkpt>
      <trkpt lat="46.96977" lon="5.87967">
        <ele>775.3</ele>
        <time>2022-05-10T12:26:12Z</time>
      </trkpt>
      <trkpt lat="46.96975" lon="5.87961">
        <ele>775.9</ele>
        <time>2022-05-10T12:26:16Z</time>
      </trkpt>
      <trkpt lat="46.96973" lon="5.87954">
        <ele>776.7</ele>
        <time>2022-05-10T12:26:23Z</time>
      </trkpt>
      <trkpt lat="46.96971" lon="5.87948">
        <ele>777.3</ele>
        <time>2022-05-10T12:26:34Z</time>
      </trkpt>
      <trkpt lat="46.96968" lon="5.87941">
        <ele>777.4</ele>
        <time>2022-05-10T12:26:39Z</time>
      </trkpt>
      <trkpt lat="46.96966" lon="5.87935">
        <ele>777.8</ele>
        <time>2022-05-10T12:26:43Z</time>
      </trkpt>
      <trkpt lat="46.96963" lon="5.87928">
        <ele>778.1</ele>
        <time>2022-05-10T12:26:49Z</time>
      </trkpt>
      <trkpt lat="46.9696" lon="5.87922">
        <ele>778.3</ele>
        <time>2022-05-10T12:26:52Z</time>
      </trkpt>
      <trkpt lat="46.96956" lon="5.87916">
        <ele>778.1</ele>
        <time>2022-05-10T12:26:57Z</time>
      </trkpt>
      <trkpt lat="46.96956" lon="5.8791">
        <ele>778.1</ele>
        <time>2022-05-10T12:27:04Z</time>
      </trkpt>
      <trkpt lat="46.96956" lon="5.87903">
        <ele>777.9</ele>
        <time>2022-05-10T12:27:11Z</time>
      </trkpt>
      <trkpt lat="46.96955" lon="5.87896">
        <ele>777.8</ele>
        <time>2022-05-10T12:27:15Z</time>
      </trkpt>
      <trkpt lat="46.96953" lon="5.87889">
        <ele>777.7</ele>
        <time>2022-05-10T12:27:20Z</time>
      </trkpt>
      <trkpt lat="46.96953" lon="5.87882">
        <ele>777.9</ele>
        <time>2022-05-10T12:27:24Z</time>
      </trkpt>
      <trkpt lat="46.96952" lon="5.87876">
        <ele>778.2</ele>
        <time>2022-05-10T12:27:29Z</time>
      </trkpt>
      <trkpt lat="46.9695" lon="5.87869">
        <ele>778.6</ele>
        <time>2022-05-10T12:27:33Z</time>
      </trkpt>
      <trkpt lat="46.96948" lon="5.87862">
        <ele>779.2</ele>
        <time>2022-05-10T12:27:38Z</time>
      </trkpt>
      <trkpt lat="46.96946" lon="5.87855">
        <ele>779.9</ele>
        <time>2022-05-10T12:27:45Z</time>
      </trkpt>
      <trkpt lat="46.96948" lon="5.87844">
        <ele>780.2</ele>
        <time>2022-05-10T12:27:56Z</time>
      </trkpt>
      <trkpt lat="46.96949" lon="5.87837">
        <ele>780.1</ele>
        <time>2022-05-10T12:27:59Z</time>
      </trkpt>
      <trkpt lat="46.96948" lon="5.8783">
        <ele>779.7</ele>
        <time>2022-05-10T12:28:04Z</time>
      </trkpt>
      <trkpt lat="46.96946" lon="5.87824">
        <ele>779.7</ele>
        <time>2022-05-10T12:28:08Z</time>
      </trkpt>
      <trkpt lat="46.96945" lon="5.87817">
        <ele>779.9</ele>
        <time>2022-05-10T12:28:14Z</time>
      </trkpt>
      <trkpt lat="46.96945" lon="5.87809">
        <ele>780.3</ele>
        <time>2022-05-10T12:28:21Z</time>
      </trkpt>
      <trkpt lat="46.96944" lon="5.87803">
        <ele>780.8</ele>
        <time>2022-05-10T12:28:30Z</time>
      </trkpt>
      <trkpt lat="46.96941" lon="5.87797">
        <ele>780.8</ele>
        <time>2022-05-10T12:28:37Z</time>
      </trkpt>
      <trkpt lat="46.96937" lon="5.87792">
        <ele>780.9</ele>
        <time>2022-05-10T12:28:43Z</time>
      </trkpt>
      <trkpt lat="46.96936" lon="5.87785">
        <ele>781.5</ele>
        <time>2022-05-10T12:28:55Z</time>
      </trkpt>
      <trkpt lat="46.96936" lon="5.87778">
        <ele>781.7</ele>
        <time>2022-05-10T12:29:00Z</time>
      </trkpt>
      <trkpt lat="46.96933" lon="5.87771">
        <ele>782.2</ele>
        <time>2022-05-10T12:29:06Z</time>
      </trkpt>
      <trkpt lat="46.96931" lon="5.87764">
        <ele>784</ele>
        <time>2022-05-10T12:29:11Z</time>
      </trkpt>
      <trkpt lat="46.96932" lon="5.87757">
        <ele>786.6</ele>
        <time>2022-05-10T12:29:18Z</time>
      </trkpt>
      <trkpt lat="46.96934" lon="5.87751">
        <ele>788.9</ele>
        <time>2022-05-10T12:29:25Z</time>
      </trkpt>
      <trkpt lat="46.96938" lon="5.87747">
        <ele>792.3</ele>
        <time>2022-05-10T12:30:02Z</time>
      </trkpt>
      <trkpt lat="46.96933" lon="5.87748">
        <ele>798</ele>
        <time>2022-05-10T12:30:35Z</time>
      </trkpt>
      <trkpt lat="46.9693" lon="5.87754">
        <ele>799.3</ele>
        <time>2022-05-10T12:30:40Z</time>
      </trkpt>
      <trkpt lat="46.96927" lon="5.87746">
        <ele>802.7</ele>
        <time>2022-05-10T12:31:14Z</time>
      </trkpt>
      <trkpt lat="46.96927" lon="5.8774">
        <ele>804.1</ele>
        <time>2022-05-10T12:31:18Z</time>
      </trkpt>
      <trkpt lat="46.96925" lon="5.87733">
        <ele>804.9</ele>
        <time>2022-05-10T12:31:26Z</time>
      </trkpt>
      <trkpt lat="46.96924" lon="5.87725">
        <ele>805.5</ele>
        <time>2022-05-10T12:31:33Z</time>
      </trkpt>
      <trkpt lat="46.96923" lon="5.87719">
        <ele>806.1</ele>
        <time>2022-05-10T12:31:39Z</time>
      </trkpt>
      <trkpt lat="46.96923" lon="5.87712">
        <ele>808.7</ele>
        <time>2022-05-10T12:32:08Z</time>
      </trkpt>
      <trkpt lat="46.9692" lon="5.87706">
        <ele>807.1</ele>
        <time>2022-05-10T12:32:52Z</time>
      </trkpt>
      <trkpt lat="46.96917" lon="5.877">
        <ele>807.3</ele>
        <time>2022-05-10T12:32:56Z</time>
      </trkpt>
      <trkpt lat="46.96916" lon="5.87693">
        <ele>807.5</ele>
        <time>2022-05-10T12:33:02Z</time>
      </trkpt>
      <trkpt lat="46.96915" lon="5.87686">
        <ele>808.3</ele>
        <time>2022-05-10T12:33:11Z</time>
      </trkpt>
      <trkpt lat="46.96916" lon="5.8768">
        <ele>808.7</ele>
        <time>2022-05-10T12:33:22Z</time>
      </trkpt>
      <trkpt lat="46.96913" lon="5.87674">
        <ele>809.1</ele>
        <time>2022-05-10T12:33:27Z</time>
      </trkpt>
      <trkpt lat="46.96913" lon="5.87667">
        <ele>811.4</ele>
        <time>2022-05-10T12:33:38Z</time>
      </trkpt>
      <trkpt lat="46.96913" lon="5.8766">
        <ele>813.2</ele>
        <time>2022-05-10T12:33:48Z</time>
      </trkpt>
      <trkpt lat="46.96913" lon="5.87653">
        <ele>813.9</ele>
        <time>2022-05-10T12:33:53Z</time>
      </trkpt>
      <trkpt lat="46.96914" lon="5.87646">
        <ele>818.2</ele>
        <time>2022-05-10T12:34:31Z</time>
      </trkpt>
      <trkpt lat="46.96915" lon="5.87639">
        <ele>822</ele>
        <time>2022-05-10T12:34:44Z</time>
      </trkpt>
      <trkpt lat="46.96913" lon="5.87633">
        <ele>823.1</ele>
        <time>2022-05-10T12:34:58Z</time>
      </trkpt>
      <trkpt lat="46.96915" lon="5.87627">
        <ele>822.8</ele>
        <time>2022-05-10T12:35:27Z</time>
      </trkpt>
      <trkpt lat="46.96917" lon="5.8762">
        <ele>822.5</ele>
        <time>2022-05-10T12:35:33Z</time>
      </trkpt>
      <trkpt lat="46.96916" lon="5.87613">
        <ele>822.2</ele>
        <time>2022-05-10T12:35:40Z</time>
      </trkpt>
      <trkpt lat="46.96917" lon="5.87606">
        <ele>822.5</ele>
        <time>2022-05-10T12:35:48Z</time>
      </trkpt>
      <trkpt lat="46.96918" lon="5.87599">
        <ele>822.2</ele>
        <time>2022-05-10T12:36:02Z</time>
      </trkpt>
      <trkpt lat="46.96918" lon="5.87592">
        <ele>821.7</ele>
        <time>2022-05-10T12:36:07Z</time>
      </trkpt>
      <trkpt lat="46.96917" lon="5.87585">
        <ele>821.3</ele>
        <time>2022-05-10T12:36:11Z</time>
      </trkpt>
      <trkpt lat="46.96914" lon="5.87579">
        <ele>820.3</ele>
        <time>2022-05-10T12:36:17Z</time>
      </trkpt>
      <trkpt lat="46.96915" lon="5.87572">
        <ele>818.4</ele>
        <time>2022-05-10T12:36:26Z</time>
      </trkpt>
      <trkpt lat="46.96915" lon="5.87566">
        <ele>818.1</ele>
        <time>2022-05-10T12:36:31Z</time>
      </trkpt>
      <trkpt lat="46.96917" lon="5.87559">
        <ele>817.3</ele>
        <time>2022-05-10T12:36:38Z</time>
      </trkpt>
      <trkpt lat="46.9692" lon="5.87554">
        <ele>816</ele>
        <time>2022-05-10T12:36:43Z</time>
      </trkpt>
      <trkpt lat="46.96922" lon="5.87547">
        <ele>814.7</ele>
        <time>2022-05-10T12:36:48Z</time>
      </trkpt>
      <trkpt lat="46.96922" lon="5.8754">
        <ele>814</ele>
        <time>2022-05-10T12:36:53Z</time>
      </trkpt>
      <trkpt lat="46.96923" lon="5.87534">
        <ele>813.8</ele>
        <time>2022-05-10T12:36:59Z</time>
      </trkpt>
      <trkpt lat="46.96923" lon="5.87527">
        <ele>814.1</ele>
        <time>2022-05-10T12:37:06Z</time>
      </trkpt>
      <trkpt lat="46.96928" lon="5.87522">
        <ele>814.9</ele>
        <time>2022-05-10T12:37:13Z</time>
      </trkpt>
      <trkpt lat="46.96923" lon="5.87518">
        <ele>817.6</ele>
        <time>2022-05-10T12:37:23Z</time>
      </trkpt>
      <trkpt lat="46.9692" lon="5.87512">
        <ele>818.6</ele>
        <time>2022-05-10T12:37:27Z</time>
      </trkpt>
      <trkpt lat="46.96922" lon="5.87506">
        <ele>819</ele>
        <time>2022-05-10T12:37:30Z</time>
      </trkpt>
      <trkpt lat="46.96926" lon="5.87501">
        <ele>819.5</ele>
        <time>2022-05-10T12:37:35Z</time>
      </trkpt>
      <trkpt lat="46.96927" lon="5.87494">
        <ele>820.8</ele>
        <time>2022-05-10T12:37:42Z</time>
      </trkpt>
      <trkpt lat="46.9693" lon="5.8749">
        <ele>821.1</ele>
        <time>2022-05-10T12:37:47Z</time>
      </trkpt>
      <trkpt lat="46.96927" lon="5.87484">
        <ele>819</ele>
        <time>2022-05-10T12:37:55Z</time>
      </trkpt>
      <trkpt lat="46.96923" lon="5.87481">
        <ele>816</ele>
        <time>2022-05-10T12:38:11Z</time>
      </trkpt>
      <trkpt lat="46.96928" lon="5.8748">
        <ele>816.6</ele>
        <time>2022-05-10T12:38:30Z</time>
      </trkpt>
      <trkpt lat="46.96933" lon="5.87481">
        <ele>815.7</ele>
        <time>2022-05-10T12:38:35Z</time>
      </trkpt>
      <trkpt lat="46.96935" lon="5.87474">
        <ele>815.1</ele>
        <time>2022-05-10T12:38:39Z</time>
      </trkpt>
      <trkpt lat="46.96939" lon="5.87478">
        <ele>813.1</ele>
        <time>2022-05-10T12:38:49Z</time>
      </trkpt>
      <trkpt lat="46.96941" lon="5.8747">
        <ele>813.1</ele>
        <time>2022-05-10T12:38:59Z</time>
      </trkpt>
      <trkpt lat="46.96944" lon="5.87464">
        <ele>813</ele>
        <time>2022-05-10T12:39:03Z</time>
      </trkpt>
      <trkpt lat="46.96947" lon="5.87459">
        <ele>813.1</ele>
        <time>2022-05-10T12:39:07Z</time>
      </trkpt>
      <trkpt lat="46.96952" lon="5.87461">
        <ele>812.6</ele>
        <time>2022-05-10T12:39:11Z</time>
      </trkpt>
      <trkpt lat="46.96956" lon="5.87469">
        <ele>806.1</ele>
        <time>2022-05-10T12:39:34Z</time>
      </trkpt>
      <trkpt lat="46.96957" lon="5.87476">
        <ele>805.3</ele>
        <time>2022-05-10T12:39:40Z</time>
      </trkpt>
      <trkpt lat="46.96952" lon="5.87476">
        <ele>806.3</ele>
        <time>2022-05-10T12:39:46Z</time>
      </trkpt>
      <trkpt lat="46.96948" lon="5.87473">
        <ele>806.8</ele>
        <time>2022-05-10T12:39:53Z</time>
      </trkpt>
      <trkpt lat="46.96943" lon="5.8747">
        <ele>807.2</ele>
        <time>2022-05-10T12:39:58Z</time>
      </trkpt>
      <trkpt lat="46.96947" lon="5.87474">
        <ele>808.5</ele>
        <time>2022-05-10T12:40:11Z</time>
      </trkpt>
      <trkpt lat="46.96952" lon="5.87473">
        <ele>807.6</ele>
        <time>2022-05-10T12:40:19Z</time>
      </trkpt>
      <trkpt lat="46.96957" lon="5.87469">
        <ele>806.8</ele>
        <time>2022-05-10T12:40:23Z</time>
      </trkpt>
      <trkpt lat="46.96961" lon="5.8747">
        <ele>806.1</ele>
        <time>2022-05-10T12:40:28Z</time>
      </trkpt>
      <trkpt lat="46.96966" lon="5.87471">
        <ele>805.9</ele>
        <time>2022-05-10T12:40:32Z</time>
      </trkpt>
      <trkpt lat="46.9697" lon="5.87467">
        <ele>806.4</ele>
        <time>2022-05-10T12:40:37Z</time>
      </trkpt>
      <trkpt lat="46.96973" lon="5.87472">
        <ele>806.3</ele>
        <time>2022-05-10T12:40:48Z</time>
      </trkpt>
      <trkpt lat="46.96971" lon="5.87478">
        <ele>808.2</ele>
        <time>2022-05-10T12:40:56Z</time>
      </trkpt>
      <trkpt lat="46.96974" lon="5.87484">
        <ele>811.6</ele>
        <time>2022-05-10T12:41:04Z</time>
      </trkpt>
      <trkpt lat="46.96977" lon="5.87478">
        <ele>810.1</ele>
        <time>2022-05-10T12:41:21Z</time>
      </trkpt>
      <trkpt lat="46.96981" lon="5.87471">
        <ele>809.3</ele>
        <time>2022-05-10T12:41:25Z</time>
      </trkpt>
      <trkpt lat="46.96983" lon="5.87466">
        <ele>810</ele>
        <time>2022-05-10T12:41:30Z</time>
      </trkpt>
      <trkpt lat="46.96989" lon="5.87463">
        <ele>811.5</ele>
        <time>2022-05-10T12:41:45Z</time>
      </trkpt>
      <trkpt lat="46.96991" lon="5.87458">
        <ele>810.3</ele>
        <time>2022-05-10T12:41:52Z</time>
      </trkpt>
      <trkpt lat="46.96995" lon="5.87453">
        <ele>809.1</ele>
        <time>2022-05-10T12:41:58Z</time>
      </trkpt>
      <trkpt lat="46.96996" lon="5.87447">
        <ele>808.2</ele>
        <time>2022-05-10T12:42:04Z</time>
      </trkpt>
      <trkpt lat="46.96995" lon="5.8744">
        <ele>806.8</ele>
        <time>2022-05-10T12:42:11Z</time>
      </trkpt>
      <trkpt lat="46.96995" lon="5.87433">
        <ele>806.9</ele>
        <time>2022-05-10T12:42:15Z</time>
      </trkpt>
      <trkpt lat="46.96999" lon="5.87432">
        <ele>806.9</ele>
        <time>2022-05-10T12:42:26Z</time>
      </trkpt>
      <trkpt lat="46.97" lon="5.8744">
        <ele>805.6</ele>
        <time>2022-05-10T12:42:37Z</time>
      </trkpt>
      <trkpt lat="46.97003" lon="5.87445">
        <ele>805.1</ele>
        <time>2022-05-10T12:42:42Z</time>
      </trkpt>
      <trkpt lat="46.97008" lon="5.87445">
        <ele>806.1</ele>
        <time>2022-05-10T12:42:49Z</time>
      </trkpt>
      <trkpt lat="46.97012" lon="5.87447">
        <ele>806.4</ele>
        <time>2022-05-10T12:42:54Z</time>
      </trkpt>
      <trkpt lat="46.97017" lon="5.87448">
        <ele>806.5</ele>
        <time>2022-05-10T12:43:00Z</time>
      </trkpt>
      <trkpt lat="46.97018" lon="5.87455">
        <ele>806</ele>
        <time>2022-05-10T12:43:05Z</time>
      </trkpt>
      <trkpt lat="46.97021" lon="5.87461">
        <ele>805.2</ele>
        <time>2022-05-10T12:43:10Z</time>
      </trkpt>
      <trkpt lat="46.97025" lon="5.87464">
        <ele>804.6</ele>
        <time>2022-05-10T12:43:14Z</time>
      </trkpt>
      <trkpt lat="46.97026" lon="5.8747">
        <ele>803.3</ele>
        <time>2022-05-10T12:43:24Z</time>
      </trkpt>
      <trkpt lat="46.97029" lon="5.87478">
        <ele>803.1</ele>
        <time>2022-05-10T12:43:32Z</time>
      </trkpt>
      <trkpt lat="46.9703" lon="5.87485">
        <ele>802.7</ele>
        <time>2022-05-10T12:43:38Z</time>
      </trkpt>
      <trkpt lat="46.9703" lon="5.87492">
        <ele>802.5</ele>
        <time>2022-05-10T12:43:44Z</time>
      </trkpt>
      <trkpt lat="46.97031" lon="5.87499">
        <ele>802.8</ele>
        <time>2022-05-10T12:43:53Z</time>
      </trkpt>
      <trkpt lat="46.97032" lon="5.87506">
        <ele>804.4</ele>
        <time>2022-05-10T12:43:59Z</time>
      </trkpt>
      <trkpt lat="46.97035" lon="5.87511">
        <ele>805.8</ele>
        <time>2022-05-10T12:44:03Z</time>
      </trkpt>
      <trkpt lat="46.97038" lon="5.87516">
        <ele>807.5</ele>
        <time>2022-05-10T12:44:08Z</time>
      </trkpt>
      <trkpt lat="46.97042" lon="5.87522">
        <ele>808.3</ele>
        <time>2022-05-10T12:44:12Z</time>
      </trkpt>
      <trkpt lat="46.97045" lon="5.87528">
        <ele>808.7</ele>
        <time>2022-05-10T12:44:15Z</time>
      </trkpt>
      <trkpt lat="46.97048" lon="5.87533">
        <ele>808.5</ele>
        <time>2022-05-10T12:44:19Z</time>
      </trkpt>
      <trkpt lat="46.9705" lon="5.8754">
        <ele>808.1</ele>
        <time>2022-05-10T12:44:25Z</time>
      </trkpt>
      <trkpt lat="46.97053" lon="5.87545">
        <ele>807.4</ele>
        <time>2022-05-10T12:44:32Z</time>
      </trkpt>
      <trkpt lat="46.97056" lon="5.8755">
        <ele>807</ele>
        <time>2022-05-10T12:44:37Z</time>
      </trkpt>
      <trkpt lat="46.97059" lon="5.87556">
        <ele>806.8</ele>
        <time>2022-05-10T12:44:42Z</time>
      </trkpt>
      <trkpt lat="46.97061" lon="5.87562">
        <ele>806.8</ele>
        <time>2022-05-10T12:44:46Z</time>
      </trkpt>
      <trkpt lat="46.97064" lon="5.87568">
        <ele>807.1</ele>
        <time>2022-05-10T12:44:51Z</time>
      </trkpt>
      <trkpt lat="46.97064" lon="5.87575">
        <ele>808.9</ele>
        <time>2022-05-10T12:45:04Z</time>
      </trkpt>
      <trkpt lat="46.97067" lon="5.87582">
        <ele>809.5</ele>
        <time>2022-05-10T12:45:12Z</time>
      </trkpt>
      <trkpt lat="46.9707" lon="5.87586">
        <ele>809.6</ele>
        <time>2022-05-10T12:45:19Z</time>
      </trkpt>
      <trkpt lat="46.97075" lon="5.87585">
        <ele>809.3</ele>
        <time>2022-05-10T12:45:25Z</time>
      </trkpt>
      <trkpt lat="46.9708" lon="5.87585">
        <ele>809.4</ele>
        <time>2022-05-10T12:45:29Z</time>
      </trkpt>
      <trkpt lat="46.97084" lon="5.87588">
        <ele>809.1</ele>
        <time>2022-05-10T12:45:37Z</time>
      </trkpt>
      <trkpt lat="46.9709" lon="5.87587">
        <ele>807.5</ele>
        <time>2022-05-10T12:45:53Z</time>
      </trkpt>
      <trkpt lat="46.97095" lon="5.87584">
        <ele>806.9</ele>
        <time>2022-05-10T12:45:57Z</time>
      </trkpt>
      <trkpt lat="46.97099" lon="5.87581">
        <ele>806.2</ele>
        <time>2022-05-10T12:46:02Z</time>
      </trkpt>
      <trkpt lat="46.97104" lon="5.87581">
        <ele>804.8</ele>
        <time>2022-05-10T12:46:09Z</time>
      </trkpt>
      <trkpt lat="46.97108" lon="5.87585">
        <ele>803.3</ele>
        <time>2022-05-10T12:46:16Z</time>
      </trkpt>
      <trkpt lat="46.97112" lon="5.87588">
        <ele>803.3</ele>
        <time>2022-05-10T12:46:36Z</time>
      </trkpt>
      <trkpt lat="46.97117" lon="5.87592">
        <ele>803.6</ele>
        <time>2022-05-10T12:46:41Z</time>
      </trkpt>
      <trkpt lat="46.97119" lon="5.87599">
        <ele>801.8</ele>
        <time>2022-05-10T12:46:47Z</time>
      </trkpt>
      <trkpt lat="46.97121" lon="5.87606">
        <ele>800.2</ele>
        <time>2022-05-10T12:46:52Z</time>
      </trkpt>
      <trkpt lat="46.97124" lon="5.87612">
        <ele>799.6</ele>
        <time>2022-05-10T12:46:56Z</time>
      </trkpt>
      <trkpt lat="46.97128" lon="5.87619">
        <ele>800.3</ele>
        <time>2022-05-10T12:47:00Z</time>
      </trkpt>
      <trkpt lat="46.9713" lon="5.87625">
        <ele>802.2</ele>
        <time>2022-05-10T12:47:05Z</time>
      </trkpt>
      <trkpt lat="46.97132" lon="5.87632">
        <ele>804</ele>
        <time>2022-05-10T12:47:11Z</time>
      </trkpt>
      <trkpt lat="46.97133" lon="5.8764">
        <ele>805</ele>
        <time>2022-05-10T12:47:17Z</time>
      </trkpt>
      <trkpt lat="46.97136" lon="5.87646">
        <ele>805.1</ele>
        <time>2022-05-10T12:47:23Z</time>
      </trkpt>
      <trkpt lat="46.97138" lon="5.87652">
        <ele>805.4</ele>
        <time>2022-05-10T12:47:29Z</time>
      </trkpt>
      <trkpt lat="46.9714" lon="5.87659">
        <ele>805.4</ele>
        <time>2022-05-10T12:47:35Z</time>
      </trkpt>
      <trkpt lat="46.97139" lon="5.87665">
        <ele>805.3</ele>
        <time>2022-05-10T12:47:41Z</time>
      </trkpt>
      <trkpt lat="46.9714" lon="5.87671">
        <ele>805.4</ele>
        <time>2022-05-10T12:47:48Z</time>
      </trkpt>
      <trkpt lat="46.9714" lon="5.87679">
        <ele>805.5</ele>
        <time>2022-05-10T12:47:57Z</time>
      </trkpt>
      <trkpt lat="46.97141" lon="5.87687">
        <ele>806</ele>
        <time>2022-05-10T12:48:03Z</time>
      </trkpt>
      <trkpt lat="46.97142" lon="5.87694">
        <ele>805.6</ele>
        <time>2022-05-10T12:48:09Z</time>
      </trkpt>
      <trkpt lat="46.97142" lon="5.87701">
        <ele>804.9</ele>
        <time>2022-05-10T12:48:15Z</time>
      </trkpt>
      <trkpt lat="46.97146" lon="5.87706">
        <ele>805.9</ele>
        <time>2022-05-10T12:48:29Z</time>
      </trkpt>
      <trkpt lat="46.97147" lon="5.87713">
        <ele>807.8</ele>
        <time>2022-05-10T12:48:35Z</time>
      </trkpt>
      <trkpt lat="46.97147" lon="5.8772">
        <ele>808.7</ele>
        <time>2022-05-10T12:48:45Z</time>
      </trkpt>
      <trkpt lat="46.97149" lon="5.87726">
        <ele>807</ele>
        <time>2022-05-10T12:49:04Z</time>
      </trkpt>
      <trkpt lat="46.97151" lon="5.87733">
        <ele>806.4</ele>
        <time>2022-05-10T12:49:10Z</time>
      </trkpt>
      <trkpt lat="46.97153" lon="5.87741">
        <ele>806.9</ele>
        <time>2022-05-10T12:49:15Z</time>
      </trkpt>
      <trkpt lat="46.97153" lon="5.87747">
        <ele>807.6</ele>
        <time>2022-05-10T12:49:24Z</time>
      </trkpt>
      <trkpt lat="46.97154" lon="5.87754">
        <ele>807.1</ele>
        <time>2022-05-10T12:49:34Z</time>
      </trkpt>
      <trkpt lat="46.97158" lon="5.87759">
        <ele>805.1</ele>
        <time>2022-05-10T12:49:52Z</time>
      </trkpt>
      <trkpt lat="46.97161" lon="5.87765">
        <ele>804.9</ele>
        <time>2022-05-10T12:49:57Z</time>
      </trkpt>
      <trkpt lat="46.97161" lon="5.87771">
        <ele>805</ele>
        <time>2022-05-10T12:50:03Z</time>
      </trkpt>
      <trkpt lat="46.97165" lon="5.87775">
        <ele>805.4</ele>
        <time>2022-05-10T12:50:11Z</time>
      </trkpt>
      <trkpt lat="46.97169" lon="5.87777">
        <ele>805.9</ele>
        <time>2022-05-10T12:50:49Z</time>
      </trkpt>
      <trkpt lat="46.97164" lon="5.87776">
        <ele>806.5</ele>
        <time>2022-05-10T12:51:53Z</time>
      </trkpt>
      <trkpt lat="46.97159" lon="5.87776">
        <ele>806.3</ele>
        <time>2022-05-10T12:51:57Z</time>
      </trkpt>
      <trkpt lat="46.97155" lon="5.87776">
        <ele>805.8</ele>
        <time>2022-05-10T12:52:03Z</time>
      </trkpt>
      <trkpt lat="46.97151" lon="5.8778">
        <ele>805.3</ele>
        <time>2022-05-10T12:52:23Z</time>
      </trkpt>
      <trkpt lat="46.97146" lon="5.8778">
        <ele>806.6</ele>
        <time>2022-05-10T12:52:31Z</time>
      </trkpt>
      <trkpt lat="46.97142" lon="5.87783">
        <ele>806.9</ele>
        <time>2022-05-10T12:52:38Z</time>
      </trkpt>
      <trkpt lat="46.97138" lon="5.87788">
        <ele>807.4</ele>
        <time>2022-05-10T12:52:44Z</time>
      </trkpt>
      <trkpt lat="46.97135" lon="5.87794">
        <ele>807.8</ele>
        <time>2022-05-10T12:52:50Z</time>
      </trkpt>
      <trkpt lat="46.97132" lon="5.87799">
        <ele>808</ele>
        <time>2022-05-10T12:52:55Z</time>
      </trkpt>
      <trkpt lat="46.97128" lon="5.87804">
        <ele>808.8</ele>
        <time>2022-05-10T12:53:00Z</time>
      </trkpt>
      <trkpt lat="46.97125" lon="5.8781">
        <ele>809.6</ele>
        <time>2022-05-10T12:53:05Z</time>
      </trkpt>
      <trkpt lat="46.97123" lon="5.87815">
        <ele>810.9</ele>
        <time>2022-05-10T12:53:10Z</time>
      </trkpt>
      <trkpt lat="46.97118" lon="5.87813">
        <ele>812</ele>
        <time>2022-05-10T12:53:26Z</time>
      </trkpt>
      <trkpt lat="46.97122" lon="5.87815">
        <ele>814.7</ele>
        <time>2022-05-10T12:56:15Z</time>
      </trkpt>
      <trkpt lat="46.97127" lon="5.87813">
        <ele>815.5</ele>
        <time>2022-05-10T12:56:20Z</time>
      </trkpt>
      <trkpt lat="46.9713" lon="5.87808">
        <ele>815.4</ele>
        <time>2022-05-10T12:56:26Z</time>
      </trkpt>
      <trkpt lat="46.97132" lon="5.87801">
        <ele>815.3</ele>
        <time>2022-05-10T12:56:34Z</time>
      </trkpt>
      <trkpt lat="46.97137" lon="5.87799">
        <ele>814</ele>
        <time>2022-05-10T12:56:49Z</time>
      </trkpt>
      <trkpt lat="46.97139" lon="5.87793">
        <ele>813</ele>
        <time>2022-05-10T12:56:54Z</time>
      </trkpt>
      <trkpt lat="46.97143" lon="5.87787">
        <ele>812.1</ele>
        <time>2022-05-10T12:56:59Z</time>
      </trkpt>
      <trkpt lat="46.97146" lon="5.87782">
        <ele>810.3</ele>
        <time>2022-05-10T12:57:05Z</time>
      </trkpt>
      <trkpt lat="46.97149" lon="5.87775">
        <ele>808.3</ele>
        <time>2022-05-10T12:57:11Z</time>
      </trkpt>
      <trkpt lat="46.97151" lon="5.87769">
        <ele>806.8</ele>
        <time>2022-05-10T12:57:18Z</time>
      </trkpt>
      <trkpt lat="46.97155" lon="5.87766">
        <ele>806.4</ele>
        <time>2022-05-10T12:57:23Z</time>
      </trkpt>
      <trkpt lat="46.97159" lon="5.8776">
        <ele>806.2</ele>
        <time>2022-05-10T12:57:29Z</time>
      </trkpt>
      <trkpt lat="46.97158" lon="5.87754">
        <ele>806.4</ele>
        <time>2022-05-10T12:57:34Z</time>
      </trkpt>
      <trkpt lat="46.97156" lon="5.87746">
        <ele>806.5</ele>
        <time>2022-05-10T12:57:39Z</time>
      </trkpt>
      <trkpt lat="46.97153" lon="5.8774">
        <ele>806.6</ele>
        <time>2022-05-10T12:57:43Z</time>
      </trkpt>
      <trkpt lat="46.97152" lon="5.87733">
        <ele>806.1</ele>
        <time>2022-05-10T12:57:48Z</time>
      </trkpt>
      <trkpt lat="46.97151" lon="5.87726">
        <ele>805.3</ele>
        <time>2022-05-10T12:57:55Z</time>
      </trkpt>
      <trkpt lat="46.9715" lon="5.87719">
        <ele>805.7</ele>
        <time>2022-05-10T12:58:02Z</time>
      </trkpt>
      <trkpt lat="46.97147" lon="5.87712">
        <ele>805.9</ele>
        <time>2022-05-10T12:58:08Z</time>
      </trkpt>
      <trkpt lat="46.97148" lon="5.87706">
        <ele>805.2</ele>
        <time>2022-05-10T12:58:16Z</time>
      </trkpt>
      <trkpt lat="46.97148" lon="5.87699">
        <ele>803.1</ele>
        <time>2022-05-10T12:58:30Z</time>
      </trkpt>
      <trkpt lat="46.97149" lon="5.87692">
        <ele>801.6</ele>
        <time>2022-05-10T12:59:01Z</time>
      </trkpt>
      <trkpt lat="46.97151" lon="5.87685">
        <ele>801</ele>
        <time>2022-05-10T12:59:08Z</time>
      </trkpt>
      <trkpt lat="46.97153" lon="5.87679">
        <ele>800.8</ele>
        <time>2022-05-10T12:59:15Z</time>
      </trkpt>
      <trkpt lat="46.97154" lon="5.87672">
        <ele>800.5</ele>
        <time>2022-05-10T12:59:21Z</time>
      </trkpt>
      <trkpt lat="46.97152" lon="5.87664">
        <ele>799.6</ele>
        <time>2022-05-10T12:59:28Z</time>
      </trkpt>
      <trkpt lat="46.97151" lon="5.87657">
        <ele>798.9</ele>
        <time>2022-05-10T12:59:33Z</time>
      </trkpt>
      <trkpt lat="46.97153" lon="5.8765">
        <ele>797.2</ele>
        <time>2022-05-10T12:59:43Z</time>
      </trkpt>
      <trkpt lat="46.97153" lon="5.87644">
        <ele>797</ele>
        <time>2022-05-10T12:59:48Z</time>
      </trkpt>
      <trkpt lat="46.97152" lon="5.87637">
        <ele>796.9</ele>
        <time>2022-05-10T12:59:54Z</time>
      </trkpt>
      <trkpt lat="46.97151" lon="5.8763">
        <ele>796.6</ele>
        <time>2022-05-10T13:00:02Z</time>
      </trkpt>
      <trkpt lat="46.97152" lon="5.87623">
        <ele>795.3</ele>
        <time>2022-05-10T13:00:09Z</time>
      </trkpt>
      <trkpt lat="46.9715" lon="5.87617">
        <ele>793.9</ele>
        <time>2022-05-10T13:00:17Z</time>
      </trkpt>
      <trkpt lat="46.97148" lon="5.8761">
        <ele>793.4</ele>
        <time>2022-05-10T13:00:23Z</time>
      </trkpt>
      <trkpt lat="46.97145" lon="5.87604">
        <ele>792.4</ele>
        <time>2022-05-10T13:00:30Z</time>
      </trkpt>
      <trkpt lat="46.97143" lon="5.87598">
        <ele>791.7</ele>
        <time>2022-05-10T13:00:37Z</time>
      </trkpt>
      <trkpt lat="46.9714" lon="5.87591">
        <ele>791.7</ele>
        <time>2022-05-10T13:00:42Z</time>
      </trkpt>
      <trkpt lat="46.97137" lon="5.87586">
        <ele>791.9</ele>
        <time>2022-05-10T13:00:50Z</time>
      </trkpt>
      <trkpt lat="46.97134" lon="5.8758">
        <ele>790.1</ele>
        <time>2022-05-10T13:01:02Z</time>
      </trkpt>
      <trkpt lat="46.97134" lon="5.87573">
        <ele>788.8</ele>
        <time>2022-05-10T13:01:07Z</time>
      </trkpt>
      <trkpt lat="46.97131" lon="5.87568">
        <ele>786.5</ele>
        <time>2022-05-10T13:01:17Z</time>
      </trkpt>
      <trkpt lat="46.97131" lon="5.87561">
        <ele>787.7</ele>
        <time>2022-05-10T13:01:54Z</time>
      </trkpt>
      <trkpt lat="46.97127" lon="5.87556">
        <ele>788.3</ele>
        <time>2022-05-10T13:02:07Z</time>
      </trkpt>
      <trkpt lat="46.97123" lon="5.87551">
        <ele>788.1</ele>
        <time>2022-05-10T13:02:11Z</time>
      </trkpt>
      <trkpt lat="46.97121" lon="5.87545">
        <ele>787.6</ele>
        <time>2022-05-10T13:02:15Z</time>
      </trkpt>
      <trkpt lat="46.9712" lon="5.87538">
        <ele>787.4</ele>
        <time>2022-05-10T13:02:19Z</time>
      </trkpt>
      <trkpt lat="46.97122" lon="5.87531">
        <ele>787.1</ele>
        <time>2022-05-10T13:02:24Z</time>
      </trkpt>
      <trkpt lat="46.97121" lon="5.87524">
        <ele>785.6</ele>
        <time>2022-05-10T13:02:32Z</time>
      </trkpt>
      <trkpt lat="46.97117" lon="5.87519">
        <ele>784.9</ele>
        <time>2022-05-10T13:02:36Z</time>
      </trkpt>
      <trkpt lat="46.97113" lon="5.87517">
        <ele>784.4</ele>
        <time>2022-05-10T13:02:39Z</time>
      </trkpt>
      <trkpt lat="46.97117" lon="5.87517">
        <ele>783</ele>
        <time>2022-05-10T13:02:52Z</time>
      </trkpt>
      <trkpt lat="46.97114" lon="5.8751">
        <ele>783.2</ele>
        <time>2022-05-10T13:02:59Z</time>
      </trkpt>
      <trkpt lat="46.97111" lon="5.87506">
        <ele>783.3</ele>
        <time>2022-05-10T13:03:02Z</time>
      </trkpt>
      <trkpt lat="46.97106" lon="5.87502">
        <ele>783.2</ele>
        <time>2022-05-10T13:03:07Z</time>
      </trkpt>
      <trkpt lat="46.97107" lon="5.87495">
        <ele>782.2</ele>
        <time>2022-05-10T13:03:14Z</time>
      </trkpt>
      <trkpt lat="46.97107" lon="5.87487">
        <ele>782.6</ele>
        <time>2022-05-10T13:03:23Z</time>
      </trkpt>
      <trkpt lat="46.97107" lon="5.8748">
        <ele>782.9</ele>
        <time>2022-05-10T13:03:27Z</time>
      </trkpt>
      <trkpt lat="46.97102" lon="5.87478">
        <ele>783.6</ele>
        <time>2022-05-10T13:03:36Z</time>
      </trkpt>
      <trkpt lat="46.97099" lon="5.87473">
        <ele>781.7</ele>
        <time>2022-05-10T13:03:44Z</time>
      </trkpt>
      <trkpt lat="46.97096" lon="5.87467">
        <ele>779.8</ele>
        <time>2022-05-10T13:03:50Z</time>
      </trkpt>
      <trkpt lat="46.97091" lon="5.87465">
        <ele>778.1</ele>
        <time>2022-05-10T13:03:55Z</time>
      </trkpt>
      <trkpt lat="46.97088" lon="5.87459">
        <ele>775.2</ele>
        <time>2022-05-10T13:04:02Z</time>
      </trkpt>
      <trkpt lat="46.97084" lon="5.87455">
        <ele>772.9</ele>
        <time>2022-05-10T13:04:09Z</time>
      </trkpt>
      <trkpt lat="46.97081" lon="5.8745">
        <ele>771.5</ele>
        <time>2022-05-10T13:04:16Z</time>
      </trkpt>
      <trkpt lat="46.97077" lon="5.87446">
        <ele>771.1</ele>
        <time>2022-05-10T13:04:22Z</time>
      </trkpt>
      <trkpt lat="46.97073" lon="5.87441">
        <ele>770.3</ele>
        <time>2022-05-10T13:04:29Z</time>
      </trkpt>
      <trkpt lat="46.97071" lon="5.87435">
        <ele>769.1</ele>
        <time>2022-05-10T13:04:34Z</time>
      </trkpt>
      <trkpt lat="46.97067" lon="5.87429">
        <ele>768.3</ele>
        <time>2022-05-10T13:04:40Z</time>
      </trkpt>
      <trkpt lat="46.97062" lon="5.87427">
        <ele>768.3</ele>
        <time>2022-05-10T13:04:45Z</time>
      </trkpt>
      <trkpt lat="46.97057" lon="5.87424">
        <ele>768.5</ele>
        <time>2022-05-10T13:04:51Z</time>
      </trkpt>
      <trkpt lat="46.97054" lon="5.8742">
        <ele>767.4</ele>
        <time>2022-05-10T13:04:59Z</time>
      </trkpt>
      <trkpt lat="46.97055" lon="5.87413">
        <ele>766.3</ele>
        <time>2022-05-10T13:05:06Z</time>
      </trkpt>
      <trkpt lat="46.97055" lon="5.87406">
        <ele>765.9</ele>
        <time>2022-05-10T13:05:11Z</time>
      </trkpt>
      <trkpt lat="46.97055" lon="5.87399">
        <ele>766.5</ele>
        <time>2022-05-10T13:05:22Z</time>
      </trkpt>
      <trkpt lat="46.9705" lon="5.87388">
        <ele>768.7</ele>
        <time>2022-05-10T13:05:40Z</time>
      </trkpt>
      <trkpt lat="46.97046" lon="5.87382">
        <ele>768.3</ele>
        <time>2022-05-10T13:05:43Z</time>
      </trkpt>
      <trkpt lat="46.97042" lon="5.87378">
        <ele>767.3</ele>
        <time>2022-05-10T13:05:47Z</time>
      </trkpt>
      <trkpt lat="46.97038" lon="5.87374">
        <ele>764.7</ele>
        <time>2022-05-10T13:05:54Z</time>
      </trkpt>
      <trkpt lat="46.97037" lon="5.87368">
        <ele>762.7</ele>
        <time>2022-05-10T13:06:02Z</time>
      </trkpt>
      <trkpt lat="46.97041" lon="5.87366">
        <ele>761.7</ele>
        <time>2022-05-10T13:06:15Z</time>
      </trkpt>
      <trkpt lat="46.97045" lon="5.87362">
        <ele>761</ele>
        <time>2022-05-10T13:06:24Z</time>
      </trkpt>
      <trkpt lat="46.97048" lon="5.87357">
        <ele>759.8</ele>
        <time>2022-05-10T13:06:31Z</time>
      </trkpt>
      <trkpt lat="46.97053" lon="5.87356">
        <ele>756.8</ele>
        <time>2022-05-10T13:06:43Z</time>
      </trkpt>
      <trkpt lat="46.97058" lon="5.87359">
        <ele>754.7</ele>
        <time>2022-05-10T13:06:49Z</time>
      </trkpt>
      <trkpt lat="46.97063" lon="5.87359">
        <ele>752.6</ele>
        <time>2022-05-10T13:06:56Z</time>
      </trkpt>
      <trkpt lat="46.97068" lon="5.8736">
        <ele>752.1</ele>
        <time>2022-05-10T13:07:02Z</time>
      </trkpt>
      <trkpt lat="46.97072" lon="5.87357">
        <ele>749.6</ele>
        <time>2022-05-10T13:07:14Z</time>
      </trkpt>
      <trkpt lat="46.97077" lon="5.87356">
        <ele>749.1</ele>
        <time>2022-05-10T13:07:19Z</time>
      </trkpt>
      <trkpt lat="46.97082" lon="5.87356">
        <ele>748.9</ele>
        <time>2022-05-10T13:07:24Z</time>
      </trkpt>
      <trkpt lat="46.97086" lon="5.87359">
        <ele>747.1</ele>
        <time>2022-05-10T13:07:35Z</time>
      </trkpt>
      <trkpt lat="46.9709" lon="5.87363">
        <ele>745.6</ele>
        <time>2022-05-10T13:07:47Z</time>
      </trkpt>
      <trkpt lat="46.97094" lon="5.87367">
        <ele>744.1</ele>
        <time>2022-05-10T13:07:53Z</time>
      </trkpt>
      <trkpt lat="46.97098" lon="5.87371">
        <ele>741.3</ele>
        <time>2022-05-10T13:08:02Z</time>
      </trkpt>
      <trkpt lat="46.97102" lon="5.87376">
        <ele>739.1</ele>
        <time>2022-05-10T13:08:09Z</time>
      </trkpt>
      <trkpt lat="46.97107" lon="5.87379">
        <ele>736.8</ele>
        <time>2022-05-10T13:08:17Z</time>
      </trkpt>
      <trkpt lat="46.97111" lon="5.87377">
        <ele>735.4</ele>
        <time>2022-05-10T13:08:25Z</time>
      </trkpt>
      <trkpt lat="46.97116" lon="5.87372">
        <ele>734.9</ele>
        <time>2022-05-10T13:08:35Z</time>
      </trkpt>
      <trkpt lat="46.97119" lon="5.87368">
        <ele>734.2</ele>
        <time>2022-05-10T13:08:40Z</time>
      </trkpt>
      <trkpt lat="46.97121" lon="5.87362">
        <ele>733.4</ele>
        <time>2022-05-10T13:08:46Z</time>
      </trkpt>
      <trkpt lat="46.97124" lon="5.87356">
        <ele>733.2</ele>
        <time>2022-05-10T13:08:53Z</time>
      </trkpt>
      <trkpt lat="46.97124" lon="5.87349">
        <ele>732.7</ele>
        <time>2022-05-10T13:08:59Z</time>
      </trkpt>
      <trkpt lat="46.97122" lon="5.87343">
        <ele>731</ele>
        <time>2022-05-10T13:09:08Z</time>
      </trkpt>
      <trkpt lat="46.97119" lon="5.87337">
        <ele>730</ele>
        <time>2022-05-10T13:09:14Z</time>
      </trkpt>
      <trkpt lat="46.97117" lon="5.87329">
        <ele>729.4</ele>
        <time>2022-05-10T13:09:18Z</time>
      </trkpt>
      <trkpt lat="46.97114" lon="5.87323">
        <ele>728.6</ele>
        <time>2022-05-10T13:09:23Z</time>
      </trkpt>
      <trkpt lat="46.97114" lon="5.87316">
        <ele>727.1</ele>
        <time>2022-05-10T13:09:31Z</time>
      </trkpt>
      <trkpt lat="46.97117" lon="5.87311">
        <ele>725.6</ele>
        <time>2022-05-10T13:09:38Z</time>
      </trkpt>
      <trkpt lat="46.97119" lon="5.87304">
        <ele>720.8</ele>
        <time>2022-05-10T13:09:59Z</time>
      </trkpt>
      <trkpt lat="46.97122" lon="5.87298">
        <ele>719.6</ele>
        <time>2022-05-10T13:10:03Z</time>
      </trkpt>
      <trkpt lat="46.97126" lon="5.87296">
        <ele>718.5</ele>
        <time>2022-05-10T13:10:09Z</time>
      </trkpt>
      <trkpt lat="46.9713" lon="5.873">
        <ele>717.8</ele>
        <time>2022-05-10T13:10:14Z</time>
      </trkpt>
      <trkpt lat="46.97132" lon="5.87309">
        <ele>716.1</ele>
        <time>2022-05-10T13:10:32Z</time>
      </trkpt>
      <trkpt lat="46.97132" lon="5.87315">
        <ele>716</ele>
        <time>2022-05-10T13:10:35Z</time>
      </trkpt>
      <trkpt lat="46.97135" lon="5.87321">
        <ele>715.4</ele>
        <time>2022-05-10T13:10:44Z</time>
      </trkpt>
      <trkpt lat="46.9714" lon="5.87321">
        <ele>714.8</ele>
        <time>2022-05-10T13:10:49Z</time>
      </trkpt>
      <trkpt lat="46.97142" lon="5.87314">
        <ele>715.5</ele>
        <time>2022-05-10T13:10:56Z</time>
      </trkpt>
      <trkpt lat="46.97146" lon="5.87311">
        <ele>716.2</ele>
        <time>2022-05-10T13:11:03Z</time>
      </trkpt>
      <trkpt lat="46.9715" lon="5.87315">
        <ele>715.2</ele>
        <time>2022-05-10T13:11:10Z</time>
      </trkpt>
      <trkpt lat="46.97154" lon="5.87318">
        <ele>712.7</ele>
        <time>2022-05-10T13:11:18Z</time>
      </trkpt>
      <trkpt lat="46.97157" lon="5.87324">
        <ele>709.2</ele>
        <time>2022-05-10T13:11:27Z</time>
      </trkpt>
      <trkpt lat="46.97162" lon="5.87321">
        <ele>706.8</ele>
        <time>2022-05-10T13:11:37Z</time>
      </trkpt>
      <trkpt lat="46.97166" lon="5.87317">
        <ele>706.1</ele>
        <time>2022-05-10T13:11:41Z</time>
      </trkpt>
      <trkpt lat="46.97171" lon="5.87316">
        <ele>704.3</ele>
        <time>2022-05-10T13:11:55Z</time>
      </trkpt>
      <trkpt lat="46.97177" lon="5.87314">
        <ele>704.4</ele>
        <time>2022-05-10T13:12:05Z</time>
      </trkpt>
      <trkpt lat="46.97182" lon="5.87313">
        <ele>704.5</ele>
        <time>2022-05-10T13:12:08Z</time>
      </trkpt>
      <trkpt lat="46.97187" lon="5.87313">
        <ele>704.6</ele>
        <time>2022-05-10T13:12:13Z</time>
      </trkpt>
      <trkpt lat="46.97192" lon="5.87315">
        <ele>703.7</ele>
        <time>2022-05-10T13:12:27Z</time>
      </trkpt>
      <trkpt lat="46.97196" lon="5.87318">
        <ele>702.7</ele>
        <time>2022-05-10T13:12:31Z</time>
      </trkpt>
      <trkpt lat="46.972" lon="5.8732">
        <ele>701.9</ele>
        <time>2022-05-10T13:12:40Z</time>
      </trkpt>
      <trkpt lat="46.97204" lon="5.87318">
        <ele>701.2</ele>
        <time>2022-05-10T13:12:46Z</time>
      </trkpt>
      <trkpt lat="46.97209" lon="5.87314">
        <ele>700.1</ele>
        <time>2022-05-10T13:12:53Z</time>
      </trkpt>
      <trkpt lat="46.97204" lon="5.87313">
        <ele>698.6</ele>
        <time>2022-05-10T13:13:11Z</time>
      </trkpt>
      <trkpt lat="46.97199" lon="5.87314">
        <ele>698.3</ele>
        <time>2022-05-10T13:13:16Z</time>
      </trkpt>
      <trkpt lat="46.97201" lon="5.87308">
        <ele>693.7</ele>
        <time>2022-05-10T13:13:30Z</time>
      </trkpt>
      <trkpt lat="46.97201" lon="5.87299">
        <ele>689</ele>
        <time>2022-05-10T13:13:54Z</time>
      </trkpt>
      <trkpt lat="46.97198" lon="5.87294">
        <ele>687.7</ele>
        <time>2022-05-10T13:14:09Z</time>
      </trkpt>
      <trkpt lat="46.972" lon="5.87288">
        <ele>686.8</ele>
        <time>2022-05-10T13:14:14Z</time>
      </trkpt>
      <trkpt lat="46.972" lon="5.87281">
        <ele>684.5</ele>
        <time>2022-05-10T13:14:22Z</time>
      </trkpt>
      <trkpt lat="46.97195" lon="5.87281">
        <ele>682.1</ele>
        <time>2022-05-10T13:14:42Z</time>
      </trkpt>
      <trkpt lat="46.97196" lon="5.87274">
        <ele>682.2</ele>
        <time>2022-05-10T13:15:01Z</time>
      </trkpt>
      <trkpt lat="46.97201" lon="5.87271">
        <ele>681.3</ele>
        <time>2022-05-10T13:15:16Z</time>
      </trkpt>
      <trkpt lat="46.97203" lon="5.87265">
        <ele>681.4</ele>
        <time>2022-05-10T13:15:21Z</time>
      </trkpt>
      <trkpt lat="46.97203" lon="5.87257">
        <ele>681.6</ele>
        <time>2022-05-10T13:15:27Z</time>
      </trkpt>
      <trkpt lat="46.97209" lon="5.87247">
        <ele>680.1</ele>
        <time>2022-05-10T13:15:58Z</time>
      </trkpt>
      <trkpt lat="46.97211" lon="5.8724">
        <ele>679.8</ele>
        <time>2022-05-10T13:16:01Z</time>
      </trkpt>
      <trkpt lat="46.97216" lon="5.87238">
        <ele>677.8</ele>
        <time>2022-05-10T13:16:17Z</time>
      </trkpt>
      <trkpt lat="46.97218" lon="5.87232">
        <ele>676.2</ele>
        <time>2022-05-10T13:16:26Z</time>
      </trkpt>
      <trkpt lat="46.97222" lon="5.87227">
        <ele>673.4</ele>
        <time>2022-05-10T13:16:34Z</time>
      </trkpt>
      <trkpt lat="46.97224" lon="5.87221">
        <ele>670.8</ele>
        <time>2022-05-10T13:16:39Z</time>
      </trkpt>
      <trkpt lat="46.97224" lon="5.87213">
        <ele>664.6</ele>
        <time>2022-05-10T13:16:59Z</time>
      </trkpt>
      <trkpt lat="46.97225" lon="5.87206">
        <ele>662</ele>
        <time>2022-05-10T13:17:08Z</time>
      </trkpt>
      <trkpt lat="46.97224" lon="5.87199">
        <ele>660.1</ele>
        <time>2022-05-10T13:17:15Z</time>
      </trkpt>
      <trkpt lat="46.97225" lon="5.87192">
        <ele>658.9</ele>
        <time>2022-05-10T13:17:21Z</time>
      </trkpt>
      <trkpt lat="46.97228" lon="5.87186">
        <ele>658.3</ele>
        <time>2022-05-10T13:17:29Z</time>
      </trkpt>
      <trkpt lat="46.97225" lon="5.87182">
        <ele>658.5</ele>
        <time>2022-05-10T13:17:35Z</time>
      </trkpt>
      <trkpt lat="46.97223" lon="5.87174">
        <ele>657.9</ele>
        <time>2022-05-10T13:17:43Z</time>
      </trkpt>
      <trkpt lat="46.97222" lon="5.87166">
        <ele>656.2</ele>
        <time>2022-05-10T13:17:58Z</time>
      </trkpt>
      <trkpt lat="46.9722" lon="5.8716">
        <ele>654.8</ele>
        <time>2022-05-10T13:18:02Z</time>
      </trkpt>
      <trkpt lat="46.97219" lon="5.87153">
        <ele>653.1</ele>
        <time>2022-05-10T13:18:06Z</time>
      </trkpt>
      <trkpt lat="46.9722" lon="5.87145">
        <ele>650.3</ele>
        <time>2022-05-10T13:18:19Z</time>
      </trkpt>
      <trkpt lat="46.97222" lon="5.87139">
        <ele>649.6</ele>
        <time>2022-05-10T13:18:22Z</time>
      </trkpt>
      <trkpt lat="46.97225" lon="5.87133">
        <ele>647.6</ele>
        <time>2022-05-10T13:18:28Z</time>
      </trkpt>
      <trkpt lat="46.97224" lon="5.87127">
        <ele>645</ele>
        <time>2022-05-10T13:18:35Z</time>
      </trkpt>
      <trkpt lat="46.97224" lon="5.8712">
        <ele>643.2</ele>
        <time>2022-05-10T13:18:46Z</time>
      </trkpt>
      <trkpt lat="46.97227" lon="5.87114">
        <ele>642.6</ele>
        <time>2022-05-10T13:18:54Z</time>
      </trkpt>
      <trkpt lat="46.97229" lon="5.87108">
        <ele>640.9</ele>
        <time>2022-05-10T13:19:02Z</time>
      </trkpt>
      <trkpt lat="46.97232" lon="5.87102">
        <ele>637.5</ele>
        <time>2022-05-10T13:19:11Z</time>
      </trkpt>
      <trkpt lat="46.97237" lon="5.87099">
        <ele>634.9</ele>
        <time>2022-05-10T13:19:19Z</time>
      </trkpt>
      <trkpt lat="46.97238" lon="5.87093">
        <ele>633.2</ele>
        <time>2022-05-10T13:19:24Z</time>
      </trkpt>
      <trkpt lat="46.97242" lon="5.87088">
        <ele>631.5</ele>
        <time>2022-05-10T13:19:29Z</time>
      </trkpt>
      <trkpt lat="46.97245" lon="5.87082">
        <ele>630.1</ele>
        <time>2022-05-10T13:19:35Z</time>
      </trkpt>
      <trkpt lat="46.97248" lon="5.87076">
        <ele>629.1</ele>
        <time>2022-05-10T13:19:41Z</time>
      </trkpt>
      <trkpt lat="46.97251" lon="5.8707">
        <ele>627.5</ele>
        <time>2022-05-10T13:19:46Z</time>
      </trkpt>
      <trkpt lat="46.97254" lon="5.87065">
        <ele>626.2</ele>
        <time>2022-05-10T13:19:51Z</time>
      </trkpt>
      <trkpt lat="46.97257" lon="5.87058">
        <ele>624.8</ele>
        <time>2022-05-10T13:19:57Z</time>
      </trkpt>
      <trkpt lat="46.97261" lon="5.87055">
        <ele>623.6</ele>
        <time>2022-05-10T13:20:03Z</time>
      </trkpt>
      <trkpt lat="46.97266" lon="5.87053">
        <ele>622.9</ele>
        <time>2022-05-10T13:20:08Z</time>
      </trkpt>
      <trkpt lat="46.97271" lon="5.87054">
        <ele>622.4</ele>
        <time>2022-05-10T13:20:13Z</time>
      </trkpt>
      <trkpt lat="46.97276" lon="5.87057">
        <ele>622.1</ele>
        <time>2022-05-10T13:20:18Z</time>
      </trkpt>
      <trkpt lat="46.97281" lon="5.87057">
        <ele>621.8</ele>
        <time>2022-05-10T13:20:33Z</time>
      </trkpt>
      <trkpt lat="46.97285" lon="5.87059">
        <ele>621.4</ele>
        <time>2022-05-10T13:20:38Z</time>
      </trkpt>
      <trkpt lat="46.9729" lon="5.87061">
        <ele>621</ele>
        <time>2022-05-10T13:20:42Z</time>
      </trkpt>
      <trkpt lat="46.97298" lon="5.87064">
        <ele>620.6</ele>
        <time>2022-05-10T13:20:53Z</time>
      </trkpt>
      <trkpt lat="46.97301" lon="5.87069">
        <ele>620.7</ele>
        <time>2022-05-10T13:20:56Z</time>
      </trkpt>
      <trkpt lat="46.97305" lon="5.87072">
        <ele>620.7</ele>
        <time>2022-05-10T13:21:01Z</time>
      </trkpt>
      <trkpt lat="46.97309" lon="5.87077">
        <ele>620.6</ele>
        <time>2022-05-10T13:21:05Z</time>
      </trkpt>
      <trkpt lat="46.97314" lon="5.87079">
        <ele>620.6</ele>
        <time>2022-05-10T13:21:09Z</time>
      </trkpt>
      <trkpt lat="46.97318" lon="5.87079">
        <ele>620.3</ele>
        <time>2022-05-10T13:21:14Z</time>
      </trkpt>
      <trkpt lat="46.97321" lon="5.87083">
        <ele>619.3</ele>
        <time>2022-05-10T13:21:20Z</time>
      </trkpt>
      <trkpt lat="46.97324" lon="5.87089">
        <ele>618.6</ele>
        <time>2022-05-10T13:21:25Z</time>
      </trkpt>
      <trkpt lat="46.97329" lon="5.8709">
        <ele>618.4</ele>
        <time>2022-05-10T13:21:30Z</time>
      </trkpt>
      <trkpt lat="46.97333" lon="5.87093">
        <ele>618.6</ele>
        <time>2022-05-10T13:21:34Z</time>
      </trkpt>
      <trkpt lat="46.97338" lon="5.87095">
        <ele>619</ele>
        <time>2022-05-10T13:21:38Z</time>
      </trkpt>
      <trkpt lat="46.97342" lon="5.87098">
        <ele>619.6</ele>
        <time>2022-05-10T13:21:43Z</time>
      </trkpt>
      <trkpt lat="46.97347" lon="5.87101">
        <ele>620.3</ele>
        <time>2022-05-10T13:21:48Z</time>
      </trkpt>
      <trkpt lat="46.97352" lon="5.871">
        <ele>620.5</ele>
        <time>2022-05-10T13:21:51Z</time>
      </trkpt>
      <trkpt lat="46.97357" lon="5.87101">
        <ele>620.5</ele>
        <time>2022-05-10T13:21:56Z</time>
      </trkpt>
      <trkpt lat="46.97362" lon="5.87101">
        <ele>620.9</ele>
        <time>2022-05-10T13:22:02Z</time>
      </trkpt>
      <trkpt lat="46.97367" lon="5.87102">
        <ele>620.7</ele>
        <time>2022-05-10T13:22:08Z</time>
      </trkpt>
      <trkpt lat="46.97371" lon="5.87106">
        <ele>620.1</ele>
        <time>2022-05-10T13:22:12Z</time>
      </trkpt>
      <trkpt lat="46.97375" lon="5.8711">
        <ele>619.3</ele>
        <time>2022-05-10T13:22:17Z</time>
      </trkpt>
      <trkpt lat="46.9738" lon="5.87111">
        <ele>618.2</ele>
        <time>2022-05-10T13:22:22Z</time>
      </trkpt>
      <trkpt lat="46.97384" lon="5.87114">
        <ele>617</ele>
        <time>2022-05-10T13:22:27Z</time>
      </trkpt>
      <trkpt lat="46.97388" lon="5.8712">
        <ele>615.4</ele>
        <time>2022-05-10T13:22:33Z</time>
      </trkpt>
      <trkpt lat="46.97392" lon="5.87124">
        <ele>614.3</ele>
        <time>2022-05-10T13:22:38Z</time>
      </trkpt>
      <trkpt lat="46.97397" lon="5.87128">
        <ele>613.4</ele>
        <time>2022-05-10T13:22:43Z</time>
      </trkpt>
      <trkpt lat="46.97401" lon="5.87131">
        <ele>612.7</ele>
        <time>2022-05-10T13:22:47Z</time>
      </trkpt>
      <trkpt lat="46.97406" lon="5.87135">
        <ele>612.2</ele>
        <time>2022-05-10T13:22:51Z</time>
      </trkpt>
      <trkpt lat="46.97408" lon="5.87142">
        <ele>611.7</ele>
        <time>2022-05-10T13:22:55Z</time>
      </trkpt>
      <trkpt lat="46.97409" lon="5.87149">
        <ele>610.9</ele>
        <time>2022-05-10T13:23:00Z</time>
      </trkpt>
      <trkpt lat="46.97409" lon="5.87156">
        <ele>610.6</ele>
        <time>2022-05-10T13:23:08Z</time>
      </trkpt>
      <trkpt lat="46.97411" lon="5.87162">
        <ele>610.9</ele>
        <time>2022-05-10T13:23:13Z</time>
      </trkpt>
      <trkpt lat="46.97414" lon="5.87168">
        <ele>611.3</ele>
        <time>2022-05-10T13:23:19Z</time>
      </trkpt>
      <trkpt lat="46.97415" lon="5.87174">
        <ele>611.8</ele>
        <time>2022-05-10T13:23:24Z</time>
      </trkpt>
      <trkpt lat="46.97416" lon="5.87181">
        <ele>612.4</ele>
        <time>2022-05-10T13:23:28Z</time>
      </trkpt>
      <trkpt lat="46.97416" lon="5.87188">
        <ele>613.3</ele>
        <time>2022-05-10T13:23:33Z</time>
      </trkpt>
      <trkpt lat="46.97419" lon="5.87195">
        <ele>614</ele>
        <time>2022-05-10T13:23:39Z</time>
      </trkpt>
      <trkpt lat="46.97422" lon="5.872">
        <ele>613.9</ele>
        <time>2022-05-10T13:23:44Z</time>
      </trkpt>
      <trkpt lat="46.97424" lon="5.87207">
        <ele>612.9</ele>
        <time>2022-05-10T13:23:51Z</time>
      </trkpt>
      <trkpt lat="46.97428" lon="5.8721">
        <ele>611.7</ele>
        <time>2022-05-10T13:23:56Z</time>
      </trkpt>
      <trkpt lat="46.97432" lon="5.87215">
        <ele>609.7</ele>
        <time>2022-05-10T13:24:01Z</time>
      </trkpt>
      <trkpt lat="46.97436" lon="5.87219">
        <ele>608.1</ele>
        <time>2022-05-10T13:24:06Z</time>
      </trkpt>
      <trkpt lat="46.9744" lon="5.87223">
        <ele>606.8</ele>
        <time>2022-05-10T13:24:15Z</time>
      </trkpt>
      <trkpt lat="46.97446" lon="5.87225">
        <ele>606.5</ele>
        <time>2022-05-10T13:24:20Z</time>
      </trkpt>
      <trkpt lat="46.97452" lon="5.87226">
        <ele>606.3</ele>
        <time>2022-05-10T13:24:23Z</time>
      </trkpt>
      <trkpt lat="46.97457" lon="5.87227">
        <ele>606</ele>
        <time>2022-05-10T13:24:27Z</time>
      </trkpt>
      <trkpt lat="46.9746" lon="5.87232">
        <ele>605.9</ele>
        <time>2022-05-10T13:24:34Z</time>
      </trkpt>
      <trkpt lat="46.97464" lon="5.87236">
        <ele>606.1</ele>
        <time>2022-05-10T13:24:45Z</time>
      </trkpt>
      <trkpt lat="46.97469" lon="5.87238">
        <ele>606.2</ele>
        <time>2022-05-10T13:24:49Z</time>
      </trkpt>
      <trkpt lat="46.97474" lon="5.87239">
        <ele>606.3</ele>
        <time>2022-05-10T13:24:53Z</time>
      </trkpt>
      <trkpt lat="46.97479" lon="5.87244">
        <ele>607</ele>
        <time>2022-05-10T13:24:58Z</time>
      </trkpt>
      <trkpt lat="46.97483" lon="5.87247">
        <ele>607.6</ele>
        <time>2022-05-10T13:25:04Z</time>
      </trkpt>
      <trkpt lat="46.97487" lon="5.87249">
        <ele>607.9</ele>
        <time>2022-05-10T13:25:08Z</time>
      </trkpt>
      <trkpt lat="46.97491" lon="5.87254">
        <ele>608</ele>
        <time>2022-05-10T13:25:14Z</time>
      </trkpt>
      <trkpt lat="46.97495" lon="5.87258">
        <ele>607.2</ele>
        <time>2022-05-10T13:25:21Z</time>
      </trkpt>
      <trkpt lat="46.97498" lon="5.87263">
        <ele>604.5</ele>
        <time>2022-05-10T13:25:32Z</time>
      </trkpt>
      <trkpt lat="46.97502" lon="5.8727">
        <ele>603.7</ele>
        <time>2022-05-10T13:25:36Z</time>
      </trkpt>
      <trkpt lat="46.97504" lon="5.87275">
        <ele>603.4</ele>
        <time>2022-05-10T13:25:39Z</time>
      </trkpt>
      <trkpt lat="46.97508" lon="5.87279">
        <ele>602.8</ele>
        <time>2022-05-10T13:25:43Z</time>
      </trkpt>
      <trkpt lat="46.97512" lon="5.87284">
        <ele>602.3</ele>
        <time>2022-05-10T13:25:47Z</time>
      </trkpt>
      <trkpt lat="46.97515" lon="5.87291">
        <ele>602</ele>
        <time>2022-05-10T13:25:53Z</time>
      </trkpt>
      <trkpt lat="46.97518" lon="5.87295">
        <ele>602.2</ele>
        <time>2022-05-10T13:25:58Z</time>
      </trkpt>
      <trkpt lat="46.97522" lon="5.873">
        <ele>602.5</ele>
        <time>2022-05-10T13:26:04Z</time>
      </trkpt>
      <trkpt lat="46.97526" lon="5.87304">
        <ele>602.4</ele>
        <time>2022-05-10T13:26:13Z</time>
      </trkpt>
      <trkpt lat="46.9753" lon="5.87305">
        <ele>601.5</ele>
        <time>2022-05-10T13:26:20Z</time>
      </trkpt>
      <trkpt lat="46.97534" lon="5.87309">
        <ele>597.2</ele>
        <time>2022-05-10T13:26:44Z</time>
      </trkpt>
      <trkpt lat="46.97538" lon="5.87305">
        <ele>597.1</ele>
        <time>2022-05-10T13:26:50Z</time>
      </trkpt>
      <trkpt lat="46.9754" lon="5.87298">
        <ele>595.7</ele>
        <time>2022-05-10T13:27:04Z</time>
      </trkpt>
      <trkpt lat="46.97538" lon="5.87292">
        <ele>590.1</ele>
        <time>2022-05-10T13:27:57Z</time>
      </trkpt>
      <trkpt lat="46.97537" lon="5.87285">
        <ele>591.9</ele>
        <time>2022-05-10T13:28:18Z</time>
      </trkpt>
      <trkpt lat="46.9754" lon="5.8728">
        <ele>591.8</ele>
        <time>2022-05-10T13:29:14Z</time>
      </trkpt>
      <trkpt lat="46.97541" lon="5.87273">
        <ele>591.9</ele>
        <time>2022-05-10T13:29:21Z</time>
      </trkpt>
      <trkpt lat="46.9754" lon="5.87265">
        <ele>591.9</ele>
        <time>2022-05-10T13:29:26Z</time>
      </trkpt>
      <trkpt lat="46.97541" lon="5.87259">
        <ele>591.7</ele>
        <time>2022-05-10T13:29:30Z</time>
      </trkpt>
      <trkpt lat="46.9754" lon="5.87252">
        <ele>590.8</ele>
        <time>2022-05-10T13:29:35Z</time>
      </trkpt>
      <trkpt lat="46.97539" lon="5.87245">
        <ele>589.8</ele>
        <time>2022-05-10T13:29:39Z</time>
      </trkpt>
      <trkpt lat="46.97539" lon="5.87237">
        <ele>588.1</ele>
        <time>2022-05-10T13:29:47Z</time>
      </trkpt>
      <trkpt lat="46.97539" lon="5.87229">
        <ele>587.4</ele>
        <time>2022-05-10T13:29:51Z</time>
      </trkpt>
      <trkpt lat="46.97538" lon="5.87223">
        <ele>586.3</ele>
        <time>2022-05-10T13:29:56Z</time>
      </trkpt>
      <trkpt lat="46.97538" lon="5.87215">
        <ele>585.4</ele>
        <time>2022-05-10T13:30:01Z</time>
      </trkpt>
      <trkpt lat="46.97537" lon="5.87207">
        <ele>584.8</ele>
        <time>2022-05-10T13:30:05Z</time>
      </trkpt>
      <trkpt lat="46.97537" lon="5.87199">
        <ele>584.8</ele>
        <time>2022-05-10T13:30:10Z</time>
      </trkpt>
      <trkpt lat="46.97536" lon="5.87192">
        <ele>584.6</ele>
        <time>2022-05-10T13:30:15Z</time>
      </trkpt>
      <trkpt lat="46.97534" lon="5.87185">
        <ele>583.9</ele>
        <time>2022-05-10T13:30:20Z</time>
      </trkpt>
      <trkpt lat="46.97533" lon="5.87177">
        <ele>582.9</ele>
        <time>2022-05-10T13:30:25Z</time>
      </trkpt>
      <trkpt lat="46.97531" lon="5.87171">
        <ele>582.2</ele>
        <time>2022-05-10T13:30:31Z</time>
      </trkpt>
      <trkpt lat="46.97533" lon="5.87165">
        <ele>581.4</ele>
        <time>2022-05-10T13:30:41Z</time>
      </trkpt>
      <trkpt lat="46.97534" lon="5.87158">
        <ele>582</ele>
        <time>2022-05-10T13:30:46Z</time>
      </trkpt>
      <trkpt lat="46.97534" lon="5.87151">
        <ele>582.9</ele>
        <time>2022-05-10T13:30:51Z</time>
      </trkpt>
      <trkpt lat="46.97532" lon="5.87144">
        <ele>583.7</ele>
        <time>2022-05-10T13:30:56Z</time>
      </trkpt>
      <trkpt lat="46.97533" lon="5.87137">
        <ele>584.2</ele>
        <time>2022-05-10T13:31:01Z</time>
      </trkpt>
      <trkpt lat="46.97532" lon="5.8713">
        <ele>584.5</ele>
        <time>2022-05-10T13:31:08Z</time>
      </trkpt>
      <trkpt lat="46.97532" lon="5.87122">
        <ele>584.4</ele>
        <time>2022-05-10T13:31:13Z</time>
      </trkpt>
      <trkpt lat="46.9753" lon="5.87115">
        <ele>583.9</ele>
        <time>2022-05-10T13:31:18Z</time>
      </trkpt>
      <trkpt lat="46.97529" lon="5.87107">
        <ele>583.2</ele>
        <time>2022-05-10T13:31:22Z</time>
      </trkpt>
      <trkpt lat="46.97526" lon="5.87101">
        <ele>582.2</ele>
        <time>2022-05-10T13:31:26Z</time>
      </trkpt>
      <trkpt lat="46.97523" lon="5.87094">
        <ele>580.9</ele>
        <time>2022-05-10T13:31:31Z</time>
      </trkpt>
      <trkpt lat="46.97521" lon="5.87087">
        <ele>580.1</ele>
        <time>2022-05-10T13:31:35Z</time>
      </trkpt>
      <trkpt lat="46.97518" lon="5.8708">
        <ele>579.5</ele>
        <time>2022-05-10T13:31:40Z</time>
      </trkpt>
      <trkpt lat="46.97517" lon="5.87074">
        <ele>578.7</ele>
        <time>2022-05-10T13:31:45Z</time>
      </trkpt>
      <trkpt lat="46.97516" lon="5.87067">
        <ele>577.6</ele>
        <time>2022-05-10T13:31:51Z</time>
      </trkpt>
      <trkpt lat="46.97513" lon="5.87061">
        <ele>576.2</ele>
        <time>2022-05-10T13:31:57Z</time>
      </trkpt>
      <trkpt lat="46.97511" lon="5.87055">
        <ele>575.2</ele>
        <time>2022-05-10T13:32:01Z</time>
      </trkpt>
      <trkpt lat="46.97507" lon="5.87048">
        <ele>574.1</ele>
        <time>2022-05-10T13:32:05Z</time>
      </trkpt>
      <trkpt lat="46.97506" lon="5.8704">
        <ele>573.3</ele>
        <time>2022-05-10T13:32:09Z</time>
      </trkpt>
      <trkpt lat="46.97507" lon="5.87033">
        <ele>572.9</ele>
        <time>2022-05-10T13:32:12Z</time>
      </trkpt>
      <trkpt lat="46.97507" lon="5.87025">
        <ele>572.4</ele>
        <time>2022-05-10T13:32:16Z</time>
      </trkpt>
      <trkpt lat="46.97507" lon="5.87017">
        <ele>571.9</ele>
        <time>2022-05-10T13:32:21Z</time>
      </trkpt>
      <trkpt lat="46.97507" lon="5.87011">
        <ele>571.2</ele>
        <time>2022-05-10T13:32:26Z</time>
      </trkpt>
      <trkpt lat="46.97508" lon="5.87003">
        <ele>570.7</ele>
        <time>2022-05-10T13:32:32Z</time>
      </trkpt>
      <trkpt lat="46.97509" lon="5.86995">
        <ele>570.2</ele>
        <time>2022-05-10T13:32:37Z</time>
      </trkpt>
      <trkpt lat="46.9751" lon="5.86988">
        <ele>569.5</ele>
        <time>2022-05-10T13:32:42Z</time>
      </trkpt>
      <trkpt lat="46.9751" lon="5.86981">
        <ele>568.7</ele>
        <time>2022-05-10T13:32:47Z</time>
      </trkpt>
      <trkpt lat="46.9751" lon="5.86974">
        <ele>568.4</ele>
        <time>2022-05-10T13:32:51Z</time>
      </trkpt>
      <trkpt lat="46.97509" lon="5.86967">
        <ele>568.1</ele>
        <time>2022-05-10T13:32:56Z</time>
      </trkpt>
      <trkpt lat="46.97508" lon="5.86959">
        <ele>567.3</ele>
        <time>2022-05-10T13:33:01Z</time>
      </trkpt>
      <trkpt lat="46.97506" lon="5.86952">
        <ele>567</ele>
        <time>2022-05-10T13:33:06Z</time>
      </trkpt>
      <trkpt lat="46.97505" lon="5.86944">
        <ele>567.1</ele>
        <time>2022-05-10T13:33:11Z</time>
      </trkpt>
      <trkpt lat="46.97504" lon="5.86936">
        <ele>566.1</ele>
        <time>2022-05-10T13:33:16Z</time>
      </trkpt>
      <trkpt lat="46.97502" lon="5.8693">
        <ele>565.7</ele>
        <time>2022-05-10T13:33:20Z</time>
      </trkpt>
      <trkpt lat="46.97499" lon="5.86924">
        <ele>565.9</ele>
        <time>2022-05-10T13:33:24Z</time>
      </trkpt>
      <trkpt lat="46.97497" lon="5.86917">
        <ele>566.5</ele>
        <time>2022-05-10T13:33:29Z</time>
      </trkpt>
      <trkpt lat="46.97495" lon="5.86911">
        <ele>567.1</ele>
        <time>2022-05-10T13:33:34Z</time>
      </trkpt>
      <trkpt lat="46.97492" lon="5.86903">
        <ele>566.8</ele>
        <time>2022-05-10T13:33:39Z</time>
      </trkpt>
      <trkpt lat="46.97489" lon="5.86897">
        <ele>566.8</ele>
        <time>2022-05-10T13:33:43Z</time>
      </trkpt>
      <trkpt lat="46.97487" lon="5.86891">
        <ele>566.7</ele>
        <time>2022-05-10T13:33:47Z</time>
      </trkpt>
      <trkpt lat="46.97484" lon="5.86886">
        <ele>566.1</ele>
        <time>2022-05-10T13:33:52Z</time>
      </trkpt>
      <trkpt lat="46.9748" lon="5.8688">
        <ele>565</ele>
        <time>2022-05-10T13:34:14Z</time>
      </trkpt>
      <trkpt lat="46.97477" lon="5.86875">
        <ele>564.3</ele>
        <time>2022-05-10T13:34:20Z</time>
      </trkpt>
      <trkpt lat="46.97473" lon="5.8687">
        <ele>562.7</ele>
        <time>2022-05-10T13:34:26Z</time>
      </trkpt>
      <trkpt lat="46.9747" lon="5.86864">
        <ele>561.4</ele>
        <time>2022-05-10T13:34:31Z</time>
      </trkpt>
      <trkpt lat="46.97467" lon="5.86858">
        <ele>560.7</ele>
        <time>2022-05-10T13:34:35Z</time>
      </trkpt>
      <trkpt lat="46.97465" lon="5.86852">
        <ele>560</ele>
        <time>2022-05-10T13:34:39Z</time>
      </trkpt>
      <trkpt lat="46.97462" lon="5.86847">
        <ele>559.2</ele>
        <time>2022-05-10T13:34:44Z</time>
      </trkpt>
      <trkpt lat="46.97459" lon="5.8684">
        <ele>558.4</ele>
        <time>2022-05-10T13:34:50Z</time>
      </trkpt>
      <trkpt lat="46.97455" lon="5.86834">
        <ele>558.3</ele>
        <time>2022-05-10T13:34:55Z</time>
      </trkpt>
      <trkpt lat="46.97453" lon="5.86828">
        <ele>558.4</ele>
        <time>2022-05-10T13:34:59Z</time>
      </trkpt>
      <trkpt lat="46.97451" lon="5.86823">
        <ele>558.4</ele>
        <time>2022-05-10T13:35:04Z</time>
      </trkpt>
      <trkpt lat="46.97449" lon="5.86815">
        <ele>558.2</ele>
        <time>2022-05-10T13:35:09Z</time>
      </trkpt>
      <trkpt lat="46.97448" lon="5.86807">
        <ele>558.3</ele>
        <time>2022-05-10T13:35:14Z</time>
      </trkpt>
      <trkpt lat="46.97449" lon="5.868">
        <ele>558.7</ele>
        <time>2022-05-10T13:35:21Z</time>
      </trkpt>
      <trkpt lat="46.97452" lon="5.86795">
        <ele>559.1</ele>
        <time>2022-05-10T13:35:33Z</time>
      </trkpt>
      <trkpt lat="46.97456" lon="5.86796">
        <ele>561.9</ele>
        <time>2022-05-10T13:40:19Z</time>
      </trkpt>
      <trkpt lat="46.97459" lon="5.86791">
        <ele>562.7</ele>
        <time>2022-05-10T13:40:24Z</time>
      </trkpt>
      <trkpt lat="46.97464" lon="5.86787">
        <ele>563.3</ele>
        <time>2022-05-10T13:40:29Z</time>
      </trkpt>
      <trkpt lat="46.97468" lon="5.86783">
        <ele>563.2</ele>
        <time>2022-05-10T13:40:34Z</time>
      </trkpt>
      <trkpt lat="46.97473" lon="5.8678">
        <ele>562.8</ele>
        <time>2022-05-10T13:40:39Z</time>
      </trkpt>
      <trkpt lat="46.97477" lon="5.86776">
        <ele>561.5</ele>
        <time>2022-05-10T13:40:46Z</time>
      </trkpt>
      <trkpt lat="46.97481" lon="5.86774">
        <ele>560.1</ele>
        <time>2022-05-10T13:40:52Z</time>
      </trkpt>
      <trkpt lat="46.97485" lon="5.86768">
        <ele>558.8</ele>
        <time>2022-05-10T13:40:57Z</time>
      </trkpt>
      <trkpt lat="46.97486" lon="5.86762">
        <ele>557.5</ele>
        <time>2022-05-10T13:41:02Z</time>
      </trkpt>
      <trkpt lat="46.97485" lon="5.86755">
        <ele>556.7</ele>
        <time>2022-05-10T13:41:06Z</time>
      </trkpt>
      <trkpt lat="46.97482" lon="5.86749">
        <ele>556.3</ele>
        <time>2022-05-10T13:41:11Z</time>
      </trkpt>
      <trkpt lat="46.97479" lon="5.86742">
        <ele>556</ele>
        <time>2022-05-10T13:41:15Z</time>
      </trkpt>
      <trkpt lat="46.97476" lon="5.86736">
        <ele>555.3</ele>
        <time>2022-05-10T13:41:20Z</time>
      </trkpt>
      <trkpt lat="46.97472" lon="5.86732">
        <ele>554.9</ele>
        <time>2022-05-10T13:41:24Z</time>
      </trkpt>
      <trkpt lat="46.97469" lon="5.86727">
        <ele>554.8</ele>
        <time>2022-05-10T13:41:28Z</time>
      </trkpt>
      <trkpt lat="46.97465" lon="5.86721">
        <ele>555.3</ele>
        <time>2022-05-10T13:41:33Z</time>
      </trkpt>
      <trkpt lat="46.97461" lon="5.86715">
        <ele>555.8</ele>
        <time>2022-05-10T13:41:38Z</time>
      </trkpt>
      <trkpt lat="46.97457" lon="5.86709">
        <ele>556.1</ele>
        <time>2022-05-10T13:41:43Z</time>
      </trkpt>
      <trkpt lat="46.97454" lon="5.86703">
        <ele>555.9</ele>
        <time>2022-05-10T13:41:48Z</time>
      </trkpt>
      <trkpt lat="46.97451" lon="5.86698">
        <ele>554.9</ele>
        <time>2022-05-10T13:41:53Z</time>
      </trkpt>
      <trkpt lat="46.97447" lon="5.86693">
        <ele>553.1</ele>
        <time>2022-05-10T13:41:58Z</time>
      </trkpt>
      <trkpt lat="46.97442" lon="5.86687">
        <ele>551.6</ele>
        <time>2022-05-10T13:42:03Z</time>
      </trkpt>
      <trkpt lat="46.97439" lon="5.86683">
        <ele>550.7</ele>
        <time>2022-05-10T13:42:07Z</time>
      </trkpt>
      <trkpt lat="46.97436" lon="5.86678">
        <ele>550.1</ele>
        <time>2022-05-10T13:42:11Z</time>
      </trkpt>
      <trkpt lat="46.97432" lon="5.86673">
        <ele>549.8</ele>
        <time>2022-05-10T13:42:15Z</time>
      </trkpt>
      <trkpt lat="46.97427" lon="5.86668">
        <ele>549.8</ele>
        <time>2022-05-10T13:42:19Z</time>
      </trkpt>
      <trkpt lat="46.97424" lon="5.86663">
        <ele>549.6</ele>
        <time>2022-05-10T13:42:24Z</time>
      </trkpt>
      <trkpt lat="46.9742" lon="5.86658">
        <ele>549.7</ele>
        <time>2022-05-10T13:42:29Z</time>
      </trkpt>
      <trkpt lat="46.97417" lon="5.86653">
        <ele>549.9</ele>
        <time>2022-05-10T13:42:34Z</time>
      </trkpt>
      <trkpt lat="46.97414" lon="5.86647">
        <ele>549.8</ele>
        <time>2022-05-10T13:42:38Z</time>
      </trkpt>
      <trkpt lat="46.9741" lon="5.86642">
        <ele>549.1</ele>
        <time>2022-05-10T13:42:43Z</time>
      </trkpt>
      <trkpt lat="46.97407" lon="5.86637">
        <ele>548.2</ele>
        <time>2022-05-10T13:42:48Z</time>
      </trkpt>
      <trkpt lat="46.97403" lon="5.86632">
        <ele>547.3</ele>
        <time>2022-05-10T13:42:53Z</time>
      </trkpt>
      <trkpt lat="46.974" lon="5.86626">
        <ele>546.4</ele>
        <time>2022-05-10T13:42:58Z</time>
      </trkpt>
      <trkpt lat="46.97397" lon="5.86621">
        <ele>545.7</ele>
        <time>2022-05-10T13:43:02Z</time>
      </trkpt>
      <trkpt lat="46.97394" lon="5.86617">
        <ele>545.4</ele>
        <time>2022-05-10T13:43:06Z</time>
      </trkpt>
      <trkpt lat="46.9739" lon="5.86612">
        <ele>545</ele>
        <time>2022-05-10T13:43:10Z</time>
      </trkpt>
      <trkpt lat="46.97387" lon="5.86606">
        <ele>544.7</ele>
        <time>2022-05-10T13:43:14Z</time>
      </trkpt>
      <trkpt lat="46.97383" lon="5.86601">
        <ele>544.2</ele>
        <time>2022-05-10T13:43:19Z</time>
      </trkpt>
      <trkpt lat="46.9738" lon="5.86595">
        <ele>544.2</ele>
        <time>2022-05-10T13:43:24Z</time>
      </trkpt>
      <trkpt lat="46.97376" lon="5.86589">
        <ele>544.3</ele>
        <time>2022-05-10T13:43:29Z</time>
      </trkpt>
      <trkpt lat="46.97373" lon="5.86584">
        <ele>544.4</ele>
        <time>2022-05-10T13:43:34Z</time>
      </trkpt>
      <trkpt lat="46.97369" lon="5.8658">
        <ele>544.2</ele>
        <time>2022-05-10T13:43:39Z</time>
      </trkpt>
      <trkpt lat="46.97365" lon="5.86575">
        <ele>544.2</ele>
        <time>2022-05-10T13:43:43Z</time>
      </trkpt>
      <trkpt lat="46.97361" lon="5.8657">
        <ele>544.3</ele>
        <time>2022-05-10T13:43:48Z</time>
      </trkpt>
      <trkpt lat="46.97358" lon="5.86564">
        <ele>544.3</ele>
        <time>2022-05-10T13:43:53Z</time>
      </trkpt>
      <trkpt lat="46.97354" lon="5.8656">
        <ele>544.8</ele>
        <time>2022-05-10T13:43:58Z</time>
      </trkpt>
      <trkpt lat="46.97349" lon="5.86556">
        <ele>546</ele>
        <time>2022-05-10T13:44:03Z</time>
      </trkpt>
      <trkpt lat="46.97345" lon="5.86551">
        <ele>547.6</ele>
        <time>2022-05-10T13:44:08Z</time>
      </trkpt>
      <trkpt lat="46.97341" lon="5.86547">
        <ele>548.3</ele>
        <time>2022-05-10T13:44:12Z</time>
      </trkpt>
      <trkpt lat="46.97337" lon="5.86543">
        <ele>548.5</ele>
        <time>2022-05-10T13:44:16Z</time>
      </trkpt>
      <trkpt lat="46.97332" lon="5.86541">
        <ele>547.5</ele>
        <time>2022-05-10T13:44:21Z</time>
      </trkpt>
      <trkpt lat="46.97328" lon="5.86538">
        <ele>546.3</ele>
        <time>2022-05-10T13:44:25Z</time>
      </trkpt>
      <trkpt lat="46.97322" lon="5.86535">
        <ele>544.7</ele>
        <time>2022-05-10T13:44:29Z</time>
      </trkpt>
      <trkpt lat="46.97318" lon="5.86533">
        <ele>543.5</ele>
        <time>2022-05-10T13:44:33Z</time>
      </trkpt>
      <trkpt lat="46.97313" lon="5.86528">
        <ele>543.4</ele>
        <time>2022-05-10T13:44:38Z</time>
      </trkpt>
      <trkpt lat="46.97309" lon="5.86524">
        <ele>543.7</ele>
        <time>2022-05-10T13:44:44Z</time>
      </trkpt>
      <trkpt lat="46.97304" lon="5.86524">
        <ele>544.2</ele>
        <time>2022-05-10T13:44:51Z</time>
      </trkpt>
      <trkpt lat="46.97301" lon="5.8652">
        <ele>544</ele>
        <time>2022-05-10T13:44:55Z</time>
      </trkpt>
      <trkpt lat="46.97299" lon="5.86512">
        <ele>543.8</ele>
        <time>2022-05-10T13:45:00Z</time>
      </trkpt>
      <trkpt lat="46.97301" lon="5.86504">
        <ele>544.3</ele>
        <time>2022-05-10T13:45:04Z</time>
      </trkpt>
      <trkpt lat="46.97303" lon="5.86497">
        <ele>545.3</ele>
        <time>2022-05-10T13:45:08Z</time>
      </trkpt>
      <trkpt lat="46.97307" lon="5.86492">
        <ele>546.8</ele>
        <time>2022-05-10T13:45:13Z</time>
      </trkpt>
      <trkpt lat="46.97312" lon="5.86492">
        <ele>547.7</ele>
        <time>2022-05-10T13:45:20Z</time>
      </trkpt>
      <trkpt lat="46.97318" lon="5.86492">
        <ele>547.2</ele>
        <time>2022-05-10T13:45:26Z</time>
      </trkpt>
      <trkpt lat="46.97322" lon="5.86491">
        <ele>546.4</ele>
        <time>2022-05-10T13:45:30Z</time>
      </trkpt>
      <trkpt lat="46.97327" lon="5.86489">
        <ele>546.1</ele>
        <time>2022-05-10T13:45:35Z</time>
      </trkpt>
      <trkpt lat="46.97332" lon="5.8649">
        <ele>545.6</ele>
        <time>2022-05-10T13:45:39Z</time>
      </trkpt>
      <trkpt lat="46.97337" lon="5.86492">
        <ele>544.8</ele>
        <time>2022-05-10T13:45:43Z</time>
      </trkpt>
      <trkpt lat="46.97341" lon="5.86493">
        <ele>544.1</ele>
        <time>2022-05-10T13:45:46Z</time>
      </trkpt>
      <trkpt lat="46.97346" lon="5.86495">
        <ele>543.2</ele>
        <time>2022-05-10T13:45:50Z</time>
      </trkpt>
      <trkpt lat="46.97351" lon="5.86496">
        <ele>542.7</ele>
        <time>2022-05-10T13:45:56Z</time>
      </trkpt>
      <trkpt lat="46.97356" lon="5.86496">
        <ele>542.7</ele>
        <time>2022-05-10T13:46:00Z</time>
      </trkpt>
      <trkpt lat="46.97361" lon="5.86496">
        <ele>542.6</ele>
        <time>2022-05-10T13:46:03Z</time>
      </trkpt>
      <trkpt lat="46.97365" lon="5.86496">
        <ele>542.3</ele>
        <time>2022-05-10T13:46:07Z</time>
      </trkpt>
      <trkpt lat="46.9737" lon="5.86496">
        <ele>541.7</ele>
        <time>2022-05-10T13:46:15Z</time>
      </trkpt>
      <trkpt lat="46.97376" lon="5.86496">
        <ele>540.9</ele>
        <time>2022-05-10T13:46:20Z</time>
      </trkpt>
      <trkpt lat="46.97381" lon="5.86495">
        <ele>540.4</ele>
        <time>2022-05-10T13:46:24Z</time>
      </trkpt>
      <trkpt lat="46.97385" lon="5.86495">
        <ele>540.3</ele>
        <time>2022-05-10T13:46:28Z</time>
      </trkpt>
      <trkpt lat="46.9739" lon="5.86494">
        <ele>540</ele>
        <time>2022-05-10T13:46:32Z</time>
      </trkpt>
      <trkpt lat="46.97394" lon="5.86491">
        <ele>538.5</ele>
        <time>2022-05-10T13:46:38Z</time>
      </trkpt>
      <trkpt lat="46.97398" lon="5.86487">
        <ele>538</ele>
        <time>2022-05-10T13:46:45Z</time>
      </trkpt>
      <trkpt lat="46.97403" lon="5.86482">
        <ele>538</ele>
        <time>2022-05-10T13:46:50Z</time>
      </trkpt>
      <trkpt lat="46.97407" lon="5.86478">
        <ele>537.9</ele>
        <time>2022-05-10T13:46:54Z</time>
      </trkpt>
      <trkpt lat="46.97411" lon="5.86476">
        <ele>537.5</ele>
        <time>2022-05-10T13:46:59Z</time>
      </trkpt>
      <trkpt lat="46.97416" lon="5.86472">
        <ele>536.8</ele>
        <time>2022-05-10T13:47:05Z</time>
      </trkpt>
      <trkpt lat="46.9742" lon="5.86468">
        <ele>537</ele>
        <time>2022-05-10T13:47:11Z</time>
      </trkpt>
      <trkpt lat="46.97423" lon="5.86462">
        <ele>536.8</ele>
        <time>2022-05-10T13:47:15Z</time>
      </trkpt>
      <trkpt lat="46.97425" lon="5.86455">
        <ele>536.4</ele>
        <time>2022-05-10T13:47:19Z</time>
      </trkpt>
      <trkpt lat="46.97427" lon="5.86448">
        <ele>536.4</ele>
        <time>2022-05-10T13:47:23Z</time>
      </trkpt>
      <trkpt lat="46.97429" lon="5.86441">
        <ele>537.1</ele>
        <time>2022-05-10T13:47:27Z</time>
      </trkpt>
      <trkpt lat="46.97433" lon="5.86435">
        <ele>538.2</ele>
        <time>2022-05-10T13:47:32Z</time>
      </trkpt>
      <trkpt lat="46.97436" lon="5.86429">
        <ele>539.1</ele>
        <time>2022-05-10T13:47:37Z</time>
      </trkpt>
      <trkpt lat="46.97438" lon="5.86423">
        <ele>539</ele>
        <time>2022-05-10T13:47:43Z</time>
      </trkpt>
      <trkpt lat="46.97441" lon="5.86416">
        <ele>538.4</ele>
        <time>2022-05-10T13:47:50Z</time>
      </trkpt>
      <trkpt lat="46.97445" lon="5.86411">
        <ele>537.9</ele>
        <time>2022-05-10T13:47:55Z</time>
      </trkpt>
      <trkpt lat="46.97447" lon="5.86404">
        <ele>537.7</ele>
        <time>2022-05-10T13:48:00Z</time>
      </trkpt>
      <trkpt lat="46.97449" lon="5.86398">
        <ele>538.1</ele>
        <time>2022-05-10T13:48:04Z</time>
      </trkpt>
      <trkpt lat="46.97452" lon="5.86392">
        <ele>538</ele>
        <time>2022-05-10T13:48:09Z</time>
      </trkpt>
      <trkpt lat="46.97454" lon="5.86386">
        <ele>538</ele>
        <time>2022-05-10T13:48:14Z</time>
      </trkpt>
      <trkpt lat="46.97453" lon="5.86378">
        <ele>537.4</ele>
        <time>2022-05-10T13:48:38Z</time>
      </trkpt>
      <trkpt lat="46.97455" lon="5.86372">
        <ele>536.5</ele>
        <time>2022-05-10T13:48:44Z</time>
      </trkpt>
      <trkpt lat="46.97456" lon="5.86365">
        <ele>536.6</ele>
        <time>2022-05-10T13:48:48Z</time>
      </trkpt>
      <trkpt lat="46.97457" lon="5.86358">
        <ele>537.2</ele>
        <time>2022-05-10T13:48:52Z</time>
      </trkpt>
      <trkpt lat="46.97457" lon="5.86352">
        <ele>537.8</ele>
        <time>2022-05-10T13:48:56Z</time>
      </trkpt>
      <trkpt lat="46.97458" lon="5.86344">
        <ele>539.1</ele>
        <time>2022-05-10T13:49:01Z</time>
      </trkpt>
      <trkpt lat="46.9746" lon="5.86339">
        <ele>540.6</ele>
        <time>2022-05-10T13:49:08Z</time>
      </trkpt>
      <trkpt lat="46.97462" lon="5.86332">
        <ele>541.4</ele>
        <time>2022-05-10T13:49:13Z</time>
      </trkpt>
      <trkpt lat="46.97463" lon="5.86325">
        <ele>542.2</ele>
        <time>2022-05-10T13:49:18Z</time>
      </trkpt>
      <trkpt lat="46.97465" lon="5.86317">
        <ele>542.7</ele>
        <time>2022-05-10T13:49:22Z</time>
      </trkpt>
      <trkpt lat="46.97466" lon="5.86311">
        <ele>543.6</ele>
        <time>2022-05-10T13:49:26Z</time>
      </trkpt>
      <trkpt lat="46.97467" lon="5.86303">
        <ele>544.7</ele>
        <time>2022-05-10T13:49:31Z</time>
      </trkpt>
      <trkpt lat="46.97467" lon="5.86296">
        <ele>545.2</ele>
        <time>2022-05-10T13:49:35Z</time>
      </trkpt>
      <trkpt lat="46.97468" lon="5.86289">
        <ele>545.3</ele>
        <time>2022-05-10T13:49:41Z</time>
      </trkpt>
      <trkpt lat="46.97468" lon="5.86282">
        <ele>545.6</ele>
        <time>2022-05-10T13:49:47Z</time>
      </trkpt>
      <trkpt lat="46.97468" lon="5.86275">
        <ele>546.8</ele>
        <time>2022-05-10T13:49:57Z</time>
      </trkpt>
      <trkpt lat="46.97465" lon="5.86271">
        <ele>547.5</ele>
        <time>2022-05-10T13:50:02Z</time>
      </trkpt>
      <trkpt lat="46.97461" lon="5.86265">
        <ele>547.6</ele>
        <time>2022-05-10T13:50:08Z</time>
      </trkpt>
      <trkpt lat="46.97458" lon="5.8626">
        <ele>546.7</ele>
        <time>2022-05-10T13:50:13Z</time>
      </trkpt>
      <trkpt lat="46.97456" lon="5.86253">
        <ele>545.1</ele>
        <time>2022-05-10T13:50:19Z</time>
      </trkpt>
      <trkpt lat="46.97454" lon="5.86246">
        <ele>544.7</ele>
        <time>2022-05-10T13:50:23Z</time>
      </trkpt>
      <trkpt lat="46.97456" lon="5.86253">
        <ele>544.4</ele>
        <time>2022-05-10T13:50:42Z</time>
      </trkpt>
      <trkpt lat="46.97458" lon="5.86259">
        <ele>543.8</ele>
        <time>2022-05-10T13:50:46Z</time>
      </trkpt>
      <trkpt lat="46.9746" lon="5.86265">
        <ele>543.2</ele>
        <time>2022-05-10T13:50:50Z</time>
      </trkpt>
      <trkpt lat="46.97464" lon="5.8627">
        <ele>542.4</ele>
        <time>2022-05-10T13:50:55Z</time>
      </trkpt>
      <trkpt lat="46.97468" lon="5.86274">
        <ele>541.8</ele>
        <time>2022-05-10T13:51:00Z</time>
      </trkpt>
      <trkpt lat="46.97472" lon="5.86271">
        <ele>539.7</ele>
        <time>2022-05-10T13:51:18Z</time>
      </trkpt>
      <trkpt lat="46.97476" lon="5.86266">
        <ele>539.9</ele>
        <time>2022-05-10T13:51:23Z</time>
      </trkpt>
      <trkpt lat="46.9748" lon="5.86262">
        <ele>541.5</ele>
        <time>2022-05-10T13:51:30Z</time>
      </trkpt>
      <trkpt lat="46.97484" lon="5.8626">
        <ele>544.1</ele>
        <time>2022-05-10T13:51:42Z</time>
      </trkpt>
      <trkpt lat="46.97489" lon="5.86263">
        <ele>544.9</ele>
        <time>2022-05-10T13:51:47Z</time>
      </trkpt>
      <trkpt lat="46.97493" lon="5.86267">
        <ele>544.6</ele>
        <time>2022-05-10T13:51:54Z</time>
      </trkpt>
      <trkpt lat="46.97496" lon="5.86272">
        <ele>544.3</ele>
        <time>2022-05-10T13:51:58Z</time>
      </trkpt>
      <trkpt lat="46.975" lon="5.86276">
        <ele>544.2</ele>
        <time>2022-05-10T13:52:01Z</time>
      </trkpt>
      <trkpt lat="46.97505" lon="5.86278">
        <ele>543.8</ele>
        <time>2022-05-10T13:52:05Z</time>
      </trkpt>
      <trkpt lat="46.97509" lon="5.8628">
        <ele>543</ele>
        <time>2022-05-10T13:52:10Z</time>
      </trkpt>
      <trkpt lat="46.97513" lon="5.86284">
        <ele>542.2</ele>
        <time>2022-05-10T13:52:14Z</time>
      </trkpt>
      <trkpt lat="46.97516" lon="5.8629">
        <ele>540.7</ele>
        <time>2022-05-10T13:52:19Z</time>
      </trkpt>
      <trkpt lat="46.97519" lon="5.86295">
        <ele>539.9</ele>
        <time>2022-05-10T13:52:23Z</time>
      </trkpt>
      <trkpt lat="46.97523" lon="5.863">
        <ele>539.9</ele>
        <time>2022-05-10T13:52:28Z</time>
      </trkpt>
      <trkpt lat="46.97527" lon="5.86304">
        <ele>540.6</ele>
        <time>2022-05-10T13:52:33Z</time>
      </trkpt>
      <trkpt lat="46.97531" lon="5.86308">
        <ele>540.6</ele>
        <time>2022-05-10T13:52:38Z</time>
      </trkpt>
      <trkpt lat="46.97535" lon="5.86313">
        <ele>539.9</ele>
        <time>2022-05-10T13:52:43Z</time>
      </trkpt>
      <trkpt lat="46.97539" lon="5.86317">
        <ele>539.8</ele>
        <time>2022-05-10T13:52:47Z</time>
      </trkpt>
      <trkpt lat="46.97544" lon="5.86322">
        <ele>539.6</ele>
        <time>2022-05-10T13:52:52Z</time>
      </trkpt>
      <trkpt lat="46.97548" lon="5.86325">
        <ele>539.5</ele>
        <time>2022-05-10T13:52:56Z</time>
      </trkpt>
      <trkpt lat="46.97553" lon="5.86326">
        <ele>539.1</ele>
        <time>2022-05-10T13:53:02Z</time>
      </trkpt>
      <trkpt lat="46.97557" lon="5.86328">
        <ele>539.1</ele>
        <time>2022-05-10T13:53:07Z</time>
      </trkpt>
      <trkpt lat="46.97563" lon="5.86328">
        <ele>539.3</ele>
        <time>2022-05-10T13:53:12Z</time>
      </trkpt>
      <trkpt lat="46.97568" lon="5.86331">
        <ele>539.4</ele>
        <time>2022-05-10T13:53:17Z</time>
      </trkpt>
      <trkpt lat="46.97572" lon="5.86333">
        <ele>539.8</ele>
        <time>2022-05-10T13:53:20Z</time>
      </trkpt>
      <trkpt lat="46.97577" lon="5.86336">
        <ele>540.6</ele>
        <time>2022-05-10T13:53:24Z</time>
      </trkpt>
      <trkpt lat="46.97582" lon="5.86339">
        <ele>541.2</ele>
        <time>2022-05-10T13:53:28Z</time>
      </trkpt>
      <trkpt lat="46.97587" lon="5.86342">
        <ele>541.6</ele>
        <time>2022-05-10T13:53:32Z</time>
      </trkpt>
      <trkpt lat="46.97592" lon="5.86345">
        <ele>542.5</ele>
        <time>2022-05-10T13:53:36Z</time>
      </trkpt>
      <trkpt lat="46.97597" lon="5.86346">
        <ele>544.2</ele>
        <time>2022-05-10T13:53:44Z</time>
      </trkpt>
      <trkpt lat="46.97602" lon="5.86345">
        <ele>544.4</ele>
        <time>2022-05-10T13:53:50Z</time>
      </trkpt>
      <trkpt lat="46.97607" lon="5.86343">
        <ele>544.2</ele>
        <time>2022-05-10T13:53:54Z</time>
      </trkpt>
      <trkpt lat="46.97612" lon="5.86342">
        <ele>543.8</ele>
        <time>2022-05-10T13:53:58Z</time>
      </trkpt>
      <trkpt lat="46.97616" lon="5.86339">
        <ele>543.5</ele>
        <time>2022-05-10T13:54:04Z</time>
      </trkpt>
      <trkpt lat="46.97621" lon="5.86337">
        <ele>543.7</ele>
        <time>2022-05-10T13:54:09Z</time>
      </trkpt>
      <trkpt lat="46.97626" lon="5.86338">
        <ele>543.5</ele>
        <time>2022-05-10T13:54:13Z</time>
      </trkpt>
      <trkpt lat="46.9763" lon="5.86339">
        <ele>543.3</ele>
        <time>2022-05-10T13:54:16Z</time>
      </trkpt>
      <trkpt lat="46.97635" lon="5.86339">
        <ele>543.2</ele>
        <time>2022-05-10T13:54:19Z</time>
      </trkpt>
      <trkpt lat="46.9764" lon="5.86338">
        <ele>543.6</ele>
        <time>2022-05-10T13:54:23Z</time>
      </trkpt>
      <trkpt lat="46.97645" lon="5.86339">
        <ele>544.2</ele>
        <time>2022-05-10T13:54:27Z</time>
      </trkpt>
      <trkpt lat="46.9765" lon="5.86338">
        <ele>544.4</ele>
        <time>2022-05-10T13:54:31Z</time>
      </trkpt>
      <trkpt lat="46.97655" lon="5.86338">
        <ele>544.7</ele>
        <time>2022-05-10T13:54:36Z</time>
      </trkpt>
      <trkpt lat="46.9766" lon="5.86339">
        <ele>544.9</ele>
        <time>2022-05-10T13:54:41Z</time>
      </trkpt>
      <trkpt lat="46.97666" lon="5.86339">
        <ele>544.9</ele>
        <time>2022-05-10T13:54:46Z</time>
      </trkpt>
      <trkpt lat="46.97671" lon="5.86341">
        <ele>544.8</ele>
        <time>2022-05-10T13:54:51Z</time>
      </trkpt>
      <trkpt lat="46.97676" lon="5.86342">
        <ele>544</ele>
        <time>2022-05-10T13:54:55Z</time>
      </trkpt>
      <trkpt lat="46.97681" lon="5.86344">
        <ele>543</ele>
        <time>2022-05-10T13:55:00Z</time>
      </trkpt>
      <trkpt lat="46.97686" lon="5.86345">
        <ele>542.4</ele>
        <time>2022-05-10T13:55:05Z</time>
      </trkpt>
      <trkpt lat="46.97691" lon="5.86345">
        <ele>542</ele>
        <time>2022-05-10T13:55:09Z</time>
      </trkpt>
      <trkpt lat="46.97696" lon="5.86344">
        <ele>541.9</ele>
        <time>2022-05-10T13:55:13Z</time>
      </trkpt>
      <trkpt lat="46.97701" lon="5.86344">
        <ele>542</ele>
        <time>2022-05-10T13:55:18Z</time>
      </trkpt>
      <trkpt lat="46.97706" lon="5.86346">
        <ele>542.5</ele>
        <time>2022-05-10T13:55:24Z</time>
      </trkpt>
      <trkpt lat="46.97712" lon="5.86346">
        <ele>542.9</ele>
        <time>2022-05-10T13:55:29Z</time>
      </trkpt>
      <trkpt lat="46.97716" lon="5.86345">
        <ele>542.8</ele>
        <time>2022-05-10T13:55:33Z</time>
      </trkpt>
      <trkpt lat="46.97721" lon="5.86344">
        <ele>542.3</ele>
        <time>2022-05-10T13:55:38Z</time>
      </trkpt>
      <trkpt lat="46.97726" lon="5.8634">
        <ele>541.7</ele>
        <time>2022-05-10T13:55:43Z</time>
      </trkpt>
      <trkpt lat="46.9773" lon="5.86337">
        <ele>541.5</ele>
        <time>2022-05-10T13:55:48Z</time>
      </trkpt>
      <trkpt lat="46.97736" lon="5.86336">
        <ele>541.7</ele>
        <time>2022-05-10T13:55:52Z</time>
      </trkpt>
      <trkpt lat="46.97741" lon="5.86335">
        <ele>542.4</ele>
        <time>2022-05-10T13:55:56Z</time>
      </trkpt>
      <trkpt lat="46.97746" lon="5.86334">
        <ele>543.8</ele>
        <time>2022-05-10T13:56:01Z</time>
      </trkpt>
      <trkpt lat="46.9775" lon="5.86331">
        <ele>545</ele>
        <time>2022-05-10T13:56:05Z</time>
      </trkpt>
      <trkpt lat="46.97755" lon="5.86328">
        <ele>546.2</ele>
        <time>2022-05-10T13:56:10Z</time>
      </trkpt>
      <trkpt lat="46.97759" lon="5.86326">
        <ele>546.2</ele>
        <time>2022-05-10T13:56:14Z</time>
      </trkpt>
      <trkpt lat="46.97764" lon="5.86324">
        <ele>545.7</ele>
        <time>2022-05-10T13:56:18Z</time>
      </trkpt>
      <trkpt lat="46.97768" lon="5.86323">
        <ele>545</ele>
        <time>2022-05-10T13:56:22Z</time>
      </trkpt>
      <trkpt lat="46.97773" lon="5.86323">
        <ele>544.5</ele>
        <time>2022-05-10T13:56:26Z</time>
      </trkpt>
      <trkpt lat="46.97778" lon="5.8632">
        <ele>543.9</ele>
        <time>2022-05-10T13:56:31Z</time>
      </trkpt>
      <trkpt lat="46.97784" lon="5.8632">
        <ele>543.6</ele>
        <time>2022-05-10T13:56:36Z</time>
      </trkpt>
      <trkpt lat="46.97789" lon="5.86318">
        <ele>543.6</ele>
        <time>2022-05-10T13:56:41Z</time>
      </trkpt>
      <trkpt lat="46.97793" lon="5.86318">
        <ele>543.4</ele>
        <time>2022-05-10T13:56:45Z</time>
      </trkpt>
      <trkpt lat="46.97798" lon="5.86318">
        <ele>542.9</ele>
        <time>2022-05-10T13:56:49Z</time>
      </trkpt>
      <trkpt lat="46.97803" lon="5.86318">
        <ele>542.7</ele>
        <time>2022-05-10T13:56:54Z</time>
      </trkpt>
      <trkpt lat="46.97808" lon="5.86319">
        <ele>541.9</ele>
        <time>2022-05-10T13:57:00Z</time>
      </trkpt>
      <trkpt lat="46.97814" lon="5.8632">
        <ele>541.1</ele>
        <time>2022-05-10T13:57:06Z</time>
      </trkpt>
      <trkpt lat="46.97819" lon="5.86322">
        <ele>540.5</ele>
        <time>2022-05-10T13:57:11Z</time>
      </trkpt>
      <trkpt lat="46.97825" lon="5.86322">
        <ele>540</ele>
        <time>2022-05-10T13:57:15Z</time>
      </trkpt>
      <trkpt lat="46.9783" lon="5.86322">
        <ele>539.7</ele>
        <time>2022-05-10T13:57:19Z</time>
      </trkpt>
      <trkpt lat="46.97835" lon="5.86323">
        <ele>539.4</ele>
        <time>2022-05-10T13:57:23Z</time>
      </trkpt>
      <trkpt lat="46.97839" lon="5.86324">
        <ele>539.1</ele>
        <time>2022-05-10T13:57:27Z</time>
      </trkpt>
      <trkpt lat="46.97845" lon="5.86325">
        <ele>539.2</ele>
        <time>2022-05-10T13:57:32Z</time>
      </trkpt>
      <trkpt lat="46.97849" lon="5.86327">
        <ele>539.8</ele>
        <time>2022-05-10T13:57:37Z</time>
      </trkpt>
      <trkpt lat="46.97854" lon="5.86331">
        <ele>540.3</ele>
        <time>2022-05-10T13:57:43Z</time>
      </trkpt>
      <trkpt lat="46.97859" lon="5.86334">
        <ele>540.5</ele>
        <time>2022-05-10T13:57:49Z</time>
      </trkpt>
      <trkpt lat="46.97863" lon="5.86338">
        <ele>540.3</ele>
        <time>2022-05-10T13:57:54Z</time>
      </trkpt>
      <trkpt lat="46.97868" lon="5.86342">
        <ele>539.9</ele>
        <time>2022-05-10T13:57:59Z</time>
      </trkpt>
      <trkpt lat="46.97872" lon="5.86346">
        <ele>539.5</ele>
        <time>2022-05-10T13:58:05Z</time>
      </trkpt>
      <trkpt lat="46.97877" lon="5.86349">
        <ele>539</ele>
        <time>2022-05-10T13:58:09Z</time>
      </trkpt>
      <trkpt lat="46.97882" lon="5.86352">
        <ele>538.3</ele>
        <time>2022-05-10T13:58:14Z</time>
      </trkpt>
      <trkpt lat="46.97886" lon="5.86357">
        <ele>537.9</ele>
        <time>2022-05-10T13:58:19Z</time>
      </trkpt>
      <trkpt lat="46.97891" lon="5.8636">
        <ele>538.5</ele>
        <time>2022-05-10T13:58:23Z</time>
      </trkpt>
      <trkpt lat="46.97895" lon="5.86366">
        <ele>539.3</ele>
        <time>2022-05-10T13:58:29Z</time>
      </trkpt>
      <trkpt lat="46.97898" lon="5.86372">
        <ele>540</ele>
        <time>2022-05-10T13:58:34Z</time>
      </trkpt>
      <trkpt lat="46.97902" lon="5.86377">
        <ele>540.6</ele>
        <time>2022-05-10T13:58:39Z</time>
      </trkpt>
      <trkpt lat="46.97904" lon="5.86382">
        <ele>540.9</ele>
        <time>2022-05-10T13:58:44Z</time>
      </trkpt>
      <trkpt lat="46.97908" lon="5.86388">
        <ele>541</ele>
        <time>2022-05-10T13:58:49Z</time>
      </trkpt>
      <trkpt lat="46.97911" lon="5.86393">
        <ele>540.7</ele>
        <time>2022-05-10T13:58:53Z</time>
      </trkpt>
      <trkpt lat="46.97915" lon="5.86397">
        <ele>540.4</ele>
        <time>2022-05-10T13:58:58Z</time>
      </trkpt>
      <trkpt lat="46.9792" lon="5.86402">
        <ele>540.2</ele>
        <time>2022-05-10T13:59:03Z</time>
      </trkpt>
      <trkpt lat="46.97923" lon="5.86406">
        <ele>540.2</ele>
        <time>2022-05-10T13:59:07Z</time>
      </trkpt>
      <trkpt lat="46.97928" lon="5.8641">
        <ele>540.4</ele>
        <time>2022-05-10T13:59:11Z</time>
      </trkpt>
      <trkpt lat="46.97932" lon="5.86413">
        <ele>541.1</ele>
        <time>2022-05-10T13:59:15Z</time>
      </trkpt>
      <trkpt lat="46.97936" lon="5.86416">
        <ele>541.9</ele>
        <time>2022-05-10T13:59:19Z</time>
      </trkpt>
      <trkpt lat="46.9794" lon="5.8642">
        <ele>542.4</ele>
        <time>2022-05-10T13:59:23Z</time>
      </trkpt>
      <trkpt lat="46.97944" lon="5.86423">
        <ele>542.6</ele>
        <time>2022-05-10T13:59:28Z</time>
      </trkpt>
      <trkpt lat="46.97948" lon="5.86429">
        <ele>543.1</ele>
        <time>2022-05-10T13:59:35Z</time>
      </trkpt>
      <trkpt lat="46.97952" lon="5.86435">
        <ele>544.1</ele>
        <time>2022-05-10T13:59:40Z</time>
      </trkpt>
      <trkpt lat="46.97957" lon="5.86439">
        <ele>544.9</ele>
        <time>2022-05-10T13:59:44Z</time>
      </trkpt>
      <trkpt lat="46.97962" lon="5.86443">
        <ele>545.7</ele>
        <time>2022-05-10T13:59:48Z</time>
      </trkpt>
      <trkpt lat="46.97967" lon="5.86445">
        <ele>545.9</ele>
        <time>2022-05-10T13:59:52Z</time>
      </trkpt>
      <trkpt lat="46.97972" lon="5.86446">
        <ele>545.9</ele>
        <time>2022-05-10T13:59:56Z</time>
      </trkpt>
      <trkpt lat="46.97978" lon="5.86446">
        <ele>545.7</ele>
        <time>2022-05-10T14:00:00Z</time>
      </trkpt>
      <trkpt lat="46.97982" lon="5.86449">
        <ele>545.6</ele>
        <time>2022-05-10T14:00:04Z</time>
      </trkpt>
      <trkpt lat="46.97987" lon="5.86451">
        <ele>545.1</ele>
        <time>2022-05-10T14:00:09Z</time>
      </trkpt>
      <trkpt lat="46.97993" lon="5.86454">
        <ele>544.6</ele>
        <time>2022-05-10T14:00:14Z</time>
      </trkpt>
      <trkpt lat="46.97998" lon="5.86454">
        <ele>544.1</ele>
        <time>2022-05-10T14:00:18Z</time>
      </trkpt>
      <trkpt lat="46.98003" lon="5.86455">
        <ele>543.9</ele>
        <time>2022-05-10T14:00:23Z</time>
      </trkpt>
      <trkpt lat="46.98008" lon="5.86456">
        <ele>543.6</ele>
        <time>2022-05-10T14:00:29Z</time>
      </trkpt>
      <trkpt lat="46.98013" lon="5.86457">
        <ele>543.3</ele>
        <time>2022-05-10T14:00:35Z</time>
      </trkpt>
      <trkpt lat="46.98018" lon="5.86457">
        <ele>543.2</ele>
        <time>2022-05-10T14:00:40Z</time>
      </trkpt>
      <trkpt lat="46.98023" lon="5.86456">
        <ele>543.2</ele>
        <time>2022-05-10T14:00:43Z</time>
      </trkpt>
      <trkpt lat="46.98029" lon="5.86456">
        <ele>543.8</ele>
        <time>2022-05-10T14:00:47Z</time>
      </trkpt>
      <trkpt lat="46.98034" lon="5.86456">
        <ele>544.9</ele>
        <time>2022-05-10T14:00:52Z</time>
      </trkpt>
      <trkpt lat="46.98039" lon="5.86456">
        <ele>545.8</ele>
        <time>2022-05-10T14:00:57Z</time>
      </trkpt>
      <trkpt lat="46.98044" lon="5.86457">
        <ele>546.3</ele>
        <time>2022-05-10T14:01:01Z</time>
      </trkpt>
      <trkpt lat="46.9805" lon="5.86457">
        <ele>546.7</ele>
        <time>2022-05-10T14:01:05Z</time>
      </trkpt>
      <trkpt lat="46.98055" lon="5.86458">
        <ele>547.5</ele>
        <time>2022-05-10T14:01:10Z</time>
      </trkpt>
      <trkpt lat="46.98059" lon="5.86457">
        <ele>548.3</ele>
        <time>2022-05-10T14:01:14Z</time>
      </trkpt>
      <trkpt lat="46.98064" lon="5.86456">
        <ele>548.9</ele>
        <time>2022-05-10T14:01:17Z</time>
      </trkpt>
      <trkpt lat="46.98069" lon="5.86456">
        <ele>548.9</ele>
        <time>2022-05-10T14:01:22Z</time>
      </trkpt>
      <trkpt lat="46.98073" lon="5.86458">
        <ele>548.2</ele>
        <time>2022-05-10T14:01:27Z</time>
      </trkpt>
      <trkpt lat="46.98079" lon="5.86458">
        <ele>546.3</ele>
        <time>2022-05-10T14:01:32Z</time>
      </trkpt>
      <trkpt lat="46.98084" lon="5.86457">
        <ele>544</ele>
        <time>2022-05-10T14:01:38Z</time>
      </trkpt>
      <trkpt lat="46.98088" lon="5.86457">
        <ele>543.1</ele>
        <time>2022-05-10T14:01:43Z</time>
      </trkpt>
      <trkpt lat="46.98093" lon="5.86458">
        <ele>542.3</ele>
        <time>2022-05-10T14:01:48Z</time>
      </trkpt>
      <trkpt lat="46.98097" lon="5.86458">
        <ele>541.8</ele>
        <time>2022-05-10T14:01:53Z</time>
      </trkpt>
      <trkpt lat="46.98103" lon="5.86459">
        <ele>541.6</ele>
        <time>2022-05-10T14:01:59Z</time>
      </trkpt>
      <trkpt lat="46.98108" lon="5.86459">
        <ele>541.4</ele>
        <time>2022-05-10T14:02:04Z</time>
      </trkpt>
      <trkpt lat="46.98112" lon="5.86461">
        <ele>540.9</ele>
        <time>2022-05-10T14:02:09Z</time>
      </trkpt>
      <trkpt lat="46.98117" lon="5.86462">
        <ele>539.8</ele>
        <time>2022-05-10T14:02:14Z</time>
      </trkpt>
      <trkpt lat="46.98121" lon="5.86464">
        <ele>538.9</ele>
        <time>2022-05-10T14:02:18Z</time>
      </trkpt>
      <trkpt lat="46.98126" lon="5.86466">
        <ele>538.4</ele>
        <time>2022-05-10T14:02:22Z</time>
      </trkpt>
      <trkpt lat="46.9813" lon="5.86468">
        <ele>538.3</ele>
        <time>2022-05-10T14:02:26Z</time>
      </trkpt>
      <trkpt lat="46.98135" lon="5.86471">
        <ele>538.8</ele>
        <time>2022-05-10T14:02:30Z</time>
      </trkpt>
      <trkpt lat="46.98141" lon="5.86469">
        <ele>545.4</ele>
        <time>2022-05-10T14:03:43Z</time>
      </trkpt>
      <trkpt lat="46.98145" lon="5.86472">
        <ele>546</ele>
        <time>2022-05-10T14:03:47Z</time>
      </trkpt>
      <trkpt lat="46.9815" lon="5.86475">
        <ele>546.5</ele>
        <time>2022-05-10T14:03:51Z</time>
      </trkpt>
      <trkpt lat="46.98154" lon="5.86478">
        <ele>547.1</ele>
        <time>2022-05-10T14:03:56Z</time>
      </trkpt>
      <trkpt lat="46.98159" lon="5.86481">
        <ele>547.3</ele>
        <time>2022-05-10T14:04:02Z</time>
      </trkpt>
      <trkpt lat="46.98163" lon="5.86482">
        <ele>547.2</ele>
        <time>2022-05-10T14:04:06Z</time>
      </trkpt>
      <trkpt lat="46.98169" lon="5.86483">
        <ele>547</ele>
        <time>2022-05-10T14:04:11Z</time>
      </trkpt>
      <trkpt lat="46.98173" lon="5.86486">
        <ele>546.8</ele>
        <time>2022-05-10T14:04:16Z</time>
      </trkpt>
      <trkpt lat="46.98178" lon="5.86488">
        <ele>546.8</ele>
        <time>2022-05-10T14:04:21Z</time>
      </trkpt>
      <trkpt lat="46.98183" lon="5.86489">
        <ele>546.8</ele>
        <time>2022-05-10T14:04:25Z</time>
      </trkpt>
      <trkpt lat="46.98187" lon="5.86491">
        <ele>546.7</ele>
        <time>2022-05-10T14:04:29Z</time>
      </trkpt>
      <trkpt lat="46.98192" lon="5.86493">
        <ele>546.4</ele>
        <time>2022-05-10T14:04:34Z</time>
      </trkpt>
      <trkpt lat="46.98197" lon="5.86497">
        <ele>545.7</ele>
        <time>2022-05-10T14:04:41Z</time>
      </trkpt>
      <trkpt lat="46.98201" lon="5.865">
        <ele>545.2</ele>
        <time>2022-05-10T14:04:45Z</time>
      </trkpt>
      <trkpt lat="46.98206" lon="5.86502">
        <ele>544.4</ele>
        <time>2022-05-10T14:04:49Z</time>
      </trkpt>
      <trkpt lat="46.9821" lon="5.86504">
        <ele>544</ele>
        <time>2022-05-10T14:04:54Z</time>
      </trkpt>
      <trkpt lat="46.98214" lon="5.86508">
        <ele>543.8</ele>
        <time>2022-05-10T14:04:59Z</time>
      </trkpt>
      <trkpt lat="46.98219" lon="5.86511">
        <ele>543.7</ele>
        <time>2022-05-10T14:05:04Z</time>
      </trkpt>
      <trkpt lat="46.98223" lon="5.86515">
        <ele>543</ele>
        <time>2022-05-10T14:05:09Z</time>
      </trkpt>
      <trkpt lat="46.98227" lon="5.86519">
        <ele>542.1</ele>
        <time>2022-05-10T14:05:14Z</time>
      </trkpt>
      <trkpt lat="46.98232" lon="5.86523">
        <ele>541.2</ele>
        <time>2022-05-10T14:05:19Z</time>
      </trkpt>
      <trkpt lat="46.98236" lon="5.86527">
        <ele>540.7</ele>
        <time>2022-05-10T14:05:23Z</time>
      </trkpt>
      <trkpt lat="46.98241" lon="5.86531">
        <ele>540.3</ele>
        <time>2022-05-10T14:05:28Z</time>
      </trkpt>
      <trkpt lat="46.98246" lon="5.86535">
        <ele>540.1</ele>
        <time>2022-05-10T14:05:33Z</time>
      </trkpt>
      <trkpt lat="46.98249" lon="5.86539">
        <ele>539.5</ele>
        <time>2022-05-10T14:05:38Z</time>
      </trkpt>
      <trkpt lat="46.98252" lon="5.86545">
        <ele>538.3</ele>
        <time>2022-05-10T14:05:44Z</time>
      </trkpt>
      <trkpt lat="46.98255" lon="5.86552">
        <ele>537.3</ele>
        <time>2022-05-10T14:05:49Z</time>
      </trkpt>
      <trkpt lat="46.98259" lon="5.86558">
        <ele>536.6</ele>
        <time>2022-05-10T14:05:54Z</time>
      </trkpt>
      <trkpt lat="46.98262" lon="5.86563">
        <ele>536.2</ele>
        <time>2022-05-10T14:05:58Z</time>
      </trkpt>
      <trkpt lat="46.98265" lon="5.86568">
        <ele>535.9</ele>
        <time>2022-05-10T14:06:02Z</time>
      </trkpt>
      <trkpt lat="46.98269" lon="5.86572">
        <ele>536</ele>
        <time>2022-05-10T14:06:06Z</time>
      </trkpt>
      <trkpt lat="46.98272" lon="5.86578">
        <ele>535.9</ele>
        <time>2022-05-10T14:06:11Z</time>
      </trkpt>
      <trkpt lat="46.98277" lon="5.86582">
        <ele>536.4</ele>
        <time>2022-05-10T14:06:31Z</time>
      </trkpt>
      <trkpt lat="46.9828" lon="5.86587">
        <ele>534.8</ele>
        <time>2022-05-10T14:06:36Z</time>
      </trkpt>
      <trkpt lat="46.98283" lon="5.86592">
        <ele>533.7</ele>
        <time>2022-05-10T14:06:42Z</time>
      </trkpt>
      <trkpt lat="46.98286" lon="5.86597">
        <ele>533.5</ele>
        <time>2022-05-10T14:06:47Z</time>
      </trkpt>
      <trkpt lat="46.98289" lon="5.86603">
        <ele>533.1</ele>
        <time>2022-05-10T14:06:52Z</time>
      </trkpt>
      <trkpt lat="46.98293" lon="5.86607">
        <ele>532.6</ele>
        <time>2022-05-10T14:06:57Z</time>
      </trkpt>
      <trkpt lat="46.98297" lon="5.86611">
        <ele>532.1</ele>
        <time>2022-05-10T14:07:01Z</time>
      </trkpt>
      <trkpt lat="46.98301" lon="5.86617">
        <ele>532.1</ele>
        <time>2022-05-10T14:07:07Z</time>
      </trkpt>
      <trkpt lat="46.98305" lon="5.86622">
        <ele>533.3</ele>
        <time>2022-05-10T14:07:13Z</time>
      </trkpt>
      <trkpt lat="46.98308" lon="5.86627">
        <ele>534</ele>
        <time>2022-05-10T14:07:19Z</time>
      </trkpt>
      <trkpt lat="46.98312" lon="5.86633">
        <ele>534.1</ele>
        <time>2022-05-10T14:07:24Z</time>
      </trkpt>
      <trkpt lat="46.98315" lon="5.86637">
        <ele>533.9</ele>
        <time>2022-05-10T14:07:28Z</time>
      </trkpt>
      <trkpt lat="46.98319" lon="5.86642">
        <ele>533.9</ele>
        <time>2022-05-10T14:07:33Z</time>
      </trkpt>
      <trkpt lat="46.98324" lon="5.86645">
        <ele>533.8</ele>
        <time>2022-05-10T14:07:39Z</time>
      </trkpt>
      <trkpt lat="46.98327" lon="5.8665">
        <ele>532.6</ele>
        <time>2022-05-10T14:07:48Z</time>
      </trkpt>
      <trkpt lat="46.9833" lon="5.86655">
        <ele>531.8</ele>
        <time>2022-05-10T14:07:53Z</time>
      </trkpt>
      <trkpt lat="46.98334" lon="5.86658">
        <ele>531.2</ele>
        <time>2022-05-10T14:08:02Z</time>
      </trkpt>
      <trkpt lat="46.98338" lon="5.86664">
        <ele>531.3</ele>
        <time>2022-05-10T14:08:09Z</time>
      </trkpt>
      <trkpt lat="46.98341" lon="5.8667">
        <ele>531.5</ele>
        <time>2022-05-10T14:08:15Z</time>
      </trkpt>
      <trkpt lat="46.98345" lon="5.86675">
        <ele>531.6</ele>
        <time>2022-05-10T14:08:20Z</time>
      </trkpt>
      <trkpt lat="46.98349" lon="5.86679">
        <ele>531.6</ele>
        <time>2022-05-10T14:08:24Z</time>
      </trkpt>
      <trkpt lat="46.98354" lon="5.86682">
        <ele>531.5</ele>
        <time>2022-05-10T14:08:28Z</time>
      </trkpt>
      <trkpt lat="46.98358" lon="5.86685">
        <ele>531.4</ele>
        <time>2022-05-10T14:08:32Z</time>
      </trkpt>
      <trkpt lat="46.98362" lon="5.86689">
        <ele>531.5</ele>
        <time>2022-05-10T14:08:38Z</time>
      </trkpt>
      <trkpt lat="46.98367" lon="5.86693">
        <ele>531</ele>
        <time>2022-05-10T14:08:43Z</time>
      </trkpt>
      <trkpt lat="46.98371" lon="5.86697">
        <ele>530.5</ele>
        <time>2022-05-10T14:08:48Z</time>
      </trkpt>
      <trkpt lat="46.98376" lon="5.86698">
        <ele>529.8</ele>
        <time>2022-05-10T14:08:52Z</time>
      </trkpt>
      <trkpt lat="46.98381" lon="5.86702">
        <ele>529</ele>
        <time>2022-05-10T14:08:56Z</time>
      </trkpt>
      <trkpt lat="46.98385" lon="5.86705">
        <ele>528.5</ele>
        <time>2022-05-10T14:09:00Z</time>
      </trkpt>
      <trkpt lat="46.98389" lon="5.86708">
        <ele>528.5</ele>
        <time>2022-05-10T14:09:06Z</time>
      </trkpt>
      <trkpt lat="46.98386" lon="5.86714">
        <ele>529</ele>
        <time>2022-05-10T14:10:14Z</time>
      </trkpt>
      <trkpt lat="46.9839" lon="5.86715">
        <ele>531</ele>
        <time>2022-05-10T14:12:17Z</time>
      </trkpt>
      <trkpt lat="46.98389" lon="5.86708">
        <ele>528.8</ele>
        <time>2022-05-10T14:12:40Z</time>
      </trkpt>
      <trkpt lat="46.98394" lon="5.86709">
        <ele>528.2</ele>
        <time>2022-05-10T14:12:50Z</time>
      </trkpt>
      <trkpt lat="46.98398" lon="5.86708">
        <ele>528.3</ele>
        <time>2022-05-10T14:12:55Z</time>
      </trkpt>
      <trkpt lat="46.98401" lon="5.86703">
        <ele>528</ele>
        <time>2022-05-10T14:13:07Z</time>
      </trkpt>
      <trkpt lat="46.98401" lon="5.86696">
        <ele>527.7</ele>
        <time>2022-05-10T14:13:14Z</time>
      </trkpt>
      <trkpt lat="46.984" lon="5.86703">
        <ele>525.6</ele>
        <time>2022-05-10T14:13:33Z</time>
      </trkpt>
      <trkpt lat="46.98397" lon="5.86708">
        <ele>526.4</ele>
        <time>2022-05-10T14:13:42Z</time>
      </trkpt>
      <trkpt lat="46.98396" lon="5.86715">
        <ele>526.4</ele>
        <time>2022-05-10T14:13:48Z</time>
      </trkpt>
      <trkpt lat="46.98399" lon="5.8672">
        <ele>525.2</ele>
        <time>2022-05-10T14:14:00Z</time>
      </trkpt>
      <trkpt lat="46.98404" lon="5.86723">
        <ele>524.8</ele>
        <time>2022-05-10T14:14:21Z</time>
      </trkpt>
      <trkpt lat="46.98408" lon="5.86728">
        <ele>524.8</ele>
        <time>2022-05-10T14:14:27Z</time>
      </trkpt>
      <trkpt lat="46.98412" lon="5.86731">
        <ele>524.3</ele>
        <time>2022-05-10T14:14:33Z</time>
      </trkpt>
      <trkpt lat="46.98416" lon="5.86735">
        <ele>523.8</ele>
        <time>2022-05-10T14:14:38Z</time>
      </trkpt>
      <trkpt lat="46.9842" lon="5.86738">
        <ele>523.1</ele>
        <time>2022-05-10T14:14:43Z</time>
      </trkpt>
      <trkpt lat="46.98424" lon="5.86742">
        <ele>522.3</ele>
        <time>2022-05-10T14:14:48Z</time>
      </trkpt>
      <trkpt lat="46.98428" lon="5.86748">
        <ele>521.4</ele>
        <time>2022-05-10T14:14:53Z</time>
      </trkpt>
      <trkpt lat="46.9843" lon="5.86753">
        <ele>520.8</ele>
        <time>2022-05-10T14:14:57Z</time>
      </trkpt>
      <trkpt lat="46.98434" lon="5.86757">
        <ele>520.4</ele>
        <time>2022-05-10T14:15:01Z</time>
      </trkpt>
      <trkpt lat="46.98438" lon="5.86761">
        <ele>519.5</ele>
        <time>2022-05-10T14:15:06Z</time>
      </trkpt>
      <trkpt lat="46.98441" lon="5.86765">
        <ele>519</ele>
        <time>2022-05-10T14:15:12Z</time>
      </trkpt>
      <trkpt lat="46.98445" lon="5.8677">
        <ele>518.5</ele>
        <time>2022-05-10T14:15:19Z</time>
      </trkpt>
      <trkpt lat="46.98449" lon="5.86775">
        <ele>518</ele>
        <time>2022-05-10T14:15:25Z</time>
      </trkpt>
      <trkpt lat="46.98452" lon="5.8678">
        <ele>516.5</ele>
        <time>2022-05-10T14:15:36Z</time>
      </trkpt>
      <trkpt lat="46.98456" lon="5.86784">
        <ele>516.4</ele>
        <time>2022-05-10T14:15:45Z</time>
      </trkpt>
      <trkpt lat="46.98461" lon="5.86787">
        <ele>518.5</ele>
        <time>2022-05-10T14:15:59Z</time>
      </trkpt>
      <trkpt lat="46.98465" lon="5.86791">
        <ele>521.5</ele>
        <time>2022-05-10T14:16:49Z</time>
      </trkpt>
      <trkpt lat="46.98469" lon="5.86794">
        <ele>521.1</ele>
        <time>2022-05-10T14:16:54Z</time>
      </trkpt>
      <trkpt lat="46.98474" lon="5.86795">
        <ele>520.4</ele>
        <time>2022-05-10T14:16:59Z</time>
      </trkpt>
      <trkpt lat="46.98478" lon="5.86799">
        <ele>518.6</ele>
        <time>2022-05-10T14:17:05Z</time>
      </trkpt>
      <trkpt lat="46.98482" lon="5.86804">
        <ele>517.3</ele>
        <time>2022-05-10T14:17:11Z</time>
      </trkpt>
      <trkpt lat="46.98486" lon="5.86808">
        <ele>516.1</ele>
        <time>2022-05-10T14:17:16Z</time>
      </trkpt>
      <trkpt lat="46.9849" lon="5.86811">
        <ele>515.2</ele>
        <time>2022-05-10T14:17:21Z</time>
      </trkpt>
      <trkpt lat="46.98494" lon="5.86815">
        <ele>514.5</ele>
        <time>2022-05-10T14:17:27Z</time>
      </trkpt>
      <trkpt lat="46.98498" lon="5.86819">
        <ele>513.6</ele>
        <time>2022-05-10T14:17:34Z</time>
      </trkpt>
      <trkpt lat="46.98502" lon="5.86823">
        <ele>512.5</ele>
        <time>2022-05-10T14:17:40Z</time>
      </trkpt>
      <trkpt lat="46.98505" lon="5.86827">
        <ele>511.6</ele>
        <time>2022-05-10T14:17:45Z</time>
      </trkpt>
      <trkpt lat="46.98508" lon="5.86833">
        <ele>510.6</ele>
        <time>2022-05-10T14:17:50Z</time>
      </trkpt>
      <trkpt lat="46.9851" lon="5.86838">
        <ele>508.9</ele>
        <time>2022-05-10T14:17:56Z</time>
      </trkpt>
      <trkpt lat="46.98513" lon="5.86845">
        <ele>507.3</ele>
        <time>2022-05-10T14:18:02Z</time>
      </trkpt>
      <trkpt lat="46.98517" lon="5.8685">
        <ele>506.1</ele>
        <time>2022-05-10T14:18:07Z</time>
      </trkpt>
      <trkpt lat="46.98521" lon="5.86854">
        <ele>504.5</ele>
        <time>2022-05-10T14:18:13Z</time>
      </trkpt>
      <trkpt lat="46.98525" lon="5.86857">
        <ele>502.9</ele>
        <time>2022-05-10T14:18:18Z</time>
      </trkpt>
      <trkpt lat="46.9853" lon="5.86861">
        <ele>501.6</ele>
        <time>2022-05-10T14:18:23Z</time>
      </trkpt>
      <trkpt lat="46.98533" lon="5.86866">
        <ele>500.3</ele>
        <time>2022-05-10T14:18:29Z</time>
      </trkpt>
      <trkpt lat="46.98538" lon="5.8687">
        <ele>499.2</ele>
        <time>2022-05-10T14:18:34Z</time>
      </trkpt>
      <trkpt lat="46.98542" lon="5.86874">
        <ele>498.6</ele>
        <time>2022-05-10T14:18:38Z</time>
      </trkpt>
      <trkpt lat="46.98546" lon="5.86879">
        <ele>498.5</ele>
        <time>2022-05-10T14:18:42Z</time>
      </trkpt>
      <trkpt lat="46.98548" lon="5.86886">
        <ele>498.5</ele>
        <time>2022-05-10T14:18:46Z</time>
      </trkpt>
      <trkpt lat="46.98549" lon="5.86892">
        <ele>498.5</ele>
        <time>2022-05-10T14:18:51Z</time>
      </trkpt>
      <trkpt lat="46.98551" lon="5.86899">
        <ele>499</ele>
        <time>2022-05-10T14:18:58Z</time>
      </trkpt>
      <trkpt lat="46.98554" lon="5.86905">
        <ele>499.5</ele>
        <time>2022-05-10T14:19:07Z</time>
      </trkpt>
      <trkpt lat="46.98557" lon="5.8691">
        <ele>499.5</ele>
        <time>2022-05-10T14:19:11Z</time>
      </trkpt>
      <trkpt lat="46.98563" lon="5.86913">
        <ele>499.4</ele>
        <time>2022-05-10T14:19:15Z</time>
      </trkpt>
      <trkpt lat="46.98567" lon="5.86917">
        <ele>499</ele>
        <time>2022-05-10T14:19:19Z</time>
      </trkpt>
      <trkpt lat="46.98571" lon="5.86922">
        <ele>498.4</ele>
        <time>2022-05-10T14:19:23Z</time>
      </trkpt>
      <trkpt lat="46.98575" lon="5.86925">
        <ele>497.3</ele>
        <time>2022-05-10T14:19:28Z</time>
      </trkpt>
      <trkpt lat="46.98579" lon="5.86929">
        <ele>496.2</ele>
        <time>2022-05-10T14:19:34Z</time>
      </trkpt>
      <trkpt lat="46.98583" lon="5.86934">
        <ele>495.6</ele>
        <time>2022-05-10T14:19:40Z</time>
      </trkpt>
      <trkpt lat="46.98586" lon="5.86938">
        <ele>495.9</ele>
        <time>2022-05-10T14:19:46Z</time>
      </trkpt>
      <trkpt lat="46.9859" lon="5.86942">
        <ele>496.9</ele>
        <time>2022-05-10T14:19:51Z</time>
      </trkpt>
      <trkpt lat="46.98595" lon="5.86944">
        <ele>497.6</ele>
        <time>2022-05-10T14:19:57Z</time>
      </trkpt>
      <trkpt lat="46.98599" lon="5.86945">
        <ele>497.2</ele>
        <time>2022-05-10T14:20:01Z</time>
      </trkpt>
      <trkpt lat="46.98604" lon="5.86944">
        <ele>496.1</ele>
        <time>2022-05-10T14:20:07Z</time>
      </trkpt>
      <trkpt lat="46.98609" lon="5.86945">
        <ele>495.7</ele>
        <time>2022-05-10T14:20:11Z</time>
      </trkpt>
      <trkpt lat="46.98615" lon="5.86945">
        <ele>495.9</ele>
        <time>2022-05-10T14:20:15Z</time>
      </trkpt>
      <trkpt lat="46.9862" lon="5.86943">
        <ele>497.1</ele>
        <time>2022-05-10T14:20:20Z</time>
      </trkpt>
      <trkpt lat="46.98625" lon="5.86942">
        <ele>498.7</ele>
        <time>2022-05-10T14:20:29Z</time>
      </trkpt>
      <trkpt lat="46.98631" lon="5.86943">
        <ele>499.4</ele>
        <time>2022-05-10T14:20:33Z</time>
      </trkpt>
      <trkpt lat="46.98636" lon="5.86942">
        <ele>499.4</ele>
        <time>2022-05-10T14:20:38Z</time>
      </trkpt>
      <trkpt lat="46.98641" lon="5.8694">
        <ele>499.1</ele>
        <time>2022-05-10T14:20:43Z</time>
      </trkpt>
      <trkpt lat="46.98646" lon="5.8694">
        <ele>498.7</ele>
        <time>2022-05-10T14:20:49Z</time>
      </trkpt>
      <trkpt lat="46.9865" lon="5.8694">
        <ele>498.6</ele>
        <time>2022-05-10T14:20:55Z</time>
      </trkpt>
      <trkpt lat="46.98655" lon="5.86938">
        <ele>498.7</ele>
        <time>2022-05-10T14:21:01Z</time>
      </trkpt>
      <trkpt lat="46.98659" lon="5.86939">
        <ele>498.3</ele>
        <time>2022-05-10T14:21:08Z</time>
      </trkpt>
      <trkpt lat="46.98664" lon="5.86941">
        <ele>497.6</ele>
        <time>2022-05-10T14:21:13Z</time>
      </trkpt>
      <trkpt lat="46.9867" lon="5.86942">
        <ele>496.4</ele>
        <time>2022-05-10T14:21:18Z</time>
      </trkpt>
      <trkpt lat="46.98674" lon="5.86943">
        <ele>495.1</ele>
        <time>2022-05-10T14:21:23Z</time>
      </trkpt>
      <trkpt lat="46.9868" lon="5.86943">
        <ele>493.6</ele>
        <time>2022-05-10T14:21:29Z</time>
      </trkpt>
      <trkpt lat="46.98685" lon="5.86942">
        <ele>492.7</ele>
        <time>2022-05-10T14:21:33Z</time>
      </trkpt>
      <trkpt lat="46.9869" lon="5.86943">
        <ele>491.6</ele>
        <time>2022-05-10T14:21:37Z</time>
      </trkpt>
      <trkpt lat="46.98695" lon="5.86943">
        <ele>490.9</ele>
        <time>2022-05-10T14:21:44Z</time>
      </trkpt>
      <trkpt lat="46.987" lon="5.86942">
        <ele>491.3</ele>
        <time>2022-05-10T14:21:51Z</time>
      </trkpt>
      <trkpt lat="46.98705" lon="5.86944">
        <ele>491.5</ele>
        <time>2022-05-10T14:21:56Z</time>
      </trkpt>
      <trkpt lat="46.98709" lon="5.86947">
        <ele>490.2</ele>
        <time>2022-05-10T14:22:01Z</time>
      </trkpt>
      <trkpt lat="46.98712" lon="5.86953">
        <ele>488.4</ele>
        <time>2022-05-10T14:22:09Z</time>
      </trkpt>
      <trkpt lat="46.98717" lon="5.86955">
        <ele>487.3</ele>
        <time>2022-05-10T14:22:14Z</time>
      </trkpt>
      <trkpt lat="46.98722" lon="5.86954">
        <ele>486.9</ele>
        <time>2022-05-10T14:22:17Z</time>
      </trkpt>
      <trkpt lat="46.98726" lon="5.86953">
        <ele>486.6</ele>
        <time>2022-05-10T14:22:20Z</time>
      </trkpt>
      <trkpt lat="46.98732" lon="5.86952">
        <ele>486.1</ele>
        <time>2022-05-10T14:22:24Z</time>
      </trkpt>
      <trkpt lat="46.98736" lon="5.86948">
        <ele>485.1</ele>
        <time>2022-05-10T14:22:30Z</time>
      </trkpt>
      <trkpt lat="46.9874" lon="5.86943">
        <ele>484.8</ele>
        <time>2022-05-10T14:22:34Z</time>
      </trkpt>
      <trkpt lat="46.98744" lon="5.86939">
        <ele>484.3</ele>
        <time>2022-05-10T14:22:39Z</time>
      </trkpt>
      <trkpt lat="46.98748" lon="5.86934">
        <ele>484</ele>
        <time>2022-05-10T14:22:44Z</time>
      </trkpt>
      <trkpt lat="46.98751" lon="5.86929">
        <ele>483.1</ele>
        <time>2022-05-10T14:22:51Z</time>
      </trkpt>
      <trkpt lat="46.98754" lon="5.86923">
        <ele>482.5</ele>
        <time>2022-05-10T14:22:56Z</time>
      </trkpt>
      <trkpt lat="46.98758" lon="5.86919">
        <ele>481.5</ele>
        <time>2022-05-10T14:23:03Z</time>
      </trkpt>
      <trkpt lat="46.98763" lon="5.86917">
        <ele>479.5</ele>
        <time>2022-05-10T14:23:12Z</time>
      </trkpt>
      <trkpt lat="46.98767" lon="5.86916">
        <ele>477.7</ele>
        <time>2022-05-10T14:23:18Z</time>
      </trkpt>
      <trkpt lat="46.98772" lon="5.86918">
        <ele>478.7</ele>
        <time>2022-05-10T14:23:26Z</time>
      </trkpt>
      <trkpt lat="46.98776" lon="5.86923">
        <ele>479.2</ele>
        <time>2022-05-10T14:23:31Z</time>
      </trkpt>
      <trkpt lat="46.98781" lon="5.86927">
        <ele>479.2</ele>
        <time>2022-05-10T14:23:36Z</time>
      </trkpt>
      <trkpt lat="46.98785" lon="5.8693">
        <ele>478.8</ele>
        <time>2022-05-10T14:23:40Z</time>
      </trkpt>
      <trkpt lat="46.9879" lon="5.86933">
        <ele>478.2</ele>
        <time>2022-05-10T14:23:46Z</time>
      </trkpt>
      <trkpt lat="46.98795" lon="5.86935">
        <ele>478.1</ele>
        <time>2022-05-10T14:23:50Z</time>
      </trkpt>
      <trkpt lat="46.988" lon="5.86938">
        <ele>477.8</ele>
        <time>2022-05-10T14:23:56Z</time>
      </trkpt>
      <trkpt lat="46.98804" lon="5.86942">
        <ele>477</ele>
        <time>2022-05-10T14:24:01Z</time>
      </trkpt>
      <trkpt lat="46.98808" lon="5.86945">
        <ele>476.2</ele>
        <time>2022-05-10T14:24:06Z</time>
      </trkpt>
      <trkpt lat="46.98812" lon="5.86949">
        <ele>475.8</ele>
        <time>2022-05-10T14:24:12Z</time>
      </trkpt>
      <trkpt lat="46.98816" lon="5.86954">
        <ele>475.4</ele>
        <time>2022-05-10T14:24:19Z</time>
      </trkpt>
      <trkpt lat="46.98818" lon="5.86959">
        <ele>475</ele>
        <time>2022-05-10T14:24:25Z</time>
      </trkpt>
      <trkpt lat="46.98822" lon="5.86964">
        <ele>474.1</ele>
        <time>2022-05-10T14:24:30Z</time>
      </trkpt>
      <trkpt lat="46.98827" lon="5.86967">
        <ele>472.4</ele>
        <time>2022-05-10T14:24:35Z</time>
      </trkpt>
      <trkpt lat="46.98831" lon="5.86971">
        <ele>470.9</ele>
        <time>2022-05-10T14:24:40Z</time>
      </trkpt>
      <trkpt lat="46.98835" lon="5.86976">
        <ele>469.2</ele>
        <time>2022-05-10T14:24:46Z</time>
      </trkpt>
      <trkpt lat="46.9884" lon="5.8698">
        <ele>468.1</ele>
        <time>2022-05-10T14:24:51Z</time>
      </trkpt>
      <trkpt lat="46.98843" lon="5.86984">
        <ele>467.7</ele>
        <time>2022-05-10T14:24:55Z</time>
      </trkpt>
      <trkpt lat="46.98846" lon="5.86989">
        <ele>467.8</ele>
        <time>2022-05-10T14:25:03Z</time>
      </trkpt>
      <trkpt lat="46.98847" lon="5.86996">
        <ele>467.2</ele>
        <time>2022-05-10T14:25:12Z</time>
      </trkpt>
      <trkpt lat="46.98848" lon="5.87003">
        <ele>466.2</ele>
        <time>2022-05-10T14:25:25Z</time>
      </trkpt>
      <trkpt lat="46.98853" lon="5.87006">
        <ele>465.8</ele>
        <time>2022-05-10T14:25:28Z</time>
      </trkpt>
      <trkpt lat="46.98857" lon="5.87011">
        <ele>465.4</ele>
        <time>2022-05-10T14:25:31Z</time>
      </trkpt>
      <trkpt lat="46.98861" lon="5.87014">
        <ele>465</ele>
        <time>2022-05-10T14:25:35Z</time>
      </trkpt>
      <trkpt lat="46.98866" lon="5.87015">
        <ele>464.6</ele>
        <time>2022-05-10T14:25:39Z</time>
      </trkpt>
      <trkpt lat="46.98872" lon="5.87017">
        <ele>464.5</ele>
        <time>2022-05-10T14:25:44Z</time>
      </trkpt>
      <trkpt lat="46.98877" lon="5.87018">
        <ele>464.5</ele>
        <time>2022-05-10T14:25:49Z</time>
      </trkpt>
      <trkpt lat="46.98881" lon="5.87022">
        <ele>464.9</ele>
        <time>2022-05-10T14:25:52Z</time>
      </trkpt>
      <trkpt lat="46.98885" lon="5.87027">
        <ele>465.4</ele>
        <time>2022-05-10T14:25:57Z</time>
      </trkpt>
      <trkpt lat="46.98888" lon="5.87032">
        <ele>465.3</ele>
        <time>2022-05-10T14:26:03Z</time>
      </trkpt>
      <trkpt lat="46.98892" lon="5.87036">
        <ele>464.3</ele>
        <time>2022-05-10T14:26:12Z</time>
      </trkpt>
      <trkpt lat="46.98897" lon="5.87037">
        <ele>463.6</ele>
        <time>2022-05-10T14:26:18Z</time>
      </trkpt>
      <trkpt lat="46.98901" lon="5.87037">
        <ele>462.9</ele>
        <time>2022-05-10T14:26:23Z</time>
      </trkpt>
      <trkpt lat="46.98907" lon="5.87038">
        <ele>462</ele>
        <time>2022-05-10T14:26:28Z</time>
      </trkpt>
      <trkpt lat="46.98911" lon="5.8704">
        <ele>460.9</ele>
        <time>2022-05-10T14:26:33Z</time>
      </trkpt>
      <trkpt lat="46.98916" lon="5.87038">
        <ele>459.3</ele>
        <time>2022-05-10T14:26:40Z</time>
      </trkpt>
      <trkpt lat="46.98921" lon="5.8704">
        <ele>458.3</ele>
        <time>2022-05-10T14:26:46Z</time>
      </trkpt>
      <trkpt lat="46.98926" lon="5.87042">
        <ele>457.5</ele>
        <time>2022-05-10T14:26:52Z</time>
      </trkpt>
      <trkpt lat="46.9893" lon="5.87043">
        <ele>456.4</ele>
        <time>2022-05-10T14:26:58Z</time>
      </trkpt>
      <trkpt lat="46.98935" lon="5.87044">
        <ele>455.3</ele>
        <time>2022-05-10T14:27:03Z</time>
      </trkpt>
      <trkpt lat="46.98939" lon="5.87048">
        <ele>454.2</ele>
        <time>2022-05-10T14:27:07Z</time>
      </trkpt>
      <trkpt lat="46.98944" lon="5.8705">
        <ele>453.3</ele>
        <time>2022-05-10T14:27:12Z</time>
      </trkpt>
      <trkpt lat="46.98949" lon="5.87051">
        <ele>453.4</ele>
        <time>2022-05-10T14:27:16Z</time>
      </trkpt>
      <trkpt lat="46.98953" lon="5.87052">
        <ele>453.7</ele>
        <time>2022-05-10T14:27:20Z</time>
      </trkpt>
      <trkpt lat="46.98958" lon="5.87056">
        <ele>453.6</ele>
        <time>2022-05-10T14:27:25Z</time>
      </trkpt>
      <trkpt lat="46.98963" lon="5.87058">
        <ele>453.8</ele>
        <time>2022-05-10T14:27:30Z</time>
      </trkpt>
      <trkpt lat="46.98968" lon="5.87059">
        <ele>453.9</ele>
        <time>2022-05-10T14:27:34Z</time>
      </trkpt>
      <trkpt lat="46.98973" lon="5.87061">
        <ele>453.8</ele>
        <time>2022-05-10T14:27:38Z</time>
      </trkpt>
      <trkpt lat="46.98978" lon="5.87062">
        <ele>453.3</ele>
        <time>2022-05-10T14:27:43Z</time>
      </trkpt>
      <trkpt lat="46.98982" lon="5.87058">
        <ele>452.8</ele>
        <time>2022-05-10T14:27:49Z</time>
      </trkpt>
      <trkpt lat="46.98986" lon="5.87053">
        <ele>453.2</ele>
        <time>2022-05-10T14:27:57Z</time>
      </trkpt>
      <trkpt lat="46.9899" lon="5.87052">
        <ele>450.3</ele>
        <time>2022-05-10T14:28:06Z</time>
      </trkpt>
      <trkpt lat="46.9899" lon="5.87045">
        <ele>446.5</ele>
        <time>2022-05-10T14:28:13Z</time>
      </trkpt>
      <trkpt lat="46.98993" lon="5.8704">
        <ele>443.4</ele>
        <time>2022-05-10T14:28:21Z</time>
      </trkpt>
      <trkpt lat="46.98996" lon="5.87034">
        <ele>442.3</ele>
        <time>2022-05-10T14:28:28Z</time>
      </trkpt>
      <trkpt lat="46.98996" lon="5.87026">
        <ele>442.1</ele>
        <time>2022-05-10T14:28:33Z</time>
      </trkpt>
      <trkpt lat="46.98994" lon="5.87019">
        <ele>441.7</ele>
        <time>2022-05-10T14:28:39Z</time>
      </trkpt>
      <trkpt lat="46.98995" lon="5.87012">
        <ele>440.2</ele>
        <time>2022-05-10T14:28:45Z</time>
      </trkpt>
      <trkpt lat="46.98993" lon="5.87005">
        <ele>439.6</ele>
        <time>2022-05-10T14:28:49Z</time>
      </trkpt>
      <trkpt lat="46.98991" lon="5.86998">
        <ele>438.6</ele>
        <time>2022-05-10T14:28:55Z</time>
      </trkpt>
      <trkpt lat="46.98991" lon="5.86991">
        <ele>438.1</ele>
        <time>2022-05-10T14:29:00Z</time>
      </trkpt>
      <trkpt lat="46.98994" lon="5.86985">
        <ele>437.5</ele>
        <time>2022-05-10T14:29:05Z</time>
      </trkpt>
      <trkpt lat="46.98996" lon="5.86978">
        <ele>437.2</ele>
        <time>2022-05-10T14:29:10Z</time>
      </trkpt>
      <trkpt lat="46.98997" lon="5.86971">
        <ele>437.5</ele>
        <time>2022-05-10T14:29:14Z</time>
      </trkpt>
      <trkpt lat="46.98996" lon="5.86965">
        <ele>438.3</ele>
        <time>2022-05-10T14:29:20Z</time>
      </trkpt>
      <trkpt lat="46.98997" lon="5.86958">
        <ele>438.7</ele>
        <time>2022-05-10T14:29:25Z</time>
      </trkpt>
      <trkpt lat="46.99" lon="5.86951">
        <ele>438.9</ele>
        <time>2022-05-10T14:29:31Z</time>
      </trkpt>
      <trkpt lat="46.99004" lon="5.86947">
        <ele>439</ele>
        <time>2022-05-10T14:29:36Z</time>
      </trkpt>
      <trkpt lat="46.99005" lon="5.86939">
        <ele>439.5</ele>
        <time>2022-05-10T14:29:43Z</time>
      </trkpt>
      <trkpt lat="46.99006" lon="5.86932">
        <ele>439.5</ele>
        <time>2022-05-10T14:29:49Z</time>
      </trkpt>
      <trkpt lat="46.99009" lon="5.86926">
        <ele>439</ele>
        <time>2022-05-10T14:29:54Z</time>
      </trkpt>
      <trkpt lat="46.99011" lon="5.86919">
        <ele>438.5</ele>
        <time>2022-05-10T14:29:59Z</time>
      </trkpt>
      <trkpt lat="46.99012" lon="5.86911">
        <ele>439.1</ele>
        <time>2022-05-10T14:30:05Z</time>
      </trkpt>
      <trkpt lat="46.99014" lon="5.86905">
        <ele>439.4</ele>
        <time>2022-05-10T14:30:12Z</time>
      </trkpt>
      <trkpt lat="46.99013" lon="5.86898">
        <ele>440.1</ele>
        <time>2022-05-10T14:30:18Z</time>
      </trkpt>
      <trkpt lat="46.99012" lon="5.86892">
        <ele>440.9</ele>
        <time>2022-05-10T14:30:23Z</time>
      </trkpt>
      <trkpt lat="46.99012" lon="5.86885">
        <ele>440.8</ele>
        <time>2022-05-10T14:30:29Z</time>
      </trkpt>
      <trkpt lat="46.99013" lon="5.86877">
        <ele>439.9</ele>
        <time>2022-05-10T14:30:35Z</time>
      </trkpt>
      <trkpt lat="46.99016" lon="5.86871">
        <ele>439.3</ele>
        <time>2022-05-10T14:30:40Z</time>
      </trkpt>
      <trkpt lat="46.99017" lon="5.86864">
        <ele>438.9</ele>
        <time>2022-05-10T14:30:46Z</time>
      </trkpt>
      <trkpt lat="46.99017" lon="5.86857">
        <ele>437.7</ele>
        <time>2022-05-10T14:30:53Z</time>
      </trkpt>
      <trkpt lat="46.99018" lon="5.8685">
        <ele>436.7</ele>
        <time>2022-05-10T14:31:00Z</time>
      </trkpt>
      <trkpt lat="46.99021" lon="5.86844">
        <ele>436.5</ele>
        <time>2022-05-10T14:31:06Z</time>
      </trkpt>
      <trkpt lat="46.99022" lon="5.86837">
        <ele>436.5</ele>
        <time>2022-05-10T14:31:11Z</time>
      </trkpt>
      <trkpt lat="46.99024" lon="5.8683">
        <ele>436.4</ele>
        <time>2022-05-10T14:31:15Z</time>
      </trkpt>
      <trkpt lat="46.99026" lon="5.86824">
        <ele>436.5</ele>
        <time>2022-05-10T14:31:20Z</time>
      </trkpt>
      <trkpt lat="46.99028" lon="5.86818">
        <ele>437.1</ele>
        <time>2022-05-10T14:31:26Z</time>
      </trkpt>
      <trkpt lat="46.99031" lon="5.86811">
        <ele>437</ele>
        <time>2022-05-10T14:31:32Z</time>
      </trkpt>
      <trkpt lat="46.99032" lon="5.86805">
        <ele>434.3</ele>
        <time>2022-05-10T14:31:41Z</time>
      </trkpt>
      <trkpt lat="46.9903" lon="5.86797">
        <ele>432.1</ele>
        <time>2022-05-10T14:31:48Z</time>
      </trkpt>
      <trkpt lat="46.99033" lon="5.86791">
        <ele>429.9</ele>
        <time>2022-05-10T14:31:54Z</time>
      </trkpt>
      <trkpt lat="46.99036" lon="5.86785">
        <ele>428.2</ele>
        <time>2022-05-10T14:32:00Z</time>
      </trkpt>
      <trkpt lat="46.99039" lon="5.8678">
        <ele>427.1</ele>
        <time>2022-05-10T14:32:06Z</time>
      </trkpt>
      <trkpt lat="46.99043" lon="5.86776">
        <ele>426.8</ele>
        <time>2022-05-10T14:32:12Z</time>
      </trkpt>
      <trkpt lat="46.99048" lon="5.86773">
        <ele>426.9</ele>
        <time>2022-05-10T14:32:17Z</time>
      </trkpt>
      <trkpt lat="46.99054" lon="5.86771">
        <ele>427.1</ele>
        <time>2022-05-10T14:32:21Z</time>
      </trkpt>
      <trkpt lat="46.99059" lon="5.8677">
        <ele>427.5</ele>
        <time>2022-05-10T14:32:31Z</time>
      </trkpt>
      <trkpt lat="46.99064" lon="5.86771">
        <ele>428.8</ele>
        <time>2022-05-10T14:32:39Z</time>
      </trkpt>
      <trkpt lat="46.99068" lon="5.86769">
        <ele>431.8</ele>
        <time>2022-05-10T14:32:51Z</time>
      </trkpt>
      <trkpt lat="46.99071" lon="5.86764">
        <ele>431.6</ele>
        <time>2022-05-10T14:32:56Z</time>
      </trkpt>
      <trkpt lat="46.99074" lon="5.86759">
        <ele>431.3</ele>
        <time>2022-05-10T14:33:04Z</time>
      </trkpt>
      <trkpt lat="46.99076" lon="5.86753">
        <ele>430.6</ele>
        <time>2022-05-10T14:33:15Z</time>
      </trkpt>
      <trkpt lat="46.99078" lon="5.86746">
        <ele>430.6</ele>
        <time>2022-05-10T14:33:21Z</time>
      </trkpt>
      <trkpt lat="46.99082" lon="5.86742">
        <ele>430.7</ele>
        <time>2022-05-10T14:33:27Z</time>
      </trkpt>
      <trkpt lat="46.99087" lon="5.86743">
        <ele>430.6</ele>
        <time>2022-05-10T14:33:30Z</time>
      </trkpt>
      <trkpt lat="46.99092" lon="5.86744">
        <ele>430.9</ele>
        <time>2022-05-10T14:33:42Z</time>
      </trkpt>
      <trkpt lat="46.99086" lon="5.86745">
        <ele>430.7</ele>
        <time>2022-05-10T14:34:01Z</time>
      </trkpt>
      <trkpt lat="46.99082" lon="5.86741">
        <ele>431</ele>
        <time>2022-05-10T14:34:05Z</time>
      </trkpt>
      <trkpt lat="46.99078" lon="5.86743">
        <ele>431.2</ele>
        <time>2022-05-10T14:34:12Z</time>
      </trkpt>
      <trkpt lat="46.99081" lon="5.86737">
        <ele>430.9</ele>
        <time>2022-05-10T14:34:22Z</time>
      </trkpt>
      <trkpt lat="46.99086" lon="5.86736">
        <ele>429.9</ele>
        <time>2022-05-10T14:34:27Z</time>
      </trkpt>
      <trkpt lat="46.99086" lon="5.86743">
        <ele>429.6</ele>
        <time>2022-05-10T14:34:34Z</time>
      </trkpt>
      <trkpt lat="46.99085" lon="5.8675">
        <ele>430.5</ele>
        <time>2022-05-10T14:34:54Z</time>
      </trkpt>
      <trkpt lat="46.99084" lon="5.86756">
        <ele>430.5</ele>
        <time>2022-05-10T14:35:05Z</time>
      </trkpt>
      <trkpt lat="46.99088" lon="5.86762">
        <ele>429.3</ele>
        <time>2022-05-10T14:35:12Z</time>
      </trkpt>
      <trkpt lat="46.99093" lon="5.86766">
        <ele>427.4</ele>
        <time>2022-05-10T14:35:17Z</time>
      </trkpt>
      <trkpt lat="46.991" lon="5.86763">
        <ele>422.8</ele>
        <time>2022-05-10T14:35:40Z</time>
      </trkpt>
      <trkpt lat="46.99105" lon="5.86762">
        <ele>422.8</ele>
        <time>2022-05-10T14:35:44Z</time>
      </trkpt>
      <trkpt lat="46.9911" lon="5.8676">
        <ele>421.4</ele>
        <time>2022-05-10T14:36:00Z</time>
      </trkpt>
      <trkpt lat="46.99117" lon="5.86759">
        <ele>420.4</ele>
        <time>2022-05-10T14:36:03Z</time>
      </trkpt>
      <trkpt lat="46.99123" lon="5.8676">
        <ele>419.7</ele>
        <time>2022-05-10T14:36:06Z</time>
      </trkpt>
      <trkpt lat="46.99128" lon="5.86761">
        <ele>419.2</ele>
        <time>2022-05-10T14:36:09Z</time>
      </trkpt>
      <trkpt lat="46.99133" lon="5.86761">
        <ele>418.9</ele>
        <time>2022-05-10T14:36:13Z</time>
      </trkpt>
      <trkpt lat="46.99136" lon="5.86766">
        <ele>417.8</ele>
        <time>2022-05-10T14:36:24Z</time>
      </trkpt>
      <trkpt lat="46.99141" lon="5.86769">
        <ele>417.1</ele>
        <time>2022-05-10T14:36:29Z</time>
      </trkpt>
      <trkpt lat="46.99145" lon="5.86773">
        <ele>416.5</ele>
        <time>2022-05-10T14:36:34Z</time>
      </trkpt>
      <trkpt lat="46.99149" lon="5.86776">
        <ele>412.2</ele>
        <time>2022-05-10T14:36:46Z</time>
      </trkpt>
      <trkpt lat="46.99154" lon="5.8678">
        <ele>410.7</ele>
        <time>2022-05-10T14:36:50Z</time>
      </trkpt>
      <trkpt lat="46.99158" lon="5.86783">
        <ele>409.6</ele>
        <time>2022-05-10T14:36:53Z</time>
      </trkpt>
      <trkpt lat="46.99163" lon="5.86786">
        <ele>408.7</ele>
        <time>2022-05-10T14:36:56Z</time>
      </trkpt>
      <trkpt lat="46.99167" lon="5.86788">
        <ele>407.9</ele>
        <time>2022-05-10T14:37:01Z</time>
      </trkpt>
      <trkpt lat="46.99171" lon="5.86791">
        <ele>408</ele>
        <time>2022-05-10T14:37:06Z</time>
      </trkpt>
      <trkpt lat="46.99176" lon="5.86794">
        <ele>407.4</ele>
        <time>2022-05-10T14:37:13Z</time>
      </trkpt>
      <trkpt lat="46.99181" lon="5.86797">
        <ele>407</ele>
        <time>2022-05-10T14:37:17Z</time>
      </trkpt>
      <trkpt lat="46.99186" lon="5.86801">
        <ele>406.2</ele>
        <time>2022-05-10T14:37:23Z</time>
      </trkpt>
      <trkpt lat="46.99189" lon="5.86807">
        <ele>405</ele>
        <time>2022-05-10T14:37:30Z</time>
      </trkpt>
      <trkpt lat="46.99194" lon="5.86812">
        <ele>404.9</ele>
        <time>2022-05-10T14:37:34Z</time>
      </trkpt>
      <trkpt lat="46.99198" lon="5.86814">
        <ele>404.6</ele>
        <time>2022-05-10T14:37:37Z</time>
      </trkpt>
      <trkpt lat="46.99203" lon="5.86816">
        <ele>404</ele>
        <time>2022-05-10T14:37:40Z</time>
      </trkpt>
      <trkpt lat="46.99208" lon="5.86816">
        <ele>401.8</ele>
        <time>2022-05-10T14:37:48Z</time>
      </trkpt>
      <trkpt lat="46.99212" lon="5.86812">
        <ele>400.6</ele>
        <time>2022-05-10T14:37:54Z</time>
      </trkpt>
      <trkpt lat="46.99214" lon="5.86805">
        <ele>400.3</ele>
        <time>2022-05-10T14:37:59Z</time>
      </trkpt>
      <trkpt lat="46.99215" lon="5.86798">
        <ele>400.4</ele>
        <time>2022-05-10T14:38:04Z</time>
      </trkpt>
      <trkpt lat="46.99214" lon="5.86791">
        <ele>400.5</ele>
        <time>2022-05-10T14:38:09Z</time>
      </trkpt>
      <trkpt lat="46.99213" lon="5.86783">
        <ele>400.6</ele>
        <time>2022-05-10T14:38:14Z</time>
      </trkpt>
      <trkpt lat="46.99212" lon="5.86776">
        <ele>400.1</ele>
        <time>2022-05-10T14:38:21Z</time>
      </trkpt>
      <trkpt lat="46.99213" lon="5.86768">
        <ele>399.2</ele>
        <time>2022-05-10T14:38:28Z</time>
      </trkpt>
      <trkpt lat="46.99211" lon="5.8676">
        <ele>398</ele>
        <time>2022-05-10T14:38:33Z</time>
      </trkpt>
      <trkpt lat="46.9921" lon="5.86754">
        <ele>396.1</ele>
        <time>2022-05-10T14:38:39Z</time>
      </trkpt>
      <trkpt lat="46.99211" lon="5.86747">
        <ele>395.1</ele>
        <time>2022-05-10T14:38:44Z</time>
      </trkpt>
      <trkpt lat="46.99205" lon="5.86744">
        <ele>394.5</ele>
        <time>2022-05-10T14:38:49Z</time>
      </trkpt>
      <trkpt lat="46.99191" lon="5.86742">
        <ele>394.6</ele>
        <time>2022-05-10T14:38:52Z</time>
      </trkpt>
      <trkpt lat="46.99182" lon="5.86741">
        <ele>394.5</ele>
        <time>2022-05-10T14:38:55Z</time>
      </trkpt>
      <trkpt lat="46.99179" lon="5.86737">
        <ele>394.3</ele>
        <time>2022-05-10T14:39:00Z</time>
      </trkpt>
      <trkpt lat="46.99174" lon="5.86734">
        <ele>394.2</ele>
        <time>2022-05-10T14:39:03Z</time>
      </trkpt>
      <trkpt lat="46.99177" lon="5.86728">
        <ele>393.8</ele>
        <time>2022-05-10T14:39:09Z</time>
      </trkpt>
      <trkpt lat="46.99186" lon="5.86724">
        <ele>393.9</ele>
        <time>2022-05-10T14:39:12Z</time>
      </trkpt>
      <trkpt lat="46.99195" lon="5.86717">
        <ele>393.5</ele>
        <time>2022-05-10T14:39:15Z</time>
      </trkpt>
      <trkpt lat="46.99204" lon="5.86713">
        <ele>392</ele>
        <time>2022-05-10T14:39:18Z</time>
      </trkpt>
      <trkpt lat="46.99211" lon="5.86707">
        <ele>390.2</ele>
        <time>2022-05-10T14:39:26Z</time>
      </trkpt>
      <trkpt lat="46.99214" lon="5.86702">
        <ele>390.1</ele>
        <time>2022-05-10T14:39:29Z</time>
      </trkpt>
      <trkpt lat="46.99217" lon="5.86694">
        <ele>388</ele>
        <time>2022-05-10T14:39:41Z</time>
      </trkpt>
      <trkpt lat="46.9922" lon="5.86688">
        <ele>385.8</ele>
        <time>2022-05-10T14:39:44Z</time>
      </trkpt>
      <trkpt lat="46.99222" lon="5.86678">
        <ele>378.4</ele>
        <time>2022-05-10T14:40:01Z</time>
      </trkpt>
      <trkpt lat="46.99224" lon="5.8667">
        <ele>375.4</ele>
        <time>2022-05-10T14:40:04Z</time>
      </trkpt>
      <trkpt lat="46.99226" lon="5.8666">
        <ele>369.4</ele>
        <time>2022-05-10T14:40:25Z</time>
      </trkpt>
      <trkpt lat="46.99227" lon="5.86653">
        <ele>369.3</ele>
        <time>2022-05-10T14:40:28Z</time>
      </trkpt>
      <trkpt lat="46.99225" lon="5.86645">
        <ele>369.1</ele>
        <time>2022-05-10T14:40:41Z</time>
      </trkpt>
      <trkpt lat="46.99224" lon="5.86639">
        <ele>369.2</ele>
        <time>2022-05-10T14:40:44Z</time>
      </trkpt>
      <trkpt lat="46.99225" lon="5.8663">
        <ele>369.9</ele>
        <time>2022-05-10T14:40:58Z</time>
      </trkpt>
      <trkpt lat="46.99225" lon="5.86623">
        <ele>370.7</ele>
        <time>2022-05-10T14:41:02Z</time>
      </trkpt>
      <trkpt lat="46.99227" lon="5.86615">
        <ele>371.5</ele>
        <time>2022-05-10T14:41:21Z</time>
      </trkpt>
      <trkpt lat="46.99228" lon="5.86608">
        <ele>371.1</ele>
        <time>2022-05-10T14:41:25Z</time>
      </trkpt>
      <trkpt lat="46.99226" lon="5.86601">
        <ele>370.5</ele>
        <time>2022-05-10T14:41:51Z</time>
      </trkpt>
      <trkpt lat="46.99223" lon="5.86594">
        <ele>370.3</ele>
        <time>2022-05-10T14:41:54Z</time>
      </trkpt>
      <trkpt lat="46.99221" lon="5.86588">
        <ele>370</ele>
        <time>2022-05-10T14:41:58Z</time>
      </trkpt>
      <trkpt lat="46.99219" lon="5.86575">
        <ele>369.2</ele>
        <time>2022-05-10T14:42:18Z</time>
      </trkpt>
      <trkpt lat="46.99217" lon="5.86568">
        <ele>368.8</ele>
        <time>2022-05-10T14:42:21Z</time>
      </trkpt>
      <trkpt lat="46.99217" lon="5.86559">
        <ele>368</ele>
        <time>2022-05-10T14:42:35Z</time>
      </trkpt>
      <trkpt lat="46.99218" lon="5.86552">
        <ele>367.9</ele>
        <time>2022-05-10T14:42:38Z</time>
      </trkpt>
      <trkpt lat="46.99216" lon="5.86542">
        <ele>367.4</ele>
        <time>2022-05-10T14:42:50Z</time>
      </trkpt>
      <trkpt lat="46.99214" lon="5.86535">
        <ele>367.2</ele>
        <time>2022-05-10T14:42:53Z</time>
      </trkpt>
      <trkpt lat="46.99213" lon="5.86526">
        <ele>366.4</ele>
        <time>2022-05-10T14:43:04Z</time>
      </trkpt>
      <trkpt lat="46.99212" lon="5.86519">
        <ele>365.9</ele>
        <time>2022-05-10T14:43:08Z</time>
      </trkpt>
      <trkpt lat="46.9921" lon="5.86511">
        <ele>365</ele>
        <time>2022-05-10T14:43:20Z</time>
      </trkpt>
      <trkpt lat="46.99208" lon="5.86504">
        <ele>364.7</ele>
        <time>2022-05-10T14:43:23Z</time>
      </trkpt>
      <trkpt lat="46.99204" lon="5.86495">
        <ele>364.1</ele>
        <time>2022-05-10T14:43:33Z</time>
      </trkpt>
      <trkpt lat="46.99201" lon="5.8649">
        <ele>363.9</ele>
        <time>2022-05-10T14:43:36Z</time>
      </trkpt>
      <trkpt lat="46.99199" lon="5.86481">
        <ele>363.4</ele>
        <time>2022-05-10T14:43:46Z</time>
      </trkpt>
      <trkpt lat="46.99198" lon="5.86474">
        <ele>363.1</ele>
        <time>2022-05-10T14:43:49Z</time>
      </trkpt>
      <trkpt lat="46.99197" lon="5.86465">
        <ele>362.5</ele>
        <time>2022-05-10T14:43:56Z</time>
      </trkpt>
      <trkpt lat="46.99194" lon="5.86456">
        <ele>362.3</ele>
        <time>2022-05-10T14:43:59Z</time>
      </trkpt>
      <trkpt lat="46.99188" lon="5.86448">
        <ele>361.8</ele>
        <time>2022-05-10T14:44:02Z</time>
      </trkpt>
      <trkpt lat="46.99185" lon="5.86442">
        <ele>361.5</ele>
        <time>2022-05-10T14:44:06Z</time>
      </trkpt>
      <trkpt lat="46.99183" lon="5.86434">
        <ele>360.2</ele>
        <time>2022-05-10T14:44:14Z</time>
      </trkpt>
      <trkpt lat="46.99181" lon="5.86427">
        <ele>359.2</ele>
        <time>2022-05-10T14:44:17Z</time>
      </trkpt>
      <trkpt lat="46.99177" lon="5.86419">
        <ele>356.6</ele>
        <time>2022-05-10T14:44:37Z</time>
      </trkpt>
      <trkpt lat="46.99174" lon="5.86413">
        <ele>355.9</ele>
        <time>2022-05-10T14:44:41Z</time>
      </trkpt>
      <trkpt lat="46.9917" lon="5.86407">
        <ele>354.9</ele>
        <time>2022-05-10T14:44:48Z</time>
      </trkpt>
      <trkpt lat="46.99166" lon="5.86401">
        <ele>354.3</ele>
        <time>2022-05-10T14:44:51Z</time>
      </trkpt>
      <trkpt lat="46.99162" lon="5.86393">
        <ele>353.3</ele>
        <time>2022-05-10T14:44:58Z</time>
      </trkpt>
      <trkpt lat="46.99158" lon="5.86387">
        <ele>352.8</ele>
        <time>2022-05-10T14:45:01Z</time>
      </trkpt>
      <trkpt lat="46.99155" lon="5.86378">
        <ele>352</ele>
        <time>2022-05-10T14:45:11Z</time>
      </trkpt>
      <trkpt lat="46.99152" lon="5.86368">
        <ele>351.9</ele>
        <time>2022-05-10T14:45:14Z</time>
      </trkpt>
      <trkpt lat="46.99151" lon="5.86361">
        <ele>351.6</ele>
        <time>2022-05-10T14:45:18Z</time>
      </trkpt>
      <trkpt lat="46.9915" lon="5.86353">
        <ele>351.4</ele>
        <time>2022-05-10T14:45:24Z</time>
      </trkpt>
      <trkpt lat="46.99149" lon="5.86341">
        <ele>351.1</ele>
        <time>2022-05-10T14:45:27Z</time>
      </trkpt>
      <trkpt lat="46.99148" lon="5.8633">
        <ele>350.1</ele>
        <time>2022-05-10T14:45:35Z</time>
      </trkpt>
      <trkpt lat="46.99147" lon="5.86323">
        <ele>349</ele>
        <time>2022-05-10T14:45:40Z</time>
      </trkpt>
      <trkpt lat="46.99149" lon="5.86317">
        <ele>347.1</ele>
        <time>2022-05-10T14:45:51Z</time>
      </trkpt>
      <trkpt lat="46.9915" lon="5.8631">
        <ele>346.3</ele>
        <time>2022-05-10T14:45:55Z</time>
      </trkpt>
      <trkpt lat="46.99151" lon="5.86302">
        <ele>344.1</ele>
        <time>2022-05-10T14:46:21Z</time>
      </trkpt>
      <trkpt lat="46.99154" lon="5.86291">
        <ele>340.9</ele>
        <time>2022-05-10T14:47:12Z</time>
      </trkpt>
      <trkpt lat="46.99156" lon="5.86284">
        <ele>340.5</ele>
        <time>2022-05-10T14:47:15Z</time>
      </trkpt>
      <trkpt lat="46.99158" lon="5.86275">
        <ele>339.6</ele>
        <time>2022-05-10T14:47:27Z</time>
      </trkpt>
      <trkpt lat="46.9916" lon="5.86268">
        <ele>339.3</ele>
        <time>2022-05-10T14:47:31Z</time>
      </trkpt>
      <trkpt lat="46.99162" lon="5.86261">
        <ele>338.5</ele>
        <time>2022-05-10T14:47:49Z</time>
      </trkpt>
      <trkpt lat="46.99164" lon="5.86254">
        <ele>338.5</ele>
        <time>2022-05-10T14:47:53Z</time>
      </trkpt>
      <trkpt lat="46.99168" lon="5.86249">
        <ele>338.2</ele>
        <time>2022-05-10T14:48:19Z</time>
      </trkpt>
      <trkpt lat="46.99171" lon="5.86243">
        <ele>338</ele>
        <time>2022-05-10T14:48:23Z</time>
      </trkpt>
      <trkpt lat="46.9917" lon="5.86235">
        <ele>337.7</ele>
        <time>2022-05-10T14:48:36Z</time>
      </trkpt>
      <trkpt lat="46.9917" lon="5.86227">
        <ele>337.7</ele>
        <time>2022-05-10T14:48:39Z</time>
      </trkpt>
      <trkpt lat="46.99174" lon="5.86221">
        <ele>336.2</ele>
        <time>2022-05-10T14:49:13Z</time>
      </trkpt>
      <trkpt lat="46.99179" lon="5.86218">
        <ele>334.5</ele>
        <time>2022-05-10T14:49:17Z</time>
      </trkpt>
      <trkpt lat="46.99184" lon="5.86214">
        <ele>331.9</ele>
        <time>2022-05-10T14:49:31Z</time>
      </trkpt>
      <trkpt lat="46.99189" lon="5.86211">
        <ele>331.3</ele>
        <time>2022-05-10T14:49:34Z</time>
      </trkpt>
      <trkpt lat="46.99196" lon="5.86207">
        <ele>330.1</ele>
        <time>2022-05-10T14:49:44Z</time>
      </trkpt>
      <trkpt lat="46.992" lon="5.86204">
        <ele>329.9</ele>
        <time>2022-05-10T14:49:47Z</time>
      </trkpt>
      <trkpt lat="46.99205" lon="5.86198">
        <ele>328.9</ele>
        <time>2022-05-10T14:50:01Z</time>
      </trkpt>
      <trkpt lat="46.99209" lon="5.86194">
        <ele>328.2</ele>
        <time>2022-05-10T14:50:04Z</time>
      </trkpt>
      <trkpt lat="46.99215" lon="5.8619">
        <ele>325.8</ele>
        <time>2022-05-10T14:50:18Z</time>
      </trkpt>
      <trkpt lat="46.99219" lon="5.86185">
        <ele>324.7</ele>
        <time>2022-05-10T14:50:21Z</time>
      </trkpt>
      <trkpt lat="46.99226" lon="5.86183">
        <ele>322.1</ele>
        <time>2022-05-10T14:50:34Z</time>
      </trkpt>
      <trkpt lat="46.9923" lon="5.86181">
        <ele>321.3</ele>
        <time>2022-05-10T14:50:37Z</time>
      </trkpt>
      <trkpt lat="46.99235" lon="5.86179">
        <ele>320.2</ele>
        <time>2022-05-10T14:50:41Z</time>
      </trkpt>
      <trkpt lat="46.9924" lon="5.86177">
        <ele>319.2</ele>
        <time>2022-05-10T14:50:45Z</time>
      </trkpt>
      <trkpt lat="46.99247" lon="5.86175">
        <ele>317.1</ele>
        <time>2022-05-10T14:50:55Z</time>
      </trkpt>
      <trkpt lat="46.99252" lon="5.86172">
        <ele>316.2</ele>
        <time>2022-05-10T14:50:58Z</time>
      </trkpt>
      <trkpt lat="46.99259" lon="5.8617">
        <ele>313.6</ele>
        <time>2022-05-10T14:51:14Z</time>
      </trkpt>
      <trkpt lat="46.99264" lon="5.86168">
        <ele>312.8</ele>
        <time>2022-05-10T14:51:17Z</time>
      </trkpt>
      <trkpt lat="46.9927" lon="5.86165">
        <ele>311.1</ele>
        <time>2022-05-10T14:51:25Z</time>
      </trkpt>
      <trkpt lat="46.99275" lon="5.86162">
        <ele>310.4</ele>
        <time>2022-05-10T14:51:28Z</time>
      </trkpt>
      <trkpt lat="46.99282" lon="5.86159">
        <ele>308.7</ele>
        <time>2022-05-10T14:51:40Z</time>
      </trkpt>
      <trkpt lat="46.99288" lon="5.86157">
        <ele>308</ele>
        <time>2022-05-10T14:51:43Z</time>
      </trkpt>
      <trkpt lat="46.99295" lon="5.86154">
        <ele>306.3</ele>
        <time>2022-05-10T14:51:53Z</time>
      </trkpt>
      <trkpt lat="46.99301" lon="5.86152">
        <ele>305.6</ele>
        <time>2022-05-10T14:51:56Z</time>
      </trkpt>
      <trkpt lat="46.99306" lon="5.8615">
        <ele>304.4</ele>
        <time>2022-05-10T14:52:03Z</time>
      </trkpt>
      <trkpt lat="46.99311" lon="5.86148">
        <ele>303.5</ele>
        <time>2022-05-10T14:52:08Z</time>
      </trkpt>
      <trkpt lat="46.99316" lon="5.86145">
        <ele>302.8</ele>
        <time>2022-05-10T14:52:13Z</time>
      </trkpt>
      <trkpt lat="46.99321" lon="5.86143">
        <ele>302</ele>
        <time>2022-05-10T14:52:21Z</time>
      </trkpt>
      <trkpt lat="46.99326" lon="5.86142">
        <ele>301.4</ele>
        <time>2022-05-10T14:52:25Z</time>
      </trkpt>
      <trkpt lat="46.99331" lon="5.86141">
        <ele>300.3</ele>
        <time>2022-05-10T14:52:38Z</time>
      </trkpt>
      <trkpt lat="46.99337" lon="5.86141">
        <ele>299.9</ele>
        <time>2022-05-10T14:52:41Z</time>
      </trkpt>
      <trkpt lat="46.99344" lon="5.86142">
        <ele>298.7</ele>
        <time>2022-05-10T14:52:55Z</time>
      </trkpt>
      <trkpt lat="46.9935" lon="5.86143">
        <ele>298.2</ele>
        <time>2022-05-10T14:52:58Z</time>
      </trkpt>
      <trkpt lat="46.99356" lon="5.86145">
        <ele>296.8</ele>
        <time>2022-05-10T14:53:09Z</time>
      </trkpt>
      <trkpt lat="46.99361" lon="5.86146">
        <ele>296.3</ele>
        <time>2022-05-10T14:53:12Z</time>
      </trkpt>
      <trkpt lat="46.99368" lon="5.86145">
        <ele>294.7</ele>
        <time>2022-05-10T14:53:23Z</time>
      </trkpt>
      <trkpt lat="46.99373" lon="5.86143">
        <ele>294</ele>
        <time>2022-05-10T14:53:26Z</time>
      </trkpt>
      <trkpt lat="46.99378" lon="5.86137">
        <ele>292.4</ele>
        <time>2022-05-10T14:53:42Z</time>
      </trkpt>
      <trkpt lat="46.99382" lon="5.86131">
        <ele>292.1</ele>
        <time>2022-05-10T14:53:45Z</time>
      </trkpt>
      <trkpt lat="46.99385" lon="5.86122">
        <ele>291.2</ele>
        <time>2022-05-10T14:53:56Z</time>
      </trkpt>
      <trkpt lat="46.99388" lon="5.86115">
        <ele>290.9</ele>
        <time>2022-05-10T14:53:59Z</time>
      </trkpt>
      <trkpt lat="46.99391" lon="5.86106">
        <ele>290.4</ele>
        <time>2022-05-10T14:54:08Z</time>
      </trkpt>
      <trkpt lat="46.99393" lon="5.86098">
        <ele>290.3</ele>
        <time>2022-05-10T14:54:11Z</time>
      </trkpt>
      <trkpt lat="46.99394" lon="5.86086">
        <ele>290.3</ele>
        <time>2022-05-10T14:54:22Z</time>
      </trkpt>
      <trkpt lat="46.99394" lon="5.86078">
        <ele>290.3</ele>
        <time>2022-05-10T14:54:25Z</time>
      </trkpt>
      <trkpt lat="46.99395" lon="5.8607">
        <ele>290.5</ele>
        <time>2022-05-10T14:54:30Z</time>
      </trkpt>
      <trkpt lat="46.99395" lon="5.86062">
        <ele>291</ele>
        <time>2022-05-10T14:54:34Z</time>
      </trkpt>
      <trkpt lat="46.99396" lon="5.86054">
        <ele>291.5</ele>
        <time>2022-05-10T14:54:45Z</time>
      </trkpt>
      <trkpt lat="46.99397" lon="5.86048">
        <ele>291.4</ele>
        <time>2022-05-10T14:54:48Z</time>
      </trkpt>
      <trkpt lat="46.99399" lon="5.8604">
        <ele>291.4</ele>
        <time>2022-05-10T14:54:54Z</time>
      </trkpt>
      <trkpt lat="46.99401" lon="5.86034">
        <ele>291.4</ele>
        <time>2022-05-10T14:55:02Z</time>
      </trkpt>
      <trkpt lat="46.99403" lon="5.86028">
        <ele>291.5</ele>
        <time>2022-05-10T14:55:06Z</time>
      </trkpt>
      <trkpt lat="46.99406" lon="5.86022">
        <ele>291.7</ele>
        <time>2022-05-10T14:55:12Z</time>
      </trkpt>
      <trkpt lat="46.99408" lon="5.86016">
        <ele>291.9</ele>
        <time>2022-05-10T14:55:16Z</time>
      </trkpt>
      <trkpt lat="46.9941" lon="5.86009">
        <ele>292.2</ele>
        <time>2022-05-10T14:55:20Z</time>
      </trkpt>
      <trkpt lat="46.99413" lon="5.86002">
        <ele>292.1</ele>
        <time>2022-05-10T14:55:25Z</time>
      </trkpt>
      <trkpt lat="46.99416" lon="5.85996">
        <ele>292</ele>
        <time>2022-05-10T14:55:30Z</time>
      </trkpt>
      <trkpt lat="46.99419" lon="5.85991">
        <ele>291.7</ele>
        <time>2022-05-10T14:55:35Z</time>
      </trkpt>
      <trkpt lat="46.99423" lon="5.85986">
        <ele>291.6</ele>
        <time>2022-05-10T14:55:40Z</time>
      </trkpt>
      <trkpt lat="46.99426" lon="5.85981">
        <ele>291.5</ele>
        <time>2022-05-10T14:55:44Z</time>
      </trkpt>
      <trkpt lat="46.9943" lon="5.85976">
        <ele>291.7</ele>
        <time>2022-05-10T14:55:49Z</time>
      </trkpt>
      <trkpt lat="46.99433" lon="5.85971">
        <ele>291.4</ele>
        <time>2022-05-10T14:55:54Z</time>
      </trkpt>
      <trkpt lat="46.99437" lon="5.85967">
        <ele>290.6</ele>
        <time>2022-05-10T14:55:59Z</time>
      </trkpt>
      <trkpt lat="46.99441" lon="5.85963">
        <ele>290.1</ele>
        <time>2022-05-10T14:56:04Z</time>
      </trkpt>
      <trkpt lat="46.99447" lon="5.85958">
        <ele>289.8</ele>
        <time>2022-05-10T14:56:12Z</time>
      </trkpt>
      <trkpt lat="46.99451" lon="5.85954">
        <ele>289.6</ele>
        <time>2022-05-10T14:56:16Z</time>
      </trkpt>
      <trkpt lat="46.99455" lon="5.8595">
        <ele>289.4</ele>
        <time>2022-05-10T14:56:21Z</time>
      </trkpt>
      <trkpt lat="46.99461" lon="5.85947">
        <ele>288.9</ele>
        <time>2022-05-10T14:56:26Z</time>
      </trkpt>
      <trkpt lat="46.99465" lon="5.85944">
        <ele>288.8</ele>
        <time>2022-05-10T14:56:30Z</time>
      </trkpt>
      <trkpt lat="46.99469" lon="5.8594">
        <ele>288.4</ele>
        <time>2022-05-10T14:56:35Z</time>
      </trkpt>
      <trkpt lat="46.99474" lon="5.85936">
        <ele>288</ele>
        <time>2022-05-10T14:56:40Z</time>
      </trkpt>
      <trkpt lat="46.99478" lon="5.85932">
        <ele>287.5</ele>
        <time>2022-05-10T14:56:44Z</time>
      </trkpt>
      <trkpt lat="46.99482" lon="5.85929">
        <ele>287.1</ele>
        <time>2022-05-10T14:56:48Z</time>
      </trkpt>
      <trkpt lat="46.99486" lon="5.85926">
        <ele>286.6</ele>
        <time>2022-05-10T14:56:54Z</time>
      </trkpt>
      <trkpt lat="46.99494" lon="5.85921">
        <ele>285.9</ele>
        <time>2022-05-10T14:57:07Z</time>
      </trkpt>
      <trkpt lat="46.995" lon="5.85919">
        <ele>285.5</ele>
        <time>2022-05-10T14:57:10Z</time>
      </trkpt>
      <trkpt lat="46.99509" lon="5.85919">
        <ele>284.2</ele>
        <time>2022-05-10T14:57:24Z</time>
      </trkpt>
      <trkpt lat="46.99514" lon="5.85919">
        <ele>283.9</ele>
        <time>2022-05-10T14:57:27Z</time>
      </trkpt>
      <trkpt lat="46.99519" lon="5.85921">
        <ele>283.3</ele>
        <time>2022-05-10T14:57:30Z</time>
      </trkpt>
      <trkpt lat="46.99523" lon="5.85924">
        <ele>282.7</ele>
        <time>2022-05-10T14:57:37Z</time>
      </trkpt>
      <trkpt lat="46.99528" lon="5.85925">
        <ele>281.7</ele>
        <time>2022-05-10T14:57:44Z</time>
      </trkpt>
      <trkpt lat="46.99534" lon="5.85925">
        <ele>281.5</ele>
        <time>2022-05-10T14:57:47Z</time>
      </trkpt>
      <trkpt lat="46.99539" lon="5.85925">
        <ele>281.3</ele>
        <time>2022-05-10T14:57:51Z</time>
      </trkpt>
      <trkpt lat="46.99544" lon="5.85924">
        <ele>280.9</ele>
        <time>2022-05-10T14:57:58Z</time>
      </trkpt>
      <trkpt lat="46.99554" lon="5.85922">
        <ele>279.8</ele>
        <time>2022-05-10T14:58:01Z</time>
      </trkpt>
      <trkpt lat="46.99559" lon="5.85921">
        <ele>279.4</ele>
        <time>2022-05-10T14:58:04Z</time>
      </trkpt>
      <trkpt lat="46.99563" lon="5.85921">
        <ele>279.7</ele>
        <time>2022-05-10T14:58:09Z</time>
      </trkpt>
      <trkpt lat="46.99568" lon="5.85918">
        <ele>280.9</ele>
        <time>2022-05-10T14:58:15Z</time>
      </trkpt>
      <trkpt lat="46.99572" lon="5.85915">
        <ele>282.5</ele>
        <time>2022-05-10T14:58:23Z</time>
      </trkpt>
      <trkpt lat="46.99576" lon="5.85909">
        <ele>284.3</ele>
        <time>2022-05-10T14:58:34Z</time>
      </trkpt>
      <trkpt lat="46.9958" lon="5.85905">
        <ele>284.9</ele>
        <time>2022-05-10T14:58:37Z</time>
      </trkpt>
      <trkpt lat="46.99582" lon="5.85897">
        <ele>286.3</ele>
        <time>2022-05-10T14:58:44Z</time>
      </trkpt>
      <trkpt lat="46.99586" lon="5.85889">
        <ele>286.5</ele>
        <time>2022-05-10T14:58:50Z</time>
      </trkpt>
      <trkpt lat="46.99589" lon="5.85883">
        <ele>286.6</ele>
        <time>2022-05-10T14:58:53Z</time>
      </trkpt>
      <trkpt lat="46.99592" lon="5.85878">
        <ele>286.7</ele>
        <time>2022-05-10T14:58:56Z</time>
      </trkpt>
      <trkpt lat="46.99595" lon="5.85872">
        <ele>286.7</ele>
        <time>2022-05-10T14:59:00Z</time>
      </trkpt>
      <trkpt lat="46.99598" lon="5.85866">
        <ele>286.9</ele>
        <time>2022-05-10T14:59:04Z</time>
      </trkpt>
      <trkpt lat="46.99602" lon="5.85861">
        <ele>287</ele>
        <time>2022-05-10T14:59:08Z</time>
      </trkpt>
      <trkpt lat="46.99605" lon="5.85856">
        <ele>286.9</ele>
        <time>2022-05-10T14:59:13Z</time>
      </trkpt>
      <trkpt lat="46.99609" lon="5.8585">
        <ele>286.7</ele>
        <time>2022-05-10T14:59:24Z</time>
      </trkpt>
      <trkpt lat="46.99613" lon="5.85843">
        <ele>286.8</ele>
        <time>2022-05-10T14:59:27Z</time>
      </trkpt>
      <trkpt lat="46.99618" lon="5.85836">
        <ele>286.4</ele>
        <time>2022-05-10T14:59:36Z</time>
      </trkpt>
      <trkpt lat="46.99624" lon="5.8583">
        <ele>285.8</ele>
        <time>2022-05-10T14:59:39Z</time>
      </trkpt>
      <trkpt lat="46.99628" lon="5.85826">
        <ele>285</ele>
        <time>2022-05-10T14:59:43Z</time>
      </trkpt>
      <trkpt lat="46.99633" lon="5.85823">
        <ele>283.6</ele>
        <time>2022-05-10T14:59:49Z</time>
      </trkpt>
      <trkpt lat="46.99637" lon="5.8582">
        <ele>282.6</ele>
        <time>2022-05-10T14:59:52Z</time>
      </trkpt>
      <trkpt lat="46.99641" lon="5.85817">
        <ele>281.3</ele>
        <time>2022-05-10T14:59:57Z</time>
      </trkpt>
      <trkpt lat="46.99645" lon="5.85812">
        <ele>280.3</ele>
        <time>2022-05-10T15:00:04Z</time>
      </trkpt>
      <trkpt lat="46.99649" lon="5.85807">
        <ele>279.5</ele>
        <time>2022-05-10T15:00:10Z</time>
      </trkpt>
      <trkpt lat="46.99653" lon="5.85803">
        <ele>279.1</ele>
        <time>2022-05-10T15:00:14Z</time>
      </trkpt>
      <trkpt lat="46.99657" lon="5.85798">
        <ele>278.8</ele>
        <time>2022-05-10T15:00:18Z</time>
      </trkpt>
      <trkpt lat="46.99662" lon="5.85794">
        <ele>278.4</ele>
        <time>2022-05-10T15:00:22Z</time>
      </trkpt>
      <trkpt lat="46.99665" lon="5.85788">
        <ele>277.3</ele>
        <time>2022-05-10T15:00:27Z</time>
      </trkpt>
      <trkpt lat="46.9967" lon="5.85785">
        <ele>274.9</ele>
        <time>2022-05-10T15:00:38Z</time>
      </trkpt>
      <trkpt lat="46.99674" lon="5.85782">
        <ele>273.8</ele>
        <time>2022-05-10T15:00:43Z</time>
      </trkpt>
      <trkpt lat="46.99678" lon="5.85778">
        <ele>272.7</ele>
        <time>2022-05-10T15:00:50Z</time>
      </trkpt>
      <trkpt lat="46.99682" lon="5.85774">
        <ele>272.2</ele>
        <time>2022-05-10T15:00:54Z</time>
      </trkpt>
      <trkpt lat="46.99686" lon="5.85767">
        <ele>271.8</ele>
        <time>2022-05-10T15:01:08Z</time>
      </trkpt>
      <trkpt lat="46.99689" lon="5.8576">
        <ele>272</ele>
        <time>2022-05-10T15:01:11Z</time>
      </trkpt>
      <trkpt lat="46.99692" lon="5.85751">
        <ele>272.2</ele>
        <time>2022-05-10T15:01:23Z</time>
      </trkpt>
      <trkpt lat="46.99693" lon="5.85742">
        <ele>272.2</ele>
        <time>2022-05-10T15:01:26Z</time>
      </trkpt>
      <trkpt lat="46.99693" lon="5.85728">
        <ele>272.8</ele>
        <time>2022-05-10T15:01:39Z</time>
      </trkpt>
      <trkpt lat="46.99692" lon="5.85722">
        <ele>273</ele>
        <time>2022-05-10T15:01:42Z</time>
      </trkpt>
      <trkpt lat="46.99687" lon="5.85717">
        <ele>272.9</ele>
        <time>2022-05-10T15:01:53Z</time>
      </trkpt>
      <trkpt lat="46.99681" lon="5.85715">
        <ele>272.6</ele>
        <time>2022-05-10T15:01:56Z</time>
      </trkpt>
      <trkpt lat="46.99674" lon="5.85713">
        <ele>271.9</ele>
        <time>2022-05-10T15:02:05Z</time>
      </trkpt>
      <trkpt lat="46.99669" lon="5.85712">
        <ele>271.2</ele>
        <time>2022-05-10T15:02:09Z</time>
      </trkpt>
      <trkpt lat="46.99664" lon="5.85709">
        <ele>269.6</ele>
        <time>2022-05-10T15:02:20Z</time>
      </trkpt>
      <trkpt lat="46.99659" lon="5.85707">
        <ele>268.6</ele>
        <time>2022-05-10T15:02:23Z</time>
      </trkpt>
      <trkpt lat="46.99652" lon="5.8571">
        <ele>266.1</ele>
        <time>2022-05-10T15:02:35Z</time>
      </trkpt>
      <trkpt lat="46.99648" lon="5.85713">
        <ele>265.4</ele>
        <time>2022-05-10T15:02:38Z</time>
      </trkpt>
      <trkpt lat="46.99641" lon="5.85715">
        <ele>264.2</ele>
        <time>2022-05-10T15:02:47Z</time>
      </trkpt>
      <trkpt lat="46.99636" lon="5.85714">
        <ele>263.9</ele>
        <time>2022-05-10T15:02:50Z</time>
      </trkpt>
      <trkpt lat="46.99629" lon="5.85712">
        <ele>263.2</ele>
        <time>2022-05-10T15:03:00Z</time>
      </trkpt>
      <trkpt lat="46.99624" lon="5.8571">
        <ele>262.7</ele>
        <time>2022-05-10T15:03:04Z</time>
      </trkpt>
      <trkpt lat="46.99619" lon="5.85705">
        <ele>262</ele>
        <time>2022-05-10T15:03:11Z</time>
      </trkpt>
      <trkpt lat="46.99614" lon="5.85698">
        <ele>261.9</ele>
        <time>2022-05-10T15:03:14Z</time>
      </trkpt>
      <trkpt lat="46.99611" lon="5.85688">
        <ele>261.9</ele>
        <time>2022-05-10T15:03:23Z</time>
      </trkpt>
      <trkpt lat="46.9961" lon="5.85679">
        <ele>262.4</ele>
        <time>2022-05-10T15:03:26Z</time>
      </trkpt>
      <trkpt lat="46.99605" lon="5.85673">
        <ele>264.2</ele>
        <time>2022-05-10T15:03:44Z</time>
      </trkpt>
      <trkpt lat="46.99601" lon="5.8567">
        <ele>265.6</ele>
        <time>2022-05-10T15:03:48Z</time>
      </trkpt>
      <trkpt lat="46.99602" lon="5.85662">
        <ele>268</ele>
        <time>2022-05-10T15:04:47Z</time>
      </trkpt>
      <trkpt lat="46.99605" lon="5.85656">
        <ele>268.7</ele>
        <time>2022-05-10T15:04:51Z</time>
      </trkpt>
      <trkpt lat="46.99604" lon="5.85664">
        <ele>272.2</ele>
        <time>2022-05-10T15:08:28Z</time>
      </trkpt>
      <trkpt lat="46.99605" lon="5.85671">
        <ele>272.7</ele>
        <time>2022-05-10T15:08:32Z</time>
      </trkpt>
      <trkpt lat="46.99602" lon="5.85666">
        <ele>275.6</ele>
        <time>2022-05-10T15:08:59Z</time>
      </trkpt>
      <trkpt lat="46.99602" lon="5.85658">
        <ele>275.5</ele>
        <time>2022-05-10T15:09:03Z</time>
      </trkpt>
    </trkseg>
  </trk>
</gpx>